# Wetter Temperatur Luftdruck Luftfeuchtigkeit Sichtweite Windgeschwindigkeit Windrichtung Zeit
1 Clear 24 1015 69 10000 4.1 130 07:38 14.07.2020
2 Clear 24 1015 69 10000 4.1 130 07:18 14.07.2020
3 Clear 24 1015 64 10000 5.1 110 06:47 14.07.2020
4 Clear 24 1015 64 10000 5.1 110 06:24 14.07.2020
5 Clear 25 1015 69 10000 3.6 100 05:42 14.07.2020
6 Clear 24 1015 73 10000 4.1 90 04:38 14.07.2020
7 Clear 25 1013 57 10000 10.3 70 03:52 14.07.2020
8 Clear 25 1013 61 10000 9.8 80 03:18 14.07.2020
9 Clear 25 1013 57 10000 9.8 70 02:26 14.07.2020
10 Clear 24 1017 83 10000 3.1 80 01:38 14.07.2020
11 Clear 24 1014 61 10000 5.1 60 00:56 14.07.2020
12 Clear 24 1017 83 10000 3.6 60 00:37 14.07.2020
13 Clear 24 1017 83 10000 3.6 60 00:19 14.07.2020
14 Clear 24 1014 61 10000 5.1 70 00:19 14.07.2020
15 Clear 24 1017 83 10000 3.6 70 23:38 13.07.2020
16 Clear 24 1014 69 10000 6.7 40 23:19 13.07.2020
17 Clear 24 1016 78 10000 5.1 80 22:43 13.07.2020
18 Clear 24 1014 69 10000 7.7 40 22:22 13.07.2020
19 Haze 25 1016 73 9000 4.6 60 21:59 13.07.2020
20 Haze 26 1016 73 9000 4.6 60 21:41 13.07.2020
21 Haze 26 1016 73 9000 4.6 60 21:21 13.07.2020
22 Haze 26 1016 73 9000 4.6 60 21:21 13.07.2020
23 Haze 27 1016 65 9000 4.1 70 20:58 13.07.2020
24 Haze 26 1016 65 9000 4.1 70 20:40 13.07.2020
25 Haze 27 1015 65 9000 4.6 70 20:21 13.07.2020
26 Haze 27 1015 69 9000 5.1 10 19:57 13.07.2020
27 Haze 27 1015 69 9000 5.1 10 19:38 13.07.2020
28 Haze 27 1015 69 9000 4.1 90 19:18 13.07.2020
29 Haze 28 1016 65 9000 4.1 80 18:42 13.07.2020
30 Clouds 27 1016 69 10000 5.1 70 18:24 13.07.2020
31 Clouds 27 1016 69 10000 5.1 100 17:58 13.07.2020
32 Clouds 27 1016 69 10000 5.1 100 17:58 13.07.2020
33 Clouds 28 1016 69 10000 5.1 100 17:39 13.07.2020
34 Clouds 28 1016 74 10000 4.6 100 17:21 13.07.2020
35 Clouds 28 1016 69 10000 4.1 90 16:56 13.07.2020
36 Clouds 28 1016 69 10000 4.1 90 16:37 13.07.2020
37 Clouds 27 1017 74 10000 4.6 90 16:19 13.07.2020
38 Clouds 28 1017 69 10000 4.6 100 15:56 13.07.2020
39 Clouds 27 1017 69 10000 4.6 100 15:37 13.07.2020
40 Clear 27 1015 61 10000 10.3 40 15:18 13.07.2020
41 Clouds 28 1017 61 10000 4.6 100 14:56 13.07.2020
42 Clouds 28 1017 61 10000 4.6 100 14:37 13.07.2020
43 Clear 28 1016 58 10000 5.7 40 14:19 13.07.2020
44 Clouds 26 1017 65 10000 4.6 100 13:42 13.07.2020
45 Clouds 26 1017 65 10000 4.6 100 13:21 13.07.2020
46 Clouds 26 1016 73 8000 3.1 240 12:55 13.07.2020
47 Clouds 25 1017 65 10000 4.1 100 12:36 13.07.2020
48 Clouds 25 1017 65 10000 4.1 100 12:18 13.07.2020
49 Clouds 24 1017 73 10000 3.1 90 11:41 13.07.2020
50 Clouds 24 1017 73 10000 3.1 90 11:22 13.07.2020
51 Clouds 24 1017 69 10000 4.1 70 10:44 13.07.2020
52 Clouds 24 1017 73 10000 4.1 60 10:21 13.07.2020
53 Clouds 23 1017 78 10000 4.1 50 09:57 13.07.2020
54 Clouds 23 1017 78 10000 4.1 50 09:38 13.07.2020
55 Fog 22 1016 100 900 2.6 270 09:20 13.07.2020
56 Clouds 22 1017 88 10000 3.1 60 08:47 13.07.2020
57 Clouds 22 1017 88 10000 3.1 60 08:28 13.07.2020
58 Clouds 23 1016 88 10000 4.1 60 07:25 13.07.2020
59 Clouds 23 1014 78 10000 5.1 80 06:53 13.07.2020
60 Clouds 23 1016 88 10000 7.2 60 06:35 13.07.2020
61 Clouds 23 1016 88 9000 5.7 70 05:35 13.07.2020
62 Clouds 24 1015 73 10000 6.47 74 03:31 13.07.2020
63 Clouds 24 1017 88 9000 7.7 100 01:46 13.07.2020
64 Clouds 24 1015 73 10000 6.2 90 01:23 13.07.2020
65 Clouds 24 1017 88 9000 5.7 60 00:45 13.07.2020
66 Clouds 24 1017 88 9000 5.7 60 00:24 13.07.2020
67 Clouds 24 1016 88 9000 5.1 60 23:44 12.07.2020
68 Clouds 24 1014 69 10000 6.2 50 23:23 12.07.2020
69 Clouds 24 1013 69 10000 7.7 40 22:58 12.07.2020
70 Clouds 24 1015 88 9000 4.1 60 22:37 12.07.2020
71 Clouds 25 1013 65 10000 7.7 40 22:19 12.07.2020
72 Clouds 25 1012 61 10000 6.2 40 21:57 12.07.2020
73 Clouds 25 1014 88 10000 4.6 90 21:39 12.07.2020
74 Clouds 26 1012 61 10000 5.7 40 21:19 12.07.2020
75 Clouds 26 1012 61 10000 5.7 40 21:19 12.07.2020
76 Clouds 26 1012 61 8000 6.7 40 20:57 12.07.2020
77 Haze 26 1014 83 7000 3.1 90 20:37 12.07.2020
78 Clouds 27 1012 61 8000 8.2 40 20:19 12.07.2020
79 Haze 27 1014 78 7000 4.6 100 19:40 12.07.2020
80 Haze 28 1014 74 7000 5.1 100 19:21 12.07.2020
81 Haze 28 1014 74 7000 5.1 100 18:57 12.07.2020
82 Haze 28 1014 74 7000 5.1 100 18:38 12.07.2020
83 Haze 28 1014 74 8000 5.1 100 18:18 12.07.2020
84 Haze 28 1014 74 8000 4.6 90 17:39 12.07.2020
85 Clouds 28 1012 55 10000 8.2 30 17:21 12.07.2020
86 Clouds 28 1012 55 10000 8.2 40 16:48 12.07.2020
87 Haze 28 1015 74 9000 5.1 80 16:25 12.07.2020
88 Clouds 29 1016 74 10000 4.6 80 15:58 12.07.2020
89 Clouds 29 1016 74 10000 4.6 80 15:40 12.07.2020
90 Clouds 29 1013 49 10000 8.7 80 15:20 12.07.2020
91 Clouds 28 1016 73 10000 5.7 90 14:41 12.07.2020
92 Clouds 28 1016 73 10000 5.7 90 14:22 12.07.2020
93 Clouds 28 1016 73 10000 5.7 90 13:40 12.07.2020
94 Clouds 28 1016 73 10000 7.2 60 13:21 12.07.2020
95 Clouds 27 1016 78 10000 5.7 60 12:57 12.07.2020
96 Clouds 27 1016 78 10000 5.7 60 12:39 12.07.2020
97 Clouds 27 1012 55 10000 9.8 90 12:19 12.07.2020
98 Clouds 27 1016 78 10000 5.1 60 11:55 12.07.2020
99 Clouds 26 1016 78 10000 5.1 60 11:36 12.07.2020
100 Clouds 25 1016 83 10000 3.1 70 11:18 12.07.2020
101 Clouds 25 1016 78 10000 3.6 80 10:41 12.07.2020
102 Haze 24 1015 83 9000 5.7 60 10:19 12.07.2020
103 Haze 24 1015 83 9000 5.7 60 10:19 12.07.2020
104 Clouds 23 1015 83 10000 5.7 50 09:43 12.07.2020
105 Clouds 24 1013 78 10000 3.1 110 09:21 12.07.2020
106 Clouds 24 1014 83 10000 7.2 50 08:55 12.07.2020
107 Clouds 24 1014 83 10000 7.2 50 08:37 12.07.2020
108 Clouds 24 1014 83 10000 7.2 50 08:18 12.07.2020
109 Clouds 23 1014 83 10000 7.2 100 07:46 12.07.2020
110 Clouds 24 1014 83 10000 7.2 100 07:27 12.07.2020
111 Clouds 24 1014 83 10000 6.7 90 06:53 12.07.2020
112 Clouds 24 1014 83 10000 6.7 90 06:22 12.07.2020
113 Clouds 24 1014 83 9000 7.2 90 05:57 12.07.2020
114 Clouds 24 1015 88 10000 9.8 60 04:57 12.07.2020
115 Clouds 25 1010 69 10000 8.2 90 04:28 12.07.2020
116 Clouds 24 1015 83 10000 8.2 50 03:40 12.07.2020
117 Clouds 25 1011 65 10000 7.2 70 03:19 12.07.2020
118 Clouds 25 1014 83 10000 10.8 100 01:50 12.07.2020
119 Clouds 26 1010 51 10000 8.2 80 00:54 12.07.2020
120 Clouds 26 1015 78 10000 8.7 90 00:24 12.07.2020
121 Clouds 26 1013 83 10000 13.9 100 23:58 11.07.2020
122 Clouds 25 1013 83 10000 13.9 100 23:39 11.07.2020
123 Clouds 25 1009 57 10000 12.9 80 23:20 11.07.2020
124 Clouds 25 1009 57 10000 12.9 80 22:55 11.07.2020
125 Clouds 25 1014 88 10000 6.7 60 22:37 11.07.2020
126 Clouds 25 1014 88 10000 6.7 60 22:37 11.07.2020
127 Clouds 25 1009 57 10000 11.3 90 22:18 11.07.2020
128 Clouds 25 1013 83 10000 6.2 80 21:42 11.07.2020
129 Clouds 25 1009 57 10000 10.3 80 21:23 11.07.2020
130 Clouds 26 1013 88 10000 5.1 80 20:58 11.07.2020
131 Clouds 26 1013 88 10000 5.1 80 20:39 11.07.2020
132 Clouds 26 1013 88 10000 5.1 80 20:39 11.07.2020
133 Clouds 26 1009 48 10000 10.8 70 20:20 11.07.2020
134 Haze 26 1013 83 9000 7.2 70 19:57 11.07.2020
135 Haze 27 1013 83 9000 7.2 70 19:39 11.07.2020
136 Clouds 28 1008 43 10000 11.3 70 19:20 11.07.2020
137 Haze 28 1014 78 8000 6.7 70 18:55 11.07.2020
138 Haze 28 1014 78 8000 6.7 70 18:37 11.07.2020
139 Haze 28 1014 78 9000 5.7 80 18:18 11.07.2020
140 Haze 29 1014 78 9000 6.7 80 17:42 11.07.2020
141 Haze 29 1014 78 9000 6.7 80 17:42 11.07.2020
142 Clouds 29 1014 78 10000 6.2 70 17:21 11.07.2020
143 Clouds 29 1014 78 10000 5.7 70 16:59 11.07.2020
144 Clouds 29 1014 78 10000 5.7 70 16:38 11.07.2020
145 Clouds 29 1009 38 10000 11.8 70 16:19 11.07.2020
146 Clouds 29 1015 78 10000 6.7 70 15:57 11.07.2020
147 Clouds 29 1015 78 10000 6.7 70 15:37 11.07.2020
148 Clouds 29 1010 36 10000 11.8 80 15:18 11.07.2020
149 Clouds 29 1015 78 10000 6.7 70 14:44 11.07.2020
150 Clouds 28 1015 83 10000 6.7 90 14:23 11.07.2020
151 Clouds 28 1015 78 10000 6.7 80 13:55 11.07.2020
152 Clouds 28 1015 78 10000 6.7 80 13:37 11.07.2020
153 Clouds 28 1011 40 10000 10.3 80 13:19 11.07.2020
154 Clouds 26 1015 83 10000 6.2 90 12:42 11.07.2020
155 Clouds 26 1011 45 10000 10.8 80 12:23 11.07.2020
156 Clouds 26 1015 88 10000 5.1 100 11:58 11.07.2020
157 Clouds 25 1015 88 10000 5.1 100 11:40 11.07.2020
158 Clouds 26 1011 51 10000 10.3 80 11:19 11.07.2020
159 Clouds 25 1014 83 10000 6.2 110 10:46 11.07.2020
160 Clouds 25 1014 83 10000 6.2 110 10:27 11.07.2020
161 Clouds 26 1014 83 10000 7.2 110 09:56 11.07.2020
162 Clouds 25 1014 83 10000 7.2 110 09:37 11.07.2020
163 Clouds 25 1010 54 10000 6.7 90 09:18 11.07.2020
164 Clouds 23 1013 83 10000 4.1 80 08:39 11.07.2020
165 Clear 23 1010 64 10000 7.7 90 08:20 11.07.2020
166 Clear 23 1010 60 10000 7.2 90 07:50 11.07.2020
167 Clouds 23 1013 83 10000 5.1 90 07:27 11.07.2020
168 Clear 23 1013 88 10000 4.1 50 06:59 11.07.2020
169 Clear 23 1013 88 10000 4.1 50 06:23 11.07.2020
170 Clear 22 1013 88 10000 4.1 70 05:46 11.07.2020
171 Clear 22 1013 88 10000 4.1 70 05:46 11.07.2020
172 Clear 23 1013 83 10000 3.6 90 04:59 11.07.2020
173 Clear 23 1013 83 10000 3.6 90 04:37 11.07.2020
174 Clear 23 1010 60 10000 5.1 90 04:19 11.07.2020
175 Clear 22 1010 78 10000 3.6 60 02:52 11.07.2020
176 Clear 22 1010 83 10000 7.2 40 01:56 11.07.2020
177 Clear 23 1010 78 10000 8.2 40 01:21 11.07.2020
178 Clear 23 1013 83 10000 3.1 70 00:41 11.07.2020
179 Clear 23 1013 83 10000 3.1 70 00:23 11.07.2020
180 Clear 23 1013 83 10000 3.1 70 23:58 10.07.2020
181 Clear 23 1013 83 10000 3.1 70 23:40 10.07.2020
182 Clear 23 1010 78 10000 7.2 50 23:21 10.07.2020
183 Clear 23 1010 78 10000 7.2 50 22:49 10.07.2020
184 Clear 24 1010 69 10000 6.7 50 22:24 10.07.2020
185 Clear 24 1012 78 10000 4.6 70 21:59 10.07.2020
186 Clear 25 1012 78 10000 4.6 70 21:38 10.07.2020
187 Clear 26 1010 54 10000 6.2 40 21:20 10.07.2020
188 Clear 26 1012 78 10000 5.1 90 20:43 10.07.2020
189 Clear 27 1009 48 10000 7.7 40 20:24 10.07.2020
190 Haze 27 1012 69 8000 4.6 100 19:59 10.07.2020
191 Haze 27 1012 69 8000 5.1 100 19:41 10.07.2020
192 Haze 28 1012 69 8000 5.1 100 19:21 10.07.2020
193 Clear 28 1010 43 10000 8.7 30 18:54 10.07.2020
194 Haze 28 1012 69 9000 4.1 90 18:36 10.07.2020
195 Haze 28 1012 69 9000 4.1 90 18:18 10.07.2020
196 Clouds 27 1012 69 10000 3.1 80 17:41 10.07.2020
197 Clear 28 1013 69 10000 4.1 90 17:22 10.07.2020
198 Clear 28 1013 73 10000 4.6 90 16:57 10.07.2020
199 Clear 27 1013 73 10000 4.6 90 16:38 10.07.2020
200 Clear 28 1011 40 10000 3.6 60 16:18 10.07.2020
201 Clouds 27 1013 69 10000 5.1 100 15:43 10.07.2020
202 Clear 28 1012 45 10000 3.6 40 15:20 10.07.2020
203 Clear 25 1014 69 10000 3.6 100 14:43 10.07.2020
204 Clear 26 1014 61 10000 5.1 100 14:22 10.07.2020
205 Clear 25 1014 73 10000 6.2 110 13:58 10.07.2020
206 Clear 24 1014 73 10000 6.2 110 13:40 10.07.2020
207 Clear 24 1014 73 10000 5.1 110 13:22 10.07.2020
208 Clear 23 1014 73 10000 3.1 90 12:58 10.07.2020
209 Clear 23 1014 73 10000 3.1 90 12:40 10.07.2020
210 Clear 23 1014 73 10000 3.1 90 12:21 10.07.2020
211 Clear 23 1014 73 10000 3.1 90 11:43 10.07.2020
212 Clear 23 1014 69 10000 1.5 70 11:22 10.07.2020
213 Clear 23 1014 69 10000 1.5 70 10:58 10.07.2020
214 Clear 22 1014 73 10000 1 290 10:40 10.07.2020
215 Clear 21 1014 73 10000 1 280 10:21 10.07.2020
216 Clear 21 1014 73 10000 1 280 09:42 10.07.2020
217 Clear 20 1014 82 10000 1.5 270 09:23 10.07.2020
218 Clear 20 1014 88 10000 2.6 270 08:59 10.07.2020
219 Clear 19 1014 88 10000 2.6 270 08:41 10.07.2020
220 Clear 19 1014 88 10000 2.6 270 08:23 10.07.2020
221 Clear 20 1014 82 10000 1 240 07:48 10.07.2020
222 Clear 20 1014 82 10000 1 240 07:24 10.07.2020
223 Clear 20 1014 77 10000 2.6 260 06:58 10.07.2020
224 Clear 20 1014 77 10000 2.6 260 06:40 10.07.2020
225 Clear 20 1014 77 10000 3.1 250 05:40 10.07.2020
226 Clouds 21 1015 82 6000 0.5 0 03:55 10.07.2020
227 Clear 21 1015 82 10000 0.97 36 02:55 10.07.2020
228 Clear 20 1015 82 10000 0.5 0 02:21 10.07.2020
229 Clear 22 1015 77 10000 0.5 0 00:55 10.07.2020
230 Clear 22 1014 64 10000 2.6 190 00:24 10.07.2020
231 Clear 23 1014 60 10000 5.1 220 23:56 09.07.2020
232 Clear 23 1014 60 10000 5.1 220 23:37 09.07.2020
233 Clear 22 1015 77 10000 1 0 23:19 09.07.2020
234 Clear 23 1013 60 10000 7.7 210 22:56 09.07.2020
235 Clear 23 1013 60 10000 7.7 210 22:38 09.07.2020
236 Clear 23 1014 77 10000 2.1 290 22:20 09.07.2020
237 Clear 23 1014 73 10000 2.6 300 21:55 09.07.2020
238 Clouds 24 1013 57 10000 7.2 200 21:36 09.07.2020
239 Clear 24 1014 68 10000 2.6 290 21:18 09.07.2020
240 Clouds 24 1013 57 10000 7.2 200 20:41 09.07.2020
241 Clouds 25 1013 57 10000 7.2 190 20:23 09.07.2020
242 Clouds 25 1013 57 10000 7.7 190 19:43 09.07.2020
243 Clouds 25 1013 54 10000 8.2 190 19:22 09.07.2020
244 Clouds 25 1013 57 10000 8.7 200 18:58 09.07.2020
245 Clouds 25 1013 57 10000 8.7 200 18:40 09.07.2020
246 Clouds 26 1015 60 10000 4.1 270 18:19 09.07.2020
247 Clouds 26 1014 51 10000 7.2 210 17:43 09.07.2020
248 Clouds 25 1014 54 10000 8.2 210 17:23 09.07.2020
249 Clouds 25 1014 57 10000 8.7 200 16:58 09.07.2020
250 Clouds 25 1014 57 10000 8.7 200 16:38 09.07.2020
251 Clouds 25 1016 57 10000 4.6 270 16:19 09.07.2020
252 Clouds 26 1015 57 10000 7.7 200 15:58 09.07.2020
253 Clouds 25 1015 57 10000 7.7 200 15:38 09.07.2020
254 Clouds 26 1016 60 10000 4.6 260 15:18 09.07.2020
255 Clouds 26 1015 54 10000 6.7 200 14:58 09.07.2020
256 Clouds 26 1015 54 10000 6.7 200 14:39 09.07.2020
257 Clouds 25 1017 60 10000 4.6 260 14:20 09.07.2020
258 Clouds 25 1015 57 10000 6.7 200 13:56 09.07.2020
259 Clouds 25 1015 57 10000 6.7 200 13:56 09.07.2020
260 Clouds 25 1015 57 10000 6.7 200 13:38 09.07.2020
261 Clouds 25 1016 61 10000 6.7 200 13:18 09.07.2020
262 Clouds 24 1016 64 10000 4.6 220 12:41 09.07.2020
263 Clouds 24 1016 64 10000 4.6 220 12:23 09.07.2020
264 Clouds 24 1016 64 10000 5.1 210 11:57 09.07.2020
265 Clouds 24 1016 64 10000 5.1 210 11:38 09.07.2020
266 Clouds 24 1017 60 10000 3.1 230 11:18 09.07.2020
267 Clouds 23 1016 69 10000 3.6 230 10:55 09.07.2020
268 Clouds 23 1016 69 10000 3.6 230 10:37 09.07.2020
269 Clouds 22 1017 64 10000 2.6 210 10:19 09.07.2020
270 Clouds 22 1016 73 10000 4.6 260 09:42 09.07.2020
271 Clouds 21 1015 77 10000 3.6 250 09:22 09.07.2020
272 Clouds 21 1016 73 7000 2.1 190 08:49 09.07.2020
273 Clouds 20 1015 82 10000 4.6 260 08:26 09.07.2020
274 Clouds 20 1016 77 7000 2.1 170 07:50 09.07.2020
275 Clouds 20 1015 82 10000 4.1 230 07:30 09.07.2020
276 Clear 21 1015 77 10000 3.6 240 06:59 09.07.2020
277 Clouds 21 1016 82 6000 2.1 190 06:20 09.07.2020
278 Clouds 21 1016 82 6000 2.1 200 05:50 09.07.2020
279 Clouds 21 1016 82 7000 1.5 180 04:29 09.07.2020
280 Clear 22 1016 69 10000 4.1 230 02:47 09.07.2020
281 Clouds 22 1016 82 6000 1.5 210 01:55 09.07.2020
282 Clear 23 1015 78 10000 0.5 50 00:59 09.07.2020
283 Clear 23 1015 78 10000 0.5 50 00:38 09.07.2020
284 Clear 23 1015 78 10000 0.5 50 00:19 09.07.2020
285 Clear 23 1014 78 10000 2.6 30 23:43 08.07.2020
286 Clouds 23 1016 83 7000 2.1 220 23:24 08.07.2020
287 Clouds 24 1015 88 7000 2.1 220 22:55 08.07.2020
288 Clear 24 1013 74 10000 1.5 30 22:36 08.07.2020
289 Clouds 24 1015 83 9000 3.1 240 22:18 08.07.2020
290 Clear 25 1013 65 10000 5.1 200 21:39 08.07.2020
291 Clear 25 1014 78 10000 3.1 240 21:21 08.07.2020
292 Clear 32 1013 61 10000 1 230 20:58 08.07.2020
293 Clear 32 1013 61 10000 1 230 20:58 08.07.2020
294 Clear 26 1013 61 10000 1 230 20:40 08.07.2020
295 Clouds 26 1013 61 10000 1 230 20:22 08.07.2020
296 Clouds 32 1013 61 10000 1.5 200 19:43 08.07.2020
297 Clouds 32 1013 61 10000 2.6 110 19:25 08.07.2020
298 Clouds 27 1013 65 10000 2.1 80 18:59 08.07.2020
299 Clouds 26 1013 65 10000 2.1 80 18:40 08.07.2020
300 Clouds 27 1013 65 10000 3.1 80 18:21 08.07.2020
301 Clouds 27 1014 65 10000 3.1 90 17:56 08.07.2020
302 Clouds 27 1014 65 10000 3.1 90 17:38 08.07.2020
303 Clouds 31 1014 65 10000 4.1 100 17:20 08.07.2020
304 Clouds 31 1014 61 10000 5.1 100 16:55 08.07.2020
305 Clouds 27 1014 61 10000 5.1 100 16:36 08.07.2020
306 Clouds 28 1013 61 10000 3.1 250 16:18 08.07.2020
307 Clouds 28 1014 54 10000 5.1 100 15:56 08.07.2020
308 Clouds 28 1014 54 10000 5.1 100 15:37 08.07.2020
309 Clouds 27 1014 61 10000 3.6 240 15:18 08.07.2020
310 Clouds 27 1014 57 10000 3.1 80 14:42 08.07.2020
311 Clouds 28 1013 58 10000 3.6 210 14:20 08.07.2020
312 Clouds 26 1014 65 10000 3.6 80 13:45 08.07.2020
313 Clouds 27 1014 57 10000 4.1 80 13:27 08.07.2020
314 Clouds 27 1014 57 10000 3.1 70 12:46 08.07.2020
315 Clouds 27 1014 61 10000 3.1 70 12:22 08.07.2020
316 Clouds 27 1014 61 10000 3.1 70 12:22 08.07.2020
317 Clouds 25 1014 61 10000 4.1 100 11:59 08.07.2020
318 Clouds 25 1014 61 10000 4.1 100 11:39 08.07.2020
319 Clouds 25 1014 61 10000 4.1 100 11:20 08.07.2020
320 Clouds 24 1014 69 10000 4.1 90 10:55 08.07.2020
321 Clouds 24 1014 69 10000 4.1 90 10:36 08.07.2020
322 Clouds 24 1014 69 10000 3.1 80 10:18 08.07.2020
323 Clouds 24 1014 69 10000 1 100 09:41 08.07.2020
324 Clear 23 1013 73 10000 3.6 80 09:21 08.07.2020
325 Clouds 24 1013 73 10000 5.1 80 08:43 08.07.2020
326 Clouds 24 1013 73 10000 5.1 80 08:24 08.07.2020
327 Clouds 24 1013 83 10000 3.6 90 07:47 08.07.2020
328 Clouds 24 1013 83 10000 3.6 90 07:24 08.07.2020
329 Clouds 25 1009 50 10000 4.6 80 06:55 08.07.2020
330 Clouds 25 1012 60 10000 2.1 40 06:35 08.07.2020
331 Clouds 25 1010 50 10000 2.6 40 05:55 08.07.2020
332 Clouds 25 1009 50 10000 3.1 110 05:20 08.07.2020
333 Clouds 26 1012 64 10000 5.7 70 04:32 08.07.2020
334 Clear 25 1011 39 10000 3.6 80 02:22 08.07.2020
335 Clear 25 1014 83 10000 2.1 70 01:45 08.07.2020
336 Clear 26 1011 32 10000 4.1 80 01:19 08.07.2020
337 Clear 26 1011 39 10000 3.1 80 00:26 08.07.2020
338 Clear 26 1011 42 10000 3.1 90 23:55 07.07.2020
339 Clear 26 1013 83 10000 2.6 70 23:37 07.07.2020
340 Clear 26 1011 42 10000 3.6 90 23:18 07.07.2020
341 Clear 26 1013 83 10000 2.1 70 22:41 07.07.2020
342 Clear 27 1011 39 10000 3.1 100 22:21 07.07.2020
343 Clear 28 1013 83 10000 3.6 90 21:59 07.07.2020
344 Clear 28 1013 83 10000 3.6 90 21:59 07.07.2020
345 Clear 28 1013 83 10000 3.6 90 21:39 07.07.2020
346 Clear 29 1011 27 10000 3.1 60 21:21 07.07.2020
347 Haze 30 1013 83 8000 3.1 90 20:56 07.07.2020
348 Haze 30 1013 83 8000 3.1 90 20:37 07.07.2020
349 Clear 31 1011 22 10000 3.1 50 20:19 07.07.2020
350 Haze 32 1013 54 8000 4.6 110 19:39 07.07.2020
351 Haze 32 1013 54 8000 4.6 110 19:39 07.07.2020
352 Haze 33 1013 51 8000 4.6 110 19:21 07.07.2020
353 Clear 32 1013 65 10000 2.6 200 18:55 07.07.2020
354 Clear 32 1013 65 10000 2.6 200 18:37 07.07.2020
355 Clear 34 1011 21 10000 5.1 60 18:19 07.07.2020
356 Clear 33 1012 22 10000 5.7 50 17:56 07.07.2020
357 Clear 33 1014 51 10000 2.1 210 17:37 07.07.2020
358 Clear 32 1012 23 10000 5.7 60 17:19 07.07.2020
359 Clear 31 1014 57 10000 2.6 110 16:42 07.07.2020
360 Clear 31 1015 65 10000 4.6 110 16:23 07.07.2020
361 Clear 32 1015 61 10000 3.6 90 15:56 07.07.2020
362 Clear 33 1015 61 10000 3.6 90 15:37 07.07.2020
363 Clear 33 1013 24 10000 4.6 50 15:19 07.07.2020
364 Clear 31 1015 65 10000 3.1 90 14:45 07.07.2020
365 Clouds 31 1015 74 10000 4.1 90 14:24 07.07.2020
366 Clouds 30 1015 74 10000 3.6 80 13:46 07.07.2020
367 Clouds 30 1015 73 10000 3.1 80 13:21 07.07.2020
368 Clouds 29 1015 78 10000 3.1 80 12:57 07.07.2020
369 Clouds 29 1015 78 10000 3.1 80 12:38 07.07.2020
370 Clear 29 1013 32 10000 4.6 60 12:20 07.07.2020
371 Clouds 28 1015 73 10000 3.1 100 11:44 07.07.2020
372 Fog 27 1015 78 10000 3.1 70 11:22 07.07.2020
373 Fog 26 1015 78 10000 1.5 50 10:58 07.07.2020
374 Fog 25 1015 78 10000 1.5 50 10:40 07.07.2020
375 Fog 25 1015 88 10000 2.1 60 10:21 07.07.2020
376 Fog 22 1015 88 10000 2.1 50 09:43 07.07.2020
377 Fog 22 1015 88 10000 2.1 50 09:43 07.07.2020
378 Fog 22 1015 88 600 1.5 50 09:22 07.07.2020
379 Fog 20 1015 72 10000 0.5 340 08:58 07.07.2020
380 Fog 20 1015 72 10000 0.5 340 08:39 07.07.2020
381 Clear 21 1012 73 10000 4.6 90 08:19 07.07.2020
382 Fog 21 1014 72 10000 1 150 07:38 07.07.2020
383 Fog 21 1014 72 10000 1 150 07:19 07.07.2020
384 Clouds 22 1014 77 10000 1.5 60 06:46 07.07.2020
385 Clouds 22 1014 77 10000 1.5 60 06:26 07.07.2020
386 Clear 21 1014 82 10000 0.5 260 05:43 07.07.2020
387 Clear 23 1015 83 10000 2.6 50 04:53 07.07.2020
388 Clear 24 1015 78 10000 3.1 80 03:50 07.07.2020
389 Clear 23 1013 60 10000 5.1 80 03:30 07.07.2020
390 Clear 23 1013 60 10000 5.1 80 03:30 07.07.2020
391 Clear 24 1013 57 10000 4.6 80 01:50 07.07.2020
392 Clear 24 1016 83 10000 3.1 60 01:00 07.07.2020
393 Clear 24 1016 83 10000 3.1 60 00:40 07.07.2020
394 Clear 24 1013 57 10000 4.1 70 00:20 07.07.2020
395 Clear 24 1015 83 10000 3.6 60 23:44 06.07.2020
396 Clear 24 1015 83 10000 3.6 60 23:44 06.07.2020
397 Clear 24 1013 61 10000 6.7 70 23:25 06.07.2020
398 Clear 24 1015 88 10000 2.6 40 22:57 06.07.2020
399 Clear 24 1015 88 10000 2.6 40 22:39 06.07.2020
400 Clear 25 1013 61 10000 7.2 40 22:18 06.07.2020
401 Clear 25 1014 83 10000 4.6 90 21:56 06.07.2020
402 Clear 25 1014 83 10000 4.6 90 21:36 06.07.2020
403 Clear 27 1012 54 10000 6.7 40 21:18 06.07.2020
404 Clear 27 1014 74 10000 4.1 80 20:40 06.07.2020
405 Clear 27 1014 74 10000 4.1 80 20:21 06.07.2020
406 Clear 27 1015 69 10000 4.1 80 19:59 06.07.2020
407 Clear 29 1015 69 10000 4.1 80 19:40 06.07.2020
408 Clear 29 1015 73 10000 3.6 70 19:22 06.07.2020
409 Clear 29 1015 78 10000 3.6 70 18:58 06.07.2020
410 Clear 29 1015 78 10000 3.6 70 18:39 06.07.2020
411 Clear 30 1015 74 10000 3.6 60 18:21 06.07.2020
412 Clear 30 1015 74 10000 3.6 60 17:54 06.07.2020
413 Clear 30 1015 74 10000 3.6 60 17:36 06.07.2020
414 Clear 30 1015 74 10000 4.6 70 17:18 06.07.2020
415 Clear 31 1015 74 10000 5.1 70 16:42 06.07.2020
416 Clear 30 1016 78 10000 5.1 80 16:22 06.07.2020
417 Clear 30 1016 73 10000 4.6 80 15:44 06.07.2020
418 Clear 30 1016 73 10000 5.1 80 15:26 06.07.2020
419 Clear 29 1016 78 10000 4.1 80 14:57 06.07.2020
420 Clear 29 1016 78 10000 4.1 80 14:57 06.07.2020
421 Clear 29 1016 78 10000 4.1 80 14:38 06.07.2020
422 Clear 30 1014 28 10000 6.7 40 14:20 06.07.2020
423 Clear 29 1016 69 10000 3.1 70 13:57 06.07.2020
424 Clear 29 1016 69 10000 3.1 70 13:38 06.07.2020
425 Clear 29 1014 31 10000 6.2 40 13:19 06.07.2020
426 Clear 27 1016 69 10000 3.1 80 12:43 06.07.2020
427 Clear 28 1014 40 10000 6.7 40 12:19 06.07.2020
428 Clear 26 1017 69 10000 3.1 90 11:58 06.07.2020
429 Clear 26 1017 69 10000 3.1 90 11:39 06.07.2020
430 Clear 26 1014 51 10000 7.7 40 11:20 06.07.2020
431 Clear 26 1017 69 10000 2.6 80 10:56 06.07.2020
432 Clear 25 1017 69 10000 2.6 80 10:38 06.07.2020
433 Clear 25 1017 64 10000 2.1 70 10:18 06.07.2020
434 Clear 23 1016 73 10000 2.1 60 09:42 06.07.2020
435 Clear 23 1014 65 10000 4.6 90 09:21 06.07.2020
436 Clear 22 1014 73 10000 6.2 80 08:56 06.07.2020
437 Clear 21 1016 77 10000 1 280 08:38 06.07.2020
438 Clear 21 1014 83 10000 5.7 80 08:19 06.07.2020
439 Clear 21 1016 77 10000 0.5 310 07:43 06.07.2020
440 Clear 21 1016 77 10000 0.5 310 07:23 06.07.2020
441 Clear 23 1016 64 10000 3.1 90 06:40 06.07.2020
442 Clear 23 1016 64 10000 3.1 90 06:21 06.07.2020
443 Clear 23 1016 73 10000 2.6 80 05:38 06.07.2020
444 Clear 23 1014 78 10000 5.7 80 04:54 06.07.2020
445 Clear 23 1017 78 10000 3.6 40 03:40 06.07.2020
446 Clear 23 1014 73 10000 7.2 70 02:22 06.07.2020
447 Clear 23 1018 83 10000 4.6 90 01:34 06.07.2020
448 Clear 23 1018 83 10000 4.6 90 00:36 06.07.2020
449 Clear 23 1018 83 10000 4.6 90 00:18 06.07.2020
450 Clear 23 1018 88 10000 4.1 80 23:41 05.07.2020
451 Clear 24 1014 69 10000 6.2 80 23:23 05.07.2020
452 Clear 24 1017 88 10000 4.1 80 22:59 05.07.2020
453 Clear 24 1017 88 10000 4.1 80 22:40 05.07.2020
454 Clear 25 1013 61 10000 6.7 60 22:20 05.07.2020
455 Clear 26 1017 78 10000 4.6 80 21:57 05.07.2020
456 Clear 25 1017 78 10000 4.6 80 21:38 05.07.2020
457 Clear 26 1013 57 10000 6.2 50 21:18 05.07.2020
458 Clear 25 1017 78 10000 3.1 80 20:57 05.07.2020
459 Clear 25 1017 78 10000 3.1 80 20:38 05.07.2020
460 Clear 26 1013 61 10000 7.7 40 20:20 05.07.2020
461 Clear 26 1017 73 10000 4.1 60 19:42 05.07.2020
462 Clouds 26 1017 73 10000 3.6 80 19:21 05.07.2020
463 Clear 26 1017 69 10000 4.1 100 18:56 05.07.2020
464 Clear 27 1017 69 10000 4.1 100 18:37 05.07.2020
465 Clear 27 1014 54 10000 8.2 40 18:19 05.07.2020
466 Clouds 27 1018 69 10000 5.1 100 17:43 05.07.2020
467 Clear 28 1014 51 10000 8.2 40 17:20 05.07.2020
468 Clouds 28 1018 65 10000 5.7 100 16:59 05.07.2020
469 Clouds 28 1018 65 10000 5.7 100 16:40 05.07.2020
470 Clouds 29 1018 65 10000 5.7 100 16:21 05.07.2020
471 Clouds 28 1019 69 10000 6.7 100 15:41 05.07.2020
472 Clear 29 1015 48 10000 7.7 50 15:20 05.07.2020
473 Clear 30 1015 38 10000 8.7 70 14:56 05.07.2020
474 Clouds 28 1019 65 10000 7.2 110 14:38 05.07.2020
475 Clouds 29 1015 45 10000 7.2 50 14:20 05.07.2020
476 Clouds 28 1020 65 10000 6.2 100 13:41 05.07.2020
477 Clouds 29 1016 43 10000 9.8 80 13:23 05.07.2020
478 Clouds 29 1016 43 10000 9.8 80 13:23 05.07.2020
479 Clouds 28 1020 65 10000 6.2 100 12:46 05.07.2020
480 Clouds 28 1020 69 10000 6.2 110 12:21 05.07.2020
481 Clouds 27 1019 73 10000 6.2 110 11:56 05.07.2020
482 Clouds 27 1019 73 10000 6.2 110 11:38 05.07.2020
483 Clouds 27 1015 48 10000 9.8 70 11:19 05.07.2020
484 Clouds 26 1019 78 10000 5.1 80 10:55 05.07.2020
485 Clouds 25 1019 78 10000 5.1 80 10:36 05.07.2020
486 Clouds 25 1015 51 10000 9.3 80 10:18 05.07.2020
487 Clouds 24 1019 78 10000 5.7 100 09:41 05.07.2020
488 Clear 25 1015 57 10000 7.2 80 09:20 05.07.2020
489 Clouds 23 1018 78 10000 6.2 100 08:57 05.07.2020
490 Clouds 23 1018 78 10000 6.2 100 08:38 05.07.2020
491 Clouds 22 1018 88 10000 5.1 100 08:18 05.07.2020
492 Clouds 22 1018 88 10000 5.7 110 07:39 05.07.2020
493 Clouds 22 1018 88 10000 5.7 110 07:21 05.07.2020
494 Clouds 23 1018 94 10000 5.7 120 06:30 05.07.2020
495 Clouds 23 1015 69 10000 8.2 80 04:24 05.07.2020
496 Clouds 23 1019 94 9000 6.2 100 02:59 05.07.2020
497 Clouds 23 1019 94 9000 6.2 100 02:37 05.07.2020
498 Clouds 23 1019 94 10000 7.2 110 01:44 05.07.2020
499 Clouds 23 1016 65 10000 8.7 80 01:26 05.07.2020
500 Clouds 23 1016 65 10000 8.2 70 00:51 05.07.2020
501 Clouds 22 1019 94 9000 5.1 80 00:30 05.07.2020
502 Clouds 23 1016 64 10000 8.2 60 23:56 04.07.2020
503 Clouds 23 1019 94 8000 4.6 60 23:32 04.07.2020
504 Clouds 23 1018 94 10000 4.6 80 22:59 04.07.2020
505 Clouds 23 1018 94 10000 4.6 80 22:40 04.07.2020
506 Clouds 24 1015 57 10000 6.2 60 22:22 04.07.2020
507 Clouds 24 1018 88 10000 4.6 80 21:58 04.07.2020
508 Clouds 24 1018 88 10000 4.6 80 21:40 04.07.2020
509 Clouds 25 1014 57 10000 7.7 50 21:22 04.07.2020
510 Haze 24 1018 83 8000 4.1 70 20:42 04.07.2020
511 Haze 25 1018 83 8000 4.1 70 20:21 04.07.2020
512 Haze 25 1018 83 8000 4.1 90 19:56 04.07.2020
513 Haze 25 1018 83 8000 4.1 90 19:38 04.07.2020
514 Clouds 27 1015 54 10000 7.7 40 19:20 04.07.2020
515 Haze 27 1019 78 8000 5.1 100 18:43 04.07.2020
516 Haze 27 1019 78 8000 5.1 100 18:23 04.07.2020
517 Haze 27 1019 78 9000 5.7 100 17:46 04.07.2020
518 Haze 28 1019 78 9000 5.7 100 17:28 04.07.2020
519 Haze 27 1020 78 9000 6.7 100 16:59 04.07.2020
520 Haze 27 1020 78 9000 6.7 100 16:39 04.07.2020
521 Haze 27 1020 78 9000 6.7 100 16:39 04.07.2020
522 Haze 28 1020 78 9000 6.2 100 16:21 04.07.2020
523 Haze 26 1020 83 9000 5.7 100 15:58 04.07.2020
524 Haze 27 1020 83 9000 5.7 100 15:40 04.07.2020
525 Haze 27 1020 83 9000 5.1 90 15:21 04.07.2020
526 Haze 27 1021 83 8000 6.2 90 14:56 04.07.2020
527 Haze 27 1021 83 8000 6.2 90 14:36 04.07.2020
528 Clouds 27 1018 48 10000 7.2 50 14:18 04.07.2020
529 Haze 26 1021 83 6000 5.1 90 13:41 04.07.2020
530 Clouds 27 1018 45 10000 6.2 80 13:19 04.07.2020
531 Haze 26 1021 88 7000 5.1 100 12:55 04.07.2020
532 Haze 25 1021 88 7000 5.1 100 12:37 04.07.2020
533 Haze 25 1021 83 7000 3.6 90 12:18 04.07.2020
534 Haze 24 1020 88 7000 4.6 90 11:42 04.07.2020
535 Mist 24 1020 88 9000 3.6 80 11:22 04.07.2020
536 Clouds 23 1018 57 10000 5.1 60 10:55 04.07.2020
537 Mist 22 1020 94 7000 3.6 70 10:36 04.07.2020
538 Clouds 23 1018 61 10000 4.6 80 10:18 04.07.2020
539 Mist 22 1019 94 7000 4.1 80 09:40 04.07.2020
540 Mist 22 1019 94 7000 4.1 80 09:21 04.07.2020
541 Clouds 22 1018 73 10000 2.6 90 08:50 04.07.2020
542 Mist 21 1019 94 5000 4.1 90 08:32 04.07.2020
543 Clouds 22 1018 82 10000 2.1 100 07:55 04.07.2020
544 Clouds 22 1019 88 10000 7.2 110 07:36 04.07.2020
545 Clouds 22 1017 77 10000 3.1 90 06:57 04.07.2020
546 Clouds 21 1018 88 10000 7.7 110 06:23 04.07.2020
547 Clouds 21 1019 94 9000 6.7 100 05:41 04.07.2020
548 Clouds 21 1019 94 8000 5.7 70 04:57 04.07.2020
549 Clouds 20 1019 94 9000 3.6 50 03:34 04.07.2020
550 Clouds 21 1019 94 9000 2.1 70 02:35 04.07.2020
551 Clear 21 1019 94 7000 2.6 90 01:37 04.07.2020
552 Clear 22 1019 88 8000 2.6 50 00:47 04.07.2020
553 Clear 22 1019 88 8000 2.6 50 00:29 04.07.2020
554 Clear 21 1018 88 9000 3.6 60 23:41 03.07.2020
555 Clear 21 1018 82 10000 1.5 280 23:19 03.07.2020
556 Clear 22 1017 73 10000 2.6 70 22:59 03.07.2020
557 Clear 22 1017 73 10000 2.6 70 22:39 03.07.2020
558 Clear 22 1017 73 10000 2.6 70 22:39 03.07.2020
559 Clear 22 1017 78 10000 2.1 220 22:21 03.07.2020
560 Clear 23 1017 73 10000 2.1 240 21:54 03.07.2020
561 Clear 23 1017 73 10000 3.1 80 21:36 03.07.2020
562 Clear 23 1017 60 10000 2.6 290 21:18 03.07.2020
563 Clear 24 1017 60 10000 3.1 90 20:42 03.07.2020
564 Clear 24 1017 60 10000 3.1 90 20:23 03.07.2020
565 Clear 23 1017 69 10000 3.6 90 19:42 03.07.2020
566 Clouds 24 1017 78 10000 3.6 70 19:21 03.07.2020
567 Clouds 24 1017 78 10000 3.6 70 19:21 03.07.2020
568 Clouds 24 1017 78 10000 3.6 70 19:21 03.07.2020
569 Clouds 24 1017 73 10000 3.1 80 18:57 03.07.2020
570 Clouds 24 1017 73 10000 3.1 80 18:39 03.07.2020
571 Clouds 25 1017 69 10000 4.1 60 18:21 03.07.2020
572 Clouds 24 1017 69 10000 3.1 70 17:44 03.07.2020
573 Clouds 24 1017 64 10000 3.6 90 17:23 03.07.2020
574 Clouds 27 1017 42 10000 3.6 30 16:51 03.07.2020
575 Clouds 27 1017 42 10000 3.6 30 16:31 03.07.2020
576 Clouds 27 1017 42 10000 6.2 200 15:57 03.07.2020
577 Clouds 28 1017 42 10000 6.2 200 15:39 03.07.2020
578 Clear 27 1018 54 10000 4.1 280 15:20 03.07.2020
579 Clouds 27 1017 45 10000 7.2 200 14:41 03.07.2020
580 Clear 27 1017 39 10000 5.1 200 14:23 03.07.2020
581 Clear 28 1017 39 10000 5.1 220 13:59 03.07.2020
582 Clear 27 1017 39 10000 5.1 220 13:40 03.07.2020
583 Clear 27 1017 39 10000 7.2 260 13:22 03.07.2020
584 Clear 26 1017 48 10000 4.6 240 12:40 03.07.2020
585 Clear 26 1017 48 10000 4.6 240 12:22 03.07.2020
586 Clear 25 1017 51 10000 5.1 240 11:44 03.07.2020
587 Clear 25 1017 57 10000 5.1 220 11:25 03.07.2020
588 Clear 24 1017 61 10000 5.1 230 10:59 03.07.2020
589 Clear 24 1017 61 10000 5.1 230 10:41 03.07.2020
590 Clear 24 1018 73 10000 2.1 220 10:21 03.07.2020
591 Clear 24 1017 64 10000 4.6 240 10:21 03.07.2020
592 Clear 23 1017 73 10000 4.6 220 09:58 03.07.2020
593 Clear 22 1017 73 10000 4.6 220 09:39 03.07.2020
594 Clear 22 1018 83 10000 2.6 190 09:19 03.07.2020
595 Clear 21 1016 73 10000 3.6 230 08:56 03.07.2020
596 Clear 21 1016 73 10000 3.6 230 08:37 03.07.2020
597 Clear 21 1016 73 10000 3.6 230 08:37 03.07.2020
598 Clear 21 1016 73 10000 3.6 230 08:18 03.07.2020
599 Clear 21 1016 73 10000 4.6 230 07:41 03.07.2020
600 Clear 21 1016 73 10000 4.6 230 07:21 03.07.2020
601 Clear 21 1016 73 10000 6.2 240 06:25 03.07.2020
602 Clear 21 1017 82 10000 1 0 05:28 03.07.2020
603 Clear 23 1018 77 10000 1 0 03:54 03.07.2020
604 Clear 23 1018 77 10000 1.5 190 02:50 03.07.2020
605 Clear 23 1018 73 10000 1.5 0 02:30 03.07.2020
606 Clear 23 1019 78 10000 1.5 170 01:30 03.07.2020
607 Clear 24 1019 78 10000 2.1 170 00:56 03.07.2020
608 Clear 24 1017 54 10000 5.7 240 00:37 03.07.2020
609 Clear 24 1019 78 10000 2.1 190 23:52 02.07.2020
610 Clear 23 1018 78 10000 1.5 190 23:21 02.07.2020
611 Clear 24 1015 57 10000 4.1 270 22:59 02.07.2020
612 Clear 24 1015 57 10000 4.1 270 22:40 02.07.2020
613 Clear 24 1017 78 10000 2.1 220 22:21 02.07.2020
614 Clear 25 1017 73 10000 2.1 240 21:57 02.07.2020
615 Clear 25 1015 51 10000 7.7 260 21:39 02.07.2020
616 Clear 26 1017 78 10000 3.1 250 21:19 02.07.2020
617 Clear 27 1014 40 10000 5.1 220 20:57 02.07.2020
618 Clear 27 1014 40 10000 5.1 220 20:39 02.07.2020
619 Clear 27 1014 40 10000 5.1 220 20:39 02.07.2020
620 Clear 28 1014 40 10000 5.1 220 20:18 02.07.2020
621 Clear 28 1014 40 10000 5.1 230 19:42 02.07.2020
622 Clear 28 1014 40 10000 5.1 230 19:23 02.07.2020
623 Clear 28 1014 40 10000 5.1 230 19:23 02.07.2020
624 Clear 28 1014 40 10000 5.1 220 18:58 02.07.2020
625 Clear 29 1014 40 10000 5.1 220 18:40 02.07.2020
626 Clear 28 1017 61 10000 3.6 260 18:21 02.07.2020
627 Clear 28 1015 42 10000 6.7 250 17:54 02.07.2020
628 Clear 28 1015 42 10000 6.7 250 17:36 02.07.2020
629 Clear 28 1015 42 10000 6.7 250 17:36 02.07.2020
630 Clear 27 1017 65 10000 5.1 270 17:18 02.07.2020
631 Clear 28 1015 48 10000 5.7 240 16:40 02.07.2020
632 Clear 29 1017 65 10000 4.6 260 16:20 02.07.2020
633 Clear 28 1015 48 10000 5.1 230 15:55 02.07.2020
634 Clear 28 1015 48 10000 5.1 230 15:36 02.07.2020
635 Clouds 27 1018 73 10000 4.6 250 15:18 02.07.2020
636 Clear 27 1016 51 10000 8.2 260 14:43 02.07.2020
637 Clear 27 1016 51 10000 7.2 260 14:21 02.07.2020
638 Clear 28 1016 51 10000 6.7 260 13:56 02.07.2020
639 Clear 28 1016 51 10000 6.7 260 13:37 02.07.2020
640 Clear 26 1016 58 10000 6.7 260 13:18 02.07.2020
641 Clouds 26 1016 61 10000 4.1 250 12:41 02.07.2020
642 Clouds 26 1016 61 10000 4.1 250 12:22 02.07.2020
643 Clouds 24 1016 65 10000 4.1 260 11:46 02.07.2020
644 Clouds 24 1016 69 10000 4.1 270 11:27 02.07.2020
645 Clouds 23 1016 78 10000 4.1 270 10:59 02.07.2020
646 Clouds 23 1016 78 10000 4.1 270 10:41 02.07.2020
647 Clouds 23 1017 83 6000 3.6 210 10:23 02.07.2020
648 Clouds 22 1015 78 10000 4.6 260 09:44 02.07.2020
649 Clouds 22 1015 78 10000 5.7 250 09:22 02.07.2020
650 Clouds 21 1014 73 10000 5.1 240 08:58 02.07.2020
651 Clouds 20 1014 73 10000 5.1 240 08:40 02.07.2020
652 Clouds 20 1014 73 10000 5.1 240 08:19 02.07.2020
653 Clouds 21 1014 60 10000 4.6 250 07:42 02.07.2020
654 Clouds 21 1014 60 10000 4.6 250 07:21 02.07.2020
655 Clear 22 1014 57 10000 6.2 220 06:45 02.07.2020
656 Clear 22 1014 57 10000 6.2 220 06:26 02.07.2020
657 Clear 23 1014 64 10000 5.7 250 05:48 02.07.2020
658 Clear 22 1014 60 10000 5.1 230 04:50 02.07.2020
659 Clear 23 1014 50 10000 6.2 240 03:34 02.07.2020
660 Clouds 22 1016 88 6000 2.1 240 01:50 02.07.2020
661 Clouds 24 1016 88 7000 1.5 230 00:28 02.07.2020
662 Clear 24 1013 44 10000 5.7 230 23:57 01.07.2020
663 Clouds 24 1015 94 7000 2.1 250 23:39 01.07.2020
664 Clear 24 1013 44 10000 5.7 230 23:39 01.07.2020
665 Clear 24 1014 88 8000 2.1 270 23:21 01.07.2020
666 Clear 24 1014 88 8000 2.1 270 22:55 01.07.2020
667 Clear 25 1012 42 10000 6.2 230 22:37 01.07.2020
668 Clear 25 1014 88 10000 3.1 280 22:18 01.07.2020
669 Clear 26 1014 83 10000 2.6 250 21:55 01.07.2020
670 Clear 26 1014 83 10000 2.6 250 21:55 01.07.2020
671 Clear 26 1012 39 10000 5.7 220 21:37 01.07.2020
672 Clear 25 1014 78 10000 1.5 250 21:19 01.07.2020
673 Clear 26 1012 48 10000 5.1 220 20:45 01.07.2020
674 Clear 26 1012 48 10000 5.1 220 20:26 01.07.2020
675 Clear 26 1012 54 10000 5.1 210 19:57 01.07.2020
676 Clear 26 1012 54 10000 5.1 210 19:39 01.07.2020
677 Clear 27 1012 45 10000 4.6 220 19:20 01.07.2020
678 Clear 28 1012 42 10000 5.1 220 18:54 01.07.2020
679 Clear 28 1012 42 10000 5.1 220 18:36 01.07.2020
680 Clear 27 1013 45 10000 5.1 210 18:18 01.07.2020
681 Clear 27 1013 45 10000 5.1 210 17:41 01.07.2020
682 Clear 28 1015 65 10000 3.6 290 17:20 01.07.2020
683 Clear 27 1013 54 10000 7.2 200 16:48 01.07.2020
684 Clear 27 1013 54 10000 7.2 200 16:29 01.07.2020
685 Clear 27 1014 51 10000 7.2 200 15:58 01.07.2020
686 Clear 27 1014 51 10000 7.2 200 15:40 01.07.2020
687 Clear 27 1015 65 10000 4.1 290 15:21 01.07.2020
688 Clear 28 1014 51 10000 6.7 200 14:47 01.07.2020
689 Clear 27 1014 48 10000 4.1 210 14:22 01.07.2020
690 Clear 27 1014 48 10000 4.1 210 13:59 01.07.2020
691 Clear 27 1014 51 10000 4.6 210 13:40 01.07.2020
692 Clear 27 1014 51 10000 4.6 210 13:21 01.07.2020
693 Clear 26 1014 57 10000 3.6 210 12:58 01.07.2020
694 Clear 26 1014 57 10000 3.6 210 12:39 01.07.2020
695 Clear 26 1014 57 10000 2.6 220 12:20 01.07.2020
696 Clouds 25 1015 69 8000 3.6 250 11:55 01.07.2020
697 Clouds 25 1014 65 10000 4.1 240 11:37 01.07.2020
698 Clouds 25 1015 69 8000 2.6 220 11:18 01.07.2020
699 Clouds 23 1014 69 10000 4.1 230 10:41 01.07.2020
700 Clouds 23 1014 73 10000 3.6 230 10:23 01.07.2020
701 Clouds 23 1014 73 10000 3.6 240 09:58 01.07.2020
702 Clouds 22 1014 73 10000 3.6 240 09:37 01.07.2020
703 Clouds 21 1015 83 8000 2.6 190 09:18 01.07.2020
704 Clouds 21 1014 83 10000 4.6 230 08:41 01.07.2020
705 Clouds 21 1014 83 10000 4.6 230 08:23 01.07.2020
706 Clouds 21 1015 83 8000 2.1 190 07:58 01.07.2020
707 Clouds 21 1013 83 10000 3.6 240 07:38 01.07.2020
708 Clouds 21 1014 83 8000 2.1 190 07:20 01.07.2020
709 Clouds 22 1014 88 8000 2.1 190 06:49 01.07.2020
710 Clouds 22 1013 73 10000 4.6 220 06:27 01.07.2020
711 Clouds 21 1014 88 8000 2.6 230 04:32 01.07.2020
712 Clear 22 1013 83 10000 3.1 260 03:47 01.07.2020
713 Clouds 22 1014 94 8000 2.1 200 03:26 01.07.2020
714 Clear 23 1014 83 10000 2.1 250 02:41 01.07.2020
715 Clear 22 1014 88 10000 3.6 270 01:47 01.07.2020
716 Clear 22 1013 88 9000 2.1 310 00:42 01.07.2020
717 Clouds 22 1015 94 8000 3.1 220 00:23 01.07.2020
718 Clear 23 1013 83 10000 1 20 23:41 30.06.2020
719 Clouds 23 1014 88 8000 2.1 210 23:22 30.06.2020
720 Clear 24 1013 88 10000 1.5 230 22:56 30.06.2020
721 Clear 24 1012 69 10000 1 210 22:38 30.06.2020
722 Clear 24 1013 83 10000 2.1 250 22:18 30.06.2020
723 Clear 25 1012 69 10000 1 100 21:40 30.06.2020
724 Clear 25 1012 78 10000 2.6 260 21:19 30.06.2020
725 Clear 25 1012 69 10000 2.6 110 20:43 30.06.2020
726 Clear 25 1012 69 10000 2.6 110 20:43 30.06.2020
727 Clear 25 1012 69 10000 2.6 110 20:21 30.06.2020
728 Clear 26 1012 69 10000 1 290 19:55 30.06.2020
729 Clear 26 1012 69 10000 3.1 110 19:36 30.06.2020
730 Clear 26 1012 69 10000 3.1 110 19:18 30.06.2020
731 Clear 26 1012 65 10000 2.1 330 18:42 30.06.2020
732 Clear 27 1013 65 10000 3.1 260 18:20 30.06.2020
733 Haze 26 1013 61 9000 4.1 130 17:54 30.06.2020
734 Haze 26 1013 61 9000 4.1 130 17:36 30.06.2020
735 Clear 26 1013 65 10000 3.1 250 17:18 30.06.2020
736 Haze 26 1013 69 9000 4.6 100 16:41 30.06.2020
737 Clear 26 1013 73 10000 5.1 100 16:21 30.06.2020
738 Clear 26 1013 61 10000 2.6 240 15:57 30.06.2020
739 Clear 25 1014 78 10000 3.6 80 15:38 30.06.2020
740 Clear 25 1013 65 10000 2.1 240 15:20 30.06.2020
741 Clear 25 1014 78 10000 3.6 70 14:44 30.06.2020
742 Clear 25 1014 78 10000 3.6 70 14:22 30.06.2020
743 Clouds 25 1014 83 10000 3.6 70 13:59 30.06.2020
744 Clouds 24 1014 83 10000 3.6 70 13:38 30.06.2020
745 Clear 25 1013 69 10000 4.6 230 13:19 30.06.2020
746 Haze 24 1014 83 10000 3.1 70 12:56 30.06.2020
747 Haze 24 1014 83 10000 3.1 70 12:38 30.06.2020
748 Clear 25 1013 69 10000 4.1 230 12:19 30.06.2020
749 Clear 25 1013 69 10000 4.1 230 12:19 30.06.2020
750 Haze 25 1014 83 6000 2.6 70 11:56 30.06.2020
751 Clouds 24 1013 83 10000 2.6 70 11:38 30.06.2020
752 Clouds 24 1013 83 10000 2.6 70 11:18 30.06.2020
753 Clear 25 1015 61 10000 3.6 270 16:48 28.06.2020
754 Clouds 25 1016 78 10000 4.1 80 16:28 28.06.2020
755 Clouds 25 1016 78 10000 3.6 80 15:59 28.06.2020
756 Clouds 25 1016 78 10000 3.6 80 15:59 28.06.2020
757 Clouds 24 1016 78 10000 3.6 80 15:40 28.06.2020
758 Clear 25 1016 69 10000 3.6 260 15:20 28.06.2020
759 Clear 26 1016 65 10000 3.1 90 14:58 28.06.2020
760 Clear 25 1016 65 10000 3.1 90 14:39 28.06.2020
761 Clear 24 1017 73 10000 3.1 90 14:21 28.06.2020
762 Clear 24 1017 73 10000 3.1 80 13:40 28.06.2020
763 Clear 24 1017 73 10000 3.1 80 13:40 28.06.2020
764 Clear 25 1017 73 10000 3.1 90 13:21 28.06.2020
765 Clear 24 1017 73 10000 3.1 80 12:58 28.06.2020
766 Clear 23 1017 73 10000 3.1 80 12:38 28.06.2020
767 Clear 25 1017 73 10000 4.6 240 12:19 28.06.2020
768 Clear 24 1017 73 10000 2.6 90 11:58 28.06.2020
769 Clear 23 1017 73 10000 2.6 90 11:39 28.06.2020
770 Clear 23 1017 73 10000 2.6 90 11:39 28.06.2020
771 Clouds 24 1016 73 10000 1.5 90 11:20 28.06.2020
772 Clouds 23 1017 73 6000 2.1 210 10:57 28.06.2020
773 Clouds 23 1016 69 10000 1.5 260 10:39 28.06.2020
774 Clouds 23 1016 69 10000 1.5 260 10:21 28.06.2020
775 Clouds 21 1016 69 10000 2.1 240 09:40 28.06.2020
776 Clear 20 1016 82 10000 2.1 280 09:21 28.06.2020
777 Clear 20 1015 82 10000 0.5 290 08:53 28.06.2020
778 Clear 20 1015 82 10000 0.5 290 08:34 28.06.2020
779 Clear 20 1016 82 8000 1 0 07:53 28.06.2020
780 Clear 20 1015 73 10000 0.5 80 07:31 28.06.2020
781 Clear 20 1015 77 10000 1.5 90 06:53 28.06.2020
782 Clear 20 1015 77 10000 1.5 90 06:31 28.06.2020
783 Clear 21 1016 82 8000 2.1 70 05:27 28.06.2020
784 Clear 21 1015 69 10000 6.2 230 03:45 28.06.2020
785 Clear 20 1017 88 8000 1 0 02:49 28.06.2020
786 Clouds 21 1017 88 8000 1 0 02:18 28.06.2020
787 Clouds 21 1016 73 10000 7.7 220 01:27 28.06.2020
788 Clouds 21 1017 88 8000 0.5 0 00:51 28.06.2020
789 Clouds 22 1015 73 10000 7.2 220 00:27 28.06.2020
790 Clouds 23 1015 69 10000 6.7 220 23:43 27.06.2020
791 Clouds 22 1017 88 10000 0.5 0 23:24 27.06.2020
792 Clouds 22 1014 73 10000 9.3 210 22:59 27.06.2020
793 Clouds 22 1014 73 10000 9.3 210 22:40 27.06.2020
794 Clouds 23 1016 83 10000 1 0 22:21 27.06.2020
795 Clouds 24 1016 78 10000 1.5 290 21:55 27.06.2020
796 Clouds 24 1014 61 10000 6.2 220 21:37 27.06.2020
797 Clouds 24 1016 78 10000 2.6 290 21:19 27.06.2020
798 Clouds 25 1014 61 10000 6.7 210 20:43 27.06.2020
799 Clouds 25 1016 69 10000 3.1 290 20:19 27.06.2020
800 Clouds 24 1014 65 10000 7.2 210 19:55 27.06.2020
801 Clouds 25 1014 65 10000 7.2 210 19:36 27.06.2020
802 Clouds 25 1014 65 10000 7.2 210 19:18 27.06.2020
803 Clouds 25 1014 65 10000 7.2 210 19:18 27.06.2020
804 Clouds 26 1015 57 10000 5.7 210 18:45 27.06.2020
805 Clear 26 1015 57 10000 5.1 210 18:25 27.06.2020
806 Clear 26 1015 57 10000 5.1 210 17:57 27.06.2020
807 Clear 26 1015 57 10000 5.1 210 17:38 27.06.2020
808 Clear 26 1017 69 10000 4.1 280 17:19 27.06.2020
809 Clear 26 1015 57 10000 5.1 220 16:46 27.06.2020
810 Clear 26 1016 54 10000 5.1 220 16:27 27.06.2020
811 Clear 26 1016 54 10000 5.1 220 15:55 27.06.2020
812 Clear 26 1016 54 10000 5.1 220 15:55 27.06.2020
813 Clear 26 1016 54 10000 5.1 220 15:37 27.06.2020
814 Clear 26 1018 64 10000 4.6 260 15:18 27.06.2020
815 Clouds 26 1016 54 10000 5.1 230 14:42 27.06.2020
816 Clouds 26 1016 51 10000 5.1 240 14:24 27.06.2020
817 Clouds 25 1016 57 10000 6.7 260 13:57 27.06.2020
818 Clouds 25 1016 57 10000 6.7 260 13:37 27.06.2020
819 Clouds 25 1017 54 10000 6.2 250 13:19 27.06.2020
820 Clouds 24 1017 64 10000 6.2 260 12:56 27.06.2020
821 Clouds 24 1017 61 10000 7.2 260 12:37 27.06.2020
822 Clouds 24 1017 61 10000 7.2 260 12:19 27.06.2020
823 Clouds 24 1017 64 10000 6.7 260 11:42 27.06.2020
824 Clouds 23 1017 69 10000 7.2 270 11:23 27.06.2020
825 Clouds 23 1017 69 10000 7.2 270 10:57 27.06.2020
826 Clouds 22 1017 69 10000 7.2 270 10:38 27.06.2020
827 Clouds 22 1018 73 10000 3.1 190 10:18 27.06.2020
828 Clouds 21 1016 73 10000 7.2 280 09:41 27.06.2020
829 Clouds 20 1016 77 10000 5.1 270 09:21 27.06.2020
830 Clouds 20 1018 82 10000 2.6 200 08:56 27.06.2020
831 Clouds 19 1016 77 10000 4.1 240 08:37 27.06.2020
832 Clouds 19 1018 88 10000 2.6 190 08:19 27.06.2020
833 Clouds 19 1015 72 10000 4.6 250 07:38 27.06.2020
834 Clouds 19 1015 72 10000 4.6 250 07:19 27.06.2020
835 Clear 19 1016 72 10000 5.7 250 06:37 27.06.2020
836 Clear 20 1016 64 10000 6.2 250 05:46 27.06.2020
837 Clouds 19 1017 88 10000 0.5 0 04:21 27.06.2020
838 Clouds 19 1017 88 10000 0.5 0 03:51 27.06.2020
839 Clouds 20 1018 82 10000 1 0 02:48 27.06.2020
840 Clouds 19 1018 88 10000 1.5 220 02:27 27.06.2020
841 Clear 20 1017 77 10000 6.7 260 01:40 27.06.2020
842 Clear 21 1018 82 10000 2.6 240 00:52 27.06.2020
843 Clear 21 1015 64 10000 6.7 250 23:58 26.06.2020
844 Clear 21 1015 64 10000 6.7 250 23:40 26.06.2020
845 Clear 21 1017 77 10000 2.1 240 23:21 26.06.2020
846 Clear 22 1015 64 10000 7.7 270 22:45 26.06.2020
847 Clear 23 1016 77 10000 2.6 250 22:26 26.06.2020
848 Clear 23 1015 54 10000 6.2 250 21:58 26.06.2020
849 Clear 26 1015 54 10000 6.2 250 21:40 26.06.2020
850 Clear 26 1014 54 10000 6.7 260 21:21 26.06.2020
851 Clear 26 1014 54 10000 6.7 260 20:59 26.06.2020
852 Clear 26 1014 54 10000 6.7 260 20:40 26.06.2020
853 Clear 26 1014 54 10000 6.7 260 20:18 26.06.2020
854 Clouds 27 1014 51 10000 4.1 240 19:41 26.06.2020
855 Clouds 26 1014 48 10000 4.1 250 19:23 26.06.2020
856 Clouds 26 1015 51 10000 3.6 230 18:44 26.06.2020
857 Clouds 26 1015 48 10000 5.1 220 18:25 26.06.2020
858 Clouds 26 1015 51 10000 6.2 220 17:57 26.06.2020
859 Clouds 26 1015 51 10000 6.2 220 17:39 26.06.2020
860 Clouds 26 1015 51 10000 5.1 220 17:21 26.06.2020
861 Clouds 26 1015 54 10000 5.7 230 16:43 26.06.2020
862 Clouds 26 1017 69 10000 6.7 260 16:23 26.06.2020
863 Clouds 26 1016 54 10000 5.1 230 15:42 26.06.2020
864 Clouds 25 1017 64 10000 6.7 230 15:22 26.06.2020
865 Clouds 25 1016 65 10000 5.1 260 14:59 26.06.2020
866 Clouds 25 1016 65 10000 5.1 260 14:40 26.06.2020
867 Clouds 25 1017 64 10000 6.2 230 14:22 26.06.2020
868 Clouds 24 1016 69 10000 5.7 280 13:57 26.06.2020
869 Clouds 24 1016 69 10000 5.7 280 13:38 26.06.2020
870 Clouds 24 1016 69 10000 6.2 270 13:18 26.06.2020
871 Clouds 24 1016 61 10000 4.1 230 12:41 26.06.2020
872 Clouds 24 1016 61 10000 4.1 230 12:23 26.06.2020
873 Clouds 24 1016 64 10000 4.1 220 11:57 26.06.2020
874 Clouds 23 1016 64 10000 4.1 220 11:39 26.06.2020
875 Clouds 23 1016 69 10000 3.1 210 11:20 26.06.2020
876 Clouds 23 1016 69 10000 3.1 240 10:57 26.06.2020
877 Clouds 23 1016 69 10000 3.1 240 10:38 26.06.2020
878 Clouds 22 1017 73 8000 4.6 220 10:18 26.06.2020
879 Clouds 22 1016 78 10000 3.1 240 09:43 26.06.2020
880 Clouds 22 1016 73 10000 3.1 240 09:23 26.06.2020
881 Clouds 21 1016 82 8000 3.1 230 08:55 26.06.2020
882 Clouds 21 1015 77 10000 3.1 220 08:28 26.06.2020
883 Clouds 21 1015 77 10000 3.1 220 08:28 26.06.2020
884 Clouds 20 1016 88 8000 2.6 230 07:53 26.06.2020
885 Clouds 20 1015 82 10000 3.1 270 07:24 26.06.2020
886 Clouds 21 1016 83 8000 2.6 220 06:58 26.06.2020
887 Clouds 21 1015 77 10000 2.6 250 06:36 26.06.2020
888 Clouds 22 1015 73 10000 7.2 220 05:59 26.06.2020
889 Clouds 22 1015 73 10000 7.2 220 05:33 26.06.2020
890 Clouds 21 1016 77 8000 2.6 210 03:30 26.06.2020
891 Clouds 21 1016 83 8000 2.1 220 02:22 26.06.2020
892 Clear 21 1016 83 10000 6.7 290 01:19 26.06.2020
893 Clear 22 1016 78 10000 4.6 280 00:39 26.06.2020
894 Clear 22 1016 78 10000 4.6 280 00:18 26.06.2020
895 Clear 22 1015 73 10000 5.1 260 23:39 25.06.2020
896 Clear 23 1016 83 10000 2.1 210 23:18 25.06.2020
897 Clear 23 1016 83 10000 2.6 220 22:54 25.06.2020
898 Clear 23 1014 65 10000 4.1 240 22:36 25.06.2020
899 Clear 23 1015 83 10000 2.6 210 22:18 25.06.2020
900 Clear 24 1015 78 10000 2.1 210 21:54 25.06.2020
901 Clear 24 1014 61 10000 6.7 200 21:36 25.06.2020
902 Clouds 24 1015 73 10000 3.1 220 21:18 25.06.2020
903 Clear 25 1013 61 10000 5.1 200 20:43 25.06.2020
904 Clear 25 1013 61 10000 5.1 200 20:23 25.06.2020
905 Clear 26 1013 57 10000 4.1 200 19:56 25.06.2020
906 Clear 26 1013 57 10000 4.1 200 19:37 25.06.2020
907 Clear 25 1014 57 10000 4.1 190 19:18 25.06.2020
908 Clear 26 1014 57 10000 4.1 190 18:40 25.06.2020
909 Clear 26 1014 57 10000 5.1 200 18:21 25.06.2020
910 Clouds 25 1014 61 10000 6.7 200 17:55 25.06.2020
911 Clouds 25 1014 61 10000 6.7 200 17:37 25.06.2020
912 Clouds 26 1015 69 10000 3.1 250 17:19 25.06.2020
913 Clouds 26 1015 61 10000 3.6 200 16:40 25.06.2020
914 Clouds 26 1016 61 10000 4.1 250 16:20 25.06.2020
915 Clouds 25 1015 61 10000 4.1 190 15:45 25.06.2020
916 Clouds 25 1015 61 10000 4.6 200 15:27 25.06.2020
917 Clouds 25 1016 61 10000 4.1 210 14:58 25.06.2020
918 Clouds 25 1016 61 10000 4.1 210 14:40 25.06.2020
919 Clouds 25 1016 65 10000 5.1 200 14:22 25.06.2020
920 Clouds 25 1016 65 10000 4.1 200 13:55 25.06.2020
921 Clouds 25 1016 65 10000 4.1 200 13:37 25.06.2020
922 Clouds 25 1016 64 8000 2.6 210 13:19 25.06.2020
923 Clouds 24 1016 69 10000 3.6 200 12:43 25.06.2020
924 Clouds 24 1016 69 10000 3.1 200 12:20 25.06.2020
925 Clouds 24 1016 69 10000 3.1 200 11:44 25.06.2020
926 Clouds 23 1016 73 10000 3.1 220 11:25 25.06.2020
927 Clouds 23 1015 78 10000 2.1 200 10:57 25.06.2020
928 Clouds 23 1015 78 10000 2.1 200 10:39 25.06.2020
929 Clouds 22 1015 73 8000 4.1 190 10:20 25.06.2020
930 Clouds 21 1015 82 10000 1.5 260 09:41 25.06.2020
931 Clouds 21 1015 82 10000 1.5 260 09:22 25.06.2020
932 Clouds 21 1014 88 10000 1 290 08:47 25.06.2020
933 Mist 21 1015 77 4000 2.1 200 08:20 25.06.2020
934 Clouds 21 1014 88 10000 1.75 231 07:45 25.06.2020
935 Clouds 21 1014 88 10000 1.92 236 07:26 25.06.2020
936 Clouds 21 1014 94 10000 1 260 06:48 25.06.2020
937 Clouds 21 1014 94 10000 1 260 06:27 25.06.2020
938 Mist 21 1014 78 4000 1.5 170 05:51 25.06.2020
939 Clear 22 1015 73 10000 4.1 110 03:57 25.06.2020
940 Mist 22 1015 83 4000 1.5 190 03:29 25.06.2020
941 Clear 22 1016 69 10000 5.7 140 02:42 25.06.2020
942 Mist 22 1015 94 4000 1.5 200 01:55 25.06.2020
943 Clear 23 1016 73 10000 3.6 110 01:19 25.06.2020
944 Clear 21 1016 94 7000 4.1 60 00:42 25.06.2020
945 Mist 21 1015 88 4000 1.5 200 00:20 25.06.2020
946 Clear 21 1015 94 8000 4.1 50 23:44 24.06.2020
947 Clear 21 1014 88 6000 1 0 23:25 24.06.2020
948 Clear 22 1014 88 9000 4.1 60 22:58 24.06.2020
949 Clear 22 1014 88 9000 4.1 60 22:40 24.06.2020
950 Clear 23 1013 83 10000 1.5 250 22:19 24.06.2020
951 Clear 23 1013 83 10000 2.6 240 21:55 24.06.2020
952 Clear 24 1013 78 10000 3.1 240 21:36 24.06.2020
953 Clear 24 1013 78 10000 3.1 240 21:18 24.06.2020
954 Haze 24 1014 61 9000 5.1 120 20:56 24.06.2020
955 Haze 25 1014 61 9000 5.1 120 20:38 24.06.2020
956 Clear 25 1013 73 10000 3.1 240 20:19 24.06.2020
957 Haze 25 1014 65 9000 4.1 120 19:55 24.06.2020
958 Haze 25 1014 65 9000 4.1 120 19:55 24.06.2020
959 Haze 25 1014 65 9000 4.1 120 19:36 24.06.2020
960 Haze 25 1014 73 9000 4.6 100 19:18 24.06.2020
961 Clear 24 1014 78 10000 4.6 90 18:56 24.06.2020
962 Clear 24 1014 78 10000 4.6 90 18:37 24.06.2020
963 Clear 25 1013 69 10000 4.1 240 18:18 24.06.2020
964 Haze 25 1015 73 9000 5.1 110 17:41 24.06.2020
965 Haze 25 1015 73 9000 5.1 110 17:41 24.06.2020
966 Clear 25 1014 65 10000 5.1 250 17:19 24.06.2020
967 Clouds 25 1015 73 10000 4.6 120 16:56 24.06.2020
968 Clouds 25 1015 73 10000 4.6 120 16:38 24.06.2020
969 Clouds 25 1015 69 10000 4.6 110 16:20 24.06.2020
970 Clouds 26 1015 69 10000 5.1 100 15:56 24.06.2020
971 Clouds 25 1015 69 10000 5.1 100 15:38 24.06.2020
972 Clear 26 1014 61 10000 5.7 280 15:19 24.06.2020
973 Clouds 25 1015 65 10000 5.1 120 14:43 24.06.2020
974 Clouds 26 1015 65 10000 5.1 100 14:24 24.06.2020
975 Clouds 26 1015 65 10000 5.1 140 13:43 24.06.2020
976 Clouds 26 1015 61 8000 3.6 270 13:22 24.06.2020
977 Clouds 25 1015 69 10000 5.1 110 12:59 24.06.2020
978 Clouds 24 1015 69 10000 5.1 110 12:41 24.06.2020
979 Clouds 25 1015 69 8000 4.6 240 12:20 24.06.2020
980 Clear 25 1015 65 10000 4.1 110 11:56 24.06.2020
981 Clear 25 1015 65 10000 4.1 110 11:38 24.06.2020
982 Clouds 25 1014 61 8000 2.1 190 11:18 24.06.2020
983 Rain 24 1015 60 10000 4.1 110 10:43 24.06.2020
984 Clouds 24 1014 69 10000 1.5 160 10:19 24.06.2020
985 Clouds 24 1014 69 10000 1.5 160 10:19 24.06.2020
986 Clouds 24 1015 60 10000 4.1 100 09:43 24.06.2020
987 Clouds 23 1015 64 10000 4.6 90 09:22 24.06.2020
988 Clouds 22 1014 64 10000 4.6 100 08:43 24.06.2020
989 Clouds 22 1014 64 10000 4.6 100 08:21 24.06.2020
990 Clear 21 1014 88 10000 1 0 07:51 24.06.2020
991 Clouds 21 1014 73 10000 4.6 50 07:31 24.06.2020
992 Clear 21 1013 88 10000 0.5 0 06:51 24.06.2020
993 Clear 21 1014 68 10000 3.6 40 06:25 24.06.2020
994 Clear 21 1014 73 10000 6.2 30 05:56 24.06.2020
995 Clear 23 1015 73 10000 5.1 40 04:46 24.06.2020
996 Clear 23 1015 73 10000 5.1 40 04:27 24.06.2020
997 Clear 21 1015 77 7000 4.1 60 03:34 24.06.2020
998 Clear 22 1015 73 9000 4.6 90 02:45 24.06.2020
999 Clear 22 1015 73 7000 3.6 80 01:36 24.06.2020
1000 Clear 23 1016 64 10000 4.6 90 00:47 24.06.2020
1001 Clear 23 1016 64 10000 4.6 90 00:27 24.06.2020
1002 Clear 23 1015 60 10000 5.1 90 23:44 23.06.2020
1003 Clear 23 1014 83 10000 1.5 210 23:19 23.06.2020
1004 Clear 22 1014 78 7000 3.1 60 22:42 23.06.2020
1005 Clear 22 1013 88 10000 3.6 280 22:19 23.06.2020
1006 Clear 23 1014 64 10000 5.7 100 21:59 23.06.2020
1007 Clear 24 1014 64 10000 5.7 100 21:40 23.06.2020
1008 Clear 24 1011 78 10000 4.1 270 21:19 23.06.2020
1009 Clear 25 1011 73 10000 3.6 270 20:55 23.06.2020
1010 Clear 26 1014 61 10000 5.1 110 20:37 23.06.2020
1011 Clear 26 1014 61 10000 5.1 110 20:18 23.06.2020
1012 Clear 25 1014 69 10000 5.1 90 19:44 23.06.2020
1013 Clear 25 1014 69 10000 5.1 90 19:26 23.06.2020
1014 Clear 25 1014 69 10000 5.7 90 18:42 23.06.2020
1015 Clear 25 1014 69 10000 5.7 90 18:19 23.06.2020
1016 Clouds 26 1014 69 10000 4.6 80 17:56 23.06.2020
1017 Clouds 26 1014 69 10000 4.6 80 17:38 23.06.2020
1018 Clouds 25 1014 69 10000 4.6 80 17:19 23.06.2020
1019 Clear 26 1012 65 10000 3.6 250 16:55 23.06.2020
1020 Clouds 26 1015 65 10000 4.1 60 16:36 23.06.2020
1021 Clear 26 1012 65 10000 3.6 250 16:18 23.06.2020
1022 Clouds 25 1015 65 10000 4.6 60 15:43 23.06.2020
1023 Clouds 26 1015 65 10000 5.1 60 15:24 23.06.2020
1024 Clouds 25 1015 73 10000 4.1 80 14:56 23.06.2020
1025 Clouds 25 1015 69 10000 5.1 90 14:37 23.06.2020
1026 Clouds 24 1015 69 10000 5.1 90 14:18 23.06.2020
1027 Clouds 24 1015 69 10000 5.1 90 13:45 23.06.2020
1028 Clouds 25 1015 65 10000 5.7 100 13:25 23.06.2020
1029 Clouds 25 1015 65 10000 5.7 100 12:55 23.06.2020
1030 Clouds 25 1015 69 10000 5.1 100 12:37 23.06.2020
1031 Clouds 27 1015 69 10000 5.1 100 12:18 23.06.2020
1032 Clouds 26 1015 69 10000 5.7 110 11:42 23.06.2020
1033 Clouds 27 1015 69 10000 5.7 130 11:22 23.06.2020
1034 Clouds 26 1015 69 10000 6.2 120 10:58 23.06.2020
1035 Clouds 25 1015 69 10000 6.2 120 10:40 23.06.2020
1036 Clear 25 1015 73 10000 6.2 110 10:22 23.06.2020
1037 Clouds 24 1015 73 10000 5.7 110 09:56 23.06.2020
1038 Clear 24 1015 69 10000 6.2 130 09:38 23.06.2020
1039 Clear 23 1015 69 10000 6.2 130 09:18 23.06.2020
1040 Clear 23 1015 60 10000 4.6 120 08:42 23.06.2020
1041 Clear 23 1015 60 10000 4.6 120 08:22 23.06.2020
1042 Clear 24 1014 60 10000 5.7 100 07:45 23.06.2020
1043 Clear 24 1014 60 10000 5.7 100 07:24 23.06.2020
1044 Clear 23 1015 68 10000 6.2 90 06:52 23.06.2020
1045 Clear 23 1015 68 10000 6.2 90 06:32 23.06.2020
1046 Clear 23 1015 73 10000 6.7 100 05:48 23.06.2020
1047 Clear 22 1016 77 10000 7.2 90 04:42 23.06.2020
1048 Clear 24 1016 73 10000 6.7 60 03:20 23.06.2020
1049 Clear 24 1016 73 10000 5.1 70 02:46 23.06.2020
1050 Clear 24 1016 73 10000 5.1 70 02:27 23.06.2020
1051 Clear 24 1017 73 10000 5.7 70 01:44 23.06.2020
1052 Clear 25 1017 73 10000 5.7 70 01:21 23.06.2020
1053 Clear 24 1017 77 10000 4.6 80 00:38 23.06.2020
1054 Clear 25 1017 77 10000 4.6 80 00:18 23.06.2020
1055 Clear 25 1016 68 10000 4.6 80 23:39 22.06.2020
1056 Clear 26 1011 26 10000 11.3 70 23:19 22.06.2020
1057 Clear 25 1016 73 10000 4.1 80 22:58 22.06.2020
1058 Clear 25 1016 73 10000 4.1 80 22:40 22.06.2020
1059 Clear 25 1011 26 10000 9.3 80 22:20 22.06.2020
1060 Clear 26 1016 73 10000 4.6 70 21:58 22.06.2020
1061 Clear 26 1016 73 10000 4.6 70 21:40 22.06.2020
1062 Clear 26 1016 73 10000 4.6 70 21:21 22.06.2020
1063 Clear 27 1011 23 10000 11.3 70 20:54 22.06.2020
1064 Clear 27 1016 73 10000 3.6 70 20:36 22.06.2020
1065 Clear 27 1016 73 10000 3.6 70 20:18 22.06.2020
1066 Clear 28 1016 65 10000 5.1 120 19:42 22.06.2020
1067 Clear 29 1016 61 10000 5.1 110 19:19 22.06.2020
1068 Clear 29 1016 61 10000 5.1 110 18:56 22.06.2020
1069 Clear 29 1016 57 10000 6.7 100 18:36 22.06.2020
1070 Clear 29 1011 22 10000 12.9 80 18:18 22.06.2020
1071 Clear 29 1017 53 10000 5.7 100 17:39 22.06.2020
1072 Clear 29 1017 53 10000 5.7 100 17:21 22.06.2020
1073 Clear 29 1017 53 10000 6.2 100 16:59 22.06.2020
1074 Clear 29 1018 57 10000 6.2 100 16:40 22.06.2020
1075 Clear 30 1013 20 10000 11.3 80 16:18 22.06.2020
1076 Clear 28 1018 60 10000 5.7 100 15:44 22.06.2020
1077 Clear 28 1018 60 10000 5.7 100 15:26 22.06.2020
1078 Clear 29 1019 64 10000 6.2 100 14:58 22.06.2020
1079 Clear 28 1019 73 10000 5.7 100 14:39 22.06.2020
1080 Clear 28 1014 19 10000 13.9 80 14:20 22.06.2020
1081 Clear 28 1019 73 10000 5.7 100 13:54 22.06.2020
1082 Clear 28 1019 69 10000 5.7 100 13:36 22.06.2020
1083 Clear 28 1015 18 10000 13.4 80 13:18 22.06.2020
1084 Clear 26 1019 77 10000 4.6 80 12:41 22.06.2020
1085 Clear 26 1019 77 10000 4.6 80 12:22 22.06.2020
1086 Clear 26 1019 68 10000 4.1 70 11:38 22.06.2020
1087 Clear 27 1014 21 10000 11.3 70 11:19 22.06.2020
1088 Clear 26 1019 64 10000 5.1 70 10:57 22.06.2020
1089 Clear 26 1019 68 10000 3.1 60 10:39 22.06.2020
1090 Clear 26 1015 23 10000 9.8 70 10:19 22.06.2020
1091 Clouds 25 1018 68 10000 3.1 50 09:57 22.06.2020
1092 Clear 24 1018 73 10000 3.6 40 09:39 22.06.2020
1093 Clear 25 1015 34 10000 5.7 70 09:19 22.06.2020
1094 Clouds 22 1018 82 10000 1.5 120 08:56 22.06.2020
1095 Clouds 21 1018 82 10000 1.5 120 08:38 22.06.2020
1096 Clear 21 1015 46 10000 2.6 100 08:19 22.06.2020
1097 Clear 20 1015 49 10000 2.6 90 07:46 22.06.2020
1098 Clear 20 1018 82 10000 1 70 07:25 22.06.2020
1099 Clear 20 1018 82 10000 0.5 310 06:39 22.06.2020
1100 Clear 20 1015 56 10000 1.5 120 06:20 22.06.2020
1101 Clear 21 1016 56 10000 2.1 120 05:42 22.06.2020
1102 Clear 22 1016 53 10000 6.7 50 03:47 22.06.2020
1103 Clear 23 1018 53 10000 5.1 50 01:53 22.06.2020
1104 -273 0 0 0 0 0 00:59 22.06.2020
1105 Clear 23 1019 60 10000 2.6 60 00:38 22.06.2020
1106 Clear 24 1019 56 10000 3.6 60 23:57 21.06.2020
1107 Clear 24 1019 56 10000 3.6 60 23:38 21.06.2020
1108 Clear 24 1018 50 10000 2.1 80 23:20 21.06.2020
1109 Clear 25 1019 60 10000 3.6 60 22:56 21.06.2020
1110 Clear 24 1019 60 10000 3.6 60 22:36 21.06.2020
1111 Clear 25 1018 31 10000 1.5 90 22:18 21.06.2020
1112 Clear 26 1018 18 10000 1.5 350 21:55 21.06.2020
1113 Clear 26 1019 64 10000 3.1 60 21:37 21.06.2020
1114 Clear 27 1018 20 10000 3.6 320 21:19 21.06.2020
1115 Clear 26 1018 69 10000 4.1 70 20:56 21.06.2020
1116 Clear 27 1019 69 10000 3.6 60 20:36 21.06.2020
1117 Clear 27 1018 28 10000 5.7 320 20:18 21.06.2020
1118 Clear 27 1019 64 10000 3.6 80 19:41 21.06.2020
1119 Clear 28 1019 64 10000 3.6 80 19:21 21.06.2020
1120 Clear 29 1019 42 10000 3.1 140 18:56 21.06.2020
1121 Clear 29 1019 42 10000 3.1 120 18:38 21.06.2020
1122 Clear 29 1019 35 10000 7.2 320 18:20 21.06.2020
1123 Clear 30 1019 48 10000 2.1 110 17:55 21.06.2020
1124 Clear 30 1019 45 10000 2.1 240 17:36 21.06.2020
1125 Clear 31 1019 33 10000 6.7 320 17:18 21.06.2020
1126 Clear 31 1020 37 10000 2.1 230 16:40 21.06.2020
1127 Clear 31 1019 43 10000 5.1 330 16:22 21.06.2020
1128 Clear 31 1020 35 10000 2.6 210 15:42 21.06.2020
1129 Clear 31 1020 35 10000 2.6 210 15:24 21.06.2020
1130 Clear 29 1020 35 10000 2.6 210 14:59 21.06.2020
1131 Clear 29 1021 39 10000 2.6 210 14:38 21.06.2020
1132 Clear 28 1021 45 10000 3.1 210 14:19 21.06.2020
1133 Clear 28 1021 45 10000 3.1 210 13:55 21.06.2020
1134 Clear 27 1021 47 10000 3.1 200 13:37 21.06.2020
1135 Clear 27 1021 57 10000 2.6 270 13:18 21.06.2020
1136 Clear 26 1022 57 10000 3.1 270 12:43 21.06.2020
1137 Clear 26 1021 47 10000 3.1 200 12:24 21.06.2020
1138 Clear 25 1022 61 10000 3.1 250 11:43 21.06.2020
1139 Clear 25 1022 61 10000 3.1 250 11:43 21.06.2020
1140 Clear 24 1021 53 10000 2.1 210 11:25 21.06.2020
1141 Clear 23 1021 60 10000 2.6 250 10:59 21.06.2020
1142 Clouds 22 1021 68 10000 2.1 260 10:41 21.06.2020
1143 Clouds 22 1021 68 10000 2.1 260 10:22 21.06.2020
1144 Clouds 21 1021 72 10000 1 250 09:58 21.06.2020
1145 Clouds 20 1021 77 10000 1 250 09:36 21.06.2020
1146 Clear 19 1021 64 10000 1.5 100 09:18 21.06.2020
1147 Clear 19 1021 64 10000 1.5 100 08:54 21.06.2020
1148 Clear 17 1021 77 10000 2.6 260 08:36 21.06.2020
1149 Clear 17 1021 77 10000 2.6 260 08:18 21.06.2020
1150 Clear 18 1020 72 10000 0.5 250 07:40 21.06.2020
1151 Clear 18 1020 72 10000 0.5 250 07:21 21.06.2020
1152 Clear 19 1020 77 10000 1.5 80 06:48 21.06.2020
1153 Clear 18 1020 82 10000 1.5 270 05:59 21.06.2020
1154 Clear 19 1021 82 10000 1.5 260 04:50 21.06.2020
1155 Clear 19 1021 77 10000 2.6 270 03:20 21.06.2020
1156 Clear 20 1021 60 10000 1 100 02:53 21.06.2020
1157 Clear 20 1021 56 10000 1 0 01:48 21.06.2020
1158 Clear 21 1021 82 10000 2.1 250 01:21 21.06.2020
1159 Clear 21 1021 49 10000 1 0 00:55 21.06.2020
1160 Clear 21 1021 82 10000 1 250 00:36 21.06.2020
1161 Clear 21 1021 53 10000 3.1 20 00:18 21.06.2020
1162 Clear 23 1021 56 10000 1 90 23:41 20.06.2020
1163 Clear 23 1021 43 10000 2.6 10 23:21 20.06.2020
1164 Clear 23 1020 43 10000 1.5 360 22:55 20.06.2020
1165 Clear 23 1020 43 10000 1.5 360 22:55 20.06.2020
1166 Clear 23 1020 73 10000 1 260 22:37 20.06.2020
1167 Clear 23 1020 41 10000 4.6 30 22:18 20.06.2020
1168 Clear 23 1020 47 10000 4.6 30 21:55 20.06.2020
1169 Clear 24 1020 73 10000 1.5 290 21:37 20.06.2020
1170 Clear 24 1019 44 10000 3.1 10 21:18 20.06.2020
1171 Clear 26 1019 37 10000 3.6 40 20:54 20.06.2020
1172 Clear 26 1020 73 10000 2.6 90 20:36 20.06.2020
1173 Clear 26 1019 32 10000 5.1 40 20:18 20.06.2020
1174 Clear 26 1019 32 10000 5.1 40 20:18 20.06.2020
1175 Clouds 26 1020 78 10000 3.1 90 19:42 20.06.2020
1176 Clear 26 1018 30 10000 6.7 30 19:21 20.06.2020
1177 Clear 27 1019 31 10000 6.2 30 18:43 20.06.2020
1178 Clouds 27 1021 78 10000 3.1 70 18:21 20.06.2020
1179 Clouds 26 1021 78 10000 4.1 80 17:58 20.06.2020
1180 Clouds 27 1021 73 10000 4.6 90 17:40 20.06.2020
1181 Clouds 28 1021 73 10000 4.6 90 17:21 20.06.2020
1182 Clouds 27 1021 73 10000 4.6 90 16:56 20.06.2020
1183 Clouds 27 1021 73 10000 4.6 90 16:38 20.06.2020
1184 Clear 27 1019 33 10000 8.2 40 16:18 20.06.2020
1185 Clear 27 1019 33 10000 7.7 40 15:42 20.06.2020
1186 Clear 27 1019 35 10000 6.7 40 15:18 20.06.2020
1187 Clear 27 1019 35 10000 6.7 40 14:43 20.06.2020
1188 Clear 27 1021 56 10000 4.6 100 14:22 20.06.2020
1189 Clear 27 1021 57 10000 4.1 100 13:55 20.06.2020
1190 Clear 26 1021 60 10000 4.1 90 13:37 20.06.2020
1191 Clear 26 1020 42 10000 4.6 40 13:19 20.06.2020
1192 Clear 25 1021 69 10000 3.1 90 12:42 20.06.2020
1193 Clear 25 1020 47 10000 2.6 60 12:21 20.06.2020
1194 Clear 24 1021 77 10000 3.6 70 11:58 20.06.2020
1195 Clear 23 1021 77 10000 2.6 80 11:38 20.06.2020
1196 Clear 24 1020 47 10000 2.1 30 11:20 20.06.2020
1197 Clear 23 1021 77 10000 2.6 80 10:50 20.06.2020
1198 Clouds 22 1021 77 10000 1.5 80 10:23 20.06.2020
1199 Clouds 20 1021 82 10000 2.6 80 09:57 20.06.2020
1200 Clouds 20 1021 82 10000 2.1 60 09:39 20.06.2020
1201 Clouds 20 1021 82 10000 2.1 60 09:21 20.06.2020
1202 Clear 19 1019 77 10000 1 0 08:48 20.06.2020
1203 Clouds 18 1020 88 10000 2.1 90 08:30 20.06.2020
1204 Clear 17 1019 82 10000 1.5 100 07:53 20.06.2020
1205 Clouds 17 1020 82 10000 1 70 07:28 20.06.2020
1206 Clear 17 1019 82 10000 1 40 06:58 20.06.2020
1207 Clear 18 1019 82 10000 1 40 06:24 20.06.2020
1208 Clear 18 1019 82 10000 2.1 80 05:54 20.06.2020
1209 Clear 18 1020 82 10000 1.5 30 05:25 20.06.2020
1210 Clear 19 1020 77 10000 0.5 0 02:53 20.06.2020
1211 Clear 19 1020 77 10000 0.5 0 01:49 20.06.2020
1212 Clear 20 1020 73 10000 5.1 220 01:22 20.06.2020
1213 Clear 21 1020 68 10000 5.7 220 00:22 20.06.2020
1214 Clear 21 1019 60 10000 4.6 220 23:58 19.06.2020
1215 Clear 21 1019 60 10000 4.6 220 23:38 19.06.2020
1216 Clear 21 1020 77 10000 0.5 0 23:18 19.06.2020
1217 Clear 22 1018 57 10000 3.6 230 22:41 19.06.2020
1218 Clear 22 1018 57 10000 3.6 230 22:23 19.06.2020
1219 Clear 23 1018 57 10000 4.1 220 21:59 19.06.2020
1220 Clouds 24 1018 53 10000 4.1 220 21:38 19.06.2020
1221 Clear 24 1019 56 10000 3.6 320 21:18 19.06.2020
1222 Clouds 24 1018 53 10000 5.1 210 20:58 19.06.2020
1223 Clouds 24 1018 50 10000 5.1 210 20:40 19.06.2020
1224 Clouds 24 1018 50 10000 5.1 210 20:21 19.06.2020
1225 Clouds 24 1018 50 10000 5.7 200 19:57 19.06.2020
1226 Clouds 25 1018 47 10000 5.1 200 19:39 19.06.2020
1227 Clouds 25 1018 47 10000 5.1 200 19:21 19.06.2020
1228 Clouds 24 1018 50 10000 7.2 200 18:42 19.06.2020
1229 Clouds 24 1018 50 10000 7.2 200 18:22 19.06.2020
1230 Clouds 25 1018 47 10000 6.2 200 17:58 19.06.2020
1231 Clouds 25 1018 47 10000 6.2 200 17:39 19.06.2020
1232 Clear 25 1019 57 10000 5.1 310 17:20 19.06.2020
1233 Clear 25 1020 60 10000 5.1 300 16:55 19.06.2020
1234 Clouds 25 1018 47 10000 5.1 210 16:37 19.06.2020
1235 Clear 25 1020 53 10000 5.7 270 16:18 19.06.2020
1236 Clouds 24 1020 57 10000 5.7 270 15:42 19.06.2020
1237 Clouds 25 1019 53 10000 4.6 220 15:21 19.06.2020
1238 Clouds 25 1019 53 10000 4.6 210 14:56 19.06.2020
1239 Clouds 24 1019 57 10000 5.1 220 14:38 19.06.2020
1240 Clouds 24 1020 57 10000 5.7 240 14:19 19.06.2020
1241 Clouds 24 1019 57 10000 3.1 230 13:44 19.06.2020
1242 Clouds 24 1019 57 10000 3.1 230 13:26 19.06.2020
1243 Clouds 24 1020 60 10000 6.2 240 12:48 19.06.2020
1244 Clouds 23 1019 60 10000 4.6 220 12:23 19.06.2020
1245 Clouds 23 1019 60 10000 6.2 220 11:59 19.06.2020
1246 Clouds 23 1018 60 10000 5.1 230 11:40 19.06.2020
1247 Clouds 23 1019 64 10000 3.6 210 11:18 19.06.2020
1248 Clouds 22 1019 60 10000 3.1 180 10:46 19.06.2020
1249 Clouds 22 1018 64 10000 3.1 220 10:27 19.06.2020
1250 Clouds 21 1018 68 10000 4.6 240 09:59 19.06.2020
1251 Clouds 21 1018 68 10000 4.6 240 09:59 19.06.2020
1252 Clouds 20 1018 72 10000 2.6 240 09:41 19.06.2020
1253 Clouds 20 1018 72 10000 2.6 240 09:20 19.06.2020
1254 Clouds 18 1019 77 10000 2.6 180 08:45 19.06.2020
1255 Clouds 19 1018 77 10000 3.1 240 08:26 19.06.2020
1256 Clouds 18 1017 77 10000 5.1 240 07:56 19.06.2020
1257 Clouds 18 1017 77 10000 5.1 240 07:38 19.06.2020
1258 Clouds 18 1019 82 10000 2.6 170 07:20 19.06.2020
1259 Clear 18 1017 77 10000 5.1 230 06:25 19.06.2020
1260 Clouds 19 1018 77 10000 2.6 170 05:46 19.06.2020
1261 Clear 19 1016 72 10000 5.7 230 04:27 19.06.2020
1262 Clouds 19 1018 77 10000 2.6 180 02:51 19.06.2020
1263 Clear 20 1016 64 10000 7.7 290 00:56 19.06.2020
1264 Clear 20 1016 64 10000 7.7 290 00:37 19.06.2020
1265 Clouds 20 1018 72 10000 2.1 210 00:19 19.06.2020
1266 Clear 20 1015 60 10000 5.1 240 23:41 18.06.2020
1267 Clear 20 1015 60 10000 5.1 240 23:23 18.06.2020
1268 Clear 20 1015 64 10000 6.7 220 22:59 18.06.2020
1269 Clear 20 1015 64 10000 6.7 220 22:37 18.06.2020
1270 Clouds 20 1017 72 10000 2.6 230 22:18 18.06.2020
1271 Clear 21 1014 53 10000 6.7 270 21:39 18.06.2020
1272 Clouds 21 1016 72 10000 3.1 240 21:20 18.06.2020
1273 Clouds 24 1013 39 10000 6.2 260 20:57 18.06.2020
1274 Clouds 24 1013 39 10000 6.2 260 20:38 18.06.2020
1275 Clouds 24 1015 73 10000 4.6 250 20:19 18.06.2020
1276 Clouds 24 1015 64 10000 5.7 260 19:42 18.06.2020
1277 Clouds 25 1015 60 10000 5.1 270 19:21 18.06.2020
1278 Clouds 25 1013 41 10000 5.1 240 18:57 18.06.2020
1279 Clouds 24 1013 47 10000 7.2 280 18:37 18.06.2020
1280 Clouds 24 1015 56 10000 5.7 280 18:18 18.06.2020
1281 Clouds 25 1015 53 10000 6.2 290 17:45 18.06.2020
1282 Clouds 26 1013 42 10000 5.1 260 17:25 18.06.2020
1283 Fog 26 1013 44 10000 4.6 190 16:55 18.06.2020
1284 Fog 21 1014 82 10000 2.1 70 16:37 18.06.2020
1285 Clouds 21 1015 60 10000 6.2 280 16:18 18.06.2020
1286 Fog 20 1014 88 10000 3.1 90 15:40 18.06.2020
1287 Fog 21 1014 88 10000 3.1 90 15:21 18.06.2020
1288 Fog 21 1014 88 3000 3.1 80 14:58 18.06.2020
1289 Mist 21 1014 88 3000 3.1 80 14:39 18.06.2020
1290 Fog 21 1014 88 3000 3.1 80 14:21 18.06.2020
1291 Fog 21 1014 88 4000 3.6 80 13:55 18.06.2020
1292 Fog 21 1015 88 4000 4.1 80 13:36 18.06.2020
1293 Clouds 21 1015 57 10000 4.6 280 13:18 18.06.2020
1294 Fog 21 1014 82 10000 4.1 70 12:40 18.06.2020
1295 Fog 21 1014 82 10000 4.1 70 12:20 18.06.2020
1296 Clouds 21 1014 72 10000 4.6 30 11:59 18.06.2020
1297 Clouds 24 1013 50 10000 1.5 250 11:40 18.06.2020
1298 Clouds 24 1014 69 10000 3.6 280 11:19 18.06.2020
1299 Clouds 23 1012 50 10000 3.6 250 10:41 18.06.2020
1300 Clouds 23 1012 50 10000 3.6 250 10:41 18.06.2020
1301 Clouds 23 1014 78 10000 2.6 220 10:19 18.06.2020
1302 Clouds 22 1012 56 10000 3.1 240 09:54 18.06.2020
1303 Clouds 21 1012 64 10000 2.6 240 09:36 18.06.2020
1304 Clouds 21 1012 64 10000 2.6 240 09:36 18.06.2020
1305 Clouds 21 1014 77 10000 1 0 09:18 18.06.2020
1306 Clouds 19 1012 72 10000 4.6 240 08:39 18.06.2020
1307 Clouds 19 1012 72 10000 4.6 240 08:20 18.06.2020
1308 Clouds 18 1013 87 10000 0.5 0 07:46 18.06.2020
1309 Clouds 18 1013 87 10000 1 70 07:26 18.06.2020
1310 Clouds 19 1013 87 10000 2.1 90 06:54 18.06.2020
1311 Clear 19 1013 87 10000 1.5 50 05:55 18.06.2020
1312 Clear 19 1012 60 10000 5.1 230 04:22 18.06.2020
1313 Clear 19 1014 88 10000 2.1 80 02:51 18.06.2020
1314 Clouds 20 1014 64 10000 8.2 260 01:28 18.06.2020
1315 Clouds 20 1016 82 10000 1 0 00:54 18.06.2020
1316 Clouds 20 1014 68 10000 7.7 270 00:32 18.06.2020
1317 Clouds 21 1016 77 10000 1.5 270 23:57 17.06.2020
1318 Clouds 21 1014 64 10000 6.2 250 23:38 17.06.2020
1319 Clouds 21 1016 77 10000 2.1 260 23:20 17.06.2020
1320 Clouds 22 1013 53 10000 6.7 230 22:57 17.06.2020
1321 Clouds 22 1013 53 10000 6.7 230 22:37 17.06.2020
1322 Clouds 22 1013 53 10000 6.7 230 22:37 17.06.2020
1323 Clouds 22 1015 72 10000 3.1 280 22:19 17.06.2020
1324 Clouds 23 1013 50 10000 6.2 230 21:41 17.06.2020
1325 Clouds 23 1013 50 10000 6.2 230 21:23 17.06.2020
1326 Clouds 24 1013 47 10000 6.7 220 20:57 17.06.2020
1327 Clouds 24 1013 47 10000 6.7 220 20:38 17.06.2020
1328 Clouds 24 1015 64 10000 4.1 280 20:19 17.06.2020
1329 Clouds 24 1015 53 10000 4.1 280 19:44 17.06.2020
1330 Clouds 25 1013 47 10000 5.1 220 19:23 17.06.2020
1331 Clouds 25 1014 47 10000 5.7 210 18:56 17.06.2020
1332 Clouds 25 1014 50 10000 5.1 230 18:38 17.06.2020
1333 Clouds 25 1016 56 10000 5.1 280 18:20 17.06.2020
1334 Clouds 24 1016 56 10000 4.1 290 17:42 17.06.2020
1335 Clouds 25 1015 53 10000 6.2 200 17:22 17.06.2020
1336 Clouds 25 1015 53 10000 6.2 200 16:56 17.06.2020
1337 Clouds 24 1015 57 10000 5.7 200 16:38 17.06.2020
1338 Clouds 24 1017 60 10000 5.1 280 16:20 17.06.2020
1339 Clouds 25 1016 57 10000 6.7 200 15:40 17.06.2020
1340 Clouds 25 1017 57 10000 4.6 270 15:21 17.06.2020
1341 Clouds 24 1016 60 10000 7.2 200 14:59 17.06.2020
1342 Clouds 24 1016 60 10000 6.7 200 14:40 17.06.2020
1343 Clouds 24 1016 60 10000 6.7 200 14:21 17.06.2020
1344 Clouds 25 1016 57 10000 5.7 210 14:00 17.06.2020
1345 Clouds 25 1017 57 10000 5.1 210 13:41 17.06.2020
1346 Clouds 25 1017 57 10000 5.1 210 13:21 17.06.2020
1347 Clouds 24 1017 57 10000 5.1 220 12:55 17.06.2020
1348 Clouds 24 1017 60 10000 4.6 210 12:37 17.06.2020
1349 Clouds 24 1018 64 10000 4.1 250 12:19 17.06.2020
1350 Clouds 22 1018 73 10000 4.1 250 11:44 17.06.2020
1351 Clouds 23 1017 64 10000 4.1 240 11:24 17.06.2020
1352 Clouds 22 1018 68 10000 3.6 240 10:39 17.06.2020
1353 Clouds 22 1019 73 10000 3.1 230 10:20 17.06.2020
1354 Clouds 22 1019 73 10000 3.1 230 10:20 17.06.2020
1355 Clouds 21 1018 77 10000 3.6 230 10:00 17.06.2020
1356 Clouds 21 1017 82 10000 4.1 260 09:41 17.06.2020
1357 Clouds 21 1017 82 10000 4.1 260 09:21 17.06.2020
1358 Clouds 20 1017 82 10000 2.6 260 08:56 17.06.2020
1359 Clouds 20 1017 82 10000 2.6 260 08:38 17.06.2020
1360 Clouds 20 1018 82 10000 2.1 240 08:19 17.06.2020
1361 Clouds 20 1017 82 10000 3.6 220 07:43 17.06.2020
1362 Clouds 19 1018 88 10000 2.1 240 07:21 17.06.2020
1363 Clouds 20 1018 88 10000 2.1 240 06:56 17.06.2020
1364 Clouds 20 1017 82 10000 5.1 210 06:37 17.06.2020
1365 Clouds 20 1019 88 10000 2.6 240 06:19 17.06.2020
1366 Clouds 20 1019 88 10000 2.1 240 05:18 17.06.2020
1367 Clouds 21 1018 77 10000 7.2 270 03:28 17.06.2020
1368 Clouds 21 1021 88 10000 3.6 240 01:51 17.06.2020
1369 Clouds 21 1020 77 10000 5.7 260 00:41 17.06.2020
1370 Clouds 21 1020 77 10000 5.7 260 00:23 17.06.2020
1371 Clouds 21 1020 77 10000 7.2 270 23:56 16.06.2020
1372 Clouds 21 1020 77 10000 7.2 270 23:56 16.06.2020
1373 Clouds 21 1020 77 10000 7.2 270 23:37 16.06.2020
1374 Clouds 21 1021 88 10000 3.6 240 23:19 16.06.2020
1375 Clouds 21 1021 88 10000 4.1 250 22:55 16.06.2020
1376 Clouds 22 1020 73 10000 7.7 250 22:36 16.06.2020
1377 Clouds 22 1021 83 10000 4.6 250 22:18 16.06.2020
1378 Clouds 21 1021 83 10000 4.6 250 21:45 16.06.2020
1379 Clear 22 1019 73 10000 11.8 260 21:23 16.06.2020
1380 Clouds 23 1021 73 10000 5.1 260 20:57 16.06.2020
1381 Clouds 23 1019 69 10000 9.3 260 20:39 16.06.2020
1382 Clouds 23 1019 60 10000 10.8 270 20:19 16.06.2020
1383 Clouds 23 1019 60 10000 10.8 270 19:56 16.06.2020
1384 Clouds 24 1019 53 10000 8.2 260 19:38 16.06.2020
1385 Clear 24 1021 56 10000 5.1 270 19:19 16.06.2020
1386 Clear 24 1022 60 10000 6.2 260 18:45 16.06.2020
1387 Clear 24 1022 60 10000 6.2 260 18:45 16.06.2020
1388 Clouds 25 1020 50 10000 7.2 250 18:21 16.06.2020
1389 Clouds 25 1020 47 10000 8.2 260 17:58 16.06.2020
1390 Clouds 23 1020 60 10000 8.2 270 17:39 16.06.2020
1391 Clouds 23 1020 60 10000 8.2 270 17:21 16.06.2020
1392 Clouds 25 1020 53 10000 9.3 260 16:58 16.06.2020
1393 Clouds 24 1020 53 10000 8.7 270 16:40 16.06.2020
1394 Clouds 24 1023 47 10000 4.1 260 16:20 16.06.2020
1395 Clouds 24 1021 53 10000 7.7 270 15:57 16.06.2020
1396 Clouds 25 1021 47 10000 11.3 260 15:39 16.06.2020
1397 Clouds 25 1021 47 10000 11.3 260 15:21 16.06.2020
1398 Clear 25 1021 41 10000 9.3 260 14:56 16.06.2020
1399 Clouds 25 1021 50 10000 8.2 240 14:37 16.06.2020
1400 Clouds 25 1024 53 10000 6.2 250 14:19 16.06.2020
1401 Clouds 24 1024 57 10000 5.7 250 13:45 16.06.2020
1402 Clouds 24 1021 50 10000 7.2 250 13:24 16.06.2020
1403 Clouds 23 1023 60 10000 5.7 240 12:43 16.06.2020
1404 Clouds 23 1021 56 10000 6.2 230 12:23 16.06.2020
1405 Clouds 23 1021 56 10000 7.2 250 11:58 16.06.2020
1406 Clouds 23 1021 53 10000 5.1 250 11:40 16.06.2020
1407 Clouds 23 1021 53 10000 5.1 250 11:40 16.06.2020
1408 Clouds 23 1021 53 10000 5.1 250 11:22 16.06.2020
1409 Clouds 22 1021 60 10000 5.1 220 10:58 16.06.2020
1410 Clouds 22 1021 60 10000 5.1 220 10:58 16.06.2020
1411 Clouds 22 1021 56 10000 6.2 210 10:38 16.06.2020
1412 Clouds 22 1023 64 10000 4.1 230 10:20 16.06.2020
1413 Clear 21 1021 64 10000 4.1 260 09:44 16.06.2020
1414 Clouds 21 1021 64 10000 4.1 260 09:23 16.06.2020
1415 Clouds 20 1022 77 10000 1.5 190 08:53 16.06.2020
1416 Clouds 20 1021 68 10000 3.6 260 08:32 16.06.2020
1417 Clouds 19 1022 77 10000 2.1 180 07:52 16.06.2020
1418 Clouds 19 1020 68 10000 4.1 250 07:29 16.06.2020
1419 Clouds 20 1019 68 10000 5.1 240 06:57 16.06.2020
1420 Clouds 20 1019 68 10000 5.1 240 06:33 16.06.2020
1421 Clouds 19 1019 77 10000 6.7 280 05:50 16.06.2020
1422 Clouds 20 1021 77 10000 2.1 180 04:54 16.06.2020
1423 Clouds 20 1022 77 10000 1.5 180 03:55 16.06.2020
1424 Clouds 19 1020 68 10000 8.7 270 02:33 16.06.2020
1425 Clouds 19 1020 72 10000 7.2 260 01:33 16.06.2020
1426 Clouds 19 1022 77 10000 0.5 0 00:52 16.06.2020
1427 Clouds 19 1021 68 10000 10.3 280 00:22 16.06.2020
1428 Clouds 19 1023 72 10000 2.1 270 23:43 15.06.2020
1429 Clouds 20 1021 68 10000 10.3 280 23:24 15.06.2020
1430 -273 0 0 0 0 0 22:59 15.06.2020
1431 Clouds 20 1021 60 10000 7.7 270 22:41 15.06.2020
1432 Clouds 20 1021 60 10000 7.7 270 22:41 15.06.2020
1433 Clouds 20 1021 60 10000 7.7 270 22:21 15.06.2020
1434 Clouds 22 1020 53 10000 10.3 260 21:57 15.06.2020
1435 Clouds 22 1020 53 10000 10.3 260 21:38 15.06.2020
1436 Clouds 22 1023 60 10000 5.7 280 21:19 15.06.2020
1437 Clouds 23 1020 53 10000 7.7 270 20:57 15.06.2020
1438 Clouds 23 1020 53 10000 7.7 270 20:38 15.06.2020
1439 Clear 23 1022 56 10000 5.7 280 20:19 15.06.2020
1440 Clear 24 1020 47 10000 8.2 250 19:56 15.06.2020
1441 Clear 24 1020 47 10000 5.7 250 19:38 15.06.2020
1442 Clear 24 1022 56 10000 5.7 280 19:20 15.06.2020
1443 Clear 25 1020 47 10000 6.7 250 18:56 15.06.2020
1444 Clear 25 1020 44 10000 5.7 240 18:37 15.06.2020
1445 Clear 24 1022 56 10000 5.1 300 18:19 15.06.2020
1446 Clear 24 1022 56 10000 5.7 290 17:42 15.06.2020
1447 Clear 25 1021 47 10000 6.2 260 17:22 15.06.2020
1448 Clear 25 1021 44 10000 6.2 260 16:59 15.06.2020
1449 Clear 25 1021 44 10000 6.2 260 16:59 15.06.2020
1450 Clear 24 1021 50 10000 6.7 270 16:41 15.06.2020
1451 Clear 24 1023 60 10000 6.7 290 16:19 15.06.2020
1452 Clear 25 1022 50 10000 6.2 270 15:56 15.06.2020
1453 Clear 25 1022 44 10000 5.7 260 15:37 15.06.2020
1454 Clear 25 1024 53 10000 5.7 280 15:18 15.06.2020
1455 Clouds 24 1023 50 10000 6.2 270 14:42 15.06.2020
1456 Clouds 23 1024 56 10000 5.1 260 14:21 15.06.2020
1457 Clouds 24 1023 50 10000 6.2 270 14:21 15.06.2020
1458 Clouds 23 1023 56 10000 6.2 270 13:59 15.06.2020
1459 Clouds 23 1023 56 10000 6.2 270 13:59 15.06.2020
1460 Clouds 23 1023 56 10000 6.7 270 13:40 15.06.2020
1461 Clouds 23 1024 56 10000 4.6 250 13:22 15.06.2020
1462 Clouds 24 1023 53 10000 5.7 250 12:56 15.06.2020
1463 Clouds 23 1023 56 10000 5.1 240 12:38 15.06.2020
1464 Clouds 23 1024 53 10000 4.1 250 12:19 15.06.2020
1465 Clouds 23 1024 56 10000 4.1 260 11:43 15.06.2020
1466 Clouds 22 1023 60 10000 5.1 220 11:24 15.06.2020
1467 Clouds 21 1024 56 10000 3.1 240 10:44 15.06.2020
1468 Clouds 21 1023 64 10000 3.1 250 10:22 15.06.2020
1469 Clouds 20 1024 68 10000 2.1 180 09:48 15.06.2020
1470 Clouds 19 1022 72 10000 4.1 290 09:27 15.06.2020
1471 Clear 19 1022 72 10000 5.7 280 08:58 15.06.2020
1472 Clear 19 1022 72 10000 5.7 280 08:39 15.06.2020
1473 Clouds 19 1023 72 10000 1.5 160 08:20 15.06.2020
1474 Clouds 18 1023 77 10000 1 0 07:45 15.06.2020
1475 Clear 18 1022 77 10000 5.7 270 07:26 15.06.2020
1476 Clear 18 1023 77 10000 2.1 170 06:42 15.06.2020
1477 Clear 19 1021 77 10000 6.7 270 06:20 15.06.2020
1478 Clear 18 1023 72 10000 1 0 05:43 15.06.2020
1479 Clear 19 1021 72 10000 6.7 260 05:24 15.06.2020
1480 Clear 19 1023 72 10000 3.6 260 04:19 15.06.2020
1481 Clear 19 1022 72 10000 7.7 260 03:41 15.06.2020
1482 Clear 19 1022 72 10000 7.7 260 02:53 15.06.2020
1483 Clear 19 1024 72 10000 2.1 270 01:53 15.06.2020
1484 Clear 19 1022 68 10000 8.2 250 01:32 15.06.2020
1485 Clear 19 1022 64 10000 8.2 260 00:58 15.06.2020
1486 Clear 19 1022 64 10000 8.2 260 00:39 15.06.2020
1487 Clear 19 1024 68 10000 2.1 260 00:19 15.06.2020
1488 Clear 19 1024 68 10000 2.1 270 23:46 14.06.2020
1489 Clear 19 1021 64 10000 8.7 260 23:24 14.06.2020
1490 Clear 19 1021 64 10000 9.8 270 22:58 14.06.2020
1491 Clear 20 1021 64 10000 9.8 270 22:39 14.06.2020
1492 Clear 20 1023 59 10000 3.1 280 22:19 14.06.2020
1493 Clear 21 1021 64 10000 7.2 270 21:57 14.06.2020
1494 Clear 22 1021 56 10000 7.2 260 21:38 14.06.2020
1495 Clear 22 1022 56 10000 5.1 280 21:19 14.06.2020
1496 Clear 21 1021 60 10000 9.3 260 20:58 14.06.2020
1497 Clouds 22 1021 56 10000 9.3 260 20:38 14.06.2020
1498 Clear 22 1022 56 10000 5.7 270 20:19 14.06.2020
1499 Clouds 23 1021 53 10000 8.2 260 19:57 14.06.2020
1500 Clouds 23 1021 53 10000 7.7 260 19:37 14.06.2020
1501 Clouds 23 1022 56 10000 6.7 260 19:19 14.06.2020
1502 Clouds 24 1022 53 10000 6.7 270 18:56 14.06.2020
1503 Clouds 24 1021 47 10000 8.2 260 18:56 14.06.2020
1504 Clouds 24 1021 47 10000 8.2 260 18:37 14.06.2020
1505 Clouds 24 1022 53 10000 6.2 260 18:19 14.06.2020
1506 Clouds 24 1021 47 10000 7.2 260 17:56 14.06.2020
1507 Clouds 24 1021 49 10000 8.2 260 17:38 14.06.2020
1508 Clouds 24 1023 50 10000 6.2 260 17:19 14.06.2020
1509 Clouds 24 1021 41 10000 7.2 260 16:40 14.06.2020
1510 Clouds 23 1023 53 10000 6.7 260 16:20 14.06.2020
1511 Clouds 24 1021 47 10000 6.7 260 15:58 14.06.2020
1512 Clouds 24 1021 47 10000 6.7 260 15:40 14.06.2020
1513 Clouds 24 1023 50 10000 5.7 250 15:18 14.06.2020
1514 Clouds 24 1021 44 10000 6.7 250 14:58 14.06.2020
1515 Clouds 24 1021 44 10000 6.7 250 14:58 14.06.2020
1516 Clouds 24 1022 44 10000 7.7 250 14:40 14.06.2020
1517 Clouds 24 1023 53 10000 4.6 250 14:19 14.06.2020
1518 Clouds 23 1021 56 10000 7.2 260 13:42 14.06.2020
1519 Clouds 23 1021 56 10000 7.2 260 13:22 14.06.2020
1520 Clouds 23 1021 53 10000 7.7 260 12:59 14.06.2020
1521 Clouds 23 1021 53 10000 10.3 250 12:41 14.06.2020
1522 Clouds 23 1021 53 10000 10.3 250 12:23 14.06.2020
1523 Clouds 22 1021 64 10000 9.3 260 11:59 14.06.2020
1524 Clouds 22 1021 64 10000 7.7 260 11:40 14.06.2020
1525 Clouds 22 1021 64 10000 7.7 260 11:22 14.06.2020
1526 Clouds 21 1021 68 10000 6.2 260 11:00 14.06.2020
1527 Clouds 21 1021 64 10000 5.1 250 10:40 14.06.2020
1528 Clouds 21 1022 60 10000 5.7 250 10:18 14.06.2020
1529 Clear 20 1020 68 10000 4.6 250 09:44 14.06.2020
1530 Clouds 20 1021 60 10000 4.6 270 09:24 14.06.2020
1531 Clouds 19 1021 64 10000 4.1 270 08:43 14.06.2020
1532 Clouds 19 1019 77 10000 5.1 270 08:22 14.06.2020
1533 Clouds 18 1020 77 10000 3.1 250 07:55 14.06.2020
1534 Clouds 18 1018 77 10000 3.6 250 07:35 14.06.2020
1535 Clouds 18 1018 72 10000 4.1 250 06:58 14.06.2020
1536 Clouds 19 1018 68 10000 7.2 250 05:56 14.06.2020
1537 Clouds 19 1018 68 10000 7.2 250 05:34 14.06.2020
1538 Clouds 19 1018 72 10000 7.2 270 04:39 14.06.2020
1539 Clouds 19 1019 68 10000 3.1 290 03:55 14.06.2020
1540 Clouds 19 1018 72 10000 7.7 270 02:40 14.06.2020
1541 Clouds 19 1020 68 10000 3.1 290 02:18 14.06.2020
1542 Clouds 19 1019 68 10000 7.2 260 01:27 14.06.2020
1543 Clouds 20 1020 63 10000 3.1 280 00:48 14.06.2020
1544 Clouds 20 1019 63 10000 2.6 310 00:20 14.06.2020
1545 Clouds 20 1019 63 10000 2.6 310 00:20 14.06.2020
1546 Clouds 19 1019 63 10000 2.1 290 23:46 13.06.2020
1547 Clouds 20 1018 60 10000 6.7 240 23:26 13.06.2020
1548 Clouds 20 1017 56 10000 5.1 250 22:58 13.06.2020
1549 Clouds 20 1017 56 10000 5.1 250 22:38 13.06.2020
1550 Clouds 20 1018 63 10000 2.1 270 22:19 13.06.2020
1551 Clouds 21 1017 56 10000 7.7 260 21:57 13.06.2020
1552 Clouds 21 1017 56 10000 7.7 260 21:39 13.06.2020
1553 Clear 21 1017 56 10000 7.7 260 21:21 13.06.2020
1554 Clear 23 1017 44 10000 6.7 250 20:44 13.06.2020
1555 Clouds 23 1018 56 10000 4.6 280 20:20 13.06.2020
1556 Clouds 23 1017 47 10000 4.6 200 19:58 13.06.2020
1557 Clouds 23 1017 47 10000 4.6 200 19:37 13.06.2020
1558 Clouds 23 1018 53 10000 4.1 270 19:18 13.06.2020
1559 Clouds 23 1017 47 10000 5.7 200 18:57 13.06.2020
1560 Clouds 23 1017 47 10000 5.7 200 18:57 13.06.2020
1561 Clouds 23 1017 49 10000 5.1 190 18:38 13.06.2020
1562 Clouds 23 1019 56 10000 4.6 250 18:18 13.06.2020
1563 Clouds 23 1017 53 10000 5.7 190 17:55 13.06.2020
1564 Clouds 24 1017 47 10000 3.6 220 17:36 13.06.2020
1565 Clouds 24 1019 53 10000 4.1 260 17:18 13.06.2020
1566 Clouds 24 1017 50 10000 4.6 190 16:41 13.06.2020
1567 Clouds 23 1019 53 10000 3.6 280 16:19 13.06.2020
1568 Clouds 23 1018 60 10000 6.2 180 15:59 13.06.2020
1569 Clouds 23 1018 56 10000 5.7 190 15:39 13.06.2020
1570 Clouds 23 1019 43 10000 4.1 280 15:20 13.06.2020
1571 Clouds 23 1019 43 10000 3.1 260 14:43 13.06.2020
1572 Clouds 23 1018 49 10000 6.2 200 14:22 13.06.2020
1573 Clouds 23 1018 53 10000 5.1 200 13:56 13.06.2020
1574 Clouds 23 1018 53 10000 5.7 260 13:37 13.06.2020
1575 Clouds 23 1019 49 10000 3.1 290 13:18 13.06.2020
1576 Clouds 22 1019 56 10000 3.1 320 12:42 13.06.2020
1577 Clouds 22 1018 49 10000 3.1 240 12:24 13.06.2020
1578 Clouds 21 1017 52 10000 3.1 260 11:40 13.06.2020
1579 Clouds 21 1018 60 10000 4.1 300 11:20 13.06.2020
1580 Clouds 21 1017 56 10000 3.1 260 10:58 13.06.2020
1581 Clouds 20 1017 63 10000 3.1 260 10:40 13.06.2020
1582 Clouds 20 1017 63 10000 3.1 260 10:22 13.06.2020
1583 Clouds 19 1017 68 10000 1.5 260 09:54 13.06.2020
1584 Clouds 18 1017 72 10000 2.6 260 09:36 13.06.2020
1585 Clouds 19 1017 64 10000 2.1 300 09:18 13.06.2020
1586 Clouds 18 1017 68 10000 2.1 300 08:42 13.06.2020
1587 Clouds 18 1016 82 10000 3.1 280 08:24 13.06.2020
1588 Clouds 18 1016 72 10000 2.6 300 07:43 13.06.2020
1589 Clouds 18 1016 82 10000 2.1 260 07:25 13.06.2020
1590 Clouds 18 1016 72 9000 3.1 270 06:44 13.06.2020
1591 Clouds 18 1015 77 10000 3.6 270 06:25 13.06.2020
1592 Clouds 18 1015 77 10000 5.7 270 05:28 13.06.2020
1593 Clouds 19 1015 77 10000 4.6 270 04:37 13.06.2020
1594 Clouds 19 1015 72 10000 6.2 270 03:33 13.06.2020
1595 Clouds 19 1016 72 10000 6.7 260 02:39 13.06.2020
1596 Clouds 19 1016 82 9000 2.6 220 01:48 13.06.2020
1597 Rain 19 1016 72 10000 7.7 270 01:22 13.06.2020
1598 Clouds 19 1016 77 10000 4.6 240 00:53 13.06.2020
1599 Clear 19 1015 72 10000 7.2 260 00:27 13.06.2020
1600 Clear 19 1015 72 10000 6.2 280 23:58 12.06.2020
1601 Clear 19 1015 72 10000 6.2 280 23:38 12.06.2020
1602 Clouds 18 1016 82 10000 3.6 230 23:18 12.06.2020
1603 Clear 19 1014 68 10000 6.2 240 22:42 12.06.2020
1604 Clouds 19 1015 82 10000 4.6 250 22:19 12.06.2020
1605 Clouds 20 1015 72 10000 4.6 240 21:56 12.06.2020
1606 Clouds 20 1013 68 10000 5.7 220 21:37 12.06.2020
1607 Clouds 20 1014 72 10000 4.1 250 21:19 12.06.2020
1608 Clouds 20 1014 72 10000 4.1 240 20:55 12.06.2020
1609 Clear 20 1013 60 10000 6.7 230 20:36 12.06.2020
1610 Clouds 20 1014 72 10000 4.1 240 20:18 12.06.2020
1611 Clouds 21 1012 53 10000 7.7 250 19:39 12.06.2020
1612 Clouds 21 1014 77 10000 3.1 220 19:20 12.06.2020
1613 Clouds 20 1012 56 10000 5.1 240 18:39 12.06.2020
1614 Clouds 20 1013 82 10000 3.6 220 18:19 12.06.2020
1615 Clouds 20 1012 64 10000 5.7 240 17:59 12.06.2020
1616 Clouds 20 1012 60 10000 7.2 250 17:39 12.06.2020
1617 Clouds 20 1012 60 10000 7.2 250 17:21 12.06.2020
1618 Rain 19 1013 93 6000 4.1 240 16:45 12.06.2020
1619 Clouds 19 1013 88 8000 3.6 210 16:21 12.06.2020
1620 Clouds 19 1013 93 7000 3.1 200 15:49 12.06.2020
1621 Clouds 20 1011 60 10000 3.1 200 15:27 12.06.2020
1622 Clouds 19 1012 68 10000 3.6 240 14:58 12.06.2020
1623 Clouds 19 1012 72 10000 2.1 220 14:39 12.06.2020
1624 Clouds 19 1012 72 10000 2.1 220 14:21 12.06.2020
1625 Clouds 18 1013 88 8000 3.6 240 13:42 12.06.2020
1626 Clouds 19 1012 77 10000 4.1 270 13:22 12.06.2020
1627 Clouds 19 1012 72 10000 4.6 260 12:41 12.06.2020
1628 Clouds 19 1013 82 8000 3.6 210 12:20 12.06.2020
1629 Clouds 19 1012 72 10000 4.6 250 11:59 12.06.2020
1630 Clouds 18 1012 77 10000 5.7 250 11:41 12.06.2020
1631 Clouds 18 1013 88 6000 2.6 240 11:22 12.06.2020
1632 Clouds 18 1013 93 6000 4.1 240 10:47 12.06.2020
1633 Clouds 17 1012 88 10000 3.6 240 10:25 12.06.2020
1634 Clouds 18 1012 93 8000 3.6 250 09:48 12.06.2020
1635 Clouds 18 1012 88 10000 4.1 270 09:22 12.06.2020
1636 Clouds 18 1012 93 10000 5.7 260 08:46 12.06.2020
1637 Clouds 18 1011 82 10000 4.1 240 08:25 12.06.2020
1638 Clouds 18 1011 88 10000 5.1 280 07:57 12.06.2020
1639 Rain 18 1011 88 10000 6.2 280 07:39 12.06.2020
1640 Clouds 18 1012 93 10000 3.1 200 07:21 12.06.2020
1641 Rain 18 1011 88 10000 6.2 220 06:38 12.06.2020
1642 Rain 18 1012 100 4000 4.6 220 06:19 12.06.2020
1643 Clouds 18 1012 100 8000 7.2 230 05:47 12.06.2020
1644 Rain 18 1012 88 4000 5.7 220 05:20 12.06.2020
1645 Clouds 19 1013 64 10000 5.1 210 03:43 12.06.2020
1646 Rain 19 1013 82 10000 7.7 230 01:58 12.06.2020
1647 Rain 19 1013 82 10000 7.7 230 01:32 12.06.2020
1648 Clouds 20 1014 64 10000 5.7 230 00:55 12.06.2020
1649 Rain 20 1013 68 10000 8.2 250 00:37 12.06.2020
1650 Clouds 20 1015 64 10000 6.2 230 00:18 12.06.2020
1651 Rain 20 1013 68 10000 8.2 240 23:41 11.06.2020
1652 Clouds 20 1013 68 10000 8.2 240 23:22 11.06.2020
1653 Clouds 20 1013 68 10000 9.8 260 22:59 11.06.2020
1654 Clouds 20 1013 68 10000 9.8 260 22:39 11.06.2020
1655 Clouds 20 1014 68 10000 7.2 240 22:20 11.06.2020
1656 Clouds 20 1014 68 10000 7.2 240 22:20 11.06.2020
1657 Clouds 21 1013 60 10000 11.8 260 21:56 11.06.2020
1658 Clouds 21 1013 60 10000 11.8 260 21:38 11.06.2020
1659 Clouds 21 1015 64 10000 6.7 230 21:20 11.06.2020
1660 Clouds 20 1015 64 10000 6.2 230 20:45 11.06.2020
1661 Clear 21 1013 64 10000 12.9 260 20:22 11.06.2020
1662 Clear 21 1013 56 10000 13.9 260 19:58 11.06.2020
1663 Clear 22 1013 56 10000 13.9 260 19:40 11.06.2020
1664 Clouds 22 1013 56 10000 13.9 260 19:22 11.06.2020
1665 Clouds 22 1013 56 10000 7.2 240 18:42 11.06.2020
1666 Clouds 22 1013 56 10000 7.2 240 18:24 11.06.2020
1667 Clouds 22 1014 56 10000 7.7 240 17:57 11.06.2020
1668 Clouds 22 1014 56 10000 7.7 240 17:38 11.06.2020
1669 Clouds 22 1014 56 10000 7.7 240 17:20 11.06.2020
1670 Clouds 22 1014 53 10000 8.2 250 16:57 11.06.2020
1671 Clouds 22 1014 53 10000 8.2 250 16:38 11.06.2020
1672 Clouds 22 1014 53 10000 8.2 250 16:20 11.06.2020
1673 Clouds 22 1014 49 10000 9.3 250 15:43 11.06.2020
1674 Clouds 22 1014 49 10000 9.3 250 15:25 11.06.2020
1675 Clouds 23 1015 46 10000 7.2 240 14:58 11.06.2020
1676 Clouds 23 1015 46 10000 7.2 240 14:39 11.06.2020
1677 Clouds 23 1015 46 10000 7.2 240 14:39 11.06.2020
1678 Clouds 23 1016 53 10000 9.3 240 14:20 11.06.2020
1679 Clouds 22 1015 49 10000 6.2 260 13:55 11.06.2020
1680 Clouds 22 1015 49 10000 6.2 260 13:37 11.06.2020
1681 Clouds 21 1015 56 10000 7.2 260 13:18 11.06.2020
1682 Clouds 21 1015 56 10000 9.3 250 12:54 11.06.2020
1683 Clouds 22 1015 53 10000 7.7 250 12:36 11.06.2020
1684 Clouds 22 1015 53 10000 7.7 250 12:18 11.06.2020
1685 Clouds 22 1014 53 10000 8.2 240 11:56 11.06.2020
1686 Clouds 22 1014 53 10000 8.2 240 11:37 11.06.2020
1687 Clouds 21 1014 56 10000 8.2 260 11:18 11.06.2020
1688 Clouds 21 1015 60 10000 8.2 260 10:42 11.06.2020
1689 Clouds 21 1016 60 10000 6.7 230 10:20 11.06.2020
1690 Clouds 20 1015 60 10000 6.2 260 09:45 11.06.2020
1691 Clouds 20 1015 60 10000 6.2 260 09:45 11.06.2020
1692 Clouds 20 1015 63 10000 5.1 260 09:26 11.06.2020
1693 Clouds 19 1015 63 10000 4.6 250 08:55 11.06.2020
1694 Clouds 19 1015 63 10000 4.6 250 08:37 11.06.2020
1695 Clouds 19 1015 68 10000 5.1 260 08:18 11.06.2020
1696 Clouds 18 1015 77 10000 5.1 270 07:41 11.06.2020
1697 Clouds 19 1015 77 10000 5.1 250 07:23 11.06.2020
1698 Clouds 19 1015 72 10000 5.1 260 06:33 11.06.2020
1699 Clouds 19 1015 72 10000 5.1 260 06:33 11.06.2020
1700 Clouds 19 1016 63 10000 4.1 230 05:54 11.06.2020
1701 Clouds 19 1015 68 10000 5.1 240 04:37 11.06.2020
1702 Clear 19 1016 77 10000 5.7 270 03:25 11.06.2020
1703 Clear 19 1016 68 10000 5.7 280 02:46 11.06.2020
1704 Clouds 19 1016 68 10000 6.2 280 01:56 11.06.2020
1705 Clouds 19 1016 68 10000 6.2 280 01:35 11.06.2020
1706 Clouds 19 1016 68 10000 7.2 280 00:56 11.06.2020
1707 Clouds 20 1016 68 10000 7.2 280 00:38 11.06.2020
1708 Clouds 20 1016 68 10000 7.2 280 00:18 11.06.2020
1709 Clouds 20 1016 68 10000 6.7 270 23:39 10.06.2020
1710 Clouds 20 1016 68 10000 6.7 270 23:21 10.06.2020
1711 Clouds 20 1015 73 10000 7.7 280 22:40 10.06.2020
1712 Clouds 20 1015 73 10000 7.7 280 22:22 10.06.2020
1713 Clouds 22 1015 46 10000 8.2 270 21:59 10.06.2020
1714 Clouds 22 1015 46 10000 8.2 270 21:40 10.06.2020
1715 Clouds 22 1015 46 10000 8.2 270 21:19 10.06.2020
1716 Clouds 23 1014 44 10000 6.7 280 20:57 10.06.2020
1717 Clouds 23 1014 44 10000 6.7 280 20:39 10.06.2020
1718 Clouds 24 1014 44 10000 6.7 280 20:21 10.06.2020
1719 Clouds 24 1014 44 10000 6.7 280 20:21 10.06.2020
1720 Clouds 24 1014 47 10000 5.1 270 19:56 10.06.2020
1721 Clouds 24 1014 47 10000 5.1 270 19:37 10.06.2020
1722 Clouds 24 1015 53 10000 5.1 270 19:18 10.06.2020
1723 Clouds 26 1015 36 10000 3.6 260 18:41 10.06.2020
1724 Clouds 25 1015 36 10000 3.6 260 18:20 10.06.2020
1725 Clouds 26 1015 34 10000 4.6 220 17:58 10.06.2020
1726 Clouds 26 1015 34 10000 4.6 220 17:40 10.06.2020
1727 Clouds 25 1017 64 10000 6.7 270 17:19 10.06.2020
1728 Clouds 26 1016 30 10000 4.1 220 16:58 10.06.2020
1729 Clouds 26 1016 30 10000 4.1 220 16:39 10.06.2020
1730 Clouds 26 1016 30 10000 4.1 220 16:39 10.06.2020
1731 Clouds 26 1017 64 10000 6.2 260 16:20 10.06.2020
1732 Clouds 25 1016 36 10000 5.1 200 15:55 10.06.2020
1733 Clouds 25 1016 36 10000 5.1 200 15:36 10.06.2020
1734 Clouds 25 1016 36 10000 5.1 190 15:18 10.06.2020
1735 Clouds 25 1016 36 10000 5.1 190 15:18 10.06.2020
1736 Clouds 25 1016 39 10000 5.1 200 14:40 10.06.2020
1737 Clouds 25 1016 44 10000 5.1 190 14:21 10.06.2020
1738 Clouds 24 1016 53 10000 5.1 200 13:41 10.06.2020
1739 Clouds 24 1017 57 10000 5.1 200 13:22 10.06.2020
1740 Clouds 23 1017 64 10000 3.1 230 12:46 10.06.2020
1741 Clouds 23 1017 64 10000 3.1 230 12:23 10.06.2020
1742 Clouds 23 1016 64 10000 3.1 250 11:59 10.06.2020
1743 Clouds 22 1016 64 10000 3.1 250 11:41 10.06.2020
1744 Clouds 22 1017 68 10000 3.1 220 11:20 10.06.2020
1745 Clear 21 1017 64 10000 2.1 210 10:58 10.06.2020
1746 Clear 21 1017 64 10000 2.1 210 10:58 10.06.2020
1747 Clouds 21 1016 72 10000 3.1 240 10:39 10.06.2020
1748 Clouds 21 1016 72 10000 3.1 240 10:39 10.06.2020
1749 Clouds 20 1016 72 10000 3.1 240 10:21 10.06.2020
1750 Clear 19 1016 72 10000 3.1 240 09:42 10.06.2020
1751 Clear 19 1016 72 10000 3.1 240 09:23 10.06.2020
1752 Clear 18 1016 72 10000 4.1 230 08:57 10.06.2020
1753 Clear 17 1016 72 10000 4.1 230 08:39 10.06.2020
1754 Clear 17 1016 72 10000 4.1 230 08:20 10.06.2020
1755 Clear 16 1016 68 10000 3.1 250 07:39 10.06.2020
1756 Clear 16 1016 68 10000 3.1 250 07:39 10.06.2020
1757 Clear 16 1016 68 10000 3.1 250 07:21 10.06.2020
1758 Clear 16 1016 87 10000 2.6 80 06:46 10.06.2020
1759 Clear 16 1016 87 10000 2.6 80 06:24 10.06.2020
1760 Clear 17 1016 63 10000 5.1 250 05:58 10.06.2020
1761 Clear 17 1016 63 10000 5.1 250 05:26 10.06.2020
1762 Clear 18 1016 52 10000 5.7 240 04:36 10.06.2020
1763 Clear 18 1017 60 10000 5.7 250 02:57 10.06.2020
1764 Clear 18 1017 60 10000 5.7 250 02:22 10.06.2020
1765 Clear 19 1017 60 10000 6.2 250 01:37 10.06.2020
1766 Clear 19 1017 64 10000 6.2 240 00:40 10.06.2020
1767 Clear 19 1017 64 10000 6.2 240 00:22 10.06.2020
1768 Clear 20 1017 64 10000 5.7 250 23:57 09.06.2020
1769 Clear 20 1017 64 10000 5.7 250 23:38 09.06.2020
1770 Clear 20 1017 77 10000 0.5 0 23:20 09.06.2020
1771 Clear 21 1017 77 10000 1 260 22:56 09.06.2020
1772 Clear 21 1016 56 10000 4.6 250 22:37 09.06.2020
1773 Clear 21 1017 77 10000 1.5 280 22:19 09.06.2020
1774 Clear 22 1017 72 10000 2.1 300 21:56 09.06.2020
1775 Clear 22 1016 56 10000 6.7 280 21:38 09.06.2020
1776 Clear 22 1017 68 10000 3.1 290 21:19 09.06.2020
1777 Clear 22 1017 68 10000 4.1 300 20:56 09.06.2020
1778 Clear 23 1016 60 10000 5.7 280 20:38 09.06.2020
1779 Clear 23 1016 60 10000 5.7 280 20:18 09.06.2020
1780 Clear 23 1017 60 10000 5.7 290 19:56 09.06.2020
1781 Clear 24 1016 53 10000 5.7 260 19:38 09.06.2020
1782 Clear 24 1017 56 10000 5.1 270 19:19 09.06.2020
1783 Clouds 24 1016 53 10000 5.1 260 18:45 09.06.2020
1784 Clouds 24 1016 57 10000 5.1 270 18:26 09.06.2020
1785 Clouds 24 1016 53 10000 5.1 270 17:58 09.06.2020
1786 Clouds 24 1016 53 10000 5.1 270 17:40 09.06.2020
1787 Clouds 24 1018 53 10000 5.7 270 17:22 09.06.2020
1788 Clouds 25 1017 50 10000 5.1 260 16:57 09.06.2020
1789 Clouds 24 1017 50 10000 5.1 260 16:39 09.06.2020
1790 Clouds 24 1017 53 10000 5.1 260 16:20 09.06.2020
1791 Clouds 24 1017 53 10000 6.2 260 15:40 09.06.2020
1792 Clouds 23 1017 56 10000 6.2 260 15:22 09.06.2020
1793 Clouds 23 1018 56 10000 6.2 260 14:57 09.06.2020
1794 Clouds 23 1018 56 10000 6.2 260 14:39 09.06.2020
1795 Clouds 23 1018 56 10000 6.2 260 14:39 09.06.2020
1796 Clouds 23 1019 53 8000 7.2 240 14:19 09.06.2020
1797 Clouds 23 1018 56 10000 5.7 260 13:54 09.06.2020
1798 Clouds 23 1018 56 10000 5.7 260 13:36 09.06.2020
1799 Clouds 22 1018 60 10000 5.7 270 13:18 09.06.2020
1800 Clouds 22 1018 60 10000 5.1 260 12:42 09.06.2020
1801 Clear 22 1019 53 10000 5.7 230 12:20 09.06.2020
1802 Clouds 22 1017 64 10000 5.1 260 11:56 09.06.2020
1803 Clouds 21 1017 64 10000 5.1 260 11:38 09.06.2020
1804 Clouds 22 1017 60 10000 4.1 240 11:38 09.06.2020
1805 Clouds 21 1017 60 10000 4.1 240 11:20 09.06.2020
1806 Clouds 21 1017 60 10000 4.1 230 10:55 09.06.2020
1807 Clouds 20 1017 64 10000 4.6 230 10:36 09.06.2020
1808 Clouds 21 1017 60 10000 4.1 230 10:36 09.06.2020
1809 Clouds 20 1017 64 10000 4.6 230 10:18 09.06.2020
1810 Clouds 19 1017 64 10000 4.6 220 09:40 09.06.2020
1811 Clouds 19 1018 59 10000 3.1 170 09:19 09.06.2020
1812 Clouds 18 1016 72 10000 5.1 240 08:40 09.06.2020
1813 Clouds 18 1016 72 10000 5.1 240 08:21 09.06.2020
1814 Clouds 17 1016 72 10000 5.1 230 07:44 09.06.2020
1815 Clouds 17 1016 72 10000 5.1 230 07:23 09.06.2020
1816 Clear 17 1016 72 10000 5.1 230 06:56 09.06.2020
1817 Clear 17 1016 72 10000 5.1 230 06:37 09.06.2020
1818 Clouds 17 1017 72 10000 2.6 170 05:53 09.06.2020
1819 Clouds 18 1018 67 10000 2.1 160 04:22 09.06.2020
1820 Clouds 18 1018 67 10000 2.1 180 02:50 09.06.2020
1821 Clear 18 1017 72 10000 6.2 260 01:39 09.06.2020
1822 Clouds 19 1019 63 10000 2.6 210 01:19 09.06.2020
1823 Clear 19 1017 72 10000 7.2 270 00:44 09.06.2020
1824 Clear 19 1017 72 10000 7.2 270 00:20 09.06.2020
1825 Clear 19 1016 68 10000 7.2 260 23:43 08.06.2020
1826 Clear 19 1016 68 10000 7.2 260 23:22 08.06.2020
1827 Clear 20 1016 60 10000 9.3 250 22:59 08.06.2020
1828 Clear 20 1016 60 10000 9.3 250 22:59 08.06.2020
1829 Clear 20 1016 60 10000 9.3 250 22:39 08.06.2020
1830 Clouds 20 1017 59 10000 3.1 240 22:20 08.06.2020
1831 Clear 20 1016 60 10000 6.2 240 21:56 08.06.2020
1832 Clear 20 1016 60 10000 6.2 240 21:38 08.06.2020
1833 Clear 20 1016 60 10000 6.2 240 21:19 08.06.2020
1834 Clouds 21 1017 56 10000 4.6 250 20:55 08.06.2020
1835 Clouds 21 1016 56 10000 5.7 230 20:37 08.06.2020
1836 Clouds 21 1016 56 10000 5.7 230 20:18 08.06.2020
1837 Clouds 21 1016 56 10000 6.2 260 19:43 08.06.2020
1838 Clouds 21 1016 56 10000 5.1 270 19:21 08.06.2020
1839 Clouds 21 1016 52 10000 6.7 270 18:44 08.06.2020
1840 Clouds 22 1016 49 10000 6.2 250 18:23 08.06.2020
1841 Clouds 22 1016 43 10000 7.2 260 17:58 08.06.2020
1842 Clouds 22 1016 43 10000 7.2 260 17:40 08.06.2020
1843 Clouds 22 1016 43 10000 7.2 250 17:22 08.06.2020
1844 Clouds 22 1016 46 10000 7.7 250 16:59 08.06.2020
1845 Clouds 23 1016 46 10000 7.7 250 16:41 08.06.2020
1846 Clouds 23 1018 46 10000 5.7 260 16:22 08.06.2020
1847 Clouds 23 1016 46 10000 7.2 260 15:44 08.06.2020
1848 Clouds 22 1016 49 10000 7.7 270 15:22 08.06.2020
1849 Clouds 22 1016 52 10000 7.2 280 14:58 08.06.2020
1850 Clouds 21 1016 52 10000 7.2 280 14:39 08.06.2020
1851 Clouds 22 1018 46 10000 6.2 260 14:19 08.06.2020
1852 Clouds 21 1016 52 10000 7.7 280 13:44 08.06.2020
1853 Clouds 21 1016 52 10000 7.7 280 13:44 08.06.2020
1854 Clouds 21 1016 56 10000 7.2 280 13:24 08.06.2020
1855 Clouds 20 1016 56 10000 7.2 280 12:44 08.06.2020
1856 Clouds 20 1016 56 10000 9.3 260 12:21 08.06.2020
1857 Clouds 20 1016 59 10000 9.3 270 11:59 08.06.2020
1858 Clouds 19 1016 59 10000 9.3 270 11:41 08.06.2020
1859 Clouds 20 1016 59 10000 10.3 270 11:22 08.06.2020
1860 Clouds 19 1016 63 10000 10.3 270 10:58 08.06.2020
1861 Clouds 19 1016 63 10000 10.3 270 10:38 08.06.2020
1862 Clouds 19 1017 52 10000 6.7 300 10:20 08.06.2020
1863 Clouds 19 1017 59 10000 6.7 300 09:58 08.06.2020
1864 Clouds 18 1015 63 10000 12.3 290 09:39 08.06.2020
1865 Clouds 18 1015 68 10000 7.7 280 09:21 08.06.2020
1866 Clouds 19 1015 68 10000 7.2 280 08:46 08.06.2020
1867 Clouds 19 1015 68 10000 7.2 280 08:22 08.06.2020
1868 Clouds 20 1014 64 10000 5.7 290 07:46 08.06.2020
1869 Clouds 20 1014 64 10000 5.7 290 07:22 08.06.2020
1870 Clouds 20 1014 72 10000 5.1 270 06:50 08.06.2020
1871 Clouds 20 1014 72 10000 5.1 270 06:28 08.06.2020
1872 Clouds 20 1014 77 10000 5.7 240 05:47 08.06.2020
1873 Clouds 20 1014 72 10000 5.1 240 04:29 08.06.2020
1874 Clouds 19 1016 82 10000 4.6 250 02:32 08.06.2020
1875 Clouds 20 1015 77 10000 4.6 260 01:46 08.06.2020
1876 Clouds 20 1015 77 10000 4.6 260 01:26 08.06.2020
1877 Clouds 20 1015 77 10000 4.6 270 00:30 08.06.2020
1878 Clouds 20 1015 68 10000 7.7 250 23:42 07.06.2020
1879 Clear 20 1016 77 10000 3.6 240 23:20 07.06.2020
1880 Clear 21 1015 68 10000 6.7 240 22:59 07.06.2020
1881 Clear 21 1015 68 10000 6.7 240 22:39 07.06.2020
1882 Clear 21 1016 72 10000 4.1 240 22:19 07.06.2020
1883 Clear 21 1014 64 10000 7.7 260 21:59 07.06.2020
1884 Clear 22 1014 64 10000 7.7 260 21:38 07.06.2020
1885 Clouds 22 1016 68 10000 4.6 250 21:20 07.06.2020
1886 Clouds 22 1015 68 10000 4.6 250 20:55 07.06.2020
1887 Clear 22 1014 60 10000 9.3 250 20:37 07.06.2020
1888 Clear 23 1014 60 10000 9.3 250 20:18 07.06.2020
1889 Clouds 23 1015 64 10000 5.7 260 19:55 07.06.2020
1890 Clear 23 1014 60 10000 10.3 260 19:37 07.06.2020
1891 Clear 23 1014 60 10000 10.3 260 19:18 07.06.2020
1892 Clouds 24 1014 53 10000 10.3 260 18:40 07.06.2020
1893 Clouds 24 1014 53 10000 10.3 260 18:22 07.06.2020
1894 Clouds 23 1014 64 10000 7.7 270 17:59 07.06.2020
1895 Clouds 23 1014 64 10000 7.7 270 17:40 07.06.2020
1896 Clouds 23 1014 64 10000 7.7 270 17:21 07.06.2020
1897 Clouds 23 1014 60 10000 9.3 280 16:44 07.06.2020
1898 Clouds 24 1014 57 10000 9.3 270 16:22 07.06.2020
1899 Clouds 24 1014 60 10000 8.2 270 15:45 07.06.2020
1900 Clouds 24 1014 57 10000 7.7 280 15:24 07.06.2020
1901 Clouds 24 1014 60 10000 7.2 270 14:59 07.06.2020
1902 Clouds 24 1014 60 10000 7.2 270 14:37 07.06.2020
1903 Clouds 24 1015 69 8000 5.7 250 14:18 07.06.2020
1904 Clouds 23 1013 60 10000 8.2 270 13:44 07.06.2020
1905 Clouds 23 1013 60 10000 8.2 270 13:44 07.06.2020
1906 Clouds 23 1013 60 10000 8.2 270 13:44 07.06.2020
1907 Clouds 23 1013 60 10000 8.2 270 13:44 07.06.2020
1908 Clouds 23 1015 73 8000 5.7 260 13:19 07.06.2020
1909 Clouds 23 1013 64 10000 6.7 270 12:44 07.06.2020
1910 Clouds 23 1013 64 10000 4.1 220 12:25 07.06.2020
1911 Clouds 23 1013 60 10000 4.1 220 11:56 07.06.2020
1912 Clouds 23 1013 60 10000 4.1 220 11:38 07.06.2020
1913 Clouds 23 1013 60 10000 4.1 220 11:38 07.06.2020
1914 Clouds 22 1013 64 10000 3.6 230 11:20 07.06.2020
1915 Clouds 22 1013 64 10000 3.6 240 10:57 07.06.2020
1916 Clouds 21 1013 64 10000 3.6 240 10:39 07.06.2020
1917 Clouds 21 1014 88 6000 4.1 260 10:19 07.06.2020
1918 Clouds 21 1013 73 10000 3.1 260 09:54 07.06.2020
1919 Clouds 21 1013 73 10000 3.1 260 09:36 07.06.2020
1920 Clouds 21 1013 83 10000 4.6 220 09:18 07.06.2020
1921 Clouds 20 1012 82 10000 2.6 260 08:41 07.06.2020
1922 Clouds 20 1012 82 10000 2.6 260 08:23 07.06.2020
1923 Clouds 20 1012 82 10000 2.6 260 08:23 07.06.2020
1924 Rain 20 1012 82 5000 3.1 220 07:44 07.06.2020
1925 Rain 20 1012 82 5000 3.1 220 07:26 07.06.2020
1926 Rain 20 1012 88 4300 4.6 230 06:24 07.06.2020
1927 Rain 21 1011 82 10000 4.6 290 05:34 07.06.2020
1928 Rain 20 1012 82 10000 4.1 310 04:19 07.06.2020
1929 Rain 21 1012 73 10000 3.6 300 02:30 07.06.2020
1930 Clear 21 1012 73 10000 3.6 230 01:43 07.06.2020
1931 Clear 21 1012 73 10000 3.6 230 01:24 07.06.2020
1932 Clear 22 1012 64 10000 6.7 240 00:40 07.06.2020
1933 Clouds 22 1012 83 10000 3.1 230 00:18 07.06.2020
1934 Clear 23 1011 56 10000 10.3 250 23:55 06.06.2020
1935 Clear 23 1011 56 10000 10.3 250 23:36 06.06.2020
1936 Clouds 23 1012 73 10000 3.1 230 23:18 06.06.2020
1937 Clear 24 1010 50 10000 9.3 250 22:55 06.06.2020
1938 Clear 23 1010 50 10000 9.3 250 22:37 06.06.2020
1939 Clouds 23 1011 83 10000 2.6 230 22:18 06.06.2020
1940 Clear 24 1009 50 10000 4.6 230 21:42 06.06.2020
1941 Clear 25 1009 50 10000 4.6 230 21:20 06.06.2020
1942 Clouds 25 1009 47 10000 3.1 230 20:42 06.06.2020
1943 Clouds 25 1009 47 10000 3.1 230 20:21 06.06.2020
1944 Clouds 26 1008 47 10000 3.6 230 19:59 06.06.2020
1945 Clouds 26 1009 47 10000 3.6 200 19:41 06.06.2020
1946 Clouds 26 1009 47 10000 3.6 200 19:23 06.06.2020
1947 Clear 27 1009 47 10000 5.1 210 18:59 06.06.2020
1948 Clear 27 1009 47 10000 5.1 210 18:41 06.06.2020
1949 Clouds 27 1010 47 10000 4.1 210 18:22 06.06.2020
1950 Clouds 26 1010 54 10000 5.7 200 17:44 06.06.2020
1951 Clouds 27 1010 54 10000 5.7 200 17:21 06.06.2020
1952 Clear 26 1010 54 10000 5.1 210 16:58 06.06.2020
1953 Clear 26 1010 54 10000 5.1 210 16:39 06.06.2020
1954 Clouds 27 1010 50 10000 4.6 210 16:21 06.06.2020
1955 Clouds 27 1011 44 10000 4.6 210 15:54 06.06.2020
1956 Clouds 27 1011 44 10000 4.6 210 15:36 06.06.2020
1957 Clear 27 1012 47 10000 3.1 290 15:18 06.06.2020
1958 Clouds 27 1011 39 10000 3.1 230 14:39 06.06.2020
1959 Clouds 26 1012 44 10000 2.6 220 14:20 06.06.2020
1960 Clouds 26 1013 53 10000 3.1 290 13:49 06.06.2020
1961 Clouds 25 1012 50 10000 2.1 250 13:20 06.06.2020
1962 Clouds 25 1012 57 10000 2.1 270 12:59 06.06.2020
1963 Clouds 25 1012 57 10000 2.1 270 12:40 06.06.2020
1964 Clouds 25 1012 57 10000 2.6 260 12:21 06.06.2020
1965 Clouds 25 1012 57 10000 2.6 260 12:21 06.06.2020
1966 Clouds 23 1012 64 10000 2.6 270 11:57 06.06.2020
1967 Clouds 23 1012 64 10000 2.6 270 11:38 06.06.2020
1968 Clouds 23 1013 64 8000 1.5 240 11:19 06.06.2020
1969 Clouds 23 1012 68 10000 4.1 290 10:57 06.06.2020
1970 Clouds 22 1012 68 10000 4.1 290 10:38 06.06.2020
1971 Clouds 21 1013 83 6000 1 0 10:20 06.06.2020
1972 Clouds 20 1013 77 10000 4.1 280 09:44 06.06.2020
1973 Clouds 20 1013 77 10000 4.1 280 09:44 06.06.2020
1974 Clouds 20 1013 77 10000 4.1 280 09:25 06.06.2020
1975 Clouds 19 1013 100 6000 0.5 0 08:49 06.06.2020
1976 Clouds 18 1013 77 10000 2.6 290 08:25 06.06.2020
1977 Clouds 18 1013 77 10000 2.6 270 07:57 06.06.2020
1978 Clouds 19 1013 77 10000 2.6 270 07:39 06.06.2020
1979 Mist 18 1013 93 4000 1 0 07:20 06.06.2020
1980 Clouds 19 1013 77 10000 3.6 260 06:45 06.06.2020
1981 Clouds 19 1013 77 10000 3.6 260 06:26 06.06.2020
1982 Clouds 19 1013 82 10000 6.7 290 05:44 06.06.2020
1983 Clouds 19 1013 82 10000 6.7 290 05:23 06.06.2020
1984 Clouds 18 1013 82 10000 7.7 280 04:24 06.06.2020
1985 Clouds 19 1014 82 10000 7.2 280 02:36 06.06.2020
1986 Clouds 20 1014 82 10000 5.1 290 01:24 06.06.2020
1987 Clouds 20 1015 77 10000 5.7 280 00:59 06.06.2020
1988 Clouds 20 1015 77 10000 5.7 280 00:40 06.06.2020
1989 Clear 20 1015 77 10000 5.7 280 00:22 06.06.2020
1990 Clear 20 1014 77 10000 6.7 270 23:40 05.06.2020
1991 Clear 20 1014 77 10000 6.7 270 23:20 05.06.2020
1992 Clear 21 1014 73 10000 6.7 270 22:58 05.06.2020
1993 Clear 21 1014 73 10000 6.7 270 22:39 05.06.2020
1994 Clear 21 1014 73 10000 6.7 270 22:21 05.06.2020
1995 Clouds 22 1015 88 10000 2.6 260 21:55 05.06.2020
1996 Clear 22 1013 64 10000 6.7 280 21:37 05.06.2020
1997 Clouds 22 1014 83 10000 3.1 270 21:18 05.06.2020
1998 Clear 23 1013 64 10000 6.7 270 20:44 05.06.2020
1999 Clear 23 1013 64 10000 6.7 270 20:22 05.06.2020
2000 Clear 24 1013 64 10000 6.7 270 19:57 05.06.2020
2001 Clear 24 1013 64 10000 6.7 270 19:57 05.06.2020
2002 Clear 24 1013 64 10000 6.7 270 19:39 05.06.2020
2003 Clear 24 1013 64 10000 6.7 270 19:20 05.06.2020
2004 Clear 24 1013 61 10000 6.7 270 18:40 05.06.2020
2005 Clear 24 1013 61 10000 6.7 270 18:21 05.06.2020
2006 Clouds 25 1014 54 10000 4.6 230 17:59 05.06.2020
2007 Clouds 25 1014 54 10000 4.6 230 17:40 05.06.2020
2008 Clouds 25 1014 54 10000 4.6 230 17:20 05.06.2020
2009 Clouds 25 1014 57 10000 4.6 230 16:45 05.06.2020
2010 Clouds 25 1014 61 10000 5.1 230 16:26 05.06.2020
2011 Clouds 25 1014 57 10000 5.1 240 15:59 05.06.2020
2012 Clouds 25 1014 57 10000 5.1 240 15:38 05.06.2020
2013 Clouds 25 1014 57 10000 5.1 230 15:20 05.06.2020
2014 Clouds 24 1015 60 10000 4.1 240 14:57 05.06.2020
2015 Clouds 24 1015 60 10000 4.1 240 14:39 05.06.2020
2016 Clouds 24 1015 64 10000 6.2 260 14:21 05.06.2020
2017 Clouds 24 1015 64 10000 6.2 260 13:44 05.06.2020
2018 Clouds 24 1015 64 10000 5.1 250 13:26 05.06.2020
2019 Clouds 24 1015 64 10000 4.6 270 12:55 05.06.2020
2020 Clouds 24 1015 64 10000 4.6 270 12:37 05.06.2020
2021 Clouds 23 1014 69 10000 5.1 260 12:18 05.06.2020
2022 Clouds 23 1014 64 10000 4.6 260 11:42 05.06.2020
2023 Clouds 23 1014 68 10000 4.1 250 11:23 05.06.2020
2024 Clouds 22 1014 73 10000 5.1 250 10:57 05.06.2020
2025 Clouds 22 1014 73 10000 5.1 250 10:38 05.06.2020
2026 Clouds 22 1015 64 10000 2.6 190 10:19 05.06.2020
2027 Clouds 21 1014 73 10000 5.7 230 09:56 05.06.2020
2028 Clouds 21 1014 73 10000 5.7 230 09:37 05.06.2020
2029 Clouds 21 1014 73 10000 5.7 230 09:37 05.06.2020
2030 Clouds 20 1015 77 10000 2.6 170 09:18 05.06.2020
2031 Clouds 20 1015 77 10000 2.6 170 09:18 05.06.2020
2032 Clouds 20 1014 82 10000 4.6 230 08:56 05.06.2020
2033 Clouds 19 1014 82 10000 4.6 230 08:38 05.06.2020
2034 Clouds 19 1014 82 10000 4.6 230 08:38 05.06.2020
2035 Clouds 19 1015 88 10000 2.1 180 08:18 05.06.2020
2036 Clouds 19 1014 82 10000 4.6 230 07:43 05.06.2020
2037 Clouds 19 1014 82 10000 4.6 230 07:23 05.06.2020
2038 Clouds 19 1014 77 10000 3.1 220 06:20 05.06.2020
2039 Clouds 19 1013 77 10000 5.1 250 05:21 05.06.2020
2040 Clouds 20 1014 77 10000 6.7 260 04:26 05.06.2020
2041 Clouds 20 1015 88 10000 1.5 190 02:56 05.06.2020
2042 Clouds 20 1014 77 10000 10.3 280 02:25 05.06.2020
2043 Clouds 20 1015 82 10000 7.7 270 01:56 05.06.2020
2044 Clouds 20 1015 82 10000 7.7 270 01:27 05.06.2020
2045 Clouds 20 1014 77 10000 8.7 250 00:42 05.06.2020
2046 Clouds 20 1014 77 10000 8.7 250 00:21 05.06.2020
2047 Clouds 21 1014 73 10000 7.2 250 23:46 04.06.2020
2048 Clouds 21 1014 73 10000 7.2 250 23:27 04.06.2020
2049 Clouds 20 1013 73 10000 5.7 240 22:55 04.06.2020
2050 Clouds 21 1013 73 10000 5.7 240 22:36 04.06.2020
2051 Clouds 21 1013 73 10000 5.7 240 22:36 04.06.2020
2052 Clear 21 1013 73 10000 5.7 240 22:18 04.06.2020
2053 Clouds 21 1014 82 10000 4.1 250 21:56 04.06.2020
2054 Clear 22 1013 68 10000 8.7 260 21:36 04.06.2020
2055 Clouds 22 1014 83 10000 5.1 260 21:18 04.06.2020
2056 Clear 23 1012 57 10000 8.7 250 20:40 04.06.2020
2057 Clouds 23 1012 57 10000 8.7 250 20:21 04.06.2020
2058 Clouds 23 1012 64 10000 9.3 260 19:59 04.06.2020
2059 Clouds 23 1012 64 10000 9.3 260 19:38 04.06.2020
2060 Clouds 23 1012 64 10000 9.3 260 19:20 04.06.2020
2061 Clouds 23 1013 78 8000 5.1 240 18:54 04.06.2020
2062 Clouds 24 1012 69 10000 5.7 250 18:36 04.06.2020
2063 Clouds 24 1012 69 10000 5.7 250 18:18 04.06.2020
2064 Rain 23 1012 73 10000 7.7 240 17:41 04.06.2020
2065 Rain 23 1012 73 10000 7.7 240 17:21 04.06.2020
2066 Rain 22 1012 78 10000 6.2 250 16:41 04.06.2020
2067 Rain 22 1012 78 10000 7.7 240 16:21 04.06.2020
2068 Rain 22 1013 83 10000 6.7 230 15:58 04.06.2020
2069 Rain 22 1013 83 10000 6.7 230 15:40 04.06.2020
2070 Clouds 23 1012 78 10000 7.7 240 15:22 04.06.2020
2071 Clouds 23 1012 78 10000 7.7 240 15:22 04.06.2020
2072 Rain 22 1012 73 10000 7.7 240 14:39 04.06.2020
2073 Rain 22 1012 73 10000 9.3 250 14:19 04.06.2020
2074 Rain 22 1012 83 10000 7.7 240 13:56 04.06.2020
2075 Rain 23 1012 78 10000 7.7 240 13:37 04.06.2020
2076 Clouds 23 1014 73 8000 6.7 220 13:18 04.06.2020
2077 Rain 21 1012 77 10000 7.2 240 12:42 04.06.2020
2078 Rain 22 1012 73 10000 7.2 230 12:23 04.06.2020
2079 Rain 22 1012 73 10000 6.2 230 12:00 04.06.2020
2080 Rain 22 1012 73 10000 6.2 230 11:39 04.06.2020
2081 Clouds 22 1012 73 10000 5.1 230 11:20 04.06.2020
2082 Clouds 22 1012 73 10000 5.1 230 11:20 04.06.2020
2083 Clouds 22 1011 68 10000 5.1 240 10:57 04.06.2020
2084 Clouds 22 1011 73 10000 6.7 260 10:38 04.06.2020
2085 Clouds 22 1013 83 8000 3.6 210 10:19 04.06.2020
2086 Clouds 21 1011 77 10000 5.1 260 09:45 04.06.2020
2087 Clouds 20 1011 82 10000 4.6 270 09:27 04.06.2020
2088 Rain 21 1011 77 10000 5.7 260 08:46 04.06.2020
2089 Rain 21 1011 77 10000 5.7 260 08:27 04.06.2020
2090 Clouds 21 1012 88 6000 3.6 230 07:52 04.06.2020
2091 Clouds 21 1010 77 10000 6.7 250 07:29 04.06.2020
2092 Clouds 20 1010 77 10000 5.1 240 06:44 04.06.2020
2093 Clouds 20 1010 77 10000 5.1 240 06:26 04.06.2020
2094 Clouds 20 1010 73 10000 6.7 250 05:39 04.06.2020
2095 Clouds 20 1010 73 10000 6.7 250 05:20 04.06.2020
2096 Clouds 21 1011 73 10000 8.7 260 03:25 04.06.2020
2097 Clear 20 1011 82 10000 8.2 270 01:57 04.06.2020
2098 Clear 20 1011 82 10000 8.2 270 01:20 04.06.2020
2099 Clear 20 1013 93 6000 2.6 240 00:49 04.06.2020
2100 Clear 20 1011 73 10000 6.2 270 23:48 03.06.2020
2101 Clear 20 1011 73 10000 6.2 270 23:21 03.06.2020
2102 Clear 21 1010 64 10000 5.7 250 22:59 03.06.2020
2103 Clear 21 1010 64 10000 5.7 250 22:39 03.06.2020
2104 Clouds 21 1012 93 6000 2.1 230 22:19 03.06.2020
2105 Clear 22 1010 60 10000 8.7 270 21:57 03.06.2020
2106 Clear 22 1010 60 10000 8.7 270 21:39 03.06.2020
2107 Clear 22 1010 60 10000 8.7 270 21:21 03.06.2020
2108 Clear 23 1010 57 10000 8.7 270 20:56 03.06.2020
2109 Clear 24 1010 57 10000 8.7 270 20:37 03.06.2020
2110 Clear 24 1010 57 10000 8.7 270 20:19 03.06.2020
2111 Clouds 24 1010 57 10000 6.2 270 19:56 03.06.2020
2112 Clouds 24 1010 57 10000 6.2 270 19:36 03.06.2020
2113 Clouds 24 1010 57 10000 6.2 270 19:18 03.06.2020
2114 Clouds 25 1010 57 10000 7.2 260 18:43 03.06.2020
2115 Clouds 25 1010 57 10000 7.2 260 18:22 03.06.2020
2116 Clouds 25 1010 57 10000 7.2 260 17:57 03.06.2020
2117 Clouds 25 1010 57 10000 7.2 260 17:37 03.06.2020
2118 Clouds 25 1013 64 10000 5.1 290 17:19 03.06.2020
2119 Clouds 25 1011 61 10000 7.7 260 16:42 03.06.2020
2120 Clouds 25 1012 57 10000 6.7 260 16:21 03.06.2020
2121 Clouds 25 1012 57 10000 6.7 260 15:59 03.06.2020
2122 Clouds 25 1012 57 10000 6.7 260 15:41 03.06.2020
2123 Clouds 24 1012 65 10000 7.2 260 15:20 03.06.2020
2124 Clouds 24 1014 69 10000 5.1 270 14:47 03.06.2020
2125 Clouds 24 1012 69 10000 6.7 270 14:25 03.06.2020
2126 Clouds 24 1013 64 10000 7.2 270 13:56 03.06.2020
2127 Clouds 24 1013 64 10000 7.2 270 13:38 03.06.2020
2128 Clouds 24 1013 64 10000 6.7 280 13:18 03.06.2020
2129 Clouds 22 1014 69 10000 0.5 0 12:42 03.06.2020
2130 Clouds 22 1014 69 10000 0.5 0 12:21 03.06.2020
2131 Clouds 21 1013 77 10000 5.7 270 11:45 03.06.2020
2132 Clouds 21 1013 77 10000 5.7 270 11:27 03.06.2020
2133 Clouds 21 1013 77 10000 6.2 270 10:57 03.06.2020
2134 Clouds 21 1013 77 10000 6.2 270 10:38 03.06.2020
2135 Clouds 21 1013 77 10000 5.7 260 10:20 03.06.2020
2136 Clouds 19 1013 88 10000 6.7 270 09:43 03.06.2020
2137 Clouds 19 1013 88 10000 6.7 270 09:20 03.06.2020
2138 Clouds 19 1013 88 10000 5.7 280 08:48 03.06.2020
2139 Clouds 19 1013 88 10000 5.7 280 08:25 03.06.2020
2140 Clouds 19 1013 82 10000 5.1 280 07:59 03.06.2020
2141 Clouds 19 1013 82 10000 5.1 280 07:40 03.06.2020
2142 Clouds 19 1013 82 10000 4.6 250 07:19 03.06.2020
2143 Clouds 19 1013 82 10000 4.6 250 06:48 03.06.2020
2144 Clouds 19 1013 82 10000 4.6 250 06:29 03.06.2020
2145 Clouds 20 1013 72 10000 3.6 250 05:46 03.06.2020
2146 Clouds 19 1013 82 10000 4.6 250 04:33 03.06.2020
2147 Clear 20 1014 77 10000 5.1 270 03:42 03.06.2020
2148 Clear 19 1014 77 10000 6.7 270 02:46 03.06.2020
2149 Clouds 19 1015 88 8000 0.5 60 01:47 03.06.2020
2150 Clouds 20 1014 68 10000 4.6 260 00:41 03.06.2020
2151 Clouds 21 1014 68 10000 4.6 260 00:22 03.06.2020
2152 Clouds 20 1015 82 8000 2.66 285 23:49 02.06.2020
2153 Clear 21 1014 73 10000 3.6 230 23:27 02.06.2020
2154 Clear 21 1014 73 10000 6.7 200 22:56 02.06.2020
2155 Clear 21 1014 73 10000 6.7 200 22:37 02.06.2020
2156 Clear 21 1014 88 8000 1 0 22:18 02.06.2020
2157 Clear 21 1014 82 8000 2.1 300 21:55 02.06.2020
2158 Clear 22 1014 78 10000 6.7 190 21:36 02.06.2020
2159 Clear 22 1014 78 10000 6.7 190 21:18 02.06.2020
2160 Clear 22 1013 73 10000 6.2 190 20:42 02.06.2020
2161 Clouds 22 1013 73 10000 6.2 190 20:24 02.06.2020
2162 Clouds 23 1014 64 10000 6.7 200 19:59 02.06.2020
2163 Clouds 23 1014 64 10000 6.7 200 19:40 02.06.2020
2164 Clouds 23 1014 64 10000 6.7 200 19:22 02.06.2020
2165 Clouds 24 1014 64 10000 4.1 210 18:55 02.06.2020
2166 Clouds 24 1014 64 10000 4.1 210 18:37 02.06.2020
2167 Clouds 24 1015 69 8000 5.1 300 18:19 02.06.2020
2168 Clouds 24 1015 53 10000 3.6 120 17:42 02.06.2020
2169 Clouds 24 1015 53 10000 3.6 120 17:23 02.06.2020
2170 Clouds 24 1015 50 10000 4.1 120 16:57 02.06.2020
2171 Clouds 24 1015 50 10000 4.1 120 16:38 02.06.2020
2172 Clouds 24 1015 60 10000 4.6 120 16:20 02.06.2020
2173 Clouds 23 1015 64 10000 4.1 110 15:46 02.06.2020
2174 Clouds 24 1015 64 10000 4.1 100 15:24 02.06.2020
2175 Clouds 24 1015 64 10000 4.1 100 14:50 02.06.2020
2176 Clouds 24 1016 69 10000 3.1 100 14:31 02.06.2020
2177 Clouds 23 1016 73 10000 3.6 100 13:58 02.06.2020
2178 Clouds 23 1016 73 10000 3.6 100 13:39 02.06.2020
2179 Clouds 23 1016 60 8000 3.6 270 13:19 02.06.2020
2180 Clouds 22 1016 77 10000 3.1 80 12:58 02.06.2020
2181 Clouds 22 1016 77 10000 3.1 80 12:40 02.06.2020
2182 Clouds 22 1016 77 10000 3.1 90 12:20 02.06.2020
2183 Clouds 23 1016 73 10000 2.6 100 11:55 02.06.2020
2184 Clouds 22 1016 73 10000 2.6 100 11:37 02.06.2020
2185 Clouds 22 1016 73 10000 2.6 240 11:18 02.06.2020
2186 Clouds 21 1016 83 10000 1.5 80 10:46 02.06.2020
2187 Clouds 20 1016 88 10000 1.5 280 10:28 02.06.2020
2188 Clouds 20 1015 94 6000 0.5 0 09:55 02.06.2020
2189 Haze 19 1016 88 8000 1.5 260 09:36 02.06.2020
2190 Haze 19 1015 88 7000 1.5 260 09:36 02.06.2020
2191 Clouds 19 1015 93 6000 1.5 70 09:18 02.06.2020
2192 Haze 17 1015 93 6000 1 260 08:45 02.06.2020
2193 Haze 17 1015 93 6000 1 260 08:20 02.06.2020
2194 Haze 18 1015 93 7000 1 270 07:44 02.06.2020
2195 Haze 18 1015 93 7000 1 270 07:25 02.06.2020
2196 Haze 18 1014 93 7000 1 50 06:43 02.06.2020
2197 Clear 18 1014 93 6000 0.5 0 05:54 02.06.2020
2198 Clear 19 1014 88 6000 2.6 100 04:57 02.06.2020
2199 Clear 18 1015 88 10000 1 80 03:20 02.06.2020
2200 Clear 19 1015 88 10000 2.6 50 02:20 02.06.2020
2201 Clear 20 1016 73 10000 3.6 120 00:57 02.06.2020
2202 Clear 20 1016 73 10000 3.6 120 00:23 02.06.2020
2203 Clear 20 1015 73 10000 3.1 120 23:39 01.06.2020
2204 Clear 21 1015 73 10000 3.1 120 23:21 01.06.2020
2205 Clear 21 1015 64 10000 3.1 130 22:59 01.06.2020
2206 Clear 21 1015 64 10000 3.1 130 22:40 01.06.2020
2207 Clear 22 1015 64 10000 3.1 130 22:20 01.06.2020
2208 Clear 21 1015 64 10000 3.1 130 22:20 01.06.2020
2209 Clouds 22 1014 68 8000 2.6 40 21:57 01.06.2020
2210 Clear 23 1014 60 10000 3.6 120 21:37 01.06.2020
2211 Clouds 23 1014 60 8000 2.1 360 21:18 01.06.2020
2212 Clouds 23 1014 56 8000 2.1 280 20:54 01.06.2020
2213 Clouds 22 1014 60 8000 2.1 270 20:36 01.06.2020
2214 Clouds 23 1014 60 8000 2.1 270 20:18 01.06.2020
2215 Clouds 23 1014 60 8000 2.1 270 20:18 01.06.2020
2216 Clear 24 1014 50 10000 3.1 100 19:42 01.06.2020
2217 Clear 24 1014 50 10000 3.1 100 19:20 01.06.2020
2218 Clouds 24 1014 50 10000 3.1 110 18:58 01.06.2020
2219 Clouds 24 1014 50 10000 3.1 110 18:39 01.06.2020
2220 Clouds 24 1014 50 10000 3.1 110 18:19 01.06.2020
2221 Clouds 24 1015 57 10000 3.1 110 17:55 01.06.2020
2222 Clouds 24 1015 57 10000 3.1 110 17:36 01.06.2020
2223 Clouds 24 1015 57 10000 3.1 110 17:18 01.06.2020
2224 Clouds 24 1015 57 10000 3.1 110 16:39 01.06.2020
2225 Clouds 24 1015 60 10000 3.6 100 16:20 01.06.2020
2226 Clouds 23 1015 64 10000 4.1 100 15:55 01.06.2020
2227 Clouds 23 1015 64 10000 4.1 100 15:37 01.06.2020
2228 Clouds 24 1015 64 7000 2.1 290 15:18 01.06.2020
2229 Clouds 24 1015 64 10000 4.1 100 15:18 01.06.2020
2230 Clouds 23 1015 69 10000 4.6 100 14:56 01.06.2020
2231 Clouds 23 1015 69 10000 4.6 100 14:37 01.06.2020
2232 Clouds 22 1015 73 7000 4.6 240 14:18 01.06.2020
2233 Clouds 23 1015 73 10000 2.6 90 13:42 01.06.2020
2234 Clouds 23 1015 60 7000 4.1 240 13:21 01.06.2020
2235 Clouds 23 1015 73 10000 1.5 90 12:58 01.06.2020
2236 Fog 22 1015 77 10000 3.6 90 12:40 01.06.2020
2237 Fog 22 1015 77 10000 3.6 90 12:21 01.06.2020
2238 Fog 22 1015 77 10000 2.6 90 11:56 01.06.2020
2239 Fog 22 1015 77 10000 1 260 11:36 01.06.2020
2240 Clouds 22 1015 64 7000 2.1 200 11:18 01.06.2020
2241 Clouds 20 1015 77 10000 1 250 10:40 01.06.2020
2242 Clouds 21 1015 77 10000 1 250 10:20 01.06.2020
2243 Clouds 20 1014 77 10000 1 70 09:58 01.06.2020
2244 Clouds 20 1014 77 10000 1 70 09:40 01.06.2020
2245 Clouds 20 1014 77 10000 1 70 09:20 01.06.2020
2246 Clouds 18 1014 100 5000 2.1 90 08:52 01.06.2020
2247 Clouds 17 1014 93 10000 0.5 320 08:30 01.06.2020
2248 Clouds 17 1014 93 5000 1 40 07:54 01.06.2020
2249 Clouds 17 1014 88 10000 1 30 07:36 01.06.2020
2250 Clouds 17 1013 100 5000 1.5 80 07:18 01.06.2020
2251 Clouds 17 1013 93 5000 2.1 90 06:43 01.06.2020
2252 Clouds 17 1013 100 5000 3.1 80 05:54 01.06.2020
2253 Clouds 17 1013 100 5000 2.6 90 04:46 01.06.2020
2254 Clear 18 1013 93 5000 2.6 80 03:49 01.06.2020
2255 Clear 18 1014 88 10000 1.5 260 03:27 01.06.2020
2256 Clear 18 1014 88 10000 1.5 360 02:29 01.06.2020
2257 Clouds 19 1013 82 10000 1 10 01:34 01.06.2020
2258 Clouds 19 1013 88 10000 1.5 310 00:58 01.06.2020
2259 Clouds 19 1013 82 10000 1 310 00:40 01.06.2020
2260 Clouds 19 1013 82 10000 1 310 00:21 01.06.2020
2261 Clouds 19 1013 82 10000 1 310 00:21 01.06.2020
2262 Clouds 20 1012 82 10000 3.6 50 23:57 31.05.2020
2263 Clouds 20 1012 82 10000 3.6 50 23:38 31.05.2020
2264 Clouds 20 1012 77 10000 0.5 0 23:20 31.05.2020
2265 Clouds 20 1011 77 10000 1 0 22:45 31.05.2020
2266 Clouds 20 1012 82 10000 2.6 60 22:27 31.05.2020
2267 Clouds 22 1012 73 10000 4.1 110 21:59 31.05.2020
2268 Clouds 22 1012 73 10000 4.1 110 21:41 31.05.2020
2269 Clear 22 1012 73 10000 4.1 110 21:23 31.05.2020
2270 Clear 22 1012 73 10000 5.1 120 20:57 31.05.2020
2271 Clear 22 1012 73 10000 5.1 120 20:57 31.05.2020
2272 Clear 23 1012 68 10000 5.1 120 20:38 31.05.2020
2273 Clear 23 1011 69 10000 2.1 240 20:19 31.05.2020
2274 Clear 23 1012 64 10000 6.2 130 19:55 31.05.2020
2275 Clear 23 1013 64 10000 5.7 130 19:36 31.05.2020
2276 Clouds 23 1011 69 6000 3.1 260 19:18 31.05.2020
2277 Clouds 23 1012 69 6000 2.6 240 18:43 31.05.2020
2278 Clouds 23 1013 68 10000 5.1 120 18:25 31.05.2020
2279 Clouds 22 1013 72 10000 2.1 140 17:45 31.05.2020
2280 Clouds 22 1013 72 10000 2.1 140 17:25 31.05.2020
2281 Clouds 22 1012 73 6000 3.1 70 17:25 31.05.2020
2282 Clouds 20 1012 82 10000 9.3 80 16:59 31.05.2020
2283 Thunderstorm 21 1013 72 10000 2.6 40 16:40 31.05.2020
2284 Clouds 21 1012 88 6000 3.6 90 16:19 31.05.2020
2285 Clouds 20 1013 77 10000 2.6 340 15:39 31.05.2020
2286 Clouds 20 1013 77 10000 2.6 340 15:21 31.05.2020
2287 Thunderstorm 20 1013 93 4000 3.1 30 14:47 31.05.2020
2288 Clouds 21 1013 73 10000 0.5 340 14:22 31.05.2020
2289 Clouds 21 1012 77 10000 4.1 70 13:56 31.05.2020
2290 Clouds 21 1012 77 10000 4.1 70 13:38 31.05.2020
2291 Clouds 21 1012 77 10000 4.1 70 13:20 31.05.2020
2292 Clouds 21 1012 73 10000 5.1 70 12:57 31.05.2020
2293 Clouds 21 1012 73 10000 5.1 70 12:38 31.05.2020
2294 Clouds 21 1011 77 10000 2.1 260 12:19 31.05.2020
2295 Clouds 22 1011 73 10000 1.5 200 11:48 31.05.2020
2296 Clouds 22 1011 64 10000 1.5 130 11:23 31.05.2020
2297 Clouds 21 1011 68 10000 2.6 100 10:57 31.05.2020
2298 Rain 21 1012 82 10000 3.1 80 10:39 31.05.2020
2299 Rain 21 1011 73 10000 2.6 100 10:19 31.05.2020
2300 Rain 21 1011 73 10000 2.1 110 09:42 31.05.2020
2301 Clouds 20 1012 77 10000 3.1 100 09:23 31.05.2020
2302 Clouds 20 1011 77 10000 3.6 110 08:58 31.05.2020
2303 Clouds 20 1011 77 10000 3.6 110 08:37 31.05.2020
2304 Rain 20 1010 82 10000 3.6 100 08:19 31.05.2020
2305 Rain 20 1010 72 10000 5.1 120 07:42 31.05.2020
2306 Clouds 20 1011 77 10000 5.1 110 07:20 31.05.2020
2307 Rain 20 1010 77 10000 5.1 120 06:53 31.05.2020
2308 Rain 20 1011 72 10000 7.7 90 06:31 31.05.2020
2309 Clouds 19 1009 72 10000 2.6 120 05:43 31.05.2020
2310 Clouds 19 1011 72 10000 8.2 90 04:27 31.05.2020
2311 Clouds 20 1009 77 10000 2.6 100 03:48 31.05.2020
2312 Clouds 20 1013 73 10000 8.2 90 02:59 31.05.2020
2313 Clouds 20 1011 77 10000 4.1 100 01:48 31.05.2020
2314 Clouds 20 1011 72 10000 3.6 120 01:19 31.05.2020
2315 Clouds 20 1013 82 10000 8.2 100 00:30 31.05.2020
2316 Clouds 21 1013 82 10000 8.2 80 23:55 30.05.2020
2317 Clouds 21 1013 82 10000 8.2 80 23:36 30.05.2020
2318 Clouds 21 1009 60 10000 9.3 80 23:18 30.05.2020
2319 Clouds 21 1012 88 10000 8.7 80 22:41 30.05.2020
2320 Clouds 21 1008 53 10000 10.8 80 22:22 30.05.2020
2321 Clouds 21 1012 88 10000 7.2 70 21:56 30.05.2020
2322 Clouds 21 1012 88 10000 7.2 70 21:37 30.05.2020
2323 Smoke 22 1007 46 10000 10.3 80 21:18 30.05.2020
2324 Smoke 23 1007 38 10000 10.8 80 20:56 30.05.2020
2325 Clouds 23 1012 83 10000 7.7 80 20:37 30.05.2020
2326 Smoke 23 1007 33 10000 11.8 70 20:19 30.05.2020
2327 Clouds 24 1007 29 10000 10.8 70 19:42 30.05.2020
2328 Clouds 24 1012 77 10000 8.2 80 19:21 30.05.2020
2329 Clouds 25 1008 26 10000 11.3 70 18:45 30.05.2020
2330 Clouds 25 1012 73 10000 7.2 80 18:22 30.05.2020
2331 Clouds 25 1008 28 10000 11.8 70 17:46 30.05.2020
2332 Clouds 25 1008 28 10000 11.8 70 17:46 30.05.2020
2333 Clouds 24 1013 73 10000 7.2 90 17:27 30.05.2020
2334 Clouds 24 1013 73 10000 9.3 80 16:59 30.05.2020
2335 Clouds 24 1009 31 10000 12.3 70 16:41 30.05.2020
2336 Clouds 25 1013 73 10000 7.7 80 16:22 30.05.2020
2337 Clouds 25 1009 28 10000 13.9 80 15:48 30.05.2020
2338 Clouds 24 1014 73 10000 7.7 80 15:28 30.05.2020
2339 Clouds 25 1009 26 10000 13.4 80 14:46 30.05.2020
2340 Clouds 24 1014 73 10000 7.7 80 14:27 30.05.2020
2341 Clouds 24 1010 27 10000 13.9 80 13:46 30.05.2020
2342 Clouds 24 1015 73 10000 7.7 80 13:27 30.05.2020
2343 Clouds 24 1010 39 10000 13.4 70 12:55 30.05.2020
2344 Clouds 23 1014 77 10000 7.2 90 12:36 30.05.2020
2345 Clouds 23 1010 41 10000 12.9 70 12:18 30.05.2020
2346 Clouds 23 1010 50 10000 11.8 80 11:41 30.05.2020
2347 Clouds 23 1014 77 10000 8.2 90 11:23 30.05.2020
2348 Clouds 22 1011 56 10000 11.3 80 10:56 30.05.2020
2349 Clouds 22 1014 77 10000 7.7 90 10:56 30.05.2020
2350 Clouds 22 1014 77 10000 7.7 90 10:38 30.05.2020
2351 Clouds 22 1014 77 10000 7.7 90 10:20 30.05.2020
2352 Clouds 21 1011 64 10000 9.3 70 09:43 30.05.2020
2353 Clouds 21 1014 82 10000 7.2 90 09:25 30.05.2020
2354 Clouds 20 1014 93 10000 6.7 110 08:42 30.05.2020
2355 Clouds 20 1014 93 10000 6.7 110 08:22 30.05.2020
2356 Clouds 20 1013 88 10000 6.7 110 07:40 30.05.2020
2357 Clouds 20 1010 72 10000 8.2 80 07:19 30.05.2020
2358 Clouds 20 1013 88 10000 7.2 110 06:29 30.05.2020
2359 Clear 20 1010 72 10000 5.1 80 05:51 30.05.2020
2360 Clear 20 1010 72 10000 7.2 80 04:47 30.05.2020
2361 Clear 20 1011 72 10000 9.8 70 02:41 30.05.2020
2362 Clear 20 1015 77 10000 5.7 100 02:19 30.05.2020
2363 Clear 21 1011 56 10000 8.7 70 00:45 30.05.2020
2364 Clear 21 1014 72 10000 5.7 110 00:24 30.05.2020
2365 Clear 21 1014 77 10000 5.7 110 23:59 29.05.2020
2366 Clear 21 1014 77 10000 5.7 110 23:38 29.05.2020
2367 Clear 21 1011 56 10000 7.2 70 23:19 29.05.2020
2368 Clear 21 1011 56 10000 7.2 70 23:19 29.05.2020
2369 Clear 22 1011 56 10000 7.7 70 22:54 29.05.2020
2370 Clear 22 1013 73 10000 7.7 130 22:36 29.05.2020
2371 Clear 22 1010 53 10000 8.2 70 22:18 29.05.2020
2372 Clear 22 1013 73 10000 7.7 110 21:40 29.05.2020
2373 Clear 23 1013 73 10000 7.7 110 21:21 29.05.2020
2374 Clear 24 1013 68 10000 6.7 110 20:58 29.05.2020
2375 Clear 23 1013 68 10000 6.7 110 20:39 29.05.2020
2376 Clear 24 1009 50 10000 9.8 80 20:19 29.05.2020
2377 Clear 24 1010 47 10000 8.2 80 19:43 29.05.2020
2378 Clouds 24 1013 68 10000 5.7 110 19:24 29.05.2020
2379 Clear 25 1010 54 10000 8.7 80 18:48 29.05.2020
2380 Clouds 25 1014 64 10000 5.7 100 18:23 29.05.2020
2381 Clouds 25 1014 64 10000 5.1 100 17:59 29.05.2020
2382 Clouds 25 1014 64 10000 5.7 90 17:39 29.05.2020
2383 Clouds 25 1014 64 10000 5.7 90 17:20 29.05.2020
2384 Clouds 25 1014 64 10000 6.2 80 16:54 29.05.2020
2385 Clouds 25 1014 69 10000 6.2 90 16:36 29.05.2020
2386 Clear 26 1011 48 10000 8.2 80 16:18 29.05.2020
2387 Clear 26 1012 51 10000 7.2 80 15:41 29.05.2020
2388 Clouds 26 1015 64 10000 6.2 80 15:21 29.05.2020
2389 Clouds 25 1015 69 10000 5.7 80 14:57 29.05.2020
2390 Clouds 25 1016 69 10000 6.2 80 14:38 29.05.2020
2391 Clouds 26 1013 48 10000 6.7 80 14:19 29.05.2020
2392 Clouds 25 1013 51 10000 6.7 80 13:43 29.05.2020
2393 Clouds 25 1016 68 10000 6.2 80 13:22 29.05.2020
2394 Clouds 24 1016 68 10000 6.7 80 12:56 29.05.2020
2395 Clouds 24 1016 68 10000 6.7 80 12:56 29.05.2020
2396 Clouds 24 1016 68 10000 6.2 80 12:37 29.05.2020
2397 Clouds 24 1013 54 10000 6.2 70 12:18 29.05.2020
2398 Clouds 24 1013 54 10000 6.2 70 11:42 29.05.2020
2399 Clouds 24 1013 54 10000 6.2 70 11:42 29.05.2020
2400 Clouds 23 1016 77 10000 6.2 80 11:24 29.05.2020
2401 Clouds 23 1014 60 10000 5.1 80 10:46 29.05.2020
2402 Clouds 23 1016 73 10000 5.7 70 10:24 29.05.2020
2403 Clouds 22 1016 82 10000 5.1 70 09:58 29.05.2020
2404 Clouds 21 1016 82 10000 5.1 70 09:40 29.05.2020
2405 Clouds 21 1014 68 10000 3.6 80 09:19 29.05.2020
2406 Clouds 20 1013 77 10000 4.1 80 08:47 29.05.2020
2407 Clouds 20 1016 82 10000 5.7 70 08:23 29.05.2020
2408 Clouds 19 1013 82 10000 4.6 80 07:48 29.05.2020
2409 Clouds 19 1016 88 10000 5.1 70 07:29 29.05.2020
2410 Clouds 20 1016 82 10000 5.1 100 06:56 29.05.2020
2411 Clouds 20 1016 82 10000 5.1 100 06:37 29.05.2020
2412 Clouds 20 1012 77 10000 7.7 80 06:18 29.05.2020
2413 Clouds 20 1016 88 7000 5.1 70 05:36 29.05.2020
2414 Clouds 21 1014 73 10000 11.8 80 01:48 29.05.2020
2415 Clouds 21 1018 88 7000 7.7 70 01:27 29.05.2020
2416 Clouds 21 1018 88 7000 7.7 70 01:27 29.05.2020
2417 Clouds 21 1015 73 10000 10.8 80 00:50 29.05.2020
2418 Clouds 21 1019 88 7000 8.7 80 00:28 29.05.2020
2419 Clouds 21 1015 68 10000 10.3 80 23:41 28.05.2020
2420 Clouds 21 1018 82 9000 10.3 80 23:20 28.05.2020
2421 Clouds 21 1018 82 9000 10.3 80 23:20 28.05.2020
2422 Clouds 21 1018 77 9000 9.8 80 22:59 28.05.2020
2423 Clouds 21 1018 77 9000 9.8 80 22:40 28.05.2020
2424 Clouds 21 1018 77 9000 9.8 80 22:40 28.05.2020
2425 Clouds 21 1018 77 9000 9.8 80 22:20 28.05.2020
2426 Clouds 21 1017 77 9000 9.8 80 21:55 28.05.2020
2427 Clouds 22 1017 77 9000 9.8 80 21:37 28.05.2020
2428 Clouds 22 1013 64 10000 11.8 80 21:18 28.05.2020
2429 Clouds 22 1013 64 10000 11.3 80 20:42 28.05.2020
2430 Clouds 22 1017 77 9000 8.2 80 20:20 28.05.2020
2431 Clouds 23 1018 73 10000 9.3 80 19:59 28.05.2020
2432 Clouds 23 1018 73 10000 9.3 80 19:41 28.05.2020
2433 Clouds 24 1018 73 10000 9.3 80 19:20 28.05.2020
2434 Haze 24 1018 73 8000 7.2 70 18:57 28.05.2020
2435 Haze 24 1018 73 8000 7.2 70 18:38 28.05.2020
2436 Clouds 24 1013 50 10000 13.4 70 18:20 28.05.2020
2437 Haze 24 1018 73 8000 6.7 80 17:40 28.05.2020
2438 Haze 24 1018 73 8000 6.7 80 17:21 28.05.2020
2439 Haze 24 1018 73 8000 6.7 80 16:47 28.05.2020
2440 Haze 25 1019 69 9000 6.7 80 16:21 28.05.2020
2441 Clouds 23 1019 73 10000 7.7 80 15:59 28.05.2020
2442 Clouds 24 1019 69 10000 7.7 70 15:40 28.05.2020
2443 Clouds 24 1019 69 10000 7.7 70 15:22 28.05.2020
2444 Clouds 25 1015 57 10000 12.9 80 14:42 28.05.2020
2445 Clouds 24 1015 61 10000 14.4 80 14:23 28.05.2020
2446 Clouds 23 1020 73 10000 9.8 110 13:47 28.05.2020
2447 Clouds 23 1020 73 10000 9.8 110 13:29 28.05.2020
2448 Clouds 23 1020 73 10000 10.8 110 12:57 28.05.2020
2449 Clouds 23 1020 73 10000 9.3 110 12:38 28.05.2020
2450 Clouds 23 1016 60 10000 14.4 80 12:18 28.05.2020
2451 Clouds 22 1020 77 10000 9.3 110 11:41 28.05.2020
2452 Clouds 23 1020 77 10000 9.3 110 11:23 28.05.2020
2453 Clouds 22 1020 77 10000 8.7 100 10:50 28.05.2020
2454 Clouds 22 1020 77 10000 8.7 100 10:28 28.05.2020
2455 Clouds 21 1020 88 10000 7.7 80 09:59 28.05.2020
2456 Clouds 21 1020 82 10000 7.7 80 09:39 28.05.2020
2457 Clouds 21 1016 73 10000 12.3 70 09:19 28.05.2020
2458 Clouds 20 1016 73 10000 10.8 70 08:44 28.05.2020
2459 Clouds 20 1020 88 10000 7.2 90 08:25 28.05.2020
2460 Clouds 20 1016 77 10000 9.8 80 07:45 28.05.2020
2461 Clouds 20 1019 82 10000 7.7 80 07:24 28.05.2020
2462 Clear 20 1015 77 10000 8.7 80 06:51 28.05.2020
2463 Clouds 20 1019 88 10000 7.2 80 06:31 28.05.2020
2464 Clear 20 1020 82 10000 11.3 90 05:40 28.05.2020
2465 Clear 20 1015 72 10000 12.3 80 04:46 28.05.2020
2466 Clear 21 1020 82 10000 9.8 80 04:22 28.05.2020
2467 Clear 21 1015 64 10000 11.3 80 03:42 28.05.2020
2468 Clear 21 1015 60 10000 11.8 80 02:45 28.05.2020
2469 Clear 21 1016 53 10000 12.3 70 01:46 28.05.2020
2470 Clear 22 1016 43 10000 9.8 80 00:50 28.05.2020
2471 Clear 21 1021 82 10000 8.7 70 00:22 28.05.2020
2472 Clear 21 1021 82 10000 9.3 70 23:56 27.05.2020
2473 Clear 21 1021 82 10000 9.3 70 23:38 27.05.2020
2474 Clear 21 1016 68 10000 8.7 90 23:19 27.05.2020
2475 Clear 21 1016 73 10000 8.7 90 22:43 27.05.2020
2476 Clear 21 1016 73 10000 8.7 90 22:43 27.05.2020
2477 Clear 22 1020 77 10000 10.8 70 22:24 27.05.2020
2478 Clear 22 1015 68 10000 11.3 80 21:58 27.05.2020
2479 Clear 22 1020 77 10000 10.3 70 21:40 27.05.2020
2480 Clear 22 1020 77 10000 10.3 70 21:21 27.05.2020
2481 Clear 23 1020 73 10000 10.3 80 20:58 27.05.2020
2482 Clear 23 1020 73 10000 10.3 80 20:40 27.05.2020
2483 Clear 23 1020 73 10000 10.3 80 20:40 27.05.2020
2484 Clear 23 1020 73 10000 10.3 80 20:20 27.05.2020
2485 Clear 24 1015 60 10000 11.8 80 19:46 27.05.2020
2486 Haze 24 1020 69 8000 7.2 80 19:21 27.05.2020
2487 Haze 24 1020 69 9000 7.2 80 18:58 27.05.2020
2488 Clouds 24 1020 69 10000 6.2 80 18:39 27.05.2020
2489 Clear 24 1015 57 10000 13.4 80 18:19 27.05.2020
2490 Clear 24 1015 57 10000 14.4 80 17:43 27.05.2020
2491 Clouds 24 1020 73 10000 6.2 80 17:24 27.05.2020
2492 Clouds 24 1020 69 10000 7.2 80 16:57 27.05.2020
2493 Clouds 24 1020 69 10000 7.2 80 16:57 27.05.2020
2494 Clouds 24 1021 78 10000 6.7 70 16:38 27.05.2020
2495 Clouds 24 1021 78 10000 6.7 70 16:38 27.05.2020
2496 Clouds 24 1021 78 10000 6.7 70 16:20 27.05.2020
2497 Clouds 24 1021 73 10000 6.2 70 15:49 27.05.2020
2498 Clouds 25 1021 73 10000 6.7 80 15:23 27.05.2020
2499 Clouds 24 1021 73 10000 6.7 90 14:58 27.05.2020
2500 Clouds 24 1021 73 10000 6.2 80 14:39 27.05.2020
2501 Clouds 24 1021 73 10000 6.2 80 14:20 27.05.2020
2502 Clear 24 1017 54 10000 13.4 80 13:42 27.05.2020
2503 Clouds 24 1022 78 10000 5.7 80 13:24 27.05.2020
2504 Clouds 23 1021 73 10000 7.2 90 12:43 27.05.2020
2505 Clouds 24 1017 57 10000 12.3 80 12:24 27.05.2020
2506 Clouds 23 1021 78 10000 6.7 80 11:59 27.05.2020
2507 Clouds 22 1021 83 10000 6.7 80 11:39 27.05.2020
2508 Clouds 23 1021 83 10000 6.7 80 11:21 27.05.2020
2509 Clouds 22 1021 83 10000 6.2 70 10:55 27.05.2020
2510 Clouds 21 1021 83 10000 6.2 60 10:37 27.05.2020
2511 Clouds 21 1021 82 10000 6.2 90 10:18 27.05.2020
2512 Clouds 20 1021 82 10000 6.2 100 09:40 27.05.2020
2513 Clouds 20 1021 82 10000 6.2 100 09:21 27.05.2020
2514 Clouds 20 1020 82 10000 7.2 100 08:43 27.05.2020
2515 Clouds 20 1020 82 10000 7.2 100 08:25 27.05.2020
2516 Clouds 19 1020 88 10000 6.2 80 07:59 27.05.2020
2517 Clouds 19 1020 88 10000 6.2 80 07:40 27.05.2020
2518 Clouds 19 1020 88 10000 6.2 80 07:22 27.05.2020
2519 Clouds 20 1016 72 10000 11.3 80 06:43 27.05.2020
2520 Clouds 20 1020 88 10000 7.2 80 06:19 27.05.2020
2521 Clouds 20 1016 72 10000 10.3 70 05:47 27.05.2020
2522 Clouds 20 1020 88 10000 10.8 70 04:20 27.05.2020
2523 Clouds 21 1017 68 10000 11.3 80 02:30 27.05.2020
2524 Clear 21 1017 64 10000 10.8 80 01:53 27.05.2020
2525 Clear 21 1021 82 10000 8.2 80 01:23 27.05.2020
2526 Clear 21 1017 56 10000 11.3 80 00:45 27.05.2020
2527 Clear 21 1017 53 10000 9.8 80 00:19 27.05.2020
2528 Clear 21 1021 82 10000 8.7 80 23:44 26.05.2020
2529 Clear 21 1017 60 10000 12.3 80 23:25 26.05.2020
2530 Clear 21 1021 82 10000 9.3 80 22:59 26.05.2020
2531 Clear 21 1021 82 10000 9.3 80 22:38 26.05.2020
2532 Clear 21 1021 82 10000 9.3 80 22:20 26.05.2020
2533 Clear 21 1020 82 10000 8.7 70 21:57 26.05.2020
2534 Clear 21 1020 82 10000 8.7 70 21:39 26.05.2020
2535 Clear 21 1020 82 10000 8.7 70 21:20 26.05.2020
2536 Clear 22 1016 60 10000 13.4 80 20:42 26.05.2020
2537 Clear 22 1020 83 10000 8.2 80 20:21 26.05.2020
2538 Clear 23 1021 83 10000 8.7 80 19:56 26.05.2020
2539 Clear 22 1021 83 10000 8.7 80 19:37 26.05.2020
2540 Clear 23 1016 60 10000 12.3 80 19:18 26.05.2020
2541 Clear 23 1016 53 10000 13.9 80 18:41 26.05.2020
2542 Clear 23 1021 83 10000 8.7 70 18:22 26.05.2020
2543 Clear 24 1016 50 10000 13.4 80 17:44 26.05.2020
2544 Clouds 24 1021 73 10000 8.2 80 17:26 26.05.2020
2545 Clouds 24 1022 73 10000 7.2 70 16:59 26.05.2020
2546 Clear 25 1017 44 10000 12.9 80 16:41 26.05.2020
2547 Clouds 24 1022 73 10000 7.2 70 16:19 26.05.2020
2548 Clear 25 1017 44 10000 12.3 80 15:44 26.05.2020
2549 Clouds 25 1022 68 10000 7.2 70 15:21 26.05.2020
2550 Clouds 24 1022 68 10000 7.2 70 14:59 26.05.2020
2551 Clear 24 1022 68 10000 9.3 80 14:41 26.05.2020
2552 Clear 25 1022 68 10000 9.3 80 14:21 26.05.2020
2553 Clouds 24 1023 68 10000 6.7 80 13:42 26.05.2020
2554 Clouds 24 1023 68 10000 6.7 80 13:42 26.05.2020
2555 Clouds 24 1023 68 10000 6.7 80 13:23 26.05.2020
2556 Clouds 24 1023 73 10000 6.2 70 12:57 26.05.2020
2557 Clouds 23 1023 73 10000 6.2 70 12:39 26.05.2020
2558 Clear 23 1018 50 10000 12.9 80 12:19 26.05.2020
2559 Clear 23 1018 57 10000 14.4 80 11:41 26.05.2020
2560 Clouds 23 1023 77 10000 6.7 80 11:21 26.05.2020
2561 Clouds 22 1023 77 10000 6.7 70 10:58 26.05.2020
2562 Clouds 21 1022 82 10000 6.2 70 10:38 26.05.2020
2563 Clear 22 1017 60 10000 13.9 80 10:18 26.05.2020
2564 Clouds 20 1022 88 10000 7.2 80 09:39 26.05.2020
2565 Clear 20 1017 68 10000 12.9 80 09:19 26.05.2020
2566 Clear 20 1017 68 10000 13.9 80 08:42 26.05.2020
2567 Clouds 20 1022 88 10000 7.2 80 08:22 26.05.2020
2568 Clouds 20 1022 82 10000 7.2 90 07:44 26.05.2020
2569 Clouds 20 1022 82 10000 7.2 90 07:24 26.05.2020
2570 Clouds 20 1017 72 10000 12.3 80 06:54 26.05.2020
2571 Clouds 20 1021 82 10000 8.7 90 06:35 26.05.2020
2572 Clouds 20 1016 72 10000 13.9 80 05:48 26.05.2020
2573 Clear 20 1021 82 10000 9.3 90 05:28 26.05.2020
2574 Clear 20 1016 64 10000 13.4 80 04:49 26.05.2020
2575 Clear 20 1021 82 10000 7.7 90 04:31 26.05.2020
2576 Clear 20 1017 64 10000 12.9 70 03:52 26.05.2020
2577 Clouds 20 1022 88 10000 9.8 70 02:40 26.05.2020
2578 Clouds 20 1018 64 10000 12.9 80 01:47 26.05.2020
2579 Clouds 20 1023 93 10000 8.7 70 00:56 26.05.2020
2580 Clouds 20 1023 93 10000 8.7 70 00:36 26.05.2020
2581 Clouds 20 1023 93 10000 8.7 70 00:36 26.05.2020
2582 Clouds 20 1018 64 10000 12.9 80 00:18 26.05.2020
2583 Clouds 21 1023 88 10000 9.8 80 23:39 25.05.2020
2584 Clouds 21 1023 88 10000 9.8 80 23:20 25.05.2020
2585 Clouds 21 1022 82 10000 9.8 70 22:56 25.05.2020
2586 Clouds 21 1022 82 10000 9.8 70 22:38 25.05.2020
2587 Clouds 21 1022 82 10000 9.8 70 22:20 25.05.2020
2588 Clouds 21 1022 88 10000 8.7 80 21:59 25.05.2020
2589 Clouds 21 1022 88 10000 8.7 80 21:59 25.05.2020
2590 Clouds 21 1022 88 10000 8.7 80 21:39 25.05.2020
2591 Clouds 22 1022 88 10000 8.7 80 21:20 25.05.2020
2592 Clouds 23 1022 83 10000 8.2 90 20:59 25.05.2020
2593 Clouds 23 1017 50 10000 10.8 80 20:41 25.05.2020
2594 Clouds 23 1022 83 10000 8.2 90 20:21 25.05.2020
2595 Clouds 24 1022 73 10000 8.7 90 19:58 25.05.2020
2596 Clouds 24 1022 73 10000 8.7 90 19:39 25.05.2020
2597 Clouds 24 1017 41 10000 12.9 70 19:18 25.05.2020
2598 Clouds 24 1017 42 10000 11.3 70 18:45 25.05.2020
2599 Clouds 24 1022 77 10000 7.2 60 18:22 25.05.2020
2600 Clouds 24 1022 77 10000 7.2 60 17:57 25.05.2020
2601 Clouds 24 1023 73 10000 7.2 80 17:39 25.05.2020
2602 Clouds 25 1023 73 10000 7.2 80 17:21 25.05.2020
2603 Clouds 25 1018 42 10000 12.3 80 16:56 25.05.2020
2604 Clouds 25 1023 73 10000 7.2 80 16:56 25.05.2020
2605 Clouds 24 1023 77 10000 7.2 80 16:37 25.05.2020
2606 Clouds 25 1018 39 10000 12.3 80 16:19 25.05.2020
2607 Clouds 25 1018 39 10000 12.3 80 15:42 25.05.2020
2608 Clouds 25 1018 42 10000 11.3 80 15:19 25.05.2020
2609 Clouds 25 1018 39 10000 11.8 80 14:44 25.05.2020
2610 Clouds 25 1023 78 10000 6.7 80 14:25 25.05.2020
2611 Clouds 25 1024 77 10000 6.7 80 13:59 25.05.2020
2612 Clouds 23 1024 77 10000 6.7 80 13:39 25.05.2020
2613 Clouds 24 1024 77 10000 6.7 80 13:20 25.05.2020
2614 Clouds 24 1024 77 10000 6.7 80 12:57 25.05.2020
2615 Clouds 23 1024 77 10000 6.7 80 12:37 25.05.2020
2616 Clouds 24 1019 41 10000 13.4 80 12:19 25.05.2020
2617 Clouds 22 1024 77 10000 7.2 90 11:39 25.05.2020
2618 Clouds 23 1019 53 10000 12.9 80 11:19 25.05.2020
2619 Clouds 22 1019 50 10000 13.4 80 10:54 25.05.2020
2620 Clouds 21 1024 82 10000 7.2 90 10:36 25.05.2020
2621 Clouds 22 1019 56 10000 12.9 80 10:18 25.05.2020
2622 Clouds 21 1019 60 10000 12.9 80 09:41 25.05.2020
2623 Clouds 21 1019 60 10000 12.9 80 09:41 25.05.2020
2624 Clouds 21 1019 56 10000 12.3 80 09:19 25.05.2020
2625 Clouds 20 1023 88 10000 7.2 100 08:59 25.05.2020
2626 Clouds 20 1023 88 10000 7.2 100 08:37 25.05.2020
2627 Clouds 20 1019 64 10000 12.9 70 08:18 25.05.2020
2628 Clouds 20 1019 64 10000 13.9 70 07:45 25.05.2020
2629 Clouds 20 1023 88 10000 7.2 90 07:21 25.05.2020
2630 Clouds 20 1019 68 10000 12.3 70 06:54 25.05.2020
2631 Clouds 20 1023 88 10000 7.2 100 06:33 25.05.2020
2632 Clouds 20 1019 68 10000 11.3 80 04:19 25.05.2020
2633 Clouds 21 1024 88 9000 6.7 90 03:23 25.05.2020
2634 Clouds 21 1020 60 10000 13.9 70 02:45 25.05.2020
2635 Clouds 21 1025 88 10000 6.7 90 01:57 25.05.2020
2636 Clouds 21 1025 88 10000 6.7 90 01:29 25.05.2020
2637 Clouds 21 1020 56 10000 13.4 60 00:42 25.05.2020
2638 Clouds 21 1020 56 10000 12.9 70 00:20 25.05.2020
2639 Clouds 21 1020 60 10000 10.8 70 23:56 24.05.2020
2640 Clouds 21 1024 88 10000 6.7 90 23:37 24.05.2020
2641 Clear 21 1020 60 10000 12.3 70 23:18 24.05.2020
2642 Clear 22 1020 60 10000 13.4 70 22:41 24.05.2020
2643 Clear 22 1019 56 10000 12.9 80 22:19 24.05.2020
2644 Clear 22 1023 83 10000 7.2 90 21:56 24.05.2020
2645 Clear 22 1023 83 10000 7.2 90 21:38 24.05.2020
2646 Clear 23 1023 83 10000 7.2 90 21:20 24.05.2020
2647 Clear 24 1018 38 10000 14.9 70 20:44 24.05.2020
2648 Clear 24 1023 78 10000 7.7 80 20:23 24.05.2020
2649 Clear 25 1023 78 10000 8.2 100 19:59 24.05.2020
2650 Clear 25 1023 78 10000 8.2 100 19:41 24.05.2020
2651 Clear 25 1023 78 10000 8.2 100 19:20 24.05.2020
2652 Clouds 26 1024 73 10000 7.2 100 18:59 24.05.2020
2653 Clouds 25 1024 73 10000 7.2 100 18:40 24.05.2020
2654 Clouds 26 1024 73 10000 7.2 100 18:22 24.05.2020
2655 Clouds 26 1024 78 10000 7.2 100 17:55 24.05.2020
2656 Clouds 25 1024 73 10000 7.2 100 17:36 24.05.2020
2657 Clouds 25 1024 73 10000 7.2 100 17:36 24.05.2020
2658 Clear 26 1019 32 10000 13.9 80 17:18 24.05.2020
2659 Clouds 26 1024 73 10000 6.7 90 16:39 24.05.2020
2660 Clouds 26 1024 73 10000 6.7 90 16:20 24.05.2020
2661 Clouds 26 1024 73 10000 7.2 90 15:57 24.05.2020
2662 Clouds 26 1025 73 10000 7.7 90 15:39 24.05.2020
2663 Clear 27 1020 32 10000 12.9 80 15:19 24.05.2020
2664 Clouds 26 1025 69 10000 7.2 80 14:55 24.05.2020
2665 Clouds 25 1025 78 10000 7.2 70 14:37 24.05.2020
2666 Clear 26 1020 30 10000 13.4 70 14:18 24.05.2020
2667 Clear 25 1020 32 10000 13.9 70 13:43 24.05.2020
2668 Clouds 25 1025 78 10000 7.2 70 13:23 24.05.2020
2669 Clouds 25 1025 78 10000 7.2 70 12:59 24.05.2020
2670 Clouds 25 1025 78 10000 7.2 70 12:59 24.05.2020
2671 Clear 25 1020 30 10000 13.4 70 12:41 24.05.2020
2672 Clouds 25 1025 73 10000 6.7 70 12:22 24.05.2020
2673 Clouds 25 1024 68 10000 5.1 70 11:59 24.05.2020
2674 Clear 25 1020 28 10000 12.3 70 11:41 24.05.2020
2675 Clouds 24 1024 68 10000 5.1 70 11:23 24.05.2020
2676 Clouds 25 1024 68 10000 5.1 100 10:59 24.05.2020
2677 Clouds 24 1024 68 10000 5.1 100 10:39 24.05.2020
2678 Clouds 24 1024 68 10000 5.1 100 10:21 24.05.2020
2679 Clear 23 1023 64 10000 5.1 100 09:42 24.05.2020
2680 Clear 24 1020 38 10000 9.8 70 09:19 24.05.2020
2681 Clear 23 1023 68 10000 4.6 80 08:58 24.05.2020
2682 Clear 22 1023 68 10000 4.6 80 08:40 24.05.2020
2683 Clear 22 1023 68 10000 4.6 80 08:22 24.05.2020
2684 Clear 21 1019 46 10000 7.2 70 07:51 24.05.2020
2685 Clear 21 1022 77 10000 3.6 70 07:26 24.05.2020
2686 Clear 22 1022 64 10000 4.1 80 06:58 24.05.2020
2687 Clear 22 1022 64 10000 4.1 80 06:37 24.05.2020
2688 Clear 21 1022 73 10000 3.1 70 05:21 24.05.2020
2689 Clear 21 1019 68 10000 7.7 50 03:42 24.05.2020
2690 Clear 21 1020 68 10000 8.2 50 02:47 24.05.2020
2691 Clouds 21 1020 64 10000 6.2 60 01:54 24.05.2020
2692 Clouds 22 1020 53 10000 4.1 70 00:42 24.05.2020
2693 Clouds 23 1023 68 10000 2.6 80 00:23 24.05.2020
2694 Clouds 23 1020 53 10000 6.2 60 23:46 23.05.2020
2695 Clouds 23 1023 68 10000 3.1 80 23:26 23.05.2020
2696 Clouds 23 1022 60 10000 3.6 90 22:59 23.05.2020
2697 Clouds 23 1022 60 10000 3.6 90 22:39 23.05.2020
2698 Clouds 23 1022 60 10000 3.6 90 22:20 23.05.2020
2699 Clouds 23 1022 64 10000 4.6 80 21:59 23.05.2020
2700 Clouds 23 1022 64 10000 4.6 80 21:41 23.05.2020
2701 Clouds 23 1022 64 10000 4.6 80 21:20 23.05.2020
2702 Clouds 24 1021 60 10000 5.7 100 20:59 23.05.2020
2703 Clouds 24 1021 60 10000 5.7 100 20:59 23.05.2020
2704 Clouds 24 1021 60 10000 5.7 100 20:38 23.05.2020
2705 Clouds 24 1019 57 10000 8.7 40 20:19 23.05.2020
2706 Clouds 25 1019 57 10000 8.7 40 19:55 23.05.2020
2707 Clouds 25 1022 64 10000 5.1 70 19:37 23.05.2020
2708 Clouds 25 1019 54 10000 7.7 40 19:18 23.05.2020
2709 Clouds 25 1022 64 10000 4.1 90 18:40 23.05.2020
2710 Clouds 26 1022 64 10000 4.1 90 18:22 23.05.2020
2711 Clouds 28 1023 64 10000 4.6 100 17:57 23.05.2020
2712 Clouds 27 1023 64 10000 4.6 100 17:39 23.05.2020
2713 Clouds 28 1019 35 10000 7.2 40 17:19 23.05.2020
2714 Clouds 28 1023 64 10000 3.6 80 16:57 23.05.2020
2715 Clouds 28 1023 64 10000 3.6 80 16:39 23.05.2020
2716 Clouds 28 1023 64 10000 3.6 80 16:20 23.05.2020
2717 Clouds 29 1020 27 10000 10.3 70 15:43 23.05.2020
2718 Clouds 29 1023 44 10000 5.7 120 15:24 23.05.2020
2719 Clouds 29 1024 44 10000 5.1 110 14:58 23.05.2020
2720 Clouds 28 1024 44 10000 5.1 110 14:40 23.05.2020
2721 Clouds 29 1024 44 10000 5.1 110 14:22 23.05.2020
2722 Clouds 29 1021 29 10000 10.8 70 13:41 23.05.2020
2723 Clouds 28 1021 27 10000 9.8 80 13:19 23.05.2020
2724 Clouds 29 1021 27 10000 9.8 80 13:19 23.05.2020
2725 Clouds 28 1021 29 10000 8.7 70 12:56 23.05.2020
2726 Clouds 27 1024 50 10000 6.2 110 12:38 23.05.2020
2727 Clouds 28 1021 35 10000 8.7 70 12:19 23.05.2020
2728 Clouds 27 1021 39 10000 9.8 60 11:43 23.05.2020
2729 Clouds 26 1024 50 10000 5.1 90 11:22 23.05.2020
2730 Clouds 25 1024 53 10000 5.1 100 10:57 23.05.2020
2731 Clouds 24 1024 53 10000 5.1 100 10:39 23.05.2020
2732 Clouds 24 1024 53 10000 5.1 100 10:20 23.05.2020
2733 Clouds 24 1021 53 10000 8.2 60 09:58 23.05.2020
2734 Clouds 22 1020 50 10000 7.7 60 09:39 23.05.2020
2735 Clouds 22 1020 50 10000 7.7 60 09:21 23.05.2020
2736 Clouds 21 1020 53 10000 7.7 60 08:43 23.05.2020
2737 Clouds 21 1020 60 10000 8.2 70 08:20 23.05.2020
2738 Clouds 21 1020 64 10000 7.2 70 07:54 23.05.2020
2739 Clouds 21 1022 82 10000 3.1 60 07:31 23.05.2020
2740 Clouds 21 1022 77 10000 2.6 80 06:56 23.05.2020
2741 Clouds 21 1022 77 10000 2.6 80 06:37 23.05.2020
2742 Clouds 21 1019 68 10000 6.2 50 04:56 23.05.2020
2743 Clouds 21 1022 88 10000 3.6 100 03:30 23.05.2020
2744 Clouds 21 1023 68 10000 3.6 70 02:57 23.05.2020
2745 Clear 22 1023 73 10000 3.6 90 01:57 23.05.2020
2746 Clear 23 1023 73 10000 3.6 90 01:21 23.05.2020
2747 Clear 23 1020 53 10000 6.2 50 00:46 23.05.2020
2748 Clear 23 1022 73 10000 3.1 80 00:25 23.05.2020
2749 Clear 23 1022 78 10000 2.1 70 23:57 22.05.2020
2750 Clear 23 1022 78 10000 2.1 70 23:38 22.05.2020
2751 Clear 23 1020 44 10000 5.7 50 23:18 22.05.2020
2752 Clear 23 1019 38 10000 5.1 60 22:43 22.05.2020
2753 Clear 23 1022 88 10000 2.1 70 22:21 22.05.2020
2754 Clear 24 1021 78 10000 3.1 80 21:57 22.05.2020
2755 Clear 24 1021 78 10000 3.1 80 21:38 22.05.2020
2756 Clear 24 1021 78 10000 3.1 80 21:20 22.05.2020
2757 Clear 25 1019 44 10000 6.2 40 20:45 22.05.2020
2758 Clear 26 1021 73 10000 3.6 100 20:21 22.05.2020
2759 Clear 27 1021 69 10000 3.1 80 19:59 22.05.2020
2760 Clear 27 1021 69 10000 3.1 80 19:37 22.05.2020
2761 Clear 27 1019 37 10000 6.2 40 19:18 22.05.2020
2762 Clouds 27 1021 64 10000 3.1 60 18:39 22.05.2020
2763 Clear 28 1019 35 10000 5.7 30 18:19 22.05.2020
2764 Clouds 28 1021 73 10000 3.6 70 17:56 22.05.2020
2765 Clouds 28 1022 69 10000 3.6 80 17:36 22.05.2020
2766 Clear 28 1020 33 10000 6.7 40 17:18 22.05.2020
2767 Clear 29 1020 33 10000 6.2 40 16:41 22.05.2020
2768 Clouds 28 1022 65 10000 4.6 90 16:20 22.05.2020
2769 Clear 28 1022 60 10000 3.6 80 15:57 22.05.2020
2770 Clear 27 1022 60 10000 3.6 80 15:39 22.05.2020
2771 Clear 28 1021 35 10000 6.2 40 15:19 22.05.2020
2772 Clear 28 1021 33 10000 6.2 30 14:42 22.05.2020
2773 Clear 27 1022 57 10000 3.1 80 14:24 22.05.2020
2774 Clear 27 1021 40 10000 4.6 40 13:45 22.05.2020
2775 Clear 27 1023 60 10000 3.1 70 13:20 22.05.2020
2776 Clear 26 1021 48 10000 1.5 220 12:44 22.05.2020
2777 Clear 25 1022 73 10000 3.1 60 12:25 22.05.2020
2778 Clear 25 1022 73 10000 3.1 60 12:25 22.05.2020
2779 Clear 25 1022 78 10000 2.6 70 11:58 22.05.2020
2780 Clear 24 1022 78 10000 2.6 70 11:40 22.05.2020
2781 Clear 25 1021 42 10000 1.5 110 11:19 22.05.2020
2782 Clear 24 1021 47 10000 1 0 10:41 22.05.2020
2783 Clouds 24 1022 73 10000 2.1 60 10:22 22.05.2020
2784 Clear 21 1021 82 10000 0.5 290 09:59 22.05.2020
2785 Clear 20 1021 82 10000 0.5 290 09:40 22.05.2020
2786 Clear 20 1020 77 10000 1 0 09:18 22.05.2020
2787 Clear 20 1020 82 10000 1.5 10 08:43 22.05.2020
2788 Clear 19 1020 82 10000 1.5 100 08:20 22.05.2020
2789 Clear 18 1019 82 10000 1.5 120 07:54 22.05.2020
2790 Clear 18 1020 88 10000 0.5 110 07:24 22.05.2020
2791 Clear 18 1020 88 10000 1 290 06:55 22.05.2020
2792 Clear 18 1020 88 10000 1 290 06:33 22.05.2020
2793 Clear 19 1020 88 10000 1.5 80 05:38 22.05.2020
2794 Clear 19 1019 82 10000 2.1 110 04:50 22.05.2020
2795 Clear 20 1019 77 10000 1.5 110 04:19 22.05.2020
2796 Clear 20 1019 77 10000 0.5 0 03:45 22.05.2020
2797 Clear 19 1021 88 9000 2.1 40 02:59 22.05.2020
2798 Clouds 20 1020 88 10000 1.5 100 01:52 22.05.2020
2799 Clouds 20 1020 82 10000 1.5 100 01:24 22.05.2020
2800 Clouds 19 1021 88 10000 1.5 260 00:35 22.05.2020
2801 Clouds 20 1020 88 10000 1 280 23:59 21.05.2020
2802 Clouds 20 1020 72 10000 0.76 37 23:41 21.05.2020
2803 Clouds 20 1020 88 10000 1 280 23:23 21.05.2020
2804 Clouds 20 1020 88 10000 0.5 350 22:57 21.05.2020
2805 Clouds 20 1020 88 10000 0.5 350 22:57 21.05.2020
2806 Clouds 21 1020 88 10000 0.5 350 22:37 21.05.2020
2807 Clouds 21 1020 77 10000 2.1 340 22:19 21.05.2020
2808 Clouds 22 1019 83 10000 3.1 330 21:49 21.05.2020
2809 Clouds 23 1019 73 10000 2.6 70 21:27 21.05.2020
2810 Clouds 23 1019 78 10000 3.1 70 20:59 21.05.2020
2811 Clouds 23 1019 78 10000 3.1 70 20:40 21.05.2020
2812 Clear 23 1019 78 10000 3.1 70 20:21 21.05.2020
2813 Clear 24 1019 78 10000 4.1 60 19:40 21.05.2020
2814 Clear 24 1019 65 10000 5.1 310 19:20 21.05.2020
2815 Clear 25 1019 69 10000 3.6 60 18:58 21.05.2020
2816 Clear 25 1019 69 10000 3.6 60 18:37 21.05.2020
2817 Clear 25 1019 54 10000 3.1 280 18:18 21.05.2020
2818 Clear 25 1019 61 10000 3.6 270 17:55 21.05.2020
2819 Clear 24 1019 64 10000 3.1 50 17:36 21.05.2020
2820 Clouds 24 1019 69 10000 3.6 280 17:18 21.05.2020
2821 Clouds 26 1018 51 10000 2.1 70 16:41 21.05.2020
2822 Clear 26 1018 51 10000 2.1 70 16:22 21.05.2020
2823 Clear 25 1019 69 10000 3.1 270 15:41 21.05.2020
2824 Clear 25 1019 54 10000 2.1 60 15:22 21.05.2020
2825 Clear 26 1018 42 10000 6.2 200 14:42 21.05.2020
2826 Clear 26 1018 42 10000 6.2 200 14:23 21.05.2020
2827 Clear 26 1019 45 10000 5.1 200 13:58 21.05.2020
2828 Clear 26 1019 45 10000 5.1 200 13:38 21.05.2020
2829 Clouds 25 1020 73 10000 3.1 250 13:18 21.05.2020
2830 Clear 24 1018 51 10000 3.1 210 12:40 21.05.2020
2831 Clear 24 1018 51 10000 3.1 210 12:40 21.05.2020
2832 Clear 24 1018 51 10000 3.1 210 12:21 21.05.2020
2833 Clear 23 1018 53 10000 3.6 220 11:57 21.05.2020
2834 Clear 23 1018 53 10000 2.6 230 11:39 21.05.2020
2835 Clear 23 1018 53 10000 2.6 230 11:20 21.05.2020
2836 Clouds 22 1019 88 6000 3.1 240 10:43 21.05.2020
2837 Clear 23 1018 50 10000 3.1 230 10:23 21.05.2020
2838 Clear 21 1017 56 10000 3.1 240 09:59 21.05.2020
2839 Clear 20 1017 60 10000 3.1 240 09:40 21.05.2020
2840 Clear 20 1017 60 10000 3.1 240 09:40 21.05.2020
2841 Clear 20 1017 60 10000 3.1 240 09:40 21.05.2020
2842 Clear 20 1017 60 10000 3.1 240 09:22 21.05.2020
2843 Clear 18 1018 88 6000 1 0 08:50 21.05.2020
2844 Clear 18 1017 68 10000 3.1 250 08:31 21.05.2020
2845 Clear 18 1016 60 10000 3.1 230 07:59 21.05.2020
2846 Clear 19 1016 60 10000 3.1 230 07:37 21.05.2020
2847 Clear 19 1017 87 6000 2.6 80 07:18 21.05.2020
2848 Clear 19 1016 60 10000 3.1 230 06:30 21.05.2020
2849 Clear 19 1017 87 6000 2.1 70 05:50 21.05.2020
2850 Clear 19 1017 82 10000 1.5 60 03:47 21.05.2020
2851 Clear 20 1016 56 10000 4.1 240 03:20 21.05.2020
2852 Clear 20 1016 60 10000 5.7 220 02:31 21.05.2020
2853 Clear 21 1017 77 10000 1 80 01:50 21.05.2020
2854 Clear 21 1017 57 10000 5.7 230 01:24 21.05.2020
2855 Clear 21 1017 77 10000 2.1 100 00:54 21.05.2020
2856 Clear 21 1017 64 10000 5.7 230 00:26 21.05.2020
2857 Clear 21 1016 64 10000 5.1 230 23:56 20.05.2020
2858 Clear 22 1016 64 10000 5.1 230 23:37 20.05.2020
2859 Clear 22 1017 72 10000 1 0 23:18 20.05.2020
2860 Clear 22 1017 77 10000 0.5 0 22:41 20.05.2020
2861 Clear 22 1015 64 10000 5.1 210 22:23 20.05.2020
2862 Clear 23 1016 68 10000 3.1 300 21:42 20.05.2020
2863 Clear 24 1015 61 10000 4.6 210 21:23 20.05.2020
2864 Clear 24 1015 61 10000 5.1 210 20:57 20.05.2020
2865 Clear 25 1015 57 10000 5.1 210 20:38 20.05.2020
2866 Clear 25 1015 57 10000 5.1 210 20:20 20.05.2020
2867 Clear 26 1015 51 10000 5.1 210 19:41 20.05.2020
2868 Clear 26 1016 64 10000 3.1 270 19:23 20.05.2020
2869 Clear 27 1015 48 10000 5.1 200 18:57 20.05.2020
2870 Clear 27 1015 39 10000 5.1 210 18:38 20.05.2020
2871 Clear 27 1015 39 10000 5.1 210 18:20 20.05.2020
2872 Clear 28 1015 35 10000 6.2 200 17:38 20.05.2020
2873 Clear 28 1016 50 10000 3.1 280 17:19 20.05.2020
2874 Clear 27 1016 47 10000 3.6 290 16:42 20.05.2020
2875 Clear 28 1015 30 10000 5.1 200 16:23 20.05.2020
2876 Clear 28 1016 34 10000 3.1 210 15:57 20.05.2020
2877 Clear 28 1016 34 10000 3.1 210 15:39 20.05.2020
2878 Clear 28 1016 34 10000 3.1 210 15:21 20.05.2020
2879 Clear 27 1016 44 10000 3.1 270 14:42 20.05.2020
2880 Clouds 27 1016 47 10000 3.1 270 14:20 20.05.2020
2881 Clouds 25 1016 53 10000 2.6 90 13:41 20.05.2020
2882 Clouds 25 1016 53 10000 2.6 90 13:20 20.05.2020
2883 Clouds 25 1016 44 10000 2.6 100 12:57 20.05.2020
2884 Clouds 24 1016 60 10000 2.1 90 12:37 20.05.2020
2885 Clouds 24 1016 60 10000 1.5 80 12:18 20.05.2020
2886 Clouds 23 1016 64 10000 1.5 90 11:36 20.05.2020
2887 Clouds 23 1016 53 10000 1.5 260 11:18 20.05.2020
2888 Clouds 23 1016 53 10000 1.5 260 11:18 20.05.2020
2889 Clouds 22 1016 60 10000 1.5 260 10:42 20.05.2020
2890 Clouds 21 1016 68 10000 0.5 30 10:20 20.05.2020
2891 Clouds 20 1016 64 10000 1 0 09:44 20.05.2020
2892 Clouds 19 1015 68 10000 0.5 0 09:21 20.05.2020
2893 Clouds 17 1015 77 10000 1.5 60 08:56 20.05.2020
2894 Clouds 16 1015 77 10000 1 90 08:38 20.05.2020
2895 Clouds 16 1015 87 10000 2.1 80 08:18 20.05.2020
2896 Clouds 16 1015 82 10000 1 0 07:45 20.05.2020
2897 Clouds 17 1015 87 10000 3.1 80 07:19 20.05.2020
2898 Clouds 17 1015 77 10000 2.1 270 06:35 20.05.2020
2899 Clouds 17 1015 82 10000 1 310 05:23 20.05.2020
2900 Clouds 18 1016 77 10000 1.5 240 04:26 20.05.2020
2901 Clouds 18 1016 77 10000 1.5 260 03:38 20.05.2020
2902 Clouds 19 1017 77 10000 3.1 260 02:23 20.05.2020
2903 Clouds 19 1017 77 10000 3.1 260 01:28 20.05.2020
2904 Clouds 20 1016 56 10000 1.5 80 00:44 20.05.2020
2905 Clouds 20 1017 82 10000 2.6 280 00:23 20.05.2020
2906 Clouds 20 1016 63 10000 1 50 23:41 19.05.2020
2907 Clouds 21 1016 64 10000 2.6 80 23:19 19.05.2020
2908 Clouds 21 1017 77 10000 1 100 22:56 19.05.2020
2909 Clouds 22 1017 77 10000 1 100 22:38 19.05.2020
2910 Clouds 22 1016 49 10000 1.5 80 22:18 19.05.2020
2911 Clouds 22 1017 77 10000 1.5 90 21:56 19.05.2020
2912 Clouds 23 1017 77 10000 1.5 90 21:37 19.05.2020
2913 Clouds 23 1016 41 10000 2.1 50 21:19 19.05.2020
2914 Clouds 23 1016 41 10000 2.1 50 21:19 19.05.2020
2915 Clouds 24 1016 34 10000 3.1 40 20:56 19.05.2020
2916 Clouds 24 1016 34 10000 3.1 40 20:56 19.05.2020
2917 Clouds 24 1016 83 10000 3.6 80 20:38 19.05.2020
2918 Clouds 25 1016 32 10000 3.1 40 20:19 19.05.2020
2919 Clouds 27 1017 50 10000 2.6 300 19:39 19.05.2020
2920 Clouds 27 1017 50 10000 2.6 300 19:21 19.05.2020
2921 Clouds 28 1017 41 10000 1.5 80 18:57 19.05.2020
2922 Clouds 27 1017 41 10000 1.5 80 18:38 19.05.2020
2923 Clouds 27 1017 41 10000 1.5 80 18:20 19.05.2020
2924 Clouds 28 1016 27 10000 4.6 40 17:41 19.05.2020
2925 Clouds 28 1017 39 10000 1 300 17:21 19.05.2020
2926 Clouds 27 1017 44 10000 2.1 280 16:58 19.05.2020
2927 Clouds 27 1017 41 10000 2.1 300 16:38 19.05.2020
2928 Clouds 27 1016 33 10000 4.6 40 16:19 19.05.2020
2929 Clouds 28 1017 31 10000 4.1 30 15:44 19.05.2020
2930 Clouds 28 1018 38 10000 2.6 140 15:21 19.05.2020
2931 Clouds 27 1018 38 10000 2.6 110 14:56 19.05.2020
2932 Clouds 27 1018 44 10000 4.1 110 14:38 19.05.2020
2933 Clouds 28 1018 44 10000 4.1 110 14:20 19.05.2020
2934 Clouds 27 1019 47 10000 4.1 110 13:57 19.05.2020
2935 Clouds 27 1019 47 10000 3.1 110 13:38 19.05.2020
2936 Clouds 27 1019 47 10000 3.1 110 13:20 19.05.2020
2937 Clouds 26 1019 53 10000 2.6 110 12:56 19.05.2020
2938 Clouds 25 1019 60 10000 1.5 100 12:36 19.05.2020
2939 Clouds 25 1018 34 10000 2.1 90 12:18 19.05.2020
2940 Clouds 25 1018 34 10000 2.1 90 12:18 19.05.2020
2941 Clouds 23 1019 73 10000 1.5 110 11:42 19.05.2020
2942 Clouds 23 1019 73 10000 1.5 110 11:22 19.05.2020
2943 Clouds 21 1019 77 10000 1 260 10:57 19.05.2020
2944 Clouds 19 1019 82 10000 2.1 270 10:39 19.05.2020
2945 Clouds 19 1019 82 10000 2.1 270 10:39 19.05.2020
2946 Clear 19 1018 53 10000 2.1 100 10:20 19.05.2020
2947 Clear 19 1018 56 10000 2.6 90 09:44 19.05.2020
2948 Clear 18 1019 87 10000 1 260 09:25 19.05.2020
2949 Clear 18 1019 87 10000 1 260 09:25 19.05.2020
2950 Clear 17 1018 77 10000 2.1 90 08:47 19.05.2020
2951 Clouds 17 1019 87 10000 0.5 210 08:25 19.05.2020
2952 Clouds 17 1019 87 10000 0.5 210 08:25 19.05.2020
2953 Clouds 16 1017 77 10000 2.6 100 07:49 19.05.2020
2954 Clear 16 1019 82 10000 2.1 250 07:28 19.05.2020
2955 Clear 17 1019 88 10000 1.5 90 06:55 19.05.2020
2956 Clear 17 1019 88 10000 1.5 90 06:31 19.05.2020
2957 Clear 17 1017 67 7000 1 120 05:43 19.05.2020
2958 Clear 16 1019 87 10000 0.5 350 05:23 19.05.2020
2959 Clear 17 1018 67 7000 1.5 80 04:50 19.05.2020
2960 Clear 18 1019 59 7000 1.5 70 02:50 19.05.2020
2961 Clear 19 1020 68 6000 3.1 60 00:49 19.05.2020
2962 Clear 19 1020 68 6000 3.1 60 00:49 19.05.2020
2963 Clear 20 1021 82 10000 1.5 290 00:31 19.05.2020
2964 Clear 19 1021 82 10000 0.5 320 23:59 18.05.2020
2965 Clear 20 1021 82 10000 0.5 320 23:40 18.05.2020
2966 Clear 20 1021 82 10000 0.5 320 23:20 18.05.2020
2967 Clear 21 1020 60 10000 1.5 70 22:55 18.05.2020
2968 Clear 21 1021 68 10000 1 40 22:37 18.05.2020
2969 Clear 21 1020 60 10000 2.1 20 22:19 18.05.2020
2970 Clear 22 1020 60 10000 1 260 21:42 18.05.2020
2971 Clear 22 1020 60 10000 1 260 21:21 18.05.2020
2972 Clouds 23 1020 64 10000 1 150 20:57 18.05.2020
2973 Clouds 23 1020 64 10000 1 150 20:37 18.05.2020
2974 Clear 23 1019 50 10000 3.6 360 20:19 18.05.2020
2975 Clear 24 1019 44 10000 4.6 360 19:42 18.05.2020
2976 Clear 25 1020 39 10000 4.1 20 19:20 18.05.2020
2977 Clouds 24 1020 64 10000 4.6 90 18:59 18.05.2020
2978 Clouds 23 1021 73 10000 4.1 90 18:41 18.05.2020
2979 Clouds 24 1021 73 10000 4.1 90 18:20 18.05.2020
2980 Clouds 24 1021 60 10000 4.1 100 17:38 18.05.2020
2981 Clear 25 1020 36 10000 4.6 40 17:18 18.05.2020
2982 Clouds 24 1021 68 10000 4.6 100 16:56 18.05.2020
2983 Clouds 24 1021 73 10000 4.6 100 16:37 18.05.2020
2984 Clear 24 1020 39 10000 6.2 30 16:18 18.05.2020
2985 Clear 25 1021 39 10000 6.2 30 15:46 18.05.2020
2986 Clouds 24 1022 60 10000 3.6 100 15:25 18.05.2020
2987 Clouds 24 1022 64 10000 4.6 110 14:59 18.05.2020
2988 Clouds 23 1022 73 10000 4.6 110 14:39 18.05.2020
2989 Clouds 24 1022 73 10000 4.6 110 14:21 18.05.2020
2990 Clouds 24 1023 68 10000 4.1 110 13:54 18.05.2020
2991 Clear 23 1023 68 10000 3.6 110 13:36 18.05.2020
2992 Clear 24 1022 44 10000 4.6 60 13:18 18.05.2020
2993 Clear 23 1023 77 10000 3.6 100 12:54 18.05.2020
2994 Clear 22 1023 77 10000 3.1 90 12:36 18.05.2020
2995 Clear 22 1023 77 10000 3.1 90 12:36 18.05.2020
2996 Clear 23 1022 47 10000 3.6 60 12:18 18.05.2020
2997 Clear 22 1022 50 10000 3.1 70 11:42 18.05.2020
2998 Clear 22 1023 77 10000 1 100 11:23 18.05.2020
2999 Clear 20 1022 49 10000 4.6 60 10:47 18.05.2020
3000 Clear 18 1023 82 10000 1.5 270 10:27 18.05.2020
3001 Clear 16 1023 87 10000 1.5 270 09:46 18.05.2020
3002 Clear 16 1023 87 10000 1.5 270 09:28 18.05.2020
3003 Clear 16 1022 87 10000 2.1 240 08:59 18.05.2020
3004 Clear 15 1022 82 10000 2.1 240 08:40 18.05.2020
3005 Clear 15 1022 82 10000 2.1 240 08:21 18.05.2020
3006 Clear 14 1021 82 10000 3.6 90 07:45 18.05.2020
3007 Clear 15 1022 87 10000 2.1 250 07:24 18.05.2020
3008 Clear 15 1021 82 10000 2.6 80 06:48 18.05.2020
3009 Clouds 15 1022 87 10000 1.5 250 06:24 18.05.2020
3010 Clear 14 1021 82 10000 2.1 110 05:45 18.05.2020
3011 Clear 16 1023 87 10000 2.6 250 03:58 18.05.2020
3012 Clear 16 1023 87 10000 2.6 250 03:28 18.05.2020
3013 Clear 17 1023 82 10000 0.5 130 01:56 18.05.2020
3014 Clear 17 1022 82 10000 2.1 30 00:49 18.05.2020
3015 Clear 17 1022 82 10000 3.6 50 00:19 18.05.2020
3016 Clear 18 1022 82 10000 3.1 30 23:55 17.05.2020
3017 Clear 18 1023 77 10000 1 50 23:37 17.05.2020
3018 Clear 18 1022 82 10000 3.1 10 23:18 17.05.2020
3019 Clear 18 1022 82 10000 1 260 22:40 17.05.2020
3020 Clear 18 1022 82 10000 1 260 22:40 17.05.2020
3021 Clear 18 1022 82 10000 1 260 22:22 17.05.2020
3022 Clear 19 1021 77 10000 1.5 100 21:59 17.05.2020
3023 Clear 18 1021 77 10000 4.1 40 21:41 17.05.2020
3024 Clear 19 1021 68 10000 4.6 40 21:19 17.05.2020
3025 Clouds 20 1021 77 10000 3.1 100 20:56 17.05.2020
3026 Clouds 19 1021 77 10000 3.1 100 20:37 17.05.2020
3027 Clouds 20 1020 68 10000 4.6 40 20:18 17.05.2020
3028 Clouds 20 1021 64 10000 4.1 30 19:42 17.05.2020
3029 Clouds 20 1021 64 10000 4.1 30 19:42 17.05.2020
3030 Clouds 20 1021 72 10000 2.6 340 19:24 17.05.2020
3031 Rain 21 1022 82 10000 3.1 20 18:57 17.05.2020
3032 Clouds 20 1021 77 10000 3.1 50 18:38 17.05.2020
3033 Clouds 21 1021 77 10000 3.1 50 18:20 17.05.2020
3034 Rain 20 1021 82 10000 3.1 70 17:41 17.05.2020
3035 Rain 20 1021 82 10000 3.1 70 17:23 17.05.2020
3036 Clouds 21 1021 72 10000 4.6 100 16:57 17.05.2020
3037 Clouds 21 1021 72 10000 5.1 110 16:39 17.05.2020
3038 Clouds 21 1021 72 10000 5.1 110 16:39 17.05.2020
3039 Clouds 21 1021 72 10000 5.1 110 16:39 17.05.2020
3040 Clouds 21 1020 60 10000 5.1 310 16:20 17.05.2020
3041 Clouds 22 1020 60 10000 5.7 300 15:46 17.05.2020
3042 Clouds 22 1021 56 10000 4.6 120 15:24 17.05.2020
3043 Clouds 23 1021 53 10000 4.6 110 14:58 17.05.2020
3044 Clouds 23 1021 49 10000 3.6 110 14:39 17.05.2020
3045 Clouds 23 1021 49 10000 3.6 110 14:20 17.05.2020
3046 Rain 21 1021 60 10000 4.6 290 13:42 17.05.2020
3047 Clouds 22 1021 64 10000 2.6 110 13:21 17.05.2020
3048 Clear 22 1021 53 10000 4.1 300 13:21 17.05.2020
3049 Clear 14 1019 87 10000 3.6 280 05:25 17.05.2020
3050 Clear 15 1020 82 10000 3.1 250 03:34 17.05.2020
3051 Clear 15 1020 82 10000 2.6 250 02:27 17.05.2020
3052 Clear 16 1020 87 6000 2.1 70 01:54 17.05.2020
3053 Clear 16 1020 82 7000 1.5 70 00:53 17.05.2020
3054 Clear 17 1020 72 10000 2.1 310 00:31 17.05.2020
3055 Clear 17 1019 63 10000 2.1 360 23:56 16.05.2020
3056 Clear 17 1019 63 10000 2.1 360 23:38 16.05.2020
3057 Clear 17 1019 87 10000 2.1 300 23:19 16.05.2020
3058 Clear 17 1019 87 10000 1 320 22:42 16.05.2020
3059 Clouds 18 1018 72 10000 3.1 210 22:23 16.05.2020
3060 Clouds 19 1018 56 10000 3.6 100 21:58 16.05.2020
3061 Clouds 19 1018 56 10000 3.6 100 21:39 16.05.2020
3062 Clouds 19 1018 56 10000 3.6 100 21:21 16.05.2020
3063 Clouds 20 1018 72 10000 2.6 290 20:56 16.05.2020
3064 Clouds 20 1017 64 10000 4.1 50 20:38 16.05.2020
3065 Clouds 20 1018 68 10000 2.6 310 20:19 16.05.2020
3066 Clouds 20 1018 64 10000 2.1 340 19:43 16.05.2020
3067 Rain 21 1017 64 10000 5.7 270 19:23 16.05.2020
3068 Rain 20 1017 68 10000 5.1 280 18:59 16.05.2020
3069 Rain 20 1017 68 10000 5.1 280 18:59 16.05.2020
3070 Rain 20 1017 68 10000 5.1 280 18:41 16.05.2020
3071 Rain 20 1017 68 10000 5.1 280 18:22 16.05.2020
3072 Clouds 21 1017 60 10000 5.1 290 17:42 16.05.2020
3073 Clouds 22 1017 53 10000 1 190 17:21 16.05.2020
3074 Clouds 21 1016 56 10000 2.1 220 16:57 16.05.2020
3075 Clouds 21 1016 56 10000 2.1 220 16:39 16.05.2020
3076 Clouds 21 1017 60 10000 5.1 290 16:18 16.05.2020
3077 Clouds 20 1017 64 10000 5.1 280 15:42 16.05.2020
3078 Clouds 21 1016 64 10000 5.1 200 15:21 16.05.2020
3079 Rain 21 1016 64 10000 5.1 200 14:59 16.05.2020
3080 Rain 21 1016 64 10000 5.1 200 14:41 16.05.2020
3081 Clouds 21 1017 60 10000 3.6 280 14:20 16.05.2020
3082 Clouds 21 1017 56 10000 3.6 290 13:55 16.05.2020
3083 Clouds 20 1017 64 10000 3.1 200 13:36 16.05.2020
3084 Clouds 20 1017 68 10000 4.1 290 13:18 16.05.2020
3085 Clouds 20 1017 68 10000 3.6 280 12:42 16.05.2020
3086 Clouds 20 1016 63 10000 1.5 260 12:19 16.05.2020
3087 Clouds 19 1017 68 10000 2.1 290 11:43 16.05.2020
3088 Clouds 19 1016 72 10000 1 260 11:23 16.05.2020
3089 Clouds 18 1016 77 10000 1 270 10:59 16.05.2020
3090 Clouds 18 1016 77 10000 1 280 10:40 16.05.2020
3091 Clouds 18 1016 77 10000 1 280 10:21 16.05.2020
3092 Clouds 17 1015 82 10000 1 260 09:56 16.05.2020
3093 Clouds 16 1015 82 10000 1 260 09:38 16.05.2020
3094 Clouds 16 1015 93 10000 2.1 90 09:18 16.05.2020
3095 Clouds 14 1015 93 10000 2.1 70 08:42 16.05.2020
3096 Clouds 14 1014 93 10000 1.5 60 08:19 16.05.2020
3097 Clouds 14 1014 93 10000 2.1 100 07:43 16.05.2020
3098 Clouds 14 1014 87 10000 1 190 07:24 16.05.2020
3099 Clouds 14 1014 93 10000 2.1 80 06:49 16.05.2020
3100 Clouds 14 1013 87 10000 2.1 260 06:24 16.05.2020
3101 Clouds 15 1013 82 10000 2.6 280 05:56 16.05.2020
3102 Clouds 15 1013 82 10000 2.6 280 05:29 16.05.2020
3103 Clouds 15 1014 82 10000 2.1 230 03:34 16.05.2020
3104 Clouds 15 1014 93 10000 1.5 100 02:52 16.05.2020
3105 Clouds 16 1014 77 10000 2.1 240 02:20 16.05.2020
3106 Clouds 15 1014 82 10000 1.5 240 01:43 16.05.2020
3107 Clouds 16 1014 77 10000 1.5 210 00:59 16.05.2020
3108 Clouds 16 1014 77 10000 1.5 210 00:41 16.05.2020
3109 Clouds 16 1014 87 10000 0.5 0 00:20 16.05.2020
3110 Clouds 17 1014 68 10000 2.1 140 23:40 15.05.2020
3111 Clouds 17 1014 82 10000 1.5 60 23:20 15.05.2020
3112 Clouds 17 1013 77 10000 1.5 120 22:42 15.05.2020
3113 Clouds 18 1013 68 10000 2.1 100 22:23 15.05.2020
3114 Clouds 18 1012 68 10000 2.1 200 21:59 15.05.2020
3115 Clouds 18 1012 68 10000 2.1 200 21:39 15.05.2020
3116 Clouds 18 1012 68 10000 2.1 200 21:39 15.05.2020
3117 Clouds 18 1012 68 10000 0.5 0 21:21 15.05.2020
3118 Clouds 19 1012 59 10000 3.6 100 20:57 15.05.2020
3119 Clouds 19 1012 59 10000 3.6 100 20:39 15.05.2020
3120 Rain 19 1012 59 10000 3.6 100 20:21 15.05.2020
3121 Clouds 19 1012 63 10000 2.1 280 19:44 15.05.2020
3122 Rain 20 1012 55 10000 3.1 130 19:25 15.05.2020
3123 Clouds 20 1011 59 10000 3.1 90 18:59 15.05.2020
3124 Clouds 20 1011 59 10000 3.1 90 18:39 15.05.2020
3125 Clouds 20 1011 59 10000 3.1 90 18:21 15.05.2020
3126 Clouds 20 1011 52 10000 2.6 90 17:39 15.05.2020
3127 Clouds 20 1011 52 10000 2.6 90 17:39 15.05.2020
3128 Clouds 20 1011 60 10000 3.1 240 17:19 15.05.2020
3129 Clouds 19 1012 59 10000 2.1 100 16:56 15.05.2020
3130 Clouds 20 1012 59 10000 1.5 160 16:38 15.05.2020
3131 Clouds 20 1011 52 10000 2.1 160 16:19 15.05.2020
3132 Clouds 19 1011 59 10000 2.6 180 15:41 15.05.2020
3133 Clouds 19 1012 59 10000 2.6 230 15:21 15.05.2020
3134 Rain 19 1012 77 10000 1.5 120 14:58 15.05.2020
3135 Rain 18 1012 77 10000 1.5 120 14:40 15.05.2020
3136 Rain 18 1012 77 10000 1.5 120 14:22 15.05.2020
3137 Clouds 17 1012 77 10000 2.1 120 13:43 15.05.2020
3138 Clouds 17 1012 82 10000 4.1 70 13:22 15.05.2020
3139 Clouds 16 1012 82 10000 3.1 50 12:59 15.05.2020
3140 Clouds 16 1012 82 10000 3.1 70 12:39 15.05.2020
3141 Clouds 16 1012 82 10000 3.1 70 12:39 15.05.2020
3142 Clouds 16 1011 93 6000 4.1 100 12:18 15.05.2020
3143 Clouds 16 1011 82 10000 4.6 70 11:56 15.05.2020
3144 Clouds 16 1011 82 10000 5.1 70 11:37 15.05.2020
3145 Clouds 16 1011 77 6000 4.6 130 11:19 15.05.2020
3146 Clouds 16 1011 82 10000 5.1 60 10:56 15.05.2020
3147 Clouds 15 1011 82 10000 3.1 50 10:38 15.05.2020
3148 Rain 15 1011 87 5000 3.6 120 10:19 15.05.2020
3149 Clouds 16 1011 82 10000 2.1 60 09:40 15.05.2020
3150 Clouds 16 1010 77 6000 3.6 120 09:20 15.05.2020
3151 Clouds 15 1010 87 10000 1 80 08:58 15.05.2020
3152 Clouds 15 1010 87 10000 1 80 08:38 15.05.2020
3153 Clouds 15 1010 87 10000 1 80 08:38 15.05.2020
3154 Rain 14 1010 82 5000 4.1 130 08:19 15.05.2020
3155 Clouds 15 1009 72 10000 4.6 140 07:46 15.05.2020
3156 Clouds 15 1009 72 10000 4.6 140 07:46 15.05.2020
3157 Clouds 15 1010 87 10000 2.6 50 07:27 15.05.2020
3158 Clouds 15 1010 87 10000 3.6 70 06:57 15.05.2020
3159 Clouds 15 1009 72 10000 5.7 140 05:55 15.05.2020
3160 Clouds 15 1010 82 10000 1 50 04:33 15.05.2020
3161 Clouds 15 1010 82 10000 2.6 50 03:49 15.05.2020
3162 Clear 15 1010 77 10000 0.5 200 02:40 15.05.2020
3163 Clear 16 1011 77 10000 1.5 180 01:31 15.05.2020
3164 Clear 16 1011 77 10000 0.5 190 00:57 15.05.2020
3165 Clear 16 1011 77 10000 0.5 190 00:38 15.05.2020
3166 Clear 16 1011 77 10000 0.5 190 00:20 15.05.2020
3167 Clear 16 1010 72 10000 1 210 23:40 14.05.2020
3168 Clear 16 1010 72 10000 1 210 23:40 14.05.2020
3169 Clouds 16 1009 77 6000 4.1 160 23:18 14.05.2020
3170 Clouds 16 1009 77 6000 4.1 170 22:41 14.05.2020
3171 Clear 17 1010 72 10000 4.6 190 22:20 14.05.2020
3172 Clear 17 1009 72 8000 3.6 210 21:58 14.05.2020
3173 Clear 17 1009 72 8000 3.6 210 21:39 14.05.2020
3174 Clouds 17 1009 72 10000 4.1 160 21:19 14.05.2020
3175 Clouds 17 1009 72 10000 4.1 160 21:19 14.05.2020
3176 Rain 19 1008 56 10000 4.6 230 20:56 14.05.2020
3177 Rain 20 1008 56 10000 4.6 230 20:38 14.05.2020
3178 Clouds 19 1008 63 10000 6.2 200 20:18 14.05.2020
3179 Clouds 20 1008 63 10000 6.2 200 19:55 14.05.2020
3180 Rain 20 1008 56 10000 6.2 230 19:36 14.05.2020
3181 Clouds 20 1008 63 10000 6.2 200 19:18 14.05.2020
3182 Clouds 20 1008 59 8000 6.2 200 18:54 14.05.2020
3183 Rain 20 1008 52 10000 8.2 240 18:36 14.05.2020
3184 Clouds 20 1008 59 8000 7.7 200 18:18 14.05.2020
3185 Clouds 20 1008 56 8000 6.2 200 17:55 14.05.2020
3186 Clouds 20 1008 56 10000 3.6 230 17:36 14.05.2020
3187 Clouds 20 1008 55 8000 7.7 210 17:18 14.05.2020
3188 Clouds 19 1008 72 10000 3.1 210 16:39 14.05.2020
3189 Clouds 19 1008 56 8000 7.7 200 16:20 14.05.2020
3190 Clouds 18 1008 63 10000 6.2 210 15:56 14.05.2020
3191 Clouds 18 1008 63 10000 6.2 210 15:38 14.05.2020
3192 Clouds 18 1008 59 8000 7.7 200 15:19 14.05.2020
3193 Clouds 20 1008 68 10000 4.6 230 14:55 14.05.2020
3194 Clouds 19 1008 68 10000 4.6 230 14:37 14.05.2020
3195 Clouds 19 1008 77 8000 7.7 160 14:19 14.05.2020
3196 Clouds 17 1008 88 7000 9.3 180 13:44 14.05.2020
3197 Clouds 18 1008 87 10000 4.6 210 13:20 14.05.2020
3198 Rain 16 1009 87 5000 7.7 220 12:59 14.05.2020
3199 Rain 15 1009 87 5000 7.7 220 12:40 14.05.2020
3200 Rain 15 1009 87 5000 7.7 220 12:21 14.05.2020
3201 Rain 16 1008 87 3000 3.6 210 11:59 14.05.2020
3202 Clouds 15 1008 72 10000 5.1 230 11:40 14.05.2020
3203 Clouds 15 1008 72 10000 5.1 230 11:21 14.05.2020
3204 Thunderstorm 16 1007 77 1100 6.2 170 10:56 14.05.2020
3205 Rain 16 1008 77 8000 5.7 220 10:38 14.05.2020
3206 Clouds 16 1007 77 8000 5.1 170 10:20 14.05.2020
3207 Clouds 14 1007 87 6000 6.2 170 09:42 14.05.2020
3208 Clouds 14 1007 82 10000 3.6 210 09:23 14.05.2020
3209 Rain 14 1007 93 5000 5.1 160 08:42 14.05.2020
3210 Rain 14 1008 82 10000 4.6 230 08:21 14.05.2020
3211 Clouds 14 1007 93 6000 3.6 160 07:47 14.05.2020
3212 Rain 14 1008 93 1500 4.1 170 07:25 14.05.2020
3213 Rain 14 1007 87 9000 4.6 220 06:55 14.05.2020
3214 Rain 14 1007 87 9000 4.6 220 06:31 14.05.2020
3215 Rain 13 1008 87 10000 1 160 05:57 14.05.2020
3216 Rain 13 1008 87 10000 1 160 05:35 14.05.2020
3217 Rain 14 1008 87 3400 4.1 10 04:32 14.05.2020
3218 Rain 15 1008 82 10000 5.7 210 03:28 14.05.2020
3219 Rain 15 1008 82 9000 4.6 230 02:43 14.05.2020
3220 Clouds 15 1008 87 8000 4.1 170 02:18 14.05.2020
3221 Rain 14 1008 87 10000 2.6 240 01:28 14.05.2020
3222 Thunderstorm 16 1008 87 1500 3.1 170 00:50 14.05.2020
3223 Rain 16 1008 82 8000 3.6 220 00:25 14.05.2020
3224 Clouds 16 1008 77 8000 3.6 210 23:44 13.05.2020
3225 Clouds 16 1007 82 10000 3.1 290 23:22 13.05.2020
3226 Clouds 16 1006 82 10000 4.1 250 22:56 13.05.2020
3227 Clouds 16 1006 82 10000 4.1 250 22:37 13.05.2020
3228 Clouds 16 1007 72 8000 4.6 230 22:18 13.05.2020
3229 Rain 16 1006 77 10000 3.6 240 21:56 13.05.2020
3230 Rain 16 1006 77 10000 3.6 240 21:38 13.05.2020
3231 Clouds 16 1006 87 8000 2.6 200 21:18 13.05.2020
3232 Rain 16 1007 77 10000 5.7 270 20:41 13.05.2020
3233 Rain 16 1007 77 10000 5.7 270 20:23 13.05.2020
3234 Rain 15 1007 87 4500 2.6 190 19:44 13.05.2020
3235 Rain 16 1007 87 10000 5.7 200 19:25 13.05.2020
3236 Thunderstorm 17 1006 77 9000 4.1 130 18:58 13.05.2020
3237 Thunderstorm 17 1006 77 9000 4.1 130 18:39 13.05.2020
3238 Thunderstorm 17 1006 77 9000 4.1 130 18:21 13.05.2020
3239 Thunderstorm 17 1006 77 9000 4.1 130 18:21 13.05.2020
3240 Thunderstorm 17 1006 77 9000 4.1 130 18:20 13.05.2020
3241 Thunderstorm 17 1006 77 9000 4.1 130 18:20 13.05.2020
3242 Rain 19 1006 77 4000 3.1 190 17:39 13.05.2020
3243 Clouds 20 1006 64 8000 5.7 210 17:19 13.05.2020
3244 Clouds 20 1006 68 10000 5.7 130 16:56 13.05.2020
3245 Clouds 20 1006 68 10000 6.2 120 16:37 13.05.2020
3246 Clouds 20 1006 64 8000 6.2 210 16:18 13.05.2020
3247 Clouds 21 1006 64 8000 6.2 230 15:42 13.05.2020
3248 Clouds 20 1007 68 8000 5.1 230 15:19 13.05.2020
3249 Clouds 21 1007 52 10000 3.1 230 14:57 13.05.2020
3250 Clouds 22 1007 52 10000 3.1 230 14:39 13.05.2020
3251 Clouds 22 1007 52 10000 3.1 230 14:21 13.05.2020
3252 Clouds 21 1008 56 10000 3.1 220 13:56 13.05.2020
3253 Clouds 21 1008 56 10000 3.1 220 13:38 13.05.2020
3254 Clouds 21 1008 56 8000 4.1 210 13:19 13.05.2020
3255 Clouds 20 1009 63 10000 4.1 210 12:43 13.05.2020
3256 Clouds 20 1009 63 10000 4.1 210 12:22 13.05.2020
3257 Clouds 18 1009 68 10000 3.6 190 11:57 13.05.2020
3258 Clouds 19 1009 68 10000 3.6 190 11:39 13.05.2020
3259 Clouds 19 1009 68 10000 3.6 190 11:20 13.05.2020
3260 Clouds 18 1009 77 10000 3.1 190 10:59 13.05.2020
3261 Clouds 18 1009 77 10000 3.1 190 10:39 13.05.2020
3262 Clouds 18 1009 77 10000 3.1 190 10:20 13.05.2020
3263 Clouds 16 1009 82 10000 1.5 270 09:57 13.05.2020
3264 Clouds 16 1009 82 10000 1.5 270 09:38 13.05.2020
3265 Clouds 16 1009 82 10000 1.5 270 09:20 13.05.2020
3266 Clouds 15 1009 82 10000 2.1 220 08:40 13.05.2020
3267 Clouds 15 1009 82 10000 2.1 220 08:21 13.05.2020
3268 Clouds 15 1009 82 10000 1.5 230 07:58 13.05.2020
3269 Clouds 15 1009 82 10000 1.5 230 07:36 13.05.2020
3270 Clouds 15 1009 87 10000 2.6 280 06:55 13.05.2020
3271 Clouds 15 1009 87 10000 2.6 280 06:36 13.05.2020
3272 Clouds 15 1009 77 8000 2.1 160 05:48 13.05.2020
3273 Clouds 16 1010 82 10000 1.5 280 04:22 13.05.2020
3274 Clouds 16 1010 77 10000 2.6 290 02:58 13.05.2020
3275 Clouds 16 1011 67 7000 3.1 240 01:47 13.05.2020
3276 Clear 16 1011 77 10000 3.1 280 01:20 13.05.2020
3277 Clear 16 1011 82 10000 4.1 280 00:30 13.05.2020
3278 Clear 17 1011 77 10000 5.7 280 23:59 12.05.2020
3279 Clear 17 1011 77 10000 5.7 280 23:39 12.05.2020
3280 Clear 17 1011 77 10000 5.7 280 23:20 12.05.2020
3281 Clouds 17 1011 63 8000 4.6 240 22:43 12.05.2020
3282 Clear 17 1010 72 10000 7.2 280 22:23 12.05.2020
3283 Clear 18 1009 68 10000 6.7 260 21:59 12.05.2020
3284 Clouds 18 1010 67 10000 4.1 230 21:59 12.05.2020
3285 Clear 18 1009 68 10000 6.7 260 21:40 12.05.2020
3286 Clear 18 1009 68 10000 6.7 260 21:22 12.05.2020
3287 Clear 19 1009 68 10000 6.7 230 20:59 12.05.2020
3288 Clear 19 1009 68 10000 6.7 230 20:40 12.05.2020
3289 Clouds 19 1009 68 10000 6.7 230 20:22 12.05.2020
3290 Clouds 19 1009 59 10000 6.2 250 19:58 12.05.2020
3291 Clouds 19 1009 59 10000 6.2 250 19:40 12.05.2020
3292 Clouds 19 1009 59 10000 6.2 250 19:21 12.05.2020
3293 Clouds 19 1009 59 10000 5.1 240 18:56 12.05.2020
3294 Clouds 19 1009 59 10000 5.1 240 18:38 12.05.2020
3295 Clouds 19 1009 59 10000 5.1 240 18:20 12.05.2020
3296 Clouds 19 1010 63 10000 5.7 220 17:43 12.05.2020
3297 Clouds 19 1009 72 10000 4.1 200 17:24 12.05.2020
3298 Clouds 18 1010 60 10000 4.6 210 16:47 12.05.2020
3299 Clouds 17 1010 82 10000 3.1 140 16:26 12.05.2020
3300 Rain 18 1010 82 10000 2.1 120 15:57 12.05.2020
3301 Rain 17 1010 82 10000 2.1 120 15:38 12.05.2020
3302 Rain 17 1010 82 10000 2.1 120 15:38 12.05.2020
3303 Clouds 16 1011 82 10000 2.6 190 15:19 12.05.2020
3304 Rain 16 1011 87 10000 3.1 110 14:57 12.05.2020
3305 Rain 16 1011 87 10000 3.1 110 14:37 12.05.2020
3306 Clouds 16 1011 77 10000 2.1 180 14:19 12.05.2020
3307 Rain 16 1012 87 10000 3.1 110 13:58 12.05.2020
3308 Rain 15 1012 87 10000 3.1 110 13:39 12.05.2020
3309 Clouds 15 1012 87 8000 2.1 170 13:19 12.05.2020
3310 Clouds 15 1012 87 10000 3.1 100 12:57 12.05.2020
3311 Clouds 15 1012 87 10000 3.1 100 12:39 12.05.2020
3312 Clouds 15 1012 87 10000 3.1 100 12:21 12.05.2020
3313 Rain 15 1011 87 10000 3.1 120 11:58 12.05.2020
3314 Rain 15 1011 87 10000 3.1 120 11:38 12.05.2020
3315 Rain 15 1011 87 10000 3.1 120 11:20 12.05.2020
3316 Rain 15 1012 87 10000 2.6 100 10:58 12.05.2020
3317 Rain 15 1012 87 10000 2.6 100 10:39 12.05.2020
3318 Rain 15 1012 87 10000 2.6 100 10:20 12.05.2020
3319 Rain 15 1011 93 9000 3.6 90 09:58 12.05.2020
3320 Rain 15 1011 93 9000 3.6 90 09:39 12.05.2020
3321 Rain 15 1011 93 9000 3.6 90 09:20 12.05.2020
3322 Rain 14 1010 87 6000 2.1 90 08:42 12.05.2020
3323 Rain 15 1010 93 4300 2.6 80 08:22 12.05.2020
3324 Rain 16 1011 87 3900 1 70 07:58 12.05.2020
3325 Rain 16 1011 87 3900 1 70 07:40 12.05.2020
3326 Rain 16 1011 87 3900 1 70 07:40 12.05.2020
3327 Rain 16 1011 87 3900 1 70 07:20 12.05.2020
3328 Rain 17 1010 82 8000 2.6 140 06:38 12.05.2020
3329 Rain 17 1009 93 6000 2.6 140 06:20 12.05.2020
3330 Rain 17 1010 77 10000 2.6 160 05:46 12.05.2020
3331 Clouds 16 1010 87 10000 1.5 90 04:41 12.05.2020
3332 Clouds 17 1011 93 10000 1 0 03:22 12.05.2020
3333 Clouds 17 1011 82 10000 3.1 220 02:27 12.05.2020
3334 Clouds 17 1012 93 10000 1 0 01:46 12.05.2020
3335 Clouds 17 1012 77 10000 2.6 250 00:59 12.05.2020
3336 Clouds 17 1012 77 10000 2.6 250 00:24 12.05.2020
3337 Clouds 17 1012 82 10000 4.1 280 23:57 11.05.2020
3338 Clouds 17 1012 82 10000 4.1 280 23:38 11.05.2020
3339 Clouds 17 1012 82 10000 1 40 23:19 11.05.2020
3340 Clouds 18 1012 68 10000 3.1 230 22:57 11.05.2020
3341 Clouds 19 1012 68 10000 3.1 230 22:39 11.05.2020
3342 Clouds 19 1012 68 10000 3.1 230 22:39 11.05.2020
3343 Clouds 19 1012 82 10000 1 0 22:19 11.05.2020
3344 Clouds 19 1012 77 10000 1.5 220 21:55 11.05.2020
3345 Clouds 19 1012 77 10000 1.5 220 21:55 11.05.2020
3346 Clouds 19 1012 77 10000 5.7 270 21:36 11.05.2020
3347 Clouds 19 1012 77 10000 5.7 270 21:36 11.05.2020
3348 Clouds 19 1012 82 10000 1.5 240 21:18 11.05.2020
3349 Clouds 19 1012 77 10000 2.1 230 20:54 11.05.2020
3350 Clouds 19 1012 72 10000 6.2 270 20:36 11.05.2020
3351 Clouds 19 1012 77 10000 2.6 240 20:18 11.05.2020
3352 Clouds 20 1012 68 10000 6.7 270 19:41 11.05.2020
3353 Clouds 20 1012 68 10000 6.7 270 19:22 11.05.2020
3354 Clouds 20 1012 68 10000 7.2 280 18:57 11.05.2020
3355 Clouds 21 1012 68 10000 7.2 280 18:38 11.05.2020
3356 Clouds 21 1013 73 10000 6.2 260 18:19 11.05.2020
3357 Clouds 21 1013 60 10000 7.7 270 17:57 11.05.2020
3358 Clouds 22 1013 56 10000 8.2 260 17:39 11.05.2020
3359 Clouds 22 1013 56 10000 8.2 260 17:20 11.05.2020
3360 Clouds 22 1013 56 10000 6.7 240 16:56 11.05.2020
3361 Clouds 23 1013 49 10000 7.7 250 16:37 11.05.2020
3362 Clouds 23 1014 68 10000 6.7 220 16:18 11.05.2020
3363 Clouds 22 1014 68 9000 7.2 220 15:42 11.05.2020
3364 Clouds 23 1014 56 9000 5.7 210 15:20 11.05.2020
3365 Clouds 23 1013 46 10000 6.7 230 14:57 11.05.2020
3366 Clouds 22 1014 56 10000 6.2 240 14:39 11.05.2020
3367 Clouds 22 1014 56 10000 6.2 240 14:21 11.05.2020
3368 Clouds 22 1014 56 10000 6.2 240 14:21 11.05.2020
3369 Clouds 21 1014 56 9000 5.7 200 13:42 11.05.2020
3370 Clouds 21 1014 64 10000 5.7 220 13:22 11.05.2020
3371 Clouds 21 1014 64 10000 4.6 220 12:59 11.05.2020
3372 Clouds 20 1014 68 10000 4.6 230 12:41 11.05.2020
3373 Clouds 20 1014 68 10000 4.6 230 12:22 11.05.2020
3374 Clouds 20 1013 68 10000 3.6 230 11:57 11.05.2020
3375 Clouds 19 1013 77 10000 3.1 210 11:39 11.05.2020
3376 Clouds 19 1013 77 10000 3.1 210 11:21 11.05.2020
3377 Clouds 19 1013 77 10000 3.6 220 10:56 11.05.2020
3378 Clouds 18 1013 77 10000 4.1 220 10:38 11.05.2020
3379 Clouds 18 1013 77 10000 4.1 220 10:20 11.05.2020
3380 Clouds 17 1013 88 10000 4.1 240 09:57 11.05.2020
3381 Rain 17 1013 82 10000 5.7 240 09:39 11.05.2020
3382 Clouds 17 1013 82 8000 3.1 170 09:18 11.05.2020
3383 Clouds 16 1013 87 8000 3.6 180 08:42 11.05.2020
3384 Clouds 17 1012 82 10000 5.1 210 08:24 11.05.2020
3385 Clouds 16 1012 82 10000 4.6 230 07:56 11.05.2020
3386 Clouds 16 1012 82 10000 4.6 230 07:38 11.05.2020
3387 Clouds 16 1013 93 8000 3.1 170 07:20 11.05.2020
3388 Clouds 16 1013 93 8000 3.1 170 07:20 11.05.2020
3389 Clouds 16 1013 82 10000 3.6 210 06:34 11.05.2020
3390 Clouds 17 1013 82 8000 3.1 180 05:51 11.05.2020
3391 Rain 17 1013 87 4000 2.6 180 05:21 11.05.2020
3392 Clouds 17 1013 77 10000 5.7 270 03:56 11.05.2020
3393 Clouds 17 1014 77 10000 5.1 280 02:36 11.05.2020
3394 Clouds 17 1014 77 10000 6.2 270 01:55 11.05.2020
3395 Clouds 18 1014 72 10000 5.7 260 00:57 11.05.2020
3396 Clouds 18 1014 72 10000 5.7 260 00:38 11.05.2020
3397 Clouds 18 1015 72 8000 3.1 230 00:18 11.05.2020
3398 Clouds 18 1014 68 10000 7.7 250 23:39 10.05.2020
3399 Clouds 18 1015 63 8000 4.6 240 23:19 10.05.2020
3400 Clouds 19 1015 68 8000 5.1 240 22:54 10.05.2020
3401 Clouds 19 1014 63 10000 7.7 250 22:36 10.05.2020
3402 Clouds 19 1015 68 8000 5.7 240 22:18 10.05.2020
3403 Clouds 18 1014 68 8000 5.7 240 21:41 10.05.2020
3404 Clouds 19 1014 72 8000 6.2 240 21:18 10.05.2020
3405 Clouds 18 1014 72 8000 5.1 240 20:42 10.05.2020
3406 Clouds 19 1012 68 10000 10.8 270 20:24 10.05.2020
3407 Clouds 19 1012 68 10000 9.3 270 19:56 10.05.2020
3408 Clouds 20 1012 60 10000 9.8 260 19:38 10.05.2020
3409 Clouds 20 1014 64 8000 6.7 250 19:20 10.05.2020
3410 Clouds 20 1012 60 10000 10.8 270 18:54 10.05.2020
3411 Clouds 20 1012 60 10000 11.3 270 18:36 10.05.2020
3412 Clouds 20 1014 64 8000 7.2 250 18:18 10.05.2020
3413 Clouds 21 1012 64 10000 12.3 260 17:56 10.05.2020
3414 Clouds 21 1012 64 10000 11.8 260 17:36 10.05.2020
3415 Clouds 21 1014 64 8000 8.2 250 17:18 10.05.2020
3416 Clouds 19 1014 77 8000 7.2 240 16:43 10.05.2020
3417 Clouds 19 1014 77 8000 7.2 240 16:43 10.05.2020
3418 Clouds 20 1012 64 10000 11.3 270 16:21 10.05.2020
3419 Rain 19 1012 77 8000 8.7 270 15:58 10.05.2020
3420 Rain 19 1012 72 10000 8.2 250 15:38 10.05.2020
3421 Clouds 19 1014 72 10000 7.2 260 15:20 10.05.2020
3422 Rain 20 1012 77 8000 8.2 250 14:55 10.05.2020
3423 Clouds 21 1012 60 10000 8.2 260 14:37 10.05.2020
3424 Clouds 21 1014 64 10000 7.7 230 14:18 10.05.2020
3425 Clouds 20 1014 64 8000 8.2 230 13:55 10.05.2020
3426 Clouds 20 1012 72 10000 5.1 230 13:36 10.05.2020
3427 Clouds 20 1014 68 8000 6.2 230 13:18 10.05.2020
3428 Clouds 18 1013 88 10000 5.1 260 12:41 10.05.2020
3429 Clouds 19 1013 88 10000 5.1 260 12:21 10.05.2020
3430 Rain 18 1013 82 6000 4.6 270 11:58 10.05.2020
3431 Clouds 18 1012 82 10000 4.1 260 11:40 10.05.2020
3432 Clouds 19 1012 82 10000 4.1 260 11:20 10.05.2020
3433 Clouds 18 1013 72 10000 6.7 230 10:48 10.05.2020
3434 Clouds 18 1012 77 10000 4.6 240 10:30 10.05.2020
3435 Rain 18 1012 77 10000 3.6 260 09:59 10.05.2020
3436 Clouds 18 1012 82 10000 4.6 270 09:41 10.05.2020
3437 Clouds 18 1012 82 10000 4.6 270 09:22 10.05.2020
3438 Clouds 17 1012 82 10000 3.6 220 08:53 10.05.2020
3439 Clouds 17 1012 82 10000 3.6 280 08:24 10.05.2020
3440 Clouds 17 1011 82 10000 5.1 280 07:57 10.05.2020
3441 Clouds 17 1011 82 10000 5.1 280 07:38 10.05.2020
3442 Clouds 17 1012 87 10000 2.1 210 07:19 10.05.2020
3443 Clouds 17 1012 77 10000 3.1 230 06:50 10.05.2020
3444 Clouds 17 1011 82 10000 6.2 270 06:22 10.05.2020
3445 Clouds 17 1012 82 10000 4.6 250 05:44 10.05.2020
3446 Clouds 17 1012 82 10000 4.6 250 04:41 10.05.2020
3447 Clear 17 1011 77 10000 8.2 250 04:22 10.05.2020
3448 Clouds 17 1012 88 10000 4.6 250 03:43 10.05.2020
3449 Clouds 17 1013 87 10000 6.2 250 02:54 10.05.2020
3450 Rain 17 1012 77 10000 11.8 270 02:24 10.05.2020
3451 Clouds 17 1013 88 10000 6.7 270 01:43 10.05.2020
3452 Clouds 18 1012 77 10000 6.2 260 01:23 10.05.2020
3453 Clouds 18 1013 77 10000 6.2 240 00:58 10.05.2020
3454 Clouds 18 1013 77 10000 6.2 240 00:37 10.05.2020
3455 Clouds 18 1014 82 10000 3.6 230 00:19 10.05.2020
3456 Rain 18 1013 77 10000 4.1 270 23:39 09.05.2020
3457 Rain 18 1013 77 10000 4.1 270 23:21 09.05.2020
3458 Clouds 17 1013 88 10000 2.6 230 22:54 09.05.2020
3459 Rain 17 1012 93 10000 6.2 240 22:36 09.05.2020
3460 Clouds 17 1013 88 10000 3.1 240 22:18 09.05.2020
3461 Clouds 19 1013 88 6000 3.1 240 21:55 09.05.2020
3462 Rain 19 1012 68 10000 5.7 230 21:36 09.05.2020
3463 Rain 19 1012 68 10000 5.7 230 21:36 09.05.2020
3464 Rain 19 1012 68 10000 5.7 230 21:36 09.05.2020
3465 Clouds 19 1013 93 6000 4.6 240 21:18 09.05.2020
3466 Clouds 20 1013 77 5000 5.1 230 20:54 09.05.2020
3467 Clouds 20 1012 60 10000 6.7 240 20:36 09.05.2020
3468 Clouds 20 1013 72 6000 4.6 220 20:18 09.05.2020
3469 Clouds 21 1012 60 10000 7.7 260 19:39 09.05.2020
3470 Clouds 21 1012 60 10000 7.7 260 19:20 09.05.2020
3471 Clouds 21 1013 64 10000 6.2 230 18:54 09.05.2020
3472 Clouds 21 1013 64 10000 6.2 230 18:54 09.05.2020
3473 Clouds 21 1012 60 10000 7.2 270 18:36 09.05.2020
3474 Clouds 21 1013 60 10000 5.7 230 18:18 09.05.2020
3475 Clouds 22 1013 53 10000 5.7 270 17:40 09.05.2020
3476 Clouds 22 1013 53 10000 5.7 270 17:21 09.05.2020
3477 Clouds 21 1014 64 10000 6.2 230 16:41 09.05.2020
3478 Clouds 22 1014 60 10000 5.7 230 16:20 09.05.2020
3479 Clouds 22 1014 60 10000 5.7 230 16:20 09.05.2020
3480 Clouds 21 1014 60 10000 6.2 230 15:46 09.05.2020
3481 Clouds 21 1014 52 10000 6.7 270 15:27 09.05.2020
3482 Clouds 22 1014 49 10000 4.6 260 14:59 09.05.2020
3483 Clouds 22 1014 49 10000 4.6 260 14:41 09.05.2020
3484 Clouds 22 1015 60 9000 6.7 240 14:20 09.05.2020
3485 Clouds 22 1014 49 10000 6.2 230 13:58 09.05.2020
3486 Clouds 22 1014 49 10000 6.2 230 13:40 09.05.2020
3487 Clouds 22 1015 56 9000 4.6 230 13:20 09.05.2020
3488 Clouds 21 1015 56 8000 5.1 230 12:42 09.05.2020
3489 Clouds 21 1014 60 10000 5.1 260 12:22 09.05.2020
3490 Clouds 20 1015 68 10000 5.1 280 11:56 09.05.2020
3491 Clouds 20 1015 68 10000 5.1 280 11:37 09.05.2020
3492 Clouds 20 1016 64 8000 4.6 240 11:18 09.05.2020
3493 Clouds 19 1015 68 8000 4.1 240 10:43 09.05.2020
3494 Clouds 19 1015 68 8000 4.1 240 10:43 09.05.2020
3495 Clouds 19 1015 77 10000 5.7 280 10:25 09.05.2020
3496 Clouds 18 1015 77 10000 5.1 260 09:57 09.05.2020
3497 Clouds 17 1015 77 10000 5.1 260 09:38 09.05.2020
3498 Clouds 17 1015 88 10000 1.5 210 09:19 09.05.2020
3499 Clouds 17 1015 88 8000 1.5 190 08:51 09.05.2020
3500 Clouds 17 1014 82 10000 4.6 280 08:31 09.05.2020
3501 Clouds 17 1015 93 8000 1.5 210 07:50 09.05.2020
3502 Clouds 16 1014 82 10000 2.1 270 07:31 09.05.2020
3503 Clouds 15 1014 93 6000 0.5 0 06:49 09.05.2020
3504 Clouds 16 1014 88 10000 3.1 290 06:24 09.05.2020
3505 Clouds 15 1015 93 6000 1 300 05:45 09.05.2020
3506 Clouds 17 1015 87 8000 0.5 0 03:54 09.05.2020
3507 Clouds 17 1016 88 10000 2.6 290 03:36 09.05.2020
3508 Clouds 17 1016 82 10000 4.6 280 02:32 09.05.2020
3509 Clouds 17 1016 87 8000 0.5 0 01:52 09.05.2020
3510 Clouds 17 1016 82 10000 4.6 290 01:23 09.05.2020
3511 Clouds 17 1016 93 7000 0.5 0 00:50 09.05.2020
3512 Clouds 17 1016 72 10000 3.1 290 00:31 09.05.2020
3513 Clouds 18 1016 88 8000 1 0 23:49 08.05.2020
3514 Clear 18 1015 77 10000 3.6 290 23:29 08.05.2020
3515 Clear 19 1015 68 10000 3.6 240 22:58 08.05.2020
3516 Clear 19 1015 68 10000 3.6 240 22:58 08.05.2020
3517 Clear 19 1015 68 10000 3.6 240 22:58 08.05.2020
3518 Clear 19 1015 68 10000 3.6 240 22:40 08.05.2020
3519 Clouds 19 1016 93 8000 2.1 240 22:19 08.05.2020
3520 Clear 20 1014 68 10000 5.1 190 21:58 08.05.2020
3521 Clear 20 1014 68 10000 5.1 190 21:39 08.05.2020
3522 Clouds 20 1016 77 8000 2.1 260 21:18 08.05.2020
3523 Clear 20 1014 68 10000 4.1 210 20:56 08.05.2020
3524 Clear 21 1014 68 10000 4.1 210 20:38 08.05.2020
3525 Clouds 21 1015 72 8000 3.1 290 20:20 08.05.2020
3526 Clouds 21 1015 77 8000 3.6 290 19:44 08.05.2020
3527 Clear 22 1014 64 10000 3.6 110 19:23 08.05.2020
3528 Clouds 22 1015 68 8000 3.1 290 18:50 08.05.2020
3529 Clouds 22 1014 68 10000 3.1 100 18:32 08.05.2020
3530 Clouds 22 1014 68 10000 3.6 110 17:59 08.05.2020
3531 Clouds 21 1014 68 10000 3.6 100 17:40 08.05.2020
3532 Clouds 21 1015 73 6000 4.6 290 17:18 08.05.2020
3533 Clouds 22 1015 64 6000 3.6 290 16:42 08.05.2020
3534 Clouds 22 1015 64 10000 2.6 120 16:24 08.05.2020
3535 Clouds 22 1016 64 10000 3.1 100 15:57 08.05.2020
3536 Clouds 22 1016 64 10000 3.1 100 15:39 08.05.2020
3537 Clouds 22 1016 73 6000 3.6 260 15:18 08.05.2020
3538 Clouds 22 1016 64 10000 3.6 110 14:41 08.05.2020
3539 Clouds 22 1016 64 10000 3.6 110 14:20 08.05.2020
3540 Clouds 21 1016 68 10000 3.1 100 13:58 08.05.2020
3541 Clouds 21 1016 68 10000 3.1 100 13:39 08.05.2020
3542 Clouds 21 1016 77 5000 2.6 250 13:19 08.05.2020
3543 Clouds 21 1016 77 5000 2.6 250 13:19 08.05.2020
3544 Clouds 20 1016 77 5000 2.6 250 12:45 08.05.2020
3545 Clouds 21 1016 68 10000 3.1 90 12:25 08.05.2020
3546 Clouds 20 1015 72 10000 3.1 90 11:55 08.05.2020
3547 Clouds 20 1015 72 10000 3.1 90 11:37 08.05.2020
3548 Clouds 20 1015 72 10000 3.1 90 11:37 08.05.2020
3549 Clouds 20 1015 72 5000 2.1 160 11:18 08.05.2020
3550 Clouds 20 1015 72 10000 2.6 80 10:54 08.05.2020
3551 Clouds 20 1015 72 10000 2.6 80 10:54 08.05.2020
3552 Clear 19 1015 77 10000 2.6 80 10:36 08.05.2020
3553 Clouds 19 1015 82 5000 2.1 160 10:18 08.05.2020
3554 Clear 20 1015 72 10000 1.5 40 09:41 08.05.2020
3555 Clouds 20 1015 88 8000 1.5 160 09:19 08.05.2020
3556 Clouds 19 1014 93 5000 1.5 140 08:51 08.05.2020
3557 Clouds 18 1014 72 10000 2.6 90 08:25 08.05.2020
3558 Clouds 18 1014 93 6000 0.5 0 07:54 08.05.2020
3559 Clouds 18 1014 77 10000 3.1 90 07:36 08.05.2020
3560 Clouds 18 1013 93 6000 0.5 0 07:18 08.05.2020
3561 Clouds 18 1014 72 10000 4.1 90 06:39 08.05.2020
3562 Clouds 18 1014 72 10000 4.1 90 06:18 08.05.2020
3563 Clouds 18 1014 82 10000 3.1 80 05:24 08.05.2020
3564 Clouds 18 1016 77 10000 6.2 70 02:59 08.05.2020
3565 Clouds 19 1016 77 10000 6.2 70 02:24 08.05.2020
3566 Clouds 19 1016 82 10000 6.2 60 01:38 08.05.2020
3567 Clouds 19 1014 77 10000 3.1 90 01:19 08.05.2020
3568 Clouds 19 1014 77 10000 4.6 90 00:46 08.05.2020
3569 Clouds 19 1014 77 10000 5.7 80 00:24 08.05.2020
3570 Clouds 19 1014 77 10000 4.6 90 23:46 07.05.2020
3571 Clouds 19 1016 82 10000 7.2 70 23:24 07.05.2020
3572 Clouds 19 1015 82 10000 7.2 70 22:59 07.05.2020
3573 Clouds 19 1015 82 10000 7.2 70 22:41 07.05.2020
3574 Clouds 19 1013 68 10000 4.1 90 22:20 07.05.2020
3575 Clouds 19 1013 68 10000 4.1 90 22:20 07.05.2020
3576 Clouds 19 1014 82 10000 6.7 70 21:56 07.05.2020
3577 Clouds 20 1014 82 10000 6.7 70 21:38 07.05.2020
3578 Clouds 20 1012 64 10000 5.7 80 21:19 07.05.2020
3579 Clouds 21 1012 60 10000 6.2 90 20:55 07.05.2020
3580 Clouds 21 1014 77 10000 6.7 70 20:36 07.05.2020
3581 Clouds 21 1011 53 10000 7.7 90 20:18 07.05.2020
3582 Clouds 22 1011 53 10000 5.7 90 19:43 07.05.2020
3583 Clouds 22 1014 77 10000 5.7 80 19:21 07.05.2020
3584 Clouds 24 1012 54 10000 4.1 90 18:46 07.05.2020
3585 Clouds 23 1014 73 10000 5.1 60 18:28 07.05.2020
3586 Clouds 22 1012 60 10000 2.6 250 17:57 07.05.2020
3587 Clouds 22 1015 82 10000 4.1 70 17:37 07.05.2020
3588 Clouds 22 1012 60 10000 3.1 240 17:19 07.05.2020
3589 Clouds 22 1013 60 10000 3.6 250 16:41 07.05.2020
3590 Clouds 22 1013 64 10000 3.1 260 16:19 07.05.2020
3591 Clouds 22 1015 77 10000 6.2 70 15:57 07.05.2020
3592 Clouds 22 1015 82 10000 7.2 70 15:37 07.05.2020
3593 Clouds 22 1015 82 10000 7.2 70 15:37 07.05.2020
3594 Clouds 22 1013 64 10000 4.1 250 15:18 07.05.2020
3595 Clouds 22 1013 64 10000 4.1 250 15:18 07.05.2020
3596 Clouds 22 1013 64 10000 4.1 250 15:18 07.05.2020
3597 Clouds 23 1013 54 10000 3.1 0 14:45 07.05.2020
3598 Clouds 22 1015 77 10000 7.2 60 14:22 07.05.2020
3599 Clouds 22 1015 82 10000 5.7 60 13:54 07.05.2020
3600 Clouds 22 1015 88 10000 5.7 70 13:36 07.05.2020
3601 Clouds 22 1013 53 10000 5.7 80 13:18 07.05.2020
3602 Clouds 21 1014 82 10000 7.7 70 12:39 07.05.2020
3603 Clouds 22 1012 60 10000 7.2 100 12:19 07.05.2020
3604 Clouds 20 1014 82 10000 5.7 70 11:39 07.05.2020
3605 Clouds 21 1012 64 10000 5.1 120 11:21 07.05.2020
3606 Clouds 20 1011 64 10000 6.2 100 10:54 07.05.2020
3607 Clouds 20 1014 88 10000 5.7 80 10:36 07.05.2020
3608 Clouds 20 1011 64 10000 6.2 70 10:18 07.05.2020
3609 Clouds 19 1013 88 10000 5.1 70 09:38 07.05.2020
3610 Clouds 19 1011 68 10000 5.7 80 09:18 07.05.2020
3611 Clouds 19 1010 68 10000 5.7 70 08:43 07.05.2020
3612 Clouds 19 1013 88 10000 7.2 60 08:23 07.05.2020
3613 Clouds 19 1013 88 10000 7.2 70 07:58 07.05.2020
3614 Clouds 19 1013 88 10000 7.2 70 07:39 07.05.2020
3615 Clouds 19 1010 49 10000 4.6 90 07:20 07.05.2020
3616 Clouds 19 1013 88 10000 6.7 80 06:37 07.05.2020
3617 Clouds 20 1013 82 10000 5.7 100 05:58 07.05.2020
3618 Clouds 19 1014 88 10000 4.1 90 04:27 07.05.2020
3619 Clouds 19 1014 88 10000 5.1 90 03:38 07.05.2020
3620 Clouds 19 1011 55 10000 5.1 90 03:18 07.05.2020
3621 Clouds 20 1014 77 10000 6.7 100 02:26 07.05.2020
3622 Clouds 20 1014 77 10000 6.7 100 02:26 07.05.2020
3623 Clouds 20 1014 77 10000 6.7 100 01:28 07.05.2020
3624 Clouds 19 1012 52 10000 3.6 100 00:55 07.05.2020
3625 Clouds 19 1014 88 10000 5.1 80 00:37 07.05.2020
3626 Clouds 20 1012 49 10000 3.6 50 00:18 07.05.2020
3627 Clouds 20 1011 56 10000 6.7 40 23:41 06.05.2020
3628 Clouds 20 1012 56 10000 5.1 50 23:22 06.05.2020
3629 Clouds 20 1014 77 10000 3.6 40 22:55 06.05.2020
3630 Clouds 20 1014 77 10000 3.6 40 22:37 06.05.2020
3631 Clouds 20 1012 60 10000 1.5 30 22:18 06.05.2020
3632 Clouds 22 1012 64 10000 2.1 10 21:43 06.05.2020
3633 Clouds 23 1013 47 10000 2.6 140 21:23 06.05.2020
3634 Clouds 24 1013 47 10000 6.2 210 20:58 06.05.2020
3635 Clouds 24 1013 47 10000 6.2 210 20:39 06.05.2020
3636 Clouds 24 1013 47 10000 6.2 210 20:21 06.05.2020
3637 Clouds 24 1013 53 10000 5.7 320 19:56 06.05.2020
3638 Clouds 24 1013 44 10000 4.1 210 19:38 06.05.2020
3639 Clouds 24 1013 53 10000 4.6 330 19:18 06.05.2020
3640 Clouds 24 1013 53 10000 4.6 330 19:18 06.05.2020
3641 Clouds 25 1013 47 10000 5.7 200 18:56 06.05.2020
3642 Clouds 25 1013 47 10000 5.7 200 18:37 06.05.2020
3643 Clouds 25 1013 60 10000 5.7 320 18:19 06.05.2020
3644 Clouds 25 1013 50 10000 5.7 200 17:55 06.05.2020
3645 Clouds 24 1014 57 10000 6.2 200 17:36 06.05.2020
3646 Clouds 24 1014 57 10000 6.2 200 17:36 06.05.2020
3647 Clouds 24 1014 57 10000 3.6 310 17:18 06.05.2020
3648 Clouds 24 1014 60 10000 6.7 200 16:57 06.05.2020
3649 Clouds 24 1014 64 10000 7.2 200 16:39 06.05.2020
3650 Clouds 24 1015 50 10000 4.1 300 16:19 06.05.2020
3651 Clouds 24 1014 60 10000 5.1 200 15:47 06.05.2020
3652 Clouds 24 1014 60 10000 5.1 200 15:22 06.05.2020
3653 Clouds 23 1015 60 10000 6.2 200 14:58 06.05.2020
3654 Clouds 24 1015 57 10000 5.1 200 14:39 06.05.2020
3655 Clouds 24 1016 60 10000 4.1 270 14:19 06.05.2020
3656 Clouds 23 1015 57 10000 5.1 210 13:58 06.05.2020
3657 Clouds 23 1015 57 10000 3.6 210 13:38 06.05.2020
3658 Clouds 23 1017 73 10000 2.6 260 13:19 06.05.2020
3659 Clouds 22 1017 73 10000 3.1 260 12:43 06.05.2020
3660 Clouds 22 1016 60 10000 4.1 220 12:24 06.05.2020
3661 Clouds 21 1017 73 10000 2.6 270 11:42 06.05.2020
3662 Clouds 21 1016 60 10000 4.6 230 11:23 06.05.2020
3663 Clouds 20 1017 77 10000 1.5 250 10:58 06.05.2020
3664 Clouds 20 1016 68 10000 4.6 220 10:39 06.05.2020
3665 Clouds 20 1017 77 9000 1 0 10:19 06.05.2020
3666 Clouds 18 1016 77 10000 7.7 210 09:59 06.05.2020
3667 Clouds 17 1016 77 10000 7.7 210 09:38 06.05.2020
3668 Clouds 17 1017 93 6000 2.1 70 09:20 06.05.2020
3669 Clouds 16 1015 77 10000 5.1 220 08:43 06.05.2020
3670 Clouds 16 1017 100 6000 2.1 70 08:20 06.05.2020
3671 Clouds 16 1016 77 10000 3.1 240 07:56 06.05.2020
3672 Clouds 16 1016 77 10000 3.1 240 07:38 06.05.2020
3673 Clouds 16 1017 100 6000 2.1 80 07:18 06.05.2020
3674 Clouds 16 1017 93 6000 2.1 60 06:46 06.05.2020
3675 Clouds 16 1016 82 10000 3.6 240 06:20 06.05.2020
3676 Clouds 16 1016 77 10000 5.7 240 05:38 06.05.2020
3677 Clouds 15 1017 93 6000 1.5 70 04:52 06.05.2020
3678 Clouds 16 1018 93 6000 1 0 03:52 06.05.2020
3679 Clear 16 1016 77 10000 6.7 250 03:26 06.05.2020
3680 Clear 16 1018 93 7000 0.5 0 02:51 06.05.2020
3681 Clear 16 1017 77 10000 6.2 250 02:22 06.05.2020
3682 Clear 16 1019 87 7000 0.5 0 01:42 06.05.2020
3683 Clear 18 1019 87 7000 1 0 01:20 06.05.2020
3684 Clear 17 1019 87 7000 1 0 00:44 06.05.2020
3685 Clear 17 1019 87 7000 1.5 250 00:19 06.05.2020
3686 Clear 18 1017 63 10000 6.7 260 23:41 05.05.2020
3687 Clear 18 1019 87 10000 2.1 250 23:19 05.05.2020
3688 Clear 19 1018 87 10000 2.6 260 22:54 05.05.2020
3689 Clear 19 1015 53 10000 5.1 250 22:36 05.05.2020
3690 Clear 19 1017 87 10000 2.6 250 22:18 05.05.2020
3691 Clear 20 1014 60 10000 5.1 210 21:41 05.05.2020
3692 Clear 20 1014 60 10000 5.1 210 21:21 05.05.2020
3693 Clear 22 1014 53 10000 4.1 210 20:59 05.05.2020
3694 Clear 22 1014 50 10000 3.6 240 20:40 05.05.2020
3695 Clouds 22 1016 72 10000 3.6 260 20:19 05.05.2020
3696 Clouds 23 1014 50 10000 6.2 260 19:59 05.05.2020
3697 Clouds 23 1014 47 10000 5.1 270 19:37 05.05.2020
3698 Clouds 23 1014 47 10000 5.1 270 19:37 05.05.2020
3699 Clouds 23 1016 72 10000 3.6 280 19:19 05.05.2020
3700 Clouds 24 1014 47 10000 5.1 270 18:56 05.05.2020
3701 Clouds 24 1014 47 10000 4.1 230 18:38 05.05.2020
3702 Clouds 24 1014 47 10000 4.1 230 18:38 05.05.2020
3703 Clouds 24 1017 64 10000 5.1 290 18:19 05.05.2020
3704 Clouds 23 1016 64 10000 4.6 290 17:44 05.05.2020
3705 Clouds 24 1014 44 10000 5.1 270 17:25 05.05.2020
3706 Clouds 24 1014 44 10000 5.1 270 16:58 05.05.2020
3707 Clouds 23 1014 44 10000 5.1 260 16:37 05.05.2020
3708 Clouds 23 1017 64 10000 5.1 270 16:18 05.05.2020
3709 Clouds 23 1017 64 10000 4.6 280 15:56 05.05.2020
3710 Clouds 23 1015 47 10000 6.7 270 15:38 05.05.2020
3711 Clouds 23 1017 68 10000 4.6 270 15:19 05.05.2020
3712 Clouds 22 1017 73 10000 4.1 280 14:43 05.05.2020
3713 Clouds 23 1015 53 10000 5.7 210 14:25 05.05.2020
3714 Clouds 22 1015 53 10000 5.1 270 13:59 05.05.2020
3715 Clouds 22 1015 53 10000 5.1 270 13:59 05.05.2020
3716 Clouds 22 1015 53 10000 5.1 270 13:41 05.05.2020
3717 Clouds 22 1015 53 10000 5.1 270 13:21 05.05.2020
3718 Clouds 22 1015 60 10000 6.7 260 12:59 05.05.2020
3719 Clouds 22 1015 60 10000 6.7 260 12:59 05.05.2020
3720 Clouds 22 1015 60 10000 6.7 260 12:40 05.05.2020
3721 Clouds 22 1015 60 10000 6.7 260 12:20 05.05.2020
3722 Clouds 21 1015 60 10000 6.2 260 11:59 05.05.2020
3723 Clouds 20 1015 64 10000 5.1 260 11:40 05.05.2020
3724 Clouds 20 1017 82 6000 4.1 330 11:18 05.05.2020
3725 Clouds 20 1015 68 10000 4.6 260 10:54 05.05.2020
3726 Clouds 19 1015 72 10000 6.2 270 10:36 05.05.2020
3727 Clouds 19 1017 93 6000 3.1 330 10:18 05.05.2020
3728 Clouds 18 1016 100 6000 2.6 310 09:43 05.05.2020
3729 Clouds 18 1016 100 6000 2.6 310 09:43 05.05.2020
3730 Clear 18 1015 63 10000 3.1 240 09:25 05.05.2020
3731 Clouds 17 1016 100 5000 2.1 80 08:42 05.05.2020
3732 Clouds 17 1014 59 10000 4.1 230 08:21 05.05.2020
3733 Clouds 16 1014 77 10000 6.2 250 07:58 05.05.2020
3734 Clouds 17 1014 77 10000 6.2 250 07:39 05.05.2020
3735 Mist 17 1016 100 4000 1 0 07:19 05.05.2020
3736 Mist 16 1016 100 4000 0.5 0 06:50 05.05.2020
3737 Clouds 17 1014 77 10000 8.2 260 06:25 05.05.2020
3738 Clouds 17 1014 77 10000 8.2 260 06:24 05.05.2020
3739 Clouds 18 1015 82 10000 6.7 260 05:43 05.05.2020
3740 Clouds 18 1016 77 10000 9.3 260 03:39 05.05.2020
3741 Clouds 18 1017 100 6000 0.5 0 02:18 05.05.2020
3742 Clouds 18 1017 93 6000 1 270 00:54 05.05.2020
3743 Clouds 18 1016 82 10000 7.2 270 00:23 05.05.2020
3744 Clouds 18 1018 100 6000 0.5 0 23:48 04.05.2020
3745 Clouds 19 1017 93 6000 1 0 23:25 04.05.2020
3746 Clouds 19 1015 77 10000 8.7 270 22:57 04.05.2020
3747 Clouds 19 1015 77 10000 8.7 270 22:38 04.05.2020
3748 Clouds 19 1015 77 10000 8.7 270 22:38 04.05.2020
3749 Clouds 19 1016 93 6000 1.5 260 22:20 04.05.2020
3750 Clouds 20 1014 73 10000 8.7 270 21:56 04.05.2020
3751 Clouds 20 1014 73 10000 8.7 270 21:35 04.05.2020
3752 Clouds 22 1016 88 8000 2.6 270 21:03 04.05.2020
3753 Clouds 22 1016 88 8000 2.6 270 21:03 04.05.2020
3754 Clouds 22 1016 88 8000 2.6 270 21:03 04.05.2020
3755 Clouds 22 1016 88 8000 2.6 270 21:03 04.05.2020
3756 Clouds 22 1016 88 8000 2.6 270 21:03 04.05.2020
3757 Clear 22 1014 64 10000 9.3 290 20:38 04.05.2020
3758 Clouds 22 1016 88 8000 3.6 270 20:18 04.05.2020
3759 Clear 23 1014 61 10000 4.1 210 19:43 04.05.2020
3760 Clear 23 1014 61 10000 4.1 210 19:23 04.05.2020
3761 Clear 23 1014 61 10000 4.1 210 19:23 04.05.2020
3762 Clear 23 1014 61 10000 3.6 200 18:58 04.05.2020
3763 Clear 24 1014 61 10000 3.6 200 18:38 04.05.2020
3764 Clear 24 1015 73 8000 6.2 260 18:19 04.05.2020
3765 Clear 24 1014 57 10000 2.6 160 17:56 04.05.2020
3766 Clear 24 1014 50 10000 2.1 100 17:37 04.05.2020
3767 Clear 24 1015 69 8000 3.6 240 17:18 04.05.2020
3768 Clear 24 1015 69 8000 3.6 240 17:18 04.05.2020
3769 Clouds 24 1015 64 8000 3.1 240 16:43 04.05.2020
3770 Clouds 24 1014 53 10000 3.1 150 16:22 04.05.2020
3771 Clouds 24 1015 61 10000 3.1 190 15:55 04.05.2020
3772 Clouds 24 1015 50 10000 2.1 80 15:37 04.05.2020
3773 Clouds 24 1015 50 10000 2.1 80 15:37 04.05.2020
3774 Clouds 24 1016 73 8000 3.6 240 15:18 04.05.2020
3775 Clouds 23 1016 68 8000 3.6 230 14:43 04.05.2020
3776 Clouds 23 1016 68 8000 3.6 230 14:43 04.05.2020
3777 Clouds 24 1016 73 8000 5.7 240 14:19 04.05.2020
3778 Clouds 22 1016 83 6000 4.6 240 12:53 04.05.2020
3779 Clouds 22 1014 60 10000 3.1 170 12:34 04.05.2020
3780 Clouds 22 1014 60 10000 3.1 170 12:28 04.05.2020
3781 Clouds 22 1014 60 10000 3.1 170 12:28 04.05.2020
3782 Clouds 22 1014 60 10000 3.1 170 12:28 04.05.2020
3783 Clouds 22 1014 60 10000 3.1 170 12:28 04.05.2020
3784 Clouds 23 1013 38 10000 5.1 140 10:36 04.05.2020
3785 Clouds 23 1013 38 10000 5.1 140 10:36 04.05.2020
3786 Clouds 22 1012 49 10000 7.2 110 09:26 04.05.2020
3787 Clouds 22 1012 49 10000 7.2 110 09:26 04.05.2020
3788 Clouds 22 1012 73 10000 1 0 09:26 04.05.2020
3789 Clouds 22 1012 49 10000 7.2 110 09:26 04.05.2020
3790 Clouds 22 1012 49 10000 7.2 110 09:26 04.05.2020
3791 Clouds 21 1010 68 10000 5.1 100 07:52 04.05.2020
3792 Clouds 21 1012 56 10000 3.1 90 07:33 04.05.2020
3793 Clouds 21 1012 56 10000 3.1 90 07:33 04.05.2020
3794 Clouds 21 1012 56 10000 3.1 90 07:33 04.05.2020
3795 Clouds 21 1012 56 10000 3.1 90 07:33 04.05.2020
3796 Clouds 19 1013 77 10000 4.1 80 04:59 04.05.2020
3797 Clouds 20 1013 82 10000 4.6 60 03:29 04.05.2020
3798 Clouds 20 1014 82 10000 4.6 60 02:32 04.05.2020
3799 Clouds 20 1015 82 10000 3.6 70 01:06 04.05.2020
3800 Clouds 21 1015 77 10000 4.6 90 23:57 03.05.2020
3801 Clouds 21 1015 77 10000 4.6 90 23:57 03.05.2020
3802 Clouds 21 1015 77 10000 4.6 90 23:38 03.05.2020
3803 Clouds 22 1011 53 10000 5.7 70 23:19 03.05.2020
3804 Clouds 21 1014 82 10000 4.6 60 22:41 03.05.2020
3805 Clouds 21 1014 82 10000 4.6 60 22:41 03.05.2020
3806 Clouds 21 1014 82 10000 4.6 60 22:22 03.05.2020
3807 Clouds 22 1011 53 10000 5.7 80 21:42 03.05.2020
3808 Clouds 23 1014 68 10000 4.1 50 21:21 03.05.2020
3809 Clouds 23 1014 68 10000 4.1 50 21:21 03.05.2020
3810 Clouds 24 1011 39 10000 6.7 80 20:48 03.05.2020
3811 Clouds 24 1014 73 10000 3.1 50 20:23 03.05.2020
3812 Clouds 25 1014 73 10000 3.1 50 19:57 03.05.2020
3813 Clouds 25 1015 73 10000 3.6 70 19:38 03.05.2020
3814 Clouds 26 1011 42 10000 6.2 60 19:19 03.05.2020
3815 Clouds 26 1015 56 10000 4.6 90 18:40 03.05.2020
3816 Clouds 27 1015 56 10000 4.6 90 18:20 03.05.2020
3817 Clouds 27 1015 53 10000 6.2 100 17:58 03.05.2020
3818 Clouds 27 1015 53 10000 5.1 90 17:39 03.05.2020
3819 Clouds 28 1012 38 10000 5.7 50 17:20 03.05.2020
3820 Clouds 28 1012 42 10000 6.7 40 16:44 03.05.2020
3821 Clouds 28 1012 42 10000 6.2 40 16:19 03.05.2020
3822 Clouds 27 1016 53 10000 4.6 100 15:58 03.05.2020
3823 Clouds 26 1016 53 10000 4.6 100 15:39 03.05.2020
3824 Clouds 27 1013 48 10000 6.2 30 15:19 03.05.2020
3825 Clouds 27 1017 53 10000 5.1 100 14:57 03.05.2020
3826 Clouds 26 1017 53 10000 5.1 100 14:38 03.05.2020
3827 Clouds 27 1013 48 10000 5.7 40 14:19 03.05.2020
3828 Clouds 27 1013 48 10000 5.7 40 14:19 03.05.2020
3829 Clouds 26 1017 56 10000 4.6 100 13:39 03.05.2020
3830 Clouds 26 1017 56 10000 4.6 100 13:39 03.05.2020
3831 Clouds 26 1017 56 10000 4.6 100 13:39 03.05.2020
3832 Clouds 26 1017 56 10000 4.6 100 13:39 03.05.2020
3833 Clouds 26 1017 56 10000 4.6 100 13:38 03.05.2020
3834 Clouds 26 1017 60 10000 4.6 100 12:58 03.05.2020
3835 Clouds 26 1017 60 10000 4.6 100 12:58 03.05.2020
3836 Clouds 26 1017 60 10000 4.6 100 12:58 03.05.2020
3837 Clouds 26 1017 60 10000 4.6 100 12:58 03.05.2020
3838 Clouds 26 1017 60 10000 4.6 100 12:57 03.05.2020
3839 Clouds 25 1017 60 10000 4.6 100 12:37 03.05.2020
3840 Clouds 24 1017 68 10000 2.6 80 11:58 03.05.2020
3841 Clouds 23 1017 68 10000 2.6 80 11:40 03.05.2020
3842 Clouds 23 1017 68 10000 2.6 80 11:21 03.05.2020
3843 Clouds 22 1014 60 10000 5.7 70 10:55 03.05.2020
3844 Clouds 22 1014 60 10000 5.1 80 10:26 03.05.2020
3845 Clouds 21 1014 60 10000 5.7 90 09:43 03.05.2020
3846 Clouds 21 1017 77 10000 1 60 09:43 03.05.2020
3847 Clouds 21 1017 77 10000 1 60 09:43 03.05.2020
3848 Clouds 21 1017 77 10000 1 60 09:23 03.05.2020
3849 Clouds 21 1017 77 10000 1 60 09:22 03.05.2020
3850 Clouds 21 1014 60 10000 5.7 90 09:22 03.05.2020
3851 Clouds 18 1017 88 10000 1 330 08:36 03.05.2020
3852 Clouds 19 1014 63 10000 6.2 90 07:59 03.05.2020
3853 Clouds 19 1016 82 10000 1.5 80 07:37 03.05.2020
3854 Clouds 19 1016 82 10000 1.5 80 07:37 03.05.2020
3855 Clouds 19 1016 82 10000 1.5 80 07:37 03.05.2020
3856 Clouds 19 1016 82 10000 1.5 80 07:37 03.05.2020
3857 Clouds 18 1016 82 10000 2.6 60 06:00 03.05.2020
3858 Clouds 18 1016 82 10000 2.6 60 05:41 03.05.2020
3859 Clouds 18 1017 82 10000 2.1 100 04:28 03.05.2020
3860 Clouds 18 1015 82 10000 2.1 100 03:55 03.05.2020
3861 Clouds 19 1018 82 10000 3.1 60 02:38 03.05.2020
3862 Clear 19 1016 77 10000 3.1 110 02:19 03.05.2020
3863 Clear 19 1016 77 10000 3.1 110 02:19 03.05.2020
3864 Clear 19 1018 82 10000 0.5 300 01:41 03.05.2020
3865 Clear 19 1018 82 10000 0.5 300 01:22 03.05.2020
3866 Clear 20 1018 77 10000 0.5 90 00:40 03.05.2020
3867 Clear 20 1018 77 10000 0.5 90 00:21 03.05.2020
3868 Clear 20 1017 68 10000 1 120 23:49 02.05.2020
3869 Clear 21 1018 77 10000 0.5 40 23:30 02.05.2020
3870 Clear 21 1018 77 10000 2.1 70 22:59 02.05.2020
3871 Clear 21 1018 77 10000 2.1 70 22:41 02.05.2020
3872 Clear 21 1018 77 10000 2.1 70 22:22 02.05.2020
3873 Clear 22 1017 68 10000 2.1 350 21:54 02.05.2020
3874 Clouds 23 1018 68 10000 2.1 40 21:36 02.05.2020
3875 Clouds 23 1017 60 10000 1.5 340 21:18 02.05.2020
3876 Clouds 25 1017 57 10000 2.1 340 20:54 02.05.2020
3877 Clouds 26 1017 61 10000 1 270 20:36 02.05.2020
3878 Clouds 26 1017 61 10000 1 270 20:36 02.05.2020
3879 Clouds 26 1017 54 10000 2.6 330 20:18 02.05.2020
3880 Clouds 26 1017 54 10000 2.6 330 20:18 02.05.2020
3881 Clouds 26 1017 54 10000 1.5 230 19:39 02.05.2020
3882 Clouds 26 1017 54 10000 1.5 230 19:20 02.05.2020
3883 Clouds 27 1018 50 10000 3.1 210 18:56 02.05.2020
3884 Clouds 27 1018 50 10000 3.1 210 18:38 02.05.2020
3885 Clouds 27 1018 50 10000 3.1 210 18:20 02.05.2020
3886 Clouds 26 1018 50 10000 5.1 210 17:56 02.05.2020
3887 Clouds 26 1018 50 10000 5.1 210 17:38 02.05.2020
3888 Clouds 26 1018 69 10000 2.6 250 17:19 02.05.2020
3889 Clouds 25 1019 51 10000 5.1 210 16:46 02.05.2020
3890 Clouds 25 1019 51 10000 5.1 210 16:28 02.05.2020
3891 Clouds 25 1019 44 10000 5.1 200 15:56 02.05.2020
3892 Clouds 25 1019 44 10000 5.1 200 15:38 02.05.2020
3893 Clouds 25 1020 73 10000 4.1 280 15:19 02.05.2020
3894 Clouds 25 1020 73 10000 4.1 280 15:19 02.05.2020
3895 Clouds 25 1020 69 10000 3.6 270 14:42 02.05.2020
3896 Clouds 25 1020 47 10000 1.5 180 14:24 02.05.2020
3897 Clouds 24 1020 53 10000 3.1 210 13:58 02.05.2020
3898 Clouds 24 1020 53 10000 3.1 210 13:38 02.05.2020
3899 Clouds 24 1021 78 10000 3.1 250 13:18 02.05.2020
3900 Clouds 23 1020 64 10000 2.1 200 12:40 02.05.2020
3901 Clouds 23 1020 64 10000 2.1 200 12:20 02.05.2020
3902 Clouds 23 1020 56 10000 1.5 230 11:57 02.05.2020
3903 Clouds 22 1020 56 10000 1.5 230 11:38 02.05.2020
3904 Clouds 22 1020 77 10000 1 0 11:20 02.05.2020
3905 Clouds 20 1020 68 10000 2.6 250 10:40 02.05.2020
3906 Clouds 20 1020 68 10000 2.6 250 10:22 02.05.2020
3907 Clouds 18 1020 77 10000 3.6 240 09:59 02.05.2020
3908 Clouds 18 1020 77 10000 3.6 240 09:40 02.05.2020
3909 Clouds 18 1020 77 10000 3.6 240 09:22 02.05.2020
3910 Clouds 16 1020 93 10000 1 0 08:55 02.05.2020
3911 Clouds 15 1019 82 10000 3.1 250 08:37 02.05.2020
3912 Clouds 15 1020 93 10000 1.5 70 08:18 02.05.2020
3913 Clouds 14 1020 93 10000 2.1 80 07:42 02.05.2020
3914 Clouds 15 1019 82 10000 3.6 250 07:22 02.05.2020
3915 Clouds 15 1020 93 10000 2.1 70 06:42 02.05.2020
3916 Clouds 16 1019 82 10000 5.1 220 05:28 02.05.2020
3917 Clear 16 1020 77 10000 4.1 230 04:27 02.05.2020
3918 Clear 17 1020 68 10000 5.1 240 03:40 02.05.2020
3919 Clear 18 1021 72 10000 5.1 230 02:41 02.05.2020
3920 Clouds 19 1021 68 10000 5.7 230 01:56 02.05.2020
3921 Clouds 19 1021 68 10000 5.7 230 01:20 02.05.2020
3922 Clouds 19 1022 88 10000 2.6 320 00:42 02.05.2020
3923 Clouds 19 1022 88 10000 1.5 10 00:20 02.05.2020
3924 Clouds 20 1021 64 10000 6.2 230 23:40 01.05.2020
3925 Clouds 20 1022 77 10000 1.5 0 23:21 01.05.2020
3926 Clouds 20 1021 64 10000 6.2 230 22:58 01.05.2020
3927 Clouds 20 1021 64 10000 6.2 230 22:38 01.05.2020
3928 Clouds 20 1022 72 10000 1.5 320 22:19 01.05.2020
3929 Clouds 20 1020 64 10000 6.7 220 21:57 01.05.2020
3930 Clouds 21 1020 64 10000 6.7 220 21:39 01.05.2020
3931 Clouds 21 1022 68 10000 1 0 21:19 01.05.2020
3932 Clouds 21 1021 64 10000 2.6 290 20:57 01.05.2020
3933 Clouds 21 1020 68 10000 8.7 200 20:37 01.05.2020
3934 Clouds 21 1021 68 10000 2.6 280 20:19 01.05.2020
3935 Clouds 21 1021 68 10000 3.1 290 19:43 01.05.2020
3936 Clouds 22 1020 60 10000 8.7 200 19:23 01.05.2020
3937 Clouds 23 1020 60 10000 7.2 200 18:59 01.05.2020
3938 Clouds 23 1020 60 10000 7.2 200 18:59 01.05.2020
3939 Clouds 23 1020 60 10000 7.2 200 18:40 01.05.2020
3940 Clear 23 1020 60 10000 7.2 200 18:21 01.05.2020
3941 Clear 24 1020 57 10000 6.7 210 17:59 01.05.2020
3942 Clear 23 1020 60 10000 6.7 210 17:39 01.05.2020
3943 Clear 23 1020 60 10000 6.7 210 17:21 01.05.2020
3944 Clear 23 1020 64 10000 8.2 200 16:57 01.05.2020
3945 Clear 23 1020 60 10000 6.2 210 16:38 01.05.2020
3946 Clear 23 1022 68 10000 3.1 260 16:20 01.05.2020
3947 Clear 23 1021 57 10000 6.7 200 15:55 01.05.2020
3948 Clouds 23 1021 60 10000 5.7 200 15:37 01.05.2020
3949 Clear 23 1023 68 10000 2.6 270 15:18 01.05.2020
3950 Clear 23 1023 68 10000 3.1 270 14:42 01.05.2020
3951 Clear 23 1021 53 10000 5.1 220 14:23 01.05.2020
3952 Clear 21 1023 77 10000 3.1 260 13:42 01.05.2020
3953 Clear 22 1021 60 10000 7.2 270 13:23 01.05.2020
3954 Clear 21 1022 60 10000 6.7 270 12:58 01.05.2020
3955 Clear 21 1022 60 10000 6.7 270 12:40 01.05.2020
3956 Clear 21 1022 60 10000 6.7 270 12:20 01.05.2020
3957 Clouds 21 1022 68 10000 6.2 260 11:59 01.05.2020
3958 Clouds 21 1022 68 10000 6.2 260 11:40 01.05.2020
3959 Clear 21 1023 77 10000 2.6 270 11:19 01.05.2020
3960 Clouds 19 1022 72 10000 7.2 270 10:41 01.05.2020
3961 Clear 19 1023 77 10000 0.5 0 10:20 01.05.2020
3962 Clouds 17 1022 77 10000 4.6 240 09:59 01.05.2020
3963 Clear 17 1022 77 10000 6.2 260 09:41 01.05.2020
3964 Clear 17 1023 87 8000 2.1 70 09:18 01.05.2020
3965 Clear 15 1023 93 6000 2.1 70 08:46 01.05.2020
3966 Clear 15 1021 82 10000 6.2 270 08:28 01.05.2020
3967 Clear 15 1021 82 10000 5.1 240 07:55 01.05.2020
3968 Clear 15 1021 82 10000 5.1 240 07:37 01.05.2020
3969 Clear 15 1021 82 10000 6.7 290 06:58 01.05.2020
3970 Clear 15 1021 82 10000 6.7 270 05:48 01.05.2020
3971 Clear 15 1021 82 10000 6.7 270 05:20 01.05.2020
3972 Clear 15 1023 93 6000 2.1 80 03:42 01.05.2020
3973 Clear 15 1023 87 6000 3.1 90 02:50 01.05.2020
3974 Clear 15 1021 82 10000 7.7 270 02:32 01.05.2020
3975 Clear 15 1023 87 6000 1 0 01:42 01.05.2020
3976 Clear 16 1022 82 10000 7.7 270 01:24 01.05.2020
3977 Clear 16 1022 82 10000 6.7 270 00:39 01.05.2020
3978 Clear 16 1022 82 10000 6.7 270 00:20 01.05.2020
3979 Clear 16 1022 82 10000 5.7 280 23:57 30.04.2020
3980 Clear 17 1022 77 10000 5.7 270 23:38 30.04.2020
3981 Clear 17 1023 82 10000 2.6 310 23:19 30.04.2020
3982 Clear 17 1023 82 10000 3.1 300 22:42 30.04.2020
3983 Clouds 17 1021 72 10000 5.1 260 22:21 30.04.2020
3984 Clouds 17 1021 72 10000 5.7 260 21:58 30.04.2020
3985 Clouds 18 1021 68 10000 6.2 270 21:40 30.04.2020
3986 Clouds 18 1021 68 10000 6.2 270 21:21 30.04.2020
3987 Clouds 19 1020 63 10000 5.7 270 20:56 30.04.2020
3988 Clouds 20 1020 64 10000 5.7 260 20:38 30.04.2020
3989 Clouds 20 1021 77 10000 4.6 280 20:18 30.04.2020
3990 Clouds 20 1021 82 10000 4.1 260 19:45 30.04.2020
3991 Clouds 20 1020 64 10000 4.6 230 19:25 30.04.2020
3992 Clouds 21 1020 64 10000 5.1 230 18:57 30.04.2020
3993 Clouds 21 1020 68 10000 6.2 210 18:39 30.04.2020
3994 Clouds 21 1020 68 10000 6.2 210 18:20 30.04.2020
3995 Clouds 20 1021 72 10000 5.1 220 17:57 30.04.2020
3996 Clouds 20 1021 72 10000 5.1 220 17:57 30.04.2020
3997 Clouds 20 1021 72 10000 5.7 220 17:39 30.04.2020
3998 Clouds 20 1021 72 10000 5.7 220 17:39 30.04.2020
3999 Clouds 20 1022 77 10000 5.1 260 17:20 30.04.2020
4000 Clouds 20 1021 72 10000 5.1 220 16:55 30.04.2020
4001 Clouds 20 1021 72 10000 5.1 230 16:36 30.04.2020
4002 Clouds 20 1022 68 10000 3.6 230 16:18 30.04.2020
4003 Clouds 20 1022 68 10000 3.6 240 15:44 30.04.2020
4004 Clouds 21 1021 68 10000 5.7 220 15:23 30.04.2020
4005 Clouds 21 1022 68 10000 3.6 220 14:43 30.04.2020
4006 Clouds 21 1021 72 10000 4.6 220 14:22 30.04.2020
4007 Clouds 20 1022 68 10000 5.1 270 13:59 30.04.2020
4008 Clouds 20 1022 68 10000 5.1 270 13:41 30.04.2020
4009 Clouds 20 1022 68 10000 5.1 270 13:22 30.04.2020
4010 Clouds 20 1022 72 10000 3.6 220 12:59 30.04.2020
4011 Clouds 19 1022 72 10000 3.6 220 12:40 30.04.2020
4012 Clouds 19 1022 72 10000 3.6 220 12:19 30.04.2020
4013 Clouds 19 1022 72 10000 4.6 260 11:38 30.04.2020
4014 Clouds 19 1022 72 10000 4.6 260 11:38 30.04.2020
4015 Clouds 19 1023 77 10000 2.6 220 11:19 30.04.2020
4016 Clouds 18 1023 72 10000 2.6 220 10:57 30.04.2020
4017 Clouds 18 1022 82 10000 3.6 260 10:38 30.04.2020
4018 Clouds 18 1022 77 10000 2.6 220 10:19 30.04.2020
4019 Clouds 17 1022 88 10000 1 0 09:55 30.04.2020
4020 Clouds 16 1021 77 10000 3.1 230 09:36 30.04.2020
4021 Clouds 16 1022 93 10000 1 0 09:18 30.04.2020
4022 Clouds 14 1022 93 10000 1.5 90 08:42 30.04.2020
4023 Clouds 14 1021 82 10000 3.6 270 08:23 30.04.2020
4024 Clouds 13 1022 100 10000 2.1 80 07:43 30.04.2020
4025 Clouds 14 1021 82 10000 5.7 270 07:25 30.04.2020
4026 Clouds 13 1022 93 10000 2.6 70 06:51 30.04.2020
4027 Clouds 14 1021 82 10000 4.6 250 05:56 30.04.2020
4028 Clouds 14 1021 82 10000 4.6 250 05:36 30.04.2020
4029 Clouds 14 1021 82 10000 5.1 270 04:33 30.04.2020
4030 Clouds 14 1022 93 8000 2.6 80 03:54 30.04.2020
4031 Clear 14 1023 93 10000 2.6 80 02:45 30.04.2020
4032 Clouds 14 1023 93 10000 2.1 70 02:24 30.04.2020
4033 Clouds 14 1022 82 10000 6.2 260 01:35 30.04.2020
4034 Clouds 15 1023 87 10000 1.5 90 00:42 30.04.2020
4035 Clouds 15 1023 87 10000 1 60 00:19 30.04.2020
4036 Clouds 16 1022 72 10000 7.2 280 23:56 29.04.2020
4037 Clouds 16 1022 72 10000 7.2 280 23:36 29.04.2020
4038 Clouds 16 1023 82 10000 0.5 0 23:18 29.04.2020
4039 Clouds 16 1021 63 10000 6.7 280 22:40 29.04.2020
4040 Clouds 16 1023 87 10000 2.1 290 22:21 29.04.2020
4041 Clouds 17 1021 63 10000 5.1 270 21:57 29.04.2020
4042 Clouds 18 1021 59 10000 5.1 260 21:37 29.04.2020
4043 Clear 18 1022 77 10000 3.1 270 21:18 29.04.2020
4044 Clouds 19 1021 49 10000 6.7 260 20:41 29.04.2020
4045 Clouds 19 1021 49 10000 6.7 260 20:20 29.04.2020
4046 Clouds 20 1021 49 10000 7.2 260 19:59 29.04.2020
4047 Clouds 20 1021 56 10000 7.2 260 19:41 29.04.2020
4048 Clouds 20 1021 56 10000 7.2 260 19:20 29.04.2020
4049 Clear 20 1022 68 10000 4.6 280 18:43 29.04.2020
4050 Clouds 20 1020 52 10000 8.7 260 18:25 29.04.2020
4051 Clouds 21 1020 40 10000 6.2 250 17:57 29.04.2020
4052 Clouds 22 1020 40 10000 6.2 250 17:39 29.04.2020
4053 Clouds 22 1020 40 10000 6.2 250 17:21 29.04.2020
4054 Clouds 21 1021 53 10000 6.2 270 16:39 29.04.2020
4055 Clouds 21 1021 53 10000 6.2 270 16:39 29.04.2020
4056 Clouds 21 1022 72 10000 5.1 270 16:19 29.04.2020
4057 Clouds 21 1021 53 10000 6.2 260 15:57 29.04.2020
4058 Clouds 21 1021 53 10000 6.2 260 15:39 29.04.2020
4059 Clouds 21 1021 53 10000 6.2 260 15:21 29.04.2020
4060 Clouds 21 1021 56 10000 4.6 240 14:57 29.04.2020
4061 Clouds 21 1021 56 10000 4.6 240 14:38 29.04.2020
4062 Clouds 21 1023 72 8000 5.1 250 14:20 29.04.2020
4063 Clouds 20 1023 72 8000 5.1 250 13:42 29.04.2020
4064 Clouds 21 1022 64 10000 5.1 210 13:20 29.04.2020
4065 Clouds 21 1022 64 10000 5.1 210 13:20 29.04.2020
4066 Clouds 19 1021 72 10000 4.1 190 12:59 29.04.2020
4067 Clouds 19 1021 72 10000 4.1 190 12:40 29.04.2020
4068 Clouds 19 1022 72 8000 4.1 230 12:19 29.04.2020
4069 Clouds 19 1022 77 8000 4.1 230 11:58 29.04.2020
4070 Clouds 19 1021 63 10000 3.6 200 11:36 29.04.2020
4071 Clouds 19 1022 72 8000 3.6 220 11:18 29.04.2020
4072 Clouds 17 1021 72 10000 3.1 220 10:37 29.04.2020
4073 Clouds 17 1022 77 8000 2.1 180 10:19 29.04.2020
4074 Clouds 15 1021 87 8000 2.1 180 09:42 29.04.2020
4075 Clouds 15 1020 77 10000 3.6 250 09:24 29.04.2020
4076 Clouds 14 1020 82 10000 3.6 270 08:59 29.04.2020
4077 Clouds 13 1020 82 10000 3.6 270 08:41 29.04.2020
4078 Clouds 13 1020 82 10000 3.6 270 08:23 29.04.2020
4079 Clear 13 1020 93 6000 1.5 80 07:47 29.04.2020
4080 Clear 14 1019 72 10000 3.1 240 07:24 29.04.2020
4081 Clear 13 1020 100 6000 2.1 60 06:51 29.04.2020
4082 Clear 14 1019 72 10000 3.6 230 06:31 29.04.2020
4083 Clear 14 1019 67 10000 4.6 240 05:22 29.04.2020
4084 Clouds 13 1019 93 6000 1 0 04:45 29.04.2020
4085 Clouds 14 1020 93 6000 1 40 04:18 29.04.2020
4086 Clouds 14 1020 93 8000 1.5 70 02:43 29.04.2020
4087 Clouds 14 1021 93 8000 1.5 30 01:44 29.04.2020
4088 Clear 15 1020 82 10000 6.2 280 01:26 29.04.2020
4089 Clear 16 1020 82 10000 5.1 270 00:42 29.04.2020
4090 Clouds 16 1021 87 8000 2.6 310 00:19 29.04.2020
4091 Clouds 16 1021 93 8000 1.5 270 23:51 28.04.2020
4092 Clear 16 1020 82 10000 7.7 280 23:24 28.04.2020
4093 Clouds 17 1020 87 8000 1.5 260 22:57 28.04.2020
4094 Clear 17 1019 72 10000 5.7 280 22:37 28.04.2020
4095 Clouds 17 1020 87 8000 2.1 290 22:18 28.04.2020
4096 Clear 18 1018 68 10000 4.6 260 21:56 28.04.2020
4097 Clear 18 1018 68 10000 4.6 260 21:37 28.04.2020
4098 Clear 18 1018 68 10000 4.6 260 21:37 28.04.2020
4099 Clear 18 1018 68 10000 4.6 260 21:19 28.04.2020
4100 Clouds 19 1019 82 8000 3.1 290 20:55 28.04.2020
4101 Clear 19 1018 64 10000 4.6 260 20:36 28.04.2020
4102 Clouds 19 1019 77 8000 3.1 270 20:18 28.04.2020
4103 Clouds 20 1017 64 10000 5.7 280 19:42 28.04.2020
4104 Clouds 20 1017 64 10000 5.7 280 19:22 28.04.2020
4105 Clouds 20 1017 64 10000 4.6 230 18:59 28.04.2020
4106 Clouds 20 1017 64 10000 4.6 230 18:40 28.04.2020
4107 Clouds 20 1018 72 8000 3.6 250 18:19 28.04.2020
4108 Clouds 20 1017 64 10000 5.1 290 17:57 28.04.2020
4109 Clouds 20 1017 64 10000 5.1 290 17:36 28.04.2020
4110 Clouds 20 1018 77 8000 4.6 250 17:18 28.04.2020
4111 Clouds 19 1017 64 10000 6.7 260 16:42 28.04.2020
4112 Clouds 19 1017 64 10000 6.7 260 16:23 28.04.2020
4113 Clouds 19 1017 64 10000 4.1 240 15:58 28.04.2020
4114 Clouds 19 1017 64 10000 4.1 240 15:39 28.04.2020
4115 Clouds 19 1017 64 10000 4.1 240 15:21 28.04.2020
4116 Clouds 19 1018 68 10000 4.1 250 14:58 28.04.2020
4117 Clouds 19 1018 68 10000 4.1 250 14:58 28.04.2020
4118 Clouds 19 1018 68 10000 4.1 250 14:40 28.04.2020
4119 Rain 19 1018 68 10000 4.1 250 14:21 28.04.2020
4120 Rain 19 1018 68 10000 4.1 250 14:21 28.04.2020
4121 Rain 20 1018 72 10000 3.1 210 13:58 28.04.2020
4122 Rain 19 1018 72 10000 3.1 210 13:38 28.04.2020
4123 Clouds 19 1018 68 10000 1.5 300 13:19 28.04.2020
4124 Clouds 19 1018 68 10000 1.5 300 12:44 28.04.2020
4125 Clouds 18 1018 68 10000 2.6 250 12:24 28.04.2020
4126 Clouds 16 1018 72 10000 1 0 11:45 28.04.2020
4127 Clouds 16 1018 77 10000 3.1 260 11:24 28.04.2020
4128 Clouds 16 1017 82 10000 3.1 250 10:59 28.04.2020
4129 Clouds 16 1017 82 10000 3.1 250 10:59 28.04.2020
4130 Clouds 15 1017 82 10000 3.1 250 10:39 28.04.2020
4131 Clouds 15 1018 93 10000 1.5 80 10:19 28.04.2020
4132 Clouds 14 1017 93 10000 2.1 90 09:56 28.04.2020
4133 Clouds 14 1017 82 10000 3.1 260 09:38 28.04.2020
4134 Clouds 14 1017 93 10000 2.1 80 09:20 28.04.2020
4135 Clouds 13 1017 100 8000 2.6 70 08:45 28.04.2020
4136 Clouds 14 1016 82 10000 2.1 250 08:26 28.04.2020
4137 Clouds 13 1016 100 10000 2.1 80 07:45 28.04.2020
4138 Clouds 13 1016 100 10000 3.1 80 07:20 28.04.2020
4139 Clouds 13 1016 100 10000 2.1 80 06:50 28.04.2020
4140 Clouds 14 1016 82 10000 4.6 250 06:22 28.04.2020
4141 Clouds 14 1016 82 10000 4.1 270 05:41 28.04.2020
4142 Clouds 14 1016 82 10000 4.6 230 04:56 28.04.2020
4143 Clouds 14 1017 87 10000 4.6 270 02:59 28.04.2020
4144 Clouds 14 1017 87 10000 4.6 270 02:28 28.04.2020
4145 Clouds 15 1017 82 10000 5.1 280 01:23 28.04.2020
4146 Clouds 15 1017 87 10000 1 40 00:51 28.04.2020
4147 Clear 15 1017 87 10000 0.5 0 00:22 28.04.2020
4148 Clear 16 1017 77 10000 3.6 310 23:45 27.04.2020
4149 Clear 16 1017 82 10000 1.5 210 23:23 27.04.2020
4150 Clear 16 1017 77 10000 3.6 310 23:23 27.04.2020
4151 Clear 16 1017 82 10000 1.5 210 22:55 27.04.2020
4152 Clear 16 1016 77 10000 8.7 270 22:37 27.04.2020
4153 Clear 16 1017 82 10000 2.1 240 22:18 27.04.2020
4154 Clouds 17 1016 82 10000 2.1 240 21:55 27.04.2020
4155 Clear 17 1015 68 10000 8.2 250 21:37 27.04.2020
4156 Clouds 17 1016 77 10000 2.6 250 21:18 27.04.2020
4157 Clouds 18 1016 77 10000 3.6 260 20:43 27.04.2020
4158 Rain 18 1015 63 10000 7.2 260 20:22 27.04.2020
4159 Rain 19 1015 60 10000 5.1 240 19:58 27.04.2020
4160 Rain 19 1015 60 10000 5.1 240 19:39 27.04.2020
4161 Clouds 19 1016 72 10000 5.7 250 19:20 27.04.2020
4162 Clouds 19 1014 60 10000 5.7 240 18:56 27.04.2020
4163 Clouds 20 1014 60 10000 5.7 240 18:38 27.04.2020
4164 Clouds 20 1016 72 10000 6.2 250 18:19 27.04.2020
4165 Clouds 19 1015 72 10000 7.2 250 17:43 27.04.2020
4166 Clouds 20 1014 64 10000 7.2 230 17:21 27.04.2020
4167 Clouds 20 1014 64 10000 7.7 230 16:57 27.04.2020
4168 Clouds 21 1014 60 10000 8.7 240 16:38 27.04.2020
4169 Clouds 21 1014 60 10000 8.7 240 16:20 27.04.2020
4170 Clouds 21 1014 60 10000 7.7 240 15:56 27.04.2020
4171 Clouds 20 1014 60 10000 6.2 230 15:37 27.04.2020
4172 Clouds 20 1015 64 10000 6.7 220 15:18 27.04.2020
4173 Clouds 20 1015 60 10000 6.2 210 14:42 27.04.2020
4174 Clouds 20 1015 52 10000 6.2 230 14:22 27.04.2020
4175 Clouds 20 1015 55 10000 4.6 240 13:58 27.04.2020
4176 Clouds 20 1015 55 10000 4.6 240 13:39 27.04.2020
4177 Clouds 20 1015 52 10000 4.1 180 13:19 27.04.2020
4178 Clouds 19 1015 55 10000 2.6 220 12:43 27.04.2020
4179 Clouds 19 1015 52 10000 4.1 190 12:23 27.04.2020
4180 Clouds 18 1015 59 10000 3.1 230 11:59 27.04.2020
4181 Clouds 18 1015 59 10000 3.1 230 11:40 27.04.2020
4182 Clouds 18 1015 63 10000 3.1 180 11:19 27.04.2020
4183 Clouds 16 1015 67 10000 3.6 170 10:54 27.04.2020
4184 Clouds 16 1015 77 10000 1.5 270 10:36 27.04.2020
4185 Clouds 16 1015 63 10000 3.1 170 10:18 27.04.2020
4186 Clouds 16 1014 63 10000 4.1 160 09:42 27.04.2020
4187 Clouds 16 1015 63 10000 2.1 170 09:18 27.04.2020
4188 Clouds 15 1015 67 10000 2.1 170 08:53 27.04.2020
4189 Clouds 14 1014 93 10000 2.1 230 08:33 27.04.2020
4190 Clouds 14 1014 76 10000 1.5 160 07:46 27.04.2020
4191 Clouds 14 1014 93 10000 1.5 260 07:27 27.04.2020
4192 Clouds 15 1014 82 10000 2.6 270 06:59 27.04.2020
4193 Clouds 15 1014 82 10000 2.6 270 06:37 27.04.2020
4194 Clouds 15 1015 82 10000 2.1 170 06:18 27.04.2020
4195 Clouds 15 1015 82 10000 2.6 270 05:21 27.04.2020
4196 Clouds 14 1015 82 10000 2.1 310 04:40 27.04.2020
4197 Clouds 14 1015 87 10000 1 0 03:48 27.04.2020
4198 Clouds 15 1016 82 10000 3.6 260 02:36 27.04.2020
4199 Clouds 15 1016 77 10000 4.1 260 01:20 27.04.2020
4200 Clouds 16 1016 77 10000 4.6 260 00:40 27.04.2020
4201 Clouds 16 1016 77 10000 1.5 210 00:19 27.04.2020
4202 Clouds 16 1017 77 10000 2.6 240 23:55 26.04.2020
4203 Clouds 16 1015 72 10000 5.1 260 23:37 26.04.2020
4204 Clouds 16 1016 77 10000 2.6 240 23:18 26.04.2020
4205 Clouds 16 1016 77 10000 2.6 240 22:54 26.04.2020
4206 Clouds 16 1014 67 10000 5.1 260 22:36 26.04.2020
4207 Clouds 16 1015 82 10000 2.1 240 22:18 26.04.2020
4208 Clouds 17 1014 68 10000 3.1 230 21:54 26.04.2020
4209 Clouds 18 1014 63 10000 5.1 250 21:36 26.04.2020
4210 Clouds 18 1014 59 10000 6.7 260 21:18 26.04.2020
4211 Clouds 18 1014 59 10000 5.7 250 20:39 26.04.2020
4212 Clouds 18 1015 72 10000 2.6 250 20:20 26.04.2020
4213 Clouds 18 1015 72 10000 2.6 250 20:20 26.04.2020
4214 Clouds 19 1014 63 10000 5.7 260 19:58 26.04.2020
4215 Clouds 19 1014 59 10000 6.7 270 19:37 26.04.2020
4216 Clouds 19 1015 68 10000 3.6 270 19:19 26.04.2020
4217 Clouds 18 1015 68 10000 4.6 260 18:44 26.04.2020
4218 Clouds 19 1015 68 10000 5.1 250 18:25 26.04.2020
4219 Clouds 19 1014 63 10000 6.7 280 17:56 26.04.2020
4220 Clouds 19 1014 63 10000 6.7 280 17:38 26.04.2020
4221 Clouds 19 1014 63 10000 5.7 270 17:18 26.04.2020
4222 Clouds 19 1014 59 10000 6.7 270 16:40 26.04.2020
4223 Clouds 19 1014 59 10000 6.7 270 16:21 26.04.2020
4224 Clouds 19 1014 59 10000 6.2 260 15:58 26.04.2020
4225 Clouds 20 1014 56 10000 5.7 260 15:38 26.04.2020
4226 Clouds 20 1014 56 10000 5.7 260 15:20 26.04.2020
4227 Clouds 19 1014 63 10000 4.6 210 14:55 26.04.2020
4228 Clouds 19 1014 63 10000 5.1 220 14:36 26.04.2020
4229 Clouds 19 1015 63 10000 4.1 230 14:18 26.04.2020
4230 Clouds 18 1016 63 10000 3.6 210 13:43 26.04.2020
4231 Clouds 19 1015 72 10000 5.7 200 13:23 26.04.2020
4232 Clouds 19 1015 72 10000 5.1 200 12:58 26.04.2020
4233 Clouds 18 1015 68 10000 4.1 230 12:40 26.04.2020
4234 Clouds 18 1015 68 10000 4.1 230 12:20 26.04.2020
4235 Clouds 17 1015 72 10000 5.1 220 11:57 26.04.2020
4236 Clouds 17 1015 68 10000 3.6 230 11:39 26.04.2020
4237 Clouds 17 1015 68 10000 3.6 230 11:21 26.04.2020
4238 Clouds 16 1014 67 10000 2.6 230 10:55 26.04.2020
4239 Clouds 16 1014 67 10000 2.6 210 10:37 26.04.2020
4240 Clouds 16 1015 82 10000 2.1 170 10:18 26.04.2020
4241 Clouds 15 1014 82 10000 3.6 280 09:39 26.04.2020
4242 Clouds 15 1014 82 10000 3.6 280 09:21 26.04.2020
4243 Clouds 14 1014 82 10000 2.1 180 08:43 26.04.2020
4244 Clouds 14 1014 87 10000 3.6 270 08:23 26.04.2020
4245 Clouds 15 1014 82 10000 4.1 270 07:58 26.04.2020
4246 Clouds 15 1014 82 10000 4.1 270 07:40 26.04.2020
4247 Clouds 15 1014 82 10000 2.1 170 07:18 26.04.2020
4248 Clouds 15 1014 82 10000 5.1 280 06:39 26.04.2020
4249 Clouds 15 1014 77 10000 2.6 160 05:55 26.04.2020
4250 Clouds 15 1014 82 10000 5.7 280 05:36 26.04.2020
4251 Clouds 16 1014 77 10000 6.7 280 04:44 26.04.2020
4252 Clouds 16 1015 72 10000 3.6 240 03:50 26.04.2020
4253 Clouds 16 1016 72 10000 4.1 240 02:44 26.04.2020
4254 Clouds 16 1015 77 10000 8.7 270 02:21 26.04.2020
4255 Clouds 16 1015 77 10000 9.3 250 01:38 26.04.2020
4256 Clouds 16 1016 67 10000 4.1 230 01:19 26.04.2020
4257 Clouds 16 1015 77 10000 9.8 260 00:38 26.04.2020
4258 Clouds 16 1016 72 10000 5.1 240 00:18 26.04.2020
4259 Rain 17 1014 77 10000 10.3 260 23:38 25.04.2020
4260 Clouds 17 1016 72 10000 5.7 240 23:20 25.04.2020
4261 Clouds 17 1015 72 10000 5.7 240 22:54 25.04.2020
4262 Rain 17 1013 77 10000 10.8 270 22:36 25.04.2020
4263 Clouds 17 1015 72 10000 5.7 240 22:18 25.04.2020
4264 Rain 17 1012 82 10000 10.3 270 21:39 25.04.2020
4265 Rain 17 1012 82 10000 10.3 270 21:20 25.04.2020
4266 Rain 18 1012 77 10000 8.7 260 20:56 25.04.2020
4267 Rain 18 1012 77 10000 8.7 260 20:37 25.04.2020
4268 Clouds 18 1014 77 10000 6.2 240 20:19 25.04.2020
4269 Rain 18 1012 77 10000 4.6 250 19:41 25.04.2020
4270 Clouds 18 1014 72 10000 7.2 250 19:23 25.04.2020
4271 Rain 18 1011 82 10000 6.2 270 18:58 25.04.2020
4272 Rain 18 1011 82 10000 6.2 270 18:39 25.04.2020
4273 Clouds 18 1013 77 6000 7.7 250 18:20 25.04.2020
4274 Rain 19 1012 82 10000 5.1 270 17:57 25.04.2020
4275 Rain 18 1012 82 10000 5.1 270 17:38 25.04.2020
4276 Clouds 18 1013 82 6000 7.2 260 17:19 25.04.2020
4277 Clouds 18 1013 82 6000 6.7 270 16:54 25.04.2020
4278 Rain 18 1012 77 10000 4.6 240 16:36 25.04.2020
4279 Rain 18 1012 77 10000 4.6 240 16:36 25.04.2020
4280 Clouds 18 1013 82 6000 5.7 260 16:18 25.04.2020
4281 Clouds 18 1012 77 10000 5.1 270 15:40 25.04.2020
4282 Clouds 18 1013 88 8000 3.6 240 15:19 25.04.2020
4283 Clouds 18 1012 88 10000 4.6 270 14:58 25.04.2020
4284 Clouds 17 1012 88 10000 4.6 270 14:38 25.04.2020
4285 Clouds 16 1013 88 8000 5.1 250 14:20 25.04.2020
4286 Clouds 17 1013 82 8000 5.7 250 13:43 25.04.2020
4287 Clouds 17 1013 77 8000 5.1 250 13:19 25.04.2020
4288 Drizzle 17 1012 93 2300 2.1 270 12:58 25.04.2020
4289 Drizzle 16 1012 93 2300 2.1 270 12:40 25.04.2020
4290 Drizzle 17 1012 93 2300 2.1 270 12:20 25.04.2020
4291 Drizzle 17 1011 93 5000 1 270 11:56 25.04.2020
4292 Drizzle 16 1011 93 5000 1 270 11:38 25.04.2020
4293 Clouds 16 1012 82 6000 4.6 280 11:20 25.04.2020
4294 Drizzle 16 1010 93 5000 2.6 40 10:43 25.04.2020
4295 Drizzle 17 1010 93 5000 2.6 40 10:23 25.04.2020
4296 Clouds 16 1010 93 8000 1.5 190 09:48 25.04.2020
4297 Drizzle 16 1010 93 8000 2.1 70 09:29 25.04.2020
4298 Drizzle 16 1010 87 5000 1 70 08:58 25.04.2020
4299 Drizzle 16 1010 87 5000 1 70 08:39 25.04.2020
4300 Drizzle 16 1010 87 5000 1 70 08:21 25.04.2020
4301 Rain 16 1009 93 4000 2.6 170 07:50 25.04.2020
4302 Drizzle 16 1010 93 8000 1.5 30 07:28 25.04.2020
4303 Rain 16 1009 93 6000 2.1 160 06:47 25.04.2020
4304 Drizzle 17 1010 93 8000 1.5 20 06:28 25.04.2020
4305 Rain 17 1010 93 10000 2.1 30 05:39 25.04.2020
4306 Rain 17 1011 93 5000 3.6 70 04:57 25.04.2020
4307 Rain 17 1012 88 10000 5.1 60 02:59 25.04.2020
4308 Rain 17 1012 88 10000 5.1 60 02:21 25.04.2020
4309 Clouds 17 1011 88 6000 2.6 100 01:53 25.04.2020
4310 Rain 17 1012 88 10000 5.1 60 01:34 25.04.2020
4311 Rain 17 1011 88 6000 2.6 100 00:55 25.04.2020
4312 Rain 17 1012 93 10000 5.7 60 00:32 25.04.2020
4313 Clouds 17 1011 88 6000 4.1 100 23:44 24.04.2020
4314 Rain 17 1012 88 7000 7.7 80 23:24 24.04.2020
4315 Rain 17 1012 88 9000 10.8 100 22:58 24.04.2020
4316 Rain 17 1012 88 9000 10.8 100 22:38 24.04.2020
4317 Clouds 17 1010 82 6000 6.2 90 22:19 24.04.2020
4318 Clouds 17 1010 82 6000 6.2 90 22:19 24.04.2020
4319 Clouds 17 1010 82 6000 5.7 90 21:55 24.04.2020
4320 Rain 17 1011 88 10000 8.7 90 21:36 24.04.2020
4321 Clouds 17 1009 82 6000 6.2 80 21:18 24.04.2020
4322 Clouds 17 1009 82 6000 7.2 90 20:55 24.04.2020
4323 Clouds 18 1010 88 10000 9.8 80 20:36 24.04.2020
4324 Clouds 18 1008 72 6000 6.7 100 20:18 24.04.2020
4325 Clouds 18 1011 77 10000 8.7 80 19:40 24.04.2020
4326 Clouds 18 1011 77 10000 8.7 80 19:21 24.04.2020
4327 Clouds 19 1007 72 6000 9.3 70 18:44 24.04.2020
4328 Clouds 19 1011 77 10000 7.7 90 18:26 24.04.2020
4329 Clouds 18 1011 77 10000 7.7 80 17:55 24.04.2020
4330 Clouds 18 1011 82 10000 7.2 80 17:37 24.04.2020
4331 Clouds 18 1008 72 6000 11.8 80 17:18 24.04.2020
4332 Clouds 19 1012 77 10000 7.2 80 16:56 24.04.2020
4333 Clouds 18 1012 77 10000 7.7 70 16:38 24.04.2020
4334 Clouds 18 1009 72 6000 11.8 80 16:20 24.04.2020
4335 Clouds 18 1013 82 10000 8.2 80 15:40 24.04.2020
4336 Rain 19 1009 68 10000 9.8 80 15:20 24.04.2020
4337 Clouds 19 1013 77 10000 9.8 90 14:41 24.04.2020
4338 Clouds 19 1013 77 10000 9.8 90 14:22 24.04.2020
4339 Clouds 19 1013 77 10000 9.8 80 13:59 24.04.2020
4340 Clouds 19 1013 77 10000 9.8 80 13:40 24.04.2020
4341 Clouds 19 1013 77 10000 9.8 80 13:20 24.04.2020
4342 Clouds 19 1014 77 10000 9.8 90 12:46 24.04.2020
4343 Clouds 19 1010 72 10000 10.8 90 12:26 24.04.2020
4344 Clouds 18 1014 77 10000 8.7 80 11:59 24.04.2020
4345 Clouds 18 1014 77 10000 8.7 80 11:40 24.04.2020
4346 Clouds 18 1010 72 10000 11.8 80 11:21 24.04.2020
4347 Clouds 18 1014 82 10000 8.7 80 10:56 24.04.2020
4348 Clouds 18 1014 82 10000 8.7 80 10:38 24.04.2020
4349 Clouds 18 1010 77 10000 11.3 80 10:19 24.04.2020
4350 Clouds 17 1010 82 10000 11.3 80 09:47 24.04.2020
4351 Clouds 17 1014 82 10000 9.3 80 09:24 24.04.2020
4352 Clouds 17 1013 82 10000 8.7 90 08:58 24.04.2020
4353 Clouds 17 1013 82 10000 8.7 90 08:40 24.04.2020
4354 Clouds 17 1013 82 10000 8.7 90 08:40 24.04.2020
4355 Clouds 17 1010 77 10000 9.8 80 08:18 24.04.2020
4356 Clouds 17 1013 82 10000 9.3 90 07:47 24.04.2020
4357 Clouds 17 1010 82 10000 9.8 80 07:27 24.04.2020
4358 Clouds 17 1014 82 10000 8.7 90 06:58 24.04.2020
4359 Clouds 17 1014 82 10000 8.7 90 06:38 24.04.2020
4360 Clouds 17 1011 82 10000 9.8 80 05:48 24.04.2020
4361 Clouds 17 1015 82 10000 10.8 90 04:33 24.04.2020
4362 Clouds 17 1015 82 10000 10.8 80 03:24 24.04.2020
4363 Clouds 17 1016 82 10000 10.8 90 02:41 24.04.2020
4364 Clouds 17 1012 77 10000 8.7 80 02:20 24.04.2020
4365 Clouds 17 1015 88 10000 9.8 90 01:24 24.04.2020
4366 Clouds 17 1016 82 10000 9.3 80 00:39 24.04.2020
4367 Clouds 17 1012 72 10000 10.3 80 00:18 24.04.2020
4368 Clouds 17 1012 72 10000 10.8 80 23:44 23.04.2020
4369 Clouds 17 1015 82 10000 9.3 90 23:26 23.04.2020
4370 Clouds 17 1012 72 10000 10.3 80 22:55 23.04.2020
4371 Clouds 17 1015 88 10000 8.7 90 22:37 23.04.2020
4372 Clouds 17 1015 88 10000 8.7 90 22:37 23.04.2020
4373 Clouds 17 1012 72 10000 10.8 70 22:18 23.04.2020
4374 Clouds 18 1015 82 10000 8.7 90 21:56 23.04.2020
4375 Clouds 18 1012 72 10000 9.8 70 21:56 23.04.2020
4376 Clouds 18 1015 82 10000 8.7 90 21:38 23.04.2020
4377 Clouds 18 1011 68 10000 9.8 80 21:20 23.04.2020
4378 Clouds 18 1012 68 10000 8.7 80 20:43 23.04.2020
4379 Clouds 18 1015 82 10000 9.8 80 20:22 23.04.2020
4380 Clouds 19 1015 82 10000 9.8 80 19:59 23.04.2020
4381 Clouds 19 1015 82 10000 9.8 80 19:40 23.04.2020
4382 Clouds 19 1015 82 10000 9.8 80 19:22 23.04.2020
4383 Clouds 20 1015 72 10000 9.3 90 18:57 23.04.2020
4384 Clouds 20 1015 72 10000 9.3 90 18:38 23.04.2020
4385 Clouds 20 1011 60 10000 10.8 90 18:20 23.04.2020
4386 Clouds 20 1012 60 10000 11.8 90 17:55 23.04.2020
4387 Clouds 20 1015 72 10000 9.3 80 17:37 23.04.2020
4388 Clouds 20 1012 60 10000 12.3 80 17:19 23.04.2020
4389 Clouds 20 1012 60 10000 9.8 90 16:43 23.04.2020
4390 Clouds 20 1013 60 8000 11.3 70 16:20 23.04.2020
4391 Clouds 20 1013 60 8000 11.3 80 15:43 23.04.2020
4392 Clouds 20 1016 82 10000 8.7 80 15:23 23.04.2020
4393 Clouds 19 1017 88 10000 9.3 80 14:59 23.04.2020
4394 Clouds 19 1017 88 10000 9.3 80 14:39 23.04.2020
4395 Clouds 19 1017 88 10000 9.3 80 14:21 23.04.2020
4396 Clouds 19 1014 60 8000 12.3 80 13:57 23.04.2020
4397 Clouds 18 1017 88 10000 8.7 70 13:38 23.04.2020
4398 Clouds 19 1014 60 8000 12.3 80 13:19 23.04.2020
4399 Clouds 18 1014 63 8000 12.9 80 12:55 23.04.2020
4400 Clouds 18 1017 88 10000 10.8 70 12:37 23.04.2020
4401 Clouds 18 1014 63 8000 12.9 80 12:19 23.04.2020
4402 Clouds 18 1014 68 8000 11.8 80 11:44 23.04.2020
4403 Clouds 18 1017 88 10000 9.3 80 11:26 23.04.2020
4404 Clouds 18 1017 82 10000 9.3 80 10:56 23.04.2020
4405 Clouds 18 1013 68 10000 11.8 80 10:56 23.04.2020
4406 Clouds 18 1017 88 10000 9.3 80 10:38 23.04.2020
4407 Clouds 18 1014 68 10000 9.8 80 10:19 23.04.2020
4408 Clouds 17 1017 88 10000 8.2 70 09:37 23.04.2020
4409 Clouds 17 1014 67 10000 7.2 70 09:18 23.04.2020
4410 Clouds 16 1014 72 10000 7.2 60 08:46 23.04.2020
4411 Clouds 16 1016 93 10000 8.2 70 08:27 23.04.2020
4412 Clouds 16 1015 93 10000 7.2 80 07:44 23.04.2020
4413 Clouds 16 1013 72 10000 7.2 70 07:24 23.04.2020
4414 Clouds 16 1013 82 10000 6.7 60 06:50 23.04.2020
4415 Clouds 16 1015 93 10000 9.3 60 06:28 23.04.2020
4416 Clouds 15 1015 93 10000 7.7 70 05:31 23.04.2020
4417 Clouds 15 1014 93 8000 1.5 80 04:53 23.04.2020
4418 Clouds 14 1016 82 10000 3.1 230 02:25 23.04.2020
4419 Clouds 14 1016 93 10000 2.1 80 01:55 23.04.2020
4420 Clouds 14 1016 82 10000 3.6 250 01:33 23.04.2020
4421 Clouds 15 1016 77 10000 3.6 240 00:47 23.04.2020
4422 Clouds 15 1016 77 10000 3.6 240 00:23 23.04.2020
4423 Clouds 15 1016 82 10000 1 70 23:50 22.04.2020
4424 Clouds 15 1016 87 10000 2.1 50 23:24 22.04.2020
4425 Clouds 16 1015 68 10000 5.7 250 22:57 22.04.2020
4426 Clouds 16 1015 68 10000 5.7 250 22:38 22.04.2020
4427 Clouds 16 1016 82 10000 1.5 70 22:19 22.04.2020
4428 Clouds 17 1015 68 10000 6.2 260 21:56 22.04.2020
4429 Clouds 17 1015 68 10000 6.2 260 21:37 22.04.2020
4430 Clouds 17 1016 82 10000 2.1 310 21:19 22.04.2020
4431 Clouds 17 1016 77 10000 2.1 330 20:43 22.04.2020
4432 Clouds 18 1016 72 10000 2.6 320 20:19 22.04.2020
4433 Clouds 19 1015 60 10000 6.2 260 19:58 22.04.2020
4434 Clouds 19 1015 60 10000 6.2 260 19:39 22.04.2020
4435 Clouds 19 1015 60 10000 6.2 260 19:39 22.04.2020
4436 Clouds 19 1015 60 10000 6.2 260 19:19 22.04.2020
4437 Clouds 19 1015 49 10000 5.7 270 18:59 22.04.2020
4438 Clouds 20 1015 49 10000 5.7 270 18:41 22.04.2020
4439 Clouds 20 1015 49 10000 5.7 270 18:22 22.04.2020
4440 Clouds 19 1015 52 10000 5.7 270 17:57 22.04.2020
4441 Clouds 19 1015 52 10000 5.7 270 17:39 22.04.2020
4442 Clouds 19 1016 68 8000 5.7 290 17:20 22.04.2020
4443 Clouds 19 1015 60 10000 6.2 280 16:43 22.04.2020
4444 Clouds 19 1015 60 10000 6.2 280 16:25 22.04.2020
4445 Clouds 19 1017 72 8000 5.1 300 15:43 22.04.2020
4446 Clouds 19 1016 56 10000 5.7 270 15:25 22.04.2020
4447 Clouds 19 1016 60 10000 5.7 270 14:59 22.04.2020
4448 Clouds 19 1016 60 10000 5.7 270 14:41 22.04.2020
4449 Clouds 19 1016 60 10000 5.7 270 14:20 22.04.2020
4450 Clouds 18 1016 63 10000 6.2 280 13:57 22.04.2020
4451 Clouds 19 1016 63 10000 6.2 280 13:39 22.04.2020
4452 Clouds 19 1017 72 8000 5.7 230 13:19 22.04.2020
4453 Clouds 18 1016 72 10000 6.7 280 12:42 22.04.2020
4454 Clouds 18 1016 72 10000 6.7 280 12:23 22.04.2020
4455 Clouds 18 1016 72 10000 5.7 280 11:57 22.04.2020
4456 Clouds 18 1016 72 10000 5.7 280 11:36 22.04.2020
4457 Clouds 18 1017 77 8000 2.6 180 11:18 22.04.2020
4458 Clouds 16 1016 82 10000 3.6 270 10:41 22.04.2020
4459 Clouds 16 1017 82 8000 3.1 180 10:21 22.04.2020
4460 Clouds 15 1015 87 10000 5.7 270 09:41 22.04.2020
4461 Clouds 15 1017 87 8000 3.1 160 09:23 22.04.2020
4462 Clouds 14 1016 87 8000 3.6 170 08:59 22.04.2020
4463 Clouds 14 1016 87 8000 3.6 170 08:59 22.04.2020
4464 Clouds 14 1016 87 8000 3.6 170 08:41 22.04.2020
4465 Clouds 15 1016 87 8000 3.6 170 08:22 22.04.2020
4466 Clouds 15 1016 82 8000 2.6 170 07:53 22.04.2020
4467 Clouds 15 1015 82 10000 5.7 280 07:33 22.04.2020
4468 Clouds 15 1016 82 8000 2.6 170 06:53 22.04.2020
4469 Clouds 15 1015 82 10000 5.1 270 06:23 22.04.2020
4470 Rain 15 1015 82 10000 5.1 250 05:37 22.04.2020
4471 Rain 16 1015 82 10000 6.2 260 04:32 22.04.2020
4472 Clouds 17 1017 82 8000 3.6 240 02:51 22.04.2020
4473 Clouds 16 1017 87 8000 3.6 250 01:53 22.04.2020
4474 Rain 17 1015 72 10000 9.8 260 01:27 22.04.2020
4475 Rain 16 1015 72 10000 9.3 260 00:57 22.04.2020
4476 Rain 16 1015 72 10000 9.3 260 00:37 22.04.2020
4477 Rain 16 1015 72 10000 9.3 260 00:37 22.04.2020
4478 Clouds 16 1017 82 8000 5.1 250 00:19 22.04.2020
4479 Clear 16 1015 72 10000 8.7 250 23:41 21.04.2020
4480 Clear 16 1016 82 8000 5.1 250 23:19 21.04.2020
4481 Clear 16 1014 72 10000 9.3 250 22:40 21.04.2020
4482 Clear 16 1014 72 10000 9.3 250 22:22 21.04.2020
4483 Clear 17 1013 72 10000 10.8 260 21:59 21.04.2020
4484 Clear 17 1013 72 10000 10.8 260 21:41 21.04.2020
4485 Rain 17 1013 72 10000 10.8 260 21:22 21.04.2020
4486 Rain 17 1012 72 10000 8.7 250 20:56 21.04.2020
4487 Rain 17 1012 72 10000 8.7 250 20:38 21.04.2020
4488 Clouds 17 1014 67 8000 7.7 250 20:20 21.04.2020
4489 Rain 18 1011 68 10000 10.3 260 19:41 21.04.2020
4490 Clouds 17 1013 72 8000 7.7 250 19:20 21.04.2020
4491 Clouds 18 1013 72 8000 7.7 250 19:20 21.04.2020
4492 Clouds 18 1013 68 8000 8.2 250 18:58 21.04.2020
4493 Rain 17 1010 72 10000 12.9 260 18:38 21.04.2020
4494 Clouds 17 1013 72 8000 9.3 260 18:19 21.04.2020
4495 Clouds 18 1012 63 8000 8.7 260 17:55 21.04.2020
4496 Clouds 17 1009 72 10000 10.3 260 17:37 21.04.2020
4497 Clouds 17 1009 72 10000 10.3 260 17:37 21.04.2020
4498 Clouds 17 1012 67 8000 10.3 250 17:18 21.04.2020
4499 Clouds 17 1009 67 10000 8.2 240 16:39 21.04.2020
4500 Clouds 17 1012 77 8000 9.8 260 16:19 21.04.2020
4501 Clouds 17 1012 77 8000 9.8 260 16:19 21.04.2020
4502 Clouds 17 1012 77 8000 9.8 260 16:19 21.04.2020
4503 Rain 16 1009 82 5000 6.7 240 15:57 21.04.2020
4504 Rain 16 1009 87 10000 5.7 240 15:39 21.04.2020
4505 Rain 16 1009 87 10000 5.7 240 15:21 21.04.2020
4506 Rain 15 1010 82 3000 6.2 200 14:57 21.04.2020
4507 Rain 16 1010 82 7000 8.2 220 14:39 21.04.2020
4508 Rain 16 1010 82 7000 8.2 220 14:20 21.04.2020
4509 Rain 15 1011 77 10000 7.7 240 13:40 21.04.2020
4510 Rain 15 1011 77 10000 7.7 240 13:22 21.04.2020
4511 Rain 15 1011 77 10000 6.2 230 12:55 21.04.2020
4512 Rain 14 1011 82 5000 5.1 220 12:36 21.04.2020
4513 Thunderstorm 14 1012 87 2000 8.7 220 12:18 21.04.2020
4514 Clouds 14 1011 82 10000 5.1 240 11:55 21.04.2020
4515 Clouds 14 1011 82 10000 5.1 240 11:55 21.04.2020
4516 Rain 13 1012 87 4000 9.8 260 11:36 21.04.2020
4517 Rain 13 1012 87 4000 9.8 260 11:18 21.04.2020
4518 Rain 15 1011 72 3900 9.8 240 10:55 21.04.2020
4519 Clouds 16 1010 72 10000 3.1 270 10:36 21.04.2020
4520 Clouds 16 1010 72 10000 3.1 270 10:36 21.04.2020
4521 Clouds 16 1010 77 10000 5.1 260 10:18 21.04.2020
4522 Clouds 15 1010 72 10000 3.1 230 09:37 21.04.2020
4523 Clouds 15 1011 72 6000 7.7 240 09:18 21.04.2020
4524 Clouds 15 1011 72 6000 8.2 250 08:55 21.04.2020
4525 Rain 15 1010 72 10000 7.2 260 08:37 21.04.2020
4526 Clouds 15 1011 77 6000 6.2 240 08:18 21.04.2020
4527 Clouds 14 1011 76 6000 5.1 250 07:43 21.04.2020
4528 Thunderstorm 14 1011 82 3000 6.7 260 07:20 21.04.2020
4529 Clouds 15 1010 82 10000 6.2 260 06:44 21.04.2020
4530 Rain 15 1011 82 3000 7.7 250 06:19 21.04.2020
4531 Thunderstorm 14 1011 87 6000 8.7 270 05:45 21.04.2020
4532 Clouds 15 1012 77 6000 9.8 250 03:48 21.04.2020
4533 Clouds 15 1012 77 6000 9.8 250 03:48 21.04.2020
4534 Rain 15 1012 82 10000 6.7 250 02:59 21.04.2020
4535 Rain 15 1012 82 10000 5.7 220 01:37 21.04.2020
4536 Clouds 16 1013 77 6000 7.7 240 00:51 21.04.2020
4537 Rain 15 1013 77 10000 4.1 230 00:25 21.04.2020
4538 Clouds 14 1014 87 6000 2.1 180 23:44 20.04.2020
4539 Rain 14 1013 76 10000 5.1 250 23:23 20.04.2020
4540 Clouds 14 1014 87 6000 3.1 220 22:57 20.04.2020
4541 Rain 14 1013 87 10000 6.7 270 22:57 20.04.2020
4542 Rain 13 1013 87 10000 6.7 270 22:37 20.04.2020
4543 Rain 13 1014 87 3000 4.1 230 22:19 20.04.2020
4544 Rain 14 1014 87 3000 7.2 240 21:55 20.04.2020
4545 Rain 14 1012 67 5000 14.9 260 21:37 20.04.2020
4546 Rain 14 1013 93 2000 10.8 270 21:18 20.04.2020
4547 Rain 18 1012 77 2000 7.2 220 20:55 20.04.2020
4548 Rain 18 1012 68 10000 8.2 240 20:36 20.04.2020
4549 Clouds 18 1012 68 6000 5.7 210 20:18 20.04.2020
4550 Clouds 18 1012 68 10000 8.2 230 19:41 20.04.2020
4551 Clouds 18 1013 68 6000 6.7 220 19:23 20.04.2020
4552 Clouds 19 1012 63 10000 7.7 240 18:59 20.04.2020
4553 Clouds 19 1012 63 10000 7.7 240 18:40 20.04.2020
4554 Clouds 19 1013 63 10000 6.7 220 18:20 20.04.2020
4555 Clouds 19 1012 68 10000 6.7 240 17:54 20.04.2020
4556 Clouds 19 1013 59 10000 7.2 240 17:36 20.04.2020
4557 Clouds 19 1014 63 10000 6.7 220 17:18 20.04.2020
4558 Clouds 19 1014 63 10000 7.2 220 16:42 20.04.2020
4559 Clouds 20 1015 60 10000 6.7 230 16:20 20.04.2020
4560 Clouds 20 1014 55 10000 8.7 250 15:56 20.04.2020
4561 Clouds 20 1014 55 10000 8.7 250 15:38 20.04.2020
4562 Clouds 20 1015 60 10000 7.2 220 15:19 20.04.2020
4563 Clouds 19 1015 63 10000 6.2 220 14:42 20.04.2020
4564 Clouds 20 1016 63 10000 7.2 230 14:19 20.04.2020
4565 Clouds 19 1015 59 10000 7.2 260 13:58 20.04.2020
4566 Clouds 19 1015 59 10000 7.2 260 13:39 20.04.2020
4567 Clouds 19 1016 63 10000 7.2 230 13:20 20.04.2020
4568 Clouds 18 1017 63 10000 7.7 230 12:44 20.04.2020
4569 Clouds 18 1015 72 10000 7.2 260 12:24 20.04.2020
4570 Rain 17 1015 77 8000 7.2 260 11:58 20.04.2020
4571 Rain 17 1015 77 8000 7.2 260 11:38 20.04.2020
4572 Clouds 17 1016 77 10000 3.6 230 11:18 20.04.2020
4573 Clouds 16 1016 82 10000 4.6 220 10:55 20.04.2020
4574 Clouds 16 1016 82 10000 4.6 220 10:55 20.04.2020
4575 Rain 16 1015 72 10000 5.1 270 10:36 20.04.2020
4576 Clouds 16 1016 87 10000 5.7 240 10:18 20.04.2020
4577 Clouds 16 1016 67 10000 4.1 220 09:44 20.04.2020
4578 Clouds 16 1015 67 10000 6.2 270 09:25 20.04.2020
4579 Clouds 16 1016 72 10000 4.1 230 08:58 20.04.2020
4580 Clouds 16 1016 72 10000 4.1 230 08:58 20.04.2020
4581 Clouds 16 1014 72 10000 7.2 280 08:39 20.04.2020
4582 Clouds 16 1015 72 10000 4.1 240 08:18 20.04.2020
4583 Clouds 15 1016 72 10000 4.1 250 07:51 20.04.2020
4584 Clouds 16 1014 77 10000 7.2 270 07:28 20.04.2020
4585 Clouds 15 1014 72 10000 7.2 280 06:38 20.04.2020
4586 Clouds 15 1014 72 10000 7.2 280 06:38 20.04.2020
4587 Clouds 15 1016 72 10000 5.1 260 06:19 20.04.2020
4588 Rain 16 1014 72 10000 7.2 280 05:22 20.04.2020
4589 Rain 16 1016 63 10000 7.2 260 03:19 20.04.2020
4590 Rain 16 1015 77 10000 9.3 260 02:36 20.04.2020
4591 Rain 17 1015 72 10000 8.2 260 01:31 20.04.2020
4592 Rain 17 1016 77 10000 7.2 260 00:47 20.04.2020
4593 Clear 17 1014 72 10000 8.7 260 00:25 20.04.2020
4594 Clear 17 1016 72 10000 7.7 260 23:42 19.04.2020
4595 Clear 17 1014 72 10000 7.2 250 23:23 19.04.2020
4596 Clear 17 1013 68 10000 9.3 250 22:59 19.04.2020
4597 Clear 17 1013 68 10000 9.3 250 22:39 19.04.2020
4598 Clouds 17 1015 82 10000 7.2 260 22:20 19.04.2020
4599 Clouds 17 1014 82 10000 6.2 250 21:44 19.04.2020
4600 Clear 17 1012 68 10000 11.8 260 21:25 19.04.2020
4601 Clouds 18 1014 77 10000 7.7 260 20:59 19.04.2020
4602 Clouds 18 1011 68 10000 9.3 260 20:41 19.04.2020
4603 Clouds 18 1011 68 10000 9.3 260 20:20 19.04.2020
4604 Clouds 19 1013 72 10000 8.2 260 19:57 19.04.2020
4605 Clouds 19 1011 60 10000 10.8 270 19:39 19.04.2020
4606 Clouds 19 1011 60 10000 10.8 270 19:21 19.04.2020
4607 Clouds 20 1010 52 10000 9.3 270 18:58 19.04.2020
4608 Clouds 20 1010 52 10000 9.3 270 18:39 19.04.2020
4609 Clouds 20 1012 63 10000 8.2 260 18:19 19.04.2020
4610 Clouds 21 1010 56 10000 10.3 270 17:56 19.04.2020
4611 Clouds 21 1010 56 10000 10.3 270 17:38 19.04.2020
4612 Clouds 21 1010 56 10000 10.3 270 17:19 19.04.2020
4613 Clouds 21 1010 49 10000 9.3 270 16:54 19.04.2020
4614 Clouds 21 1010 46 10000 9.3 270 16:36 19.04.2020
4615 Clouds 21 1013 63 10000 8.2 270 16:18 19.04.2020
4616 Clouds 21 1010 56 10000 7.2 290 15:41 19.04.2020
4617 Clouds 21 1013 64 10000 7.7 280 15:20 19.04.2020
4618 Clouds 21 1013 68 10000 8.2 290 14:54 19.04.2020
4619 Clouds 21 1010 49 10000 7.7 270 14:36 19.04.2020
4620 Clouds 21 1013 72 10000 7.2 280 14:18 19.04.2020
4621 Clouds 20 1010 60 10000 5.7 280 13:38 19.04.2020
4622 Clouds 20 1013 77 10000 6.2 270 13:19 19.04.2020
4623 Clouds 20 1013 77 10000 5.1 290 12:46 19.04.2020
4624 Clouds 20 1011 68 10000 5.7 270 12:25 19.04.2020
4625 Clouds 19 1012 77 10000 5.1 290 11:55 19.04.2020
4626 Clouds 19 1011 72 10000 3.1 240 11:37 19.04.2020
4627 Clouds 19 1012 77 10000 4.6 270 11:18 19.04.2020
4628 Clouds 17 1011 87 10000 3.1 250 10:41 19.04.2020
4629 Clouds 17 1011 87 10000 3.1 250 10:21 19.04.2020
4630 Clouds 17 1011 93 10000 2.6 240 09:59 19.04.2020
4631 Clouds 17 1011 93 10000 2.6 240 09:41 19.04.2020
4632 Clouds 17 1012 93 10000 2.1 240 09:20 19.04.2020
4633 Haze 16 1010 93 8000 2.6 270 08:40 19.04.2020
4634 Haze 16 1010 93 8000 2.6 270 08:21 19.04.2020
4635 Clouds 16 1011 87 10000 1 0 07:56 19.04.2020
4636 Haze 16 1011 93 9000 1.5 260 07:38 19.04.2020
4637 Clouds 16 1011 87 10000 1 210 07:19 19.04.2020
4638 Rain 17 1011 88 9000 2.1 220 06:26 19.04.2020
4639 Rain 17 1011 88 8000 2.6 270 05:35 19.04.2020
4640 Clouds 17 1011 88 10000 1 0 03:55 19.04.2020
4641 Clouds 18 1012 88 10000 2.1 320 02:50 19.04.2020
4642 Clouds 17 1012 93 10000 2.1 320 02:18 19.04.2020
4643 Rain 17 1012 82 10000 1 210 01:26 19.04.2020
4644 Rain 17 1012 88 10000 1.5 220 00:41 19.04.2020
4645 Rain 17 1012 88 10000 1.5 220 00:41 19.04.2020
4646 Rain 17 1012 88 10000 1.5 220 00:41 19.04.2020
4647 Clouds 17 1012 82 10000 2.1 20 00:20 19.04.2020
4648 Clouds 17 1012 82 10000 2.1 220 23:43 18.04.2020
4649 Clouds 17 1012 88 10000 4.1 10 23:20 18.04.2020
4650 Clouds 18 1012 77 10000 3.1 10 22:55 18.04.2020
4651 Clouds 18 1012 77 10000 3.1 110 22:37 18.04.2020
4652 Clouds 18 1012 82 10000 2.6 20 22:18 18.04.2020
4653 Clear 18 1011 77 10000 2.6 20 21:42 18.04.2020
4654 Clouds 18 1011 82 10000 3.1 90 21:22 18.04.2020
4655 Clouds 18 1012 82 10000 3.1 100 20:59 18.04.2020
4656 Clouds 19 1012 82 10000 3.1 100 20:40 18.04.2020
4657 Clouds 19 1012 82 10000 3.1 100 20:21 18.04.2020
4658 Clouds 19 1010 64 10000 6.2 40 19:43 18.04.2020
4659 Clouds 19 1012 77 10000 3.1 100 19:25 18.04.2020
4660 Clouds 20 1012 77 10000 3.1 90 18:40 18.04.2020
4661 Clouds 20 1011 64 10000 5.7 40 18:20 18.04.2020
4662 Clouds 20 1013 77 10000 3.1 100 17:59 18.04.2020
4663 Clouds 20 1013 77 10000 3.1 100 17:40 18.04.2020
4664 Clouds 20 1011 68 10000 8.2 40 17:20 18.04.2020
4665 Clouds 20 1012 64 10000 8.2 40 16:43 18.04.2020
4666 Clouds 20 1013 82 10000 2.6 90 16:23 18.04.2020
4667 Clouds 20 1014 77 10000 4.1 100 15:58 18.04.2020
4668 Clouds 20 1014 82 10000 4.1 90 15:38 18.04.2020
4669 Clouds 20 1012 64 10000 6.7 40 15:19 18.04.2020
4670 Clouds 20 1012 64 10000 7.2 30 14:44 18.04.2020
4671 Clouds 20 1014 88 10000 3.6 70 14:24 18.04.2020
4672 Clouds 20 1013 64 10000 3.6 50 13:44 18.04.2020
4673 Clouds 21 1015 82 10000 3.1 70 13:25 18.04.2020
4674 Clouds 20 1015 88 10000 3.1 70 12:56 18.04.2020
4675 Clouds 20 1015 88 10000 3.1 70 12:56 18.04.2020
4676 Clouds 20 1014 82 10000 3.1 80 12:38 18.04.2020
4677 Clouds 21 1013 60 10000 3.6 90 12:19 18.04.2020
4678 Clouds 20 1013 64 10000 4.6 90 11:42 18.04.2020
4679 Clouds 19 1013 72 10000 4.6 100 11:22 18.04.2020
4680 Clouds 19 1014 88 10000 4.6 80 10:57 18.04.2020
4681 Clouds 17 1014 88 10000 4.1 80 10:37 18.04.2020
4682 Clouds 17 1013 82 10000 4.1 90 10:18 18.04.2020
4683 Clouds 17 1014 88 10000 3.1 100 09:41 18.04.2020
4684 Clouds 17 1014 88 10000 3.1 100 09:23 18.04.2020
4685 Clouds 15 1012 93 10000 2.6 90 08:44 18.04.2020
4686 Clouds 15 1014 88 10000 2.1 110 08:25 18.04.2020
4687 Clouds 16 1012 93 10000 1 90 07:54 18.04.2020
4688 Clouds 16 1013 82 10000 2.1 110 07:34 18.04.2020
4689 Clouds 15 1012 87 10000 1 0 06:55 18.04.2020
4690 Clouds 16 1013 87 10000 1 0 06:19 18.04.2020
4691 Clouds 16 1014 88 10000 3.6 60 05:35 18.04.2020
4692 Clouds 16 1013 87 10000 3.1 50 04:46 18.04.2020
4693 Clouds 17 1014 88 10000 5.1 50 04:24 18.04.2020
4694 Clouds 17 1014 87 10000 2.6 50 02:47 18.04.2020
4695 Clouds 17 1016 88 10000 5.1 70 02:22 18.04.2020
4696 Clouds 17 1015 93 10000 3.6 50 01:51 18.04.2020
4697 Clouds 17 1016 88 10000 3.6 90 01:31 18.04.2020
4698 Clouds 17 1016 88 10000 2.6 110 00:40 18.04.2020
4699 Clouds 17 1015 87 10000 2.1 10 00:20 18.04.2020
4700 Clouds 17 1016 88 10000 2.1 100 23:55 17.04.2020
4701 Clouds 17 1015 88 10000 2.1 100 23:36 17.04.2020
4702 Clouds 17 1015 88 10000 2.1 40 23:18 17.04.2020
4703 Clouds 17 1015 88 10000 2.1 110 22:41 17.04.2020
4704 Clouds 16 1015 88 10000 2.1 110 22:21 17.04.2020
4705 Clouds 17 1015 88 10000 2.6 110 21:59 17.04.2020
4706 Clouds 17 1015 82 10000 3.1 100 21:40 17.04.2020
4707 Clouds 17 1014 82 10000 2.6 30 21:20 17.04.2020
4708 Clouds 17 1014 82 10000 2.6 30 21:20 17.04.2020
4709 Clouds 18 1014 77 10000 2.1 30 20:56 17.04.2020
4710 Clouds 19 1015 68 10000 3.1 120 20:37 17.04.2020
4711 Clouds 19 1014 77 10000 3.1 40 20:18 17.04.2020
4712 Clouds 19 1015 82 10000 3.1 100 19:55 17.04.2020
4713 Clouds 19 1015 82 10000 3.1 100 19:37 17.04.2020
4714 Clouds 19 1014 68 10000 3.6 30 19:18 17.04.2020
4715 Clouds 19 1015 82 10000 4.1 100 18:40 17.04.2020
4716 Clouds 19 1015 82 10000 4.1 100 18:21 17.04.2020
4717 Clouds 19 1015 82 10000 4.1 90 17:38 17.04.2020
4718 Clouds 20 1016 82 10000 4.1 90 17:20 17.04.2020
4719 Clouds 20 1016 82 10000 4.1 90 16:59 17.04.2020
4720 Clouds 20 1016 82 10000 4.1 90 16:41 17.04.2020
4721 Clouds 20 1016 82 10000 4.1 90 16:21 17.04.2020
4722 Clouds 20 1016 82 10000 4.6 90 15:39 17.04.2020
4723 Clouds 20 1016 82 10000 4.6 90 15:21 17.04.2020
4724 Clouds 19 1017 82 10000 4.1 100 14:54 17.04.2020
4725 Clouds 19 1017 82 10000 3.6 100 14:36 17.04.2020
4726 Clouds 19 1016 68 8000 3.1 260 14:18 17.04.2020
4727 Clouds 20 1017 82 10000 3.1 100 13:39 17.04.2020
4728 Clouds 20 1016 73 8000 2.6 250 13:20 17.04.2020
4729 Clouds 19 1017 77 8000 2.6 260 12:48 17.04.2020
4730 Clouds 19 1017 82 10000 2.6 80 12:27 17.04.2020
4731 Clouds 18 1017 88 10000 2.6 80 11:59 17.04.2020
4732 Clouds 18 1017 88 10000 2.1 50 11:39 17.04.2020
4733 Clouds 18 1016 77 8000 1.5 180 11:19 17.04.2020
4734 Clouds 17 1016 88 10000 2.6 80 10:40 17.04.2020
4735 Clouds 17 1016 88 7000 0.5 0 10:20 17.04.2020
4736 Clouds 17 1016 88 10000 2.6 80 09:55 17.04.2020
4737 Clouds 17 1016 88 10000 3.1 80 09:36 17.04.2020
4738 Clouds 17 1016 93 7000 2.1 80 09:18 17.04.2020
4739 Clouds 16 1016 88 10000 2.6 80 08:46 17.04.2020
4740 Clouds 16 1015 93 10000 1.5 80 08:26 17.04.2020
4741 Clouds 16 1016 88 10000 3.6 80 07:56 17.04.2020
4742 Clouds 16 1016 88 10000 3.6 80 07:38 17.04.2020
4743 Clouds 16 1016 88 10000 3.6 80 07:18 17.04.2020
4744 Clouds 16 1016 88 10000 3.6 90 06:40 17.04.2020
4745 Clouds 16 1016 88 10000 5.1 80 05:49 17.04.2020
4746 Clouds 16 1017 88 10000 4.6 90 03:23 17.04.2020
4747 Clouds 15 1016 93 10000 3.6 80 02:49 17.04.2020
4748 Clouds 16 1017 88 10000 4.6 100 01:30 17.04.2020
4749 Clouds 16 1017 88 10000 4.6 100 00:59 17.04.2020
4750 Clouds 16 1017 88 10000 4.6 100 00:21 17.04.2020
4751 Clouds 16 1017 88 10000 4.1 90 23:46 16.04.2020
4752 Clouds 16 1017 88 10000 4.1 90 23:24 16.04.2020
4753 Clouds 16 1017 88 10000 4.1 100 22:59 16.04.2020
4754 Clouds 16 1017 88 10000 4.1 100 22:59 16.04.2020
4755 Clouds 16 1017 88 10000 4.1 100 22:59 16.04.2020
4756 Clouds 16 1017 88 10000 4.1 100 22:39 16.04.2020
4757 Clouds 16 1016 87 10000 1 0 22:20 16.04.2020
4758 Clouds 17 1017 88 10000 4.1 110 21:57 16.04.2020
4759 Clouds 17 1017 88 10000 4.1 110 21:57 16.04.2020
4760 Clouds 17 1017 88 10000 4.1 110 21:38 16.04.2020
4761 Clouds 17 1016 59 10000 3.69 92 21:18 16.04.2020
4762 Haze 18 1016 82 8000 3.6 120 20:41 16.04.2020
4763 Haze 19 1016 82 8000 4.1 100 20:22 16.04.2020
4764 Haze 19 1016 82 8000 4.6 90 19:58 16.04.2020
4765 Clouds 19 1016 77 10000 5.1 90 19:39 16.04.2020
4766 Clouds 20 1016 77 10000 5.1 90 19:19 16.04.2020
4767 Clouds 20 1016 77 10000 5.1 90 18:46 16.04.2020
4768 Clouds 20 1016 77 10000 5.1 90 18:27 16.04.2020
4769 Clouds 20 1016 77 10000 5.1 80 17:59 16.04.2020
4770 Clouds 20 1016 77 10000 5.1 80 17:41 16.04.2020
4771 Clouds 20 1016 82 10000 4.6 80 17:21 16.04.2020
4772 Clouds 20 1016 77 10000 4.6 80 16:45 16.04.2020
4773 Clouds 20 1017 82 10000 5.1 80 16:27 16.04.2020
4774 Clouds 20 1017 77 10000 5.1 80 15:59 16.04.2020
4775 Clouds 20 1017 77 10000 5.1 80 15:39 16.04.2020
4776 Clouds 20 1016 60 10000 4.1 250 15:19 16.04.2020
4777 Clouds 20 1016 60 10000 4.1 250 15:19 16.04.2020
4778 Clouds 21 1017 77 10000 6.2 90 14:56 16.04.2020
4779 Clouds 21 1017 77 10000 6.2 90 14:37 16.04.2020
4780 Clouds 21 1017 77 10000 6.2 90 14:37 16.04.2020
4781 Clouds 20 1017 77 10000 6.2 90 14:19 16.04.2020
4782 Clouds 20 1017 82 10000 5.7 90 13:42 16.04.2020
4783 Clouds 20 1017 82 10000 5.7 90 13:23 16.04.2020
4784 Clouds 21 1017 82 10000 5.7 90 12:58 16.04.2020
4785 Clouds 20 1017 82 10000 5.7 90 12:40 16.04.2020
4786 Clouds 20 1016 46 10000 2.6 190 12:20 16.04.2020
4787 Clouds 20 1016 46 10000 2.6 190 12:20 16.04.2020
4788 Rain 19 1017 88 10000 6.7 100 11:59 16.04.2020
4789 Rain 18 1017 88 10000 6.7 100 11:41 16.04.2020
4790 Rain 18 1017 88 10000 6.7 100 11:21 16.04.2020
4791 Clouds 18 1016 77 10000 3.6 100 10:55 16.04.2020
4792 Clouds 17 1017 88 10000 6.7 100 10:37 16.04.2020
4793 Clouds 16 1017 88 10000 6.7 100 10:18 16.04.2020
4794 Clouds 16 1016 88 10000 5.1 110 09:40 16.04.2020
4795 Clouds 16 1016 88 10000 5.1 110 09:21 16.04.2020
4796 Clouds 16 1016 88 10000 8.2 90 09:00 16.04.2020
4797 Clouds 16 1016 88 10000 8.2 90 08:41 16.04.2020
4798 Clouds 16 1016 88 10000 8.2 90 08:21 16.04.2020
4799 Clouds 15 1016 88 10000 8.7 90 07:44 16.04.2020
4800 Clouds 15 1016 88 10000 8.7 90 07:26 16.04.2020
4801 Clouds 16 1016 88 10000 6.7 80 06:42 16.04.2020
4802 Clouds 16 1016 88 10000 6.7 80 06:24 16.04.2020
4803 Clouds 16 1016 88 10000 7.2 70 05:30 16.04.2020
4804 Clouds 15 1017 93 10000 7.2 90 03:47 16.04.2020
4805 Clouds 15 1016 93 10000 3.1 70 03:22 16.04.2020
4806 Clouds 15 1017 93 10000 6.2 80 02:43 16.04.2020
4807 Clouds 16 1017 93 10000 5.7 90 01:59 16.04.2020
4808 Clouds 16 1017 93 10000 5.7 90 00:59 16.04.2020
4809 Clear 16 1017 93 10000 5.7 90 00:26 16.04.2020
4810 Clear 15 1016 93 10000 2.6 90 23:57 15.04.2020
4811 Clear 16 1017 93 10000 5.1 100 23:39 15.04.2020
4812 Clear 16 1017 93 10000 5.1 100 23:20 15.04.2020
4813 Clear 17 1016 93 10000 4.1 80 22:40 15.04.2020
4814 Clear 17 1016 93 10000 4.1 80 22:21 15.04.2020
4815 Clear 17 1016 93 10000 3.1 50 21:58 15.04.2020
4816 Clear 17 1016 93 10000 3.1 50 21:40 15.04.2020
4817 Rain 17 1016 93 10000 3.1 50 21:22 15.04.2020
4818 Rain 18 1016 88 10000 3.6 80 20:57 15.04.2020
4819 Rain 19 1016 88 10000 3.6 80 20:39 15.04.2020
4820 Rain 19 1016 88 10000 3.6 80 20:20 15.04.2020
4821 Clouds 20 1015 77 10000 4.6 100 19:42 15.04.2020
4822 Clouds 20 1015 60 7000 2.6 190 19:20 15.04.2020
4823 Clouds 19 1015 72 10000 3.6 100 18:54 15.04.2020
4824 Clouds 19 1015 77 10000 2.6 110 18:36 15.04.2020
4825 Clouds 20 1015 77 10000 2.6 110 18:18 15.04.2020
4826 Clouds 19 1015 82 10000 3.1 90 17:40 15.04.2020
4827 Clouds 19 1015 68 10000 4.6 110 17:21 15.04.2020
4828 Rain 19 1015 72 10000 5.1 110 16:58 15.04.2020
4829 Rain 19 1015 72 10000 5.1 110 16:38 15.04.2020
4830 Rain 19 1015 72 10000 5.1 110 16:38 15.04.2020
4831 Clouds 19 1014 64 8000 5.7 200 16:20 15.04.2020
4832 Clouds 20 1014 64 8000 5.1 200 15:58 15.04.2020
4833 Clouds 20 1015 68 10000 3.1 140 15:39 15.04.2020
4834 Clouds 20 1014 60 8000 5.7 210 15:19 15.04.2020
4835 Clouds 20 1015 64 10000 4.1 190 14:58 15.04.2020
4836 Clouds 20 1014 72 10000 3.1 180 14:39 15.04.2020
4837 Clouds 20 1014 72 10000 3.1 180 14:21 15.04.2020
4838 Rain 19 1015 72 10000 3.1 160 13:58 15.04.2020
4839 Rain 19 1015 72 10000 3.1 160 13:38 15.04.2020
4840 Clouds 19 1014 72 8000 3.6 170 13:20 15.04.2020
4841 Clouds 19 1014 72 10000 3.1 180 12:54 15.04.2020
4842 Clouds 19 1014 82 10000 3.1 110 12:36 15.04.2020
4843 Clouds 18 1014 82 10000 3.1 110 12:18 15.04.2020
4844 Clouds 18 1013 77 10000 3.1 160 11:42 15.04.2020
4845 Clouds 18 1013 77 10000 3.1 160 11:24 15.04.2020
4846 Clouds 17 1013 82 10000 3.1 160 10:58 15.04.2020
4847 Clouds 16 1013 82 10000 3.1 160 10:36 15.04.2020
4848 Clouds 16 1013 82 10000 3.1 160 10:18 15.04.2020
4849 Rain 16 1013 82 2000 3.6 180 09:55 15.04.2020
4850 Rain 16 1012 88 5000 2.6 180 09:36 15.04.2020
4851 Rain 16 1012 88 5000 2.6 180 09:18 15.04.2020
4852 Rain 16 1012 93 10000 3.1 60 08:41 15.04.2020
4853 Rain 16 1012 93 10000 3.1 60 08:20 15.04.2020
4854 Clouds 16 1011 77 6000 2.6 160 07:54 15.04.2020
4855 Clouds 15 1011 82 10000 3.6 60 07:33 15.04.2020
4856 Rain 15 1011 93 10000 3.6 80 06:34 15.04.2020
4857 Clouds 15 1010 82 6000 3.1 150 05:51 15.04.2020
4858 Clouds 15 1010 82 6000 2.6 150 05:20 15.04.2020
4859 Rain 15 1010 87 10000 2.6 60 04:44 15.04.2020
4860 Rain 15 1011 87 4600 6.7 240 03:40 15.04.2020
4861 Rain 15 1011 87 4600 6.7 240 03:18 15.04.2020
4862 Rain 15 1011 87 6000 4.1 140 02:30 15.04.2020
4863 Rain 15 1010 88 10000 8.2 80 01:44 15.04.2020
4864 Rain 16 1010 88 10000 8.2 80 01:19 15.04.2020
4865 Rain 16 1011 88 10000 6.2 80 00:37 15.04.2020
4866 Clouds 16 1011 88 10000 6.2 80 00:18 15.04.2020
4867 Clouds 16 1009 77 10000 4.1 80 23:55 14.04.2020
4868 Clouds 16 1011 88 10000 5.7 80 23:36 14.04.2020
4869 Clouds 16 1011 88 10000 5.7 80 23:36 14.04.2020
4870 Clouds 16 1011 88 10000 5.7 80 23:18 14.04.2020
4871 Clouds 17 1010 77 10000 2.6 50 22:55 14.04.2020
4872 Clouds 17 1011 77 10000 5.7 90 22:36 14.04.2020
4873 Clouds 17 1011 77 10000 5.7 90 22:18 14.04.2020
4874 Clouds 17 1009 77 10000 2.6 90 21:55 14.04.2020
4875 Clouds 17 1010 77 10000 5.1 90 21:36 14.04.2020
4876 Clouds 18 1009 77 10000 3.1 100 21:18 14.04.2020
4877 Rain 18 1010 77 10000 3.6 80 20:40 14.04.2020
4878 Rain 18 1010 77 10000 3.6 80 20:22 14.04.2020
4879 Clouds 19 1009 72 10000 3.1 60 19:57 14.04.2020
4880 Rain 19 1010 72 10000 3.1 120 19:38 14.04.2020
4881 Rain 19 1010 72 10000 3.1 120 19:38 14.04.2020
4882 Clouds 20 1009 68 10000 3.1 50 19:20 14.04.2020
4883 Clouds 19 1010 72 10000 3.1 110 18:41 14.04.2020
4884 Clouds 19 1010 72 10000 3.1 110 18:22 14.04.2020
4885 Clouds 19 1010 72 10000 3.1 110 18:22 14.04.2020
4886 Clouds 20 1010 72 10000 3.1 80 17:59 14.04.2020
4887 Clouds 19 1010 72 10000 3.1 80 17:39 14.04.2020
4888 Clouds 19 1010 63 10000 3.6 250 17:21 14.04.2020
4889 Rain 19 1011 72 10000 3.6 90 16:58 14.04.2020
4890 Rain 19 1011 72 10000 3.6 90 16:39 14.04.2020
4891 Rain 19 1011 72 10000 3.6 90 16:21 14.04.2020
4892 Clouds 19 1011 77 10000 4.1 90 15:57 14.04.2020
4893 Clouds 19 1011 77 10000 4.1 90 15:38 14.04.2020
4894 Clouds 19 1011 72 10000 3.1 240 15:19 14.04.2020
4895 Clouds 19 1011 72 10000 3.1 250 14:57 14.04.2020
4896 Clouds 19 1011 77 10000 4.6 90 14:39 14.04.2020
4897 Clouds 19 1011 77 10000 4.6 90 14:21 14.04.2020
4898 Clouds 20 1012 77 10000 4.1 100 13:43 14.04.2020
4899 Clouds 20 1012 77 10000 4.1 100 13:24 14.04.2020
4900 Clouds 20 1012 82 10000 3.1 100 12:56 14.04.2020
4901 Clouds 19 1012 82 10000 3.1 100 12:38 14.04.2020
4902 Clouds 19 1012 82 10000 3.1 100 12:19 14.04.2020
4903 Clouds 18 1011 82 10000 2.1 90 11:41 14.04.2020
4904 Clouds 18 1011 82 10000 2.1 90 11:22 14.04.2020
4905 Clouds 17 1011 87 10000 1 130 10:56 14.04.2020
4906 Clouds 16 1011 87 10000 1 130 10:38 14.04.2020
4907 Rain 16 1010 77 10000 2.1 110 10:20 14.04.2020
4908 Clouds 14 1011 87 10000 1 100 09:42 14.04.2020
4909 Clouds 14 1011 87 10000 1 100 09:23 14.04.2020
4910 Clouds 13 1010 93 10000 1 270 08:56 14.04.2020
4911 Clouds 13 1010 93 10000 1 270 08:37 14.04.2020
4912 Rain 13 1010 87 10000 1 0 08:19 14.04.2020
4913 Rain 13 1010 93 10000 0.5 120 07:51 14.04.2020
4914 Rain 13 1010 93 10000 0.5 120 07:26 14.04.2020
4915 Clouds 14 1010 87 10000 1 260 06:45 14.04.2020
4916 Clouds 13 1010 87 10000 1 10 05:47 14.04.2020
4917 Clouds 15 1010 82 10000 0.5 250 03:38 14.04.2020
4918 Clouds 14 1011 82 10000 2.1 170 02:34 14.04.2020
4919 Clouds 14 1011 82 10000 0.5 200 01:27 14.04.2020
4920 Clouds 15 1011 82 10000 2.6 170 00:51 14.04.2020
4921 Clouds 15 1011 82 10000 1 20 00:24 14.04.2020
4922 Clouds 16 1010 82 10000 1.5 180 23:59 13.04.2020
4923 Clouds 16 1010 82 10000 1.5 180 23:37 13.04.2020
4924 Clouds 16 1010 82 10000 1.5 180 23:19 13.04.2020
4925 Clouds 16 1010 82 10000 1.5 190 22:54 13.04.2020
4926 Clouds 16 1010 72 10000 4.6 250 22:36 13.04.2020
4927 Clouds 17 1010 72 10000 4.6 250 22:18 13.04.2020
4928 Clouds 17 1009 72 10000 4.6 220 21:41 13.04.2020
4929 Rain 17 1009 72 10000 4.6 220 21:21 13.04.2020
4930 Rain 18 1009 68 10000 5.1 230 20:58 13.04.2020
4931 Rain 18 1009 68 10000 5.1 230 20:58 13.04.2020
4932 Rain 18 1009 68 10000 5.1 230 20:39 13.04.2020
4933 Rain 19 1009 68 10000 5.1 230 20:19 13.04.2020
4934 Rain 19 1008 68 10000 6.7 220 19:58 13.04.2020
4935 Rain 19 1008 68 10000 6.7 220 19:37 13.04.2020
4936 Rain 19 1008 68 10000 6.7 220 19:18 13.04.2020
4937 Clouds 19 1008 68 10000 5.1 240 18:56 13.04.2020
4938 Clouds 19 1008 68 10000 5.1 240 18:37 13.04.2020
4939 Clouds 19 1008 68 10000 5.1 240 18:18 13.04.2020
4940 Clouds 19 1008 68 10000 5.7 230 17:56 13.04.2020
4941 Clouds 19 1008 68 10000 5.7 230 17:36 13.04.2020
4942 Clouds 19 1008 72 10000 3.1 230 17:18 13.04.2020
4943 -273 0 0 0 0 0 16:56 13.04.2020
4944 Clouds 18 1009 93 10000 1 210 16:37 13.04.2020
4945 Clouds 18 1009 93 10000 1 210 16:18 13.04.2020
4946 Clouds 18 1009 93 10000 1 210 16:18 13.04.2020
4947 Clouds 18 1009 93 10000 1 90 15:45 13.04.2020
4948 Rain 18 1009 87 7000 1.5 70 15:27 13.04.2020
4949 Rain 19 1009 87 4000 1 100 14:57 13.04.2020
4950 Rain 18 1009 87 4000 1 100 14:39 13.04.2020
4951 Clouds 18 1009 82 10000 5.1 240 14:21 13.04.2020
4952 Clouds 19 1009 93 10000 1 100 13:56 13.04.2020
4953 Clouds 18 1009 93 10000 1 100 13:38 13.04.2020
4954 Clouds 18 1009 88 10000 2.6 250 13:19 13.04.2020
4955 Haze 17 1009 93 8000 2.1 90 12:58 13.04.2020
4956 Haze 17 1009 93 8000 2.1 90 12:39 13.04.2020
4957 Drizzle 16 1009 93 7000 1.5 80 12:19 13.04.2020
4958 Drizzle 16 1009 93 7000 1.5 80 12:19 13.04.2020
4959 Rain 16 1009 93 8000 1 290 11:44 13.04.2020
4960 Rain 16 1009 100 8000 3.6 200 11:19 13.04.2020
4961 Rain 16 1009 100 8000 3.6 200 11:19 13.04.2020
4962 Rain 15 1009 93 3800 0.5 30 10:57 13.04.2020
4963 Rain 15 1009 93 3800 0.5 30 10:39 13.04.2020
4964 Clouds 15 1009 100 8000 2.1 180 10:20 13.04.2020
4965 Haze 15 1009 87 9000 1.5 250 09:58 13.04.2020
4966 Haze 15 1009 87 9000 1.5 250 09:39 13.04.2020
4967 Haze 15 1009 93 8000 1.5 130 09:21 13.04.2020
4968 Clouds 15 1009 87 10000 0.5 320 08:45 13.04.2020
4969 Clouds 15 1009 100 6000 1 0 08:26 13.04.2020
4970 Clouds 16 1009 82 10000 1.5 230 07:44 13.04.2020
4971 Clouds 16 1009 82 10000 1.5 230 07:26 13.04.2020
4972 Rain 15 1009 100 4000 0.5 0 06:55 13.04.2020
4973 Rain 15 1010 87 10000 1 290 06:33 13.04.2020
4974 Rain 15 1010 87 10000 1 260 05:40 13.04.2020
4975 Rain 15 1010 100 3000 1.5 80 05:19 13.04.2020
4976 Rain 15 1010 87 10000 2.6 270 04:31 13.04.2020
4977 Rain 15 1010 100 4000 2.1 90 03:53 13.04.2020
4978 Rain 16 1011 77 10000 1.5 310 03:33 13.04.2020
4979 Rain 16 1012 82 10000 1 320 02:39 13.04.2020
4980 Rain 16 1012 82 10000 1 50 01:45 13.04.2020
4981 Rain 16 1012 82 10000 1 50 01:27 13.04.2020
4982 Rain 16 1013 77 10000 1 100 00:44 13.04.2020
4983 Rain 16 1013 77 10000 1 100 00:23 13.04.2020
4984 Rain 16 1013 77 10000 2.6 90 23:49 12.04.2020
4985 Clouds 16 1012 87 10000 2.6 100 23:26 12.04.2020
4986 Clouds 16 1012 77 10000 2.6 80 22:59 12.04.2020
4987 Clouds 16 1012 77 10000 2.6 80 22:38 12.04.2020
4988 Clouds 16 1011 82 10000 3.6 100 22:19 12.04.2020
4989 Clouds 16 1012 82 10000 3.1 60 21:55 12.04.2020
4990 Clouds 16 1012 82 10000 3.1 60 21:36 12.04.2020
4991 Clouds 16 1012 77 10000 3.6 60 21:18 12.04.2020
4992 Haze 16 1013 87 8000 4.6 70 20:41 12.04.2020
4993 Haze 16 1013 82 8000 5.1 90 20:23 12.04.2020
4994 Drizzle 16 1013 87 5000 5.1 80 19:57 12.04.2020
4995 Drizzle 16 1013 87 5000 5.1 80 19:38 12.04.2020
4996 Drizzle 16 1013 87 5000 5.1 80 19:19 12.04.2020
4997 Haze 16 1013 87 7000 5.1 60 18:41 12.04.2020
4998 Haze 18 1013 87 7000 5.1 60 18:23 12.04.2020
4999 Rain 18 1014 82 8000 6.7 90 17:59 12.04.2020
5000 Rain 18 1014 82 8000 6.7 90 17:41 12.04.2020
5001 Rain 18 1014 82 8000 6.7 90 17:23 12.04.2020
5002 Haze 18 1014 87 7000 9.8 90 16:58 12.04.2020
5003 Haze 18 1014 87 7000 9.8 90 16:39 12.04.2020
5004 Clouds 18 1013 72 10000 7.7 80 16:20 12.04.2020
5005 Rain 18 1015 87 6000 9.3 100 15:48 12.04.2020
5006 Haze 18 1015 77 8000 7.2 90 15:29 12.04.2020
5007 Clouds 18 1013 77 10000 7.7 80 14:54 12.04.2020
5008 Haze 18 1015 77 8000 10.3 90 14:36 12.04.2020
5009 Haze 19 1015 77 8000 10.3 90 14:18 12.04.2020
5010 Haze 19 1015 77 8000 10.3 90 14:18 12.04.2020
5011 Rain 18 1016 87 10000 7.7 80 13:42 12.04.2020
5012 Rain 18 1016 87 10000 7.7 80 13:23 12.04.2020
5013 Clouds 18 1014 68 10000 8.7 80 12:55 12.04.2020
5014 Clouds 18 1016 87 10000 8.2 110 12:37 12.04.2020
5015 Clouds 17 1016 87 10000 8.2 110 12:18 12.04.2020
5016 Clouds 17 1016 87 10000 7.7 90 11:42 12.04.2020
5017 Clouds 17 1016 87 10000 7.7 90 11:22 12.04.2020
5018 Clouds 16 1016 82 10000 8.2 90 10:58 12.04.2020
5019 Clouds 16 1016 82 10000 8.2 90 10:40 12.04.2020
5020 Clouds 16 1016 82 10000 8.2 90 10:21 12.04.2020
5021 Rain 16 1016 82 10000 9.8 90 10:00 12.04.2020
5022 Rain 16 1016 82 10000 9.8 90 10:00 12.04.2020
5023 Rain 16 1016 82 10000 9.8 90 09:39 12.04.2020
5024 Clouds 16 1016 82 10000 9.8 90 09:21 12.04.2020
5025 Clouds 15 1013 82 10000 7.7 80 08:52 12.04.2020
5026 Clouds 15 1016 87 10000 7.7 90 08:33 12.04.2020
5027 Clouds 15 1016 82 10000 8.7 80 07:58 12.04.2020
5028 Clouds 15 1016 82 10000 8.7 80 07:40 12.04.2020
5029 Clouds 16 1016 82 10000 8.7 80 07:18 12.04.2020
5030 Clouds 16 1016 82 10000 11.3 90 06:33 12.04.2020
5031 Clouds 16 1014 82 10000 8.2 90 05:50 12.04.2020
5032 Clouds 16 1014 82 10000 7.7 90 05:28 12.04.2020
5033 Clouds 16 1017 87 10000 9.8 70 03:38 12.04.2020
5034 Clouds 16 1018 87 10000 9.8 70 02:57 12.04.2020
5035 Clouds 16 1018 87 10000 9.8 70 02:34 12.04.2020
5036 Clouds 16 1018 87 10000 9.3 80 01:34 12.04.2020
5037 Clouds 16 1018 87 10000 9.8 80 00:57 12.04.2020
5038 Clouds 16 1018 87 10000 9.8 80 00:39 12.04.2020
5039 Clouds 16 1015 72 10000 9.3 80 00:19 12.04.2020
5040 Clouds 17 1018 82 10000 10.3 90 23:46 11.04.2020
5041 Clouds 17 1018 82 10000 10.3 90 23:24 11.04.2020
5042 Clouds 17 1018 82 10000 9.3 90 22:41 11.04.2020
5043 Clouds 17 1018 82 10000 9.3 90 22:22 11.04.2020
5044 Clouds 17 1017 77 10000 10.8 90 21:57 11.04.2020
5045 Clouds 17 1017 77 10000 10.8 90 21:37 11.04.2020
5046 Clouds 17 1017 77 10000 10.8 90 21:37 11.04.2020
5047 Clouds 17 1014 72 10000 11.3 80 21:19 11.04.2020
5048 Clouds 17 1018 77 10000 10.3 80 20:58 11.04.2020
5049 Clouds 17 1018 77 10000 10.3 80 20:39 11.04.2020
5050 Clouds 17 1018 77 10000 10.3 80 20:20 11.04.2020
5051 Clouds 17 1018 77 10000 10.3 80 20:20 11.04.2020
5052 Clouds 17 1018 77 10000 9.8 80 19:58 11.04.2020
5053 Clouds 18 1018 77 10000 9.8 80 19:39 11.04.2020
5054 Clouds 18 1018 77 10000 9.8 80 19:19 11.04.2020
5055 Clouds 18 1018 77 10000 8.2 80 18:56 11.04.2020
5056 Clouds 18 1018 77 10000 8.2 80 18:38 11.04.2020
5057 Clouds 18 1018 77 10000 8.2 80 18:20 11.04.2020
5058 Clouds 18 1018 77 10000 8.7 80 17:58 11.04.2020
5059 Clouds 19 1018 77 10000 8.7 80 17:40 11.04.2020
5060 Clouds 19 1015 60 10000 12.3 80 17:20 11.04.2020
5061 Clouds 19 1015 60 10000 11.3 80 16:55 11.04.2020
5062 Clouds 19 1018 72 10000 8.2 80 16:37 11.04.2020
5063 Clouds 20 1015 53 10000 10.3 80 16:18 11.04.2020
5064 Clouds 19 1019 77 10000 8.7 90 15:37 11.04.2020
5065 Clouds 20 1015 56 10000 10.8 80 15:19 11.04.2020
5066 Clouds 20 1020 72 10000 7.7 80 14:42 11.04.2020
5067 Clouds 20 1020 72 10000 7.7 80 14:24 11.04.2020
5068 Clouds 20 1020 72 10000 8.2 80 13:59 11.04.2020
5069 Clouds 20 1020 72 10000 8.2 80 13:39 11.04.2020
5070 Clouds 20 1020 72 10000 8.2 80 13:19 11.04.2020
5071 Clouds 19 1020 77 10000 7.7 80 12:42 11.04.2020
5072 Clouds 19 1020 77 10000 7.7 80 12:42 11.04.2020
5073 Clouds 19 1017 56 10000 10.3 80 12:20 11.04.2020
5074 Clouds 18 1020 77 10000 8.2 80 11:57 11.04.2020
5075 Clouds 17 1020 77 10000 8.2 80 11:39 11.04.2020
5076 Clouds 17 1017 59 10000 9.3 80 11:19 11.04.2020
5077 Clouds 17 1020 82 10000 8.2 80 10:43 11.04.2020
5078 Clouds 17 1020 77 10000 8.7 90 10:22 11.04.2020
5079 Clouds 16 1020 82 10000 9.3 80 09:59 11.04.2020
5080 Clouds 16 1020 82 10000 9.3 80 09:39 11.04.2020
5081 Clouds 16 1017 67 10000 9.3 80 09:21 11.04.2020
5082 Clouds 16 1017 67 10000 9.3 80 08:49 11.04.2020
5083 Clouds 15 1020 82 10000 9.3 90 08:28 11.04.2020
5084 Clouds 15 1020 82 10000 9.3 90 08:28 11.04.2020
5085 Clouds 16 1017 63 10000 9.3 80 07:53 11.04.2020
5086 Clouds 16 1020 82 10000 8.2 90 07:34 11.04.2020
5087 Clouds 16 1017 63 10000 8.2 80 06:51 11.04.2020
5088 Clouds 16 1017 63 10000 8.7 70 06:20 11.04.2020
5089 Clouds 16 1017 63 10000 8.2 70 05:55 11.04.2020
5090 Clouds 16 1021 82 10000 7.7 70 03:42 11.04.2020
5091 Clouds 16 1021 82 10000 7.2 70 02:37 11.04.2020
5092 Clouds 16 1021 77 10000 7.2 70 01:25 11.04.2020
5093 Clouds 16 1022 77 10000 7.7 80 00:44 11.04.2020
5094 Clear 16 1019 72 10000 8.2 80 00:20 11.04.2020
5095 Clear 16 1022 77 10000 7.7 80 23:58 10.04.2020
5096 Clear 17 1022 77 10000 7.7 80 23:40 10.04.2020
5097 Clear 17 1022 77 10000 7.7 80 23:19 10.04.2020
5098 Clear 17 1021 77 10000 7.7 70 22:44 10.04.2020
5099 Clear 17 1021 77 10000 7.7 70 22:23 10.04.2020
5100 Clear 17 1021 77 10000 7.7 80 21:59 10.04.2020
5101 Clear 18 1021 77 10000 7.7 80 21:41 10.04.2020
5102 Clear 17 1018 63 10000 8.7 70 21:20 10.04.2020
5103 Clear 18 1017 63 10000 9.8 70 20:55 10.04.2020
5104 Clear 18 1020 72 10000 7.7 90 20:37 10.04.2020
5105 Clear 18 1020 72 10000 7.7 90 20:18 10.04.2020
5106 Clouds 19 1020 72 10000 8.2 80 19:41 10.04.2020
5107 Clouds 19 1020 72 10000 6.2 80 19:22 10.04.2020
5108 Clouds 20 1021 72 10000 5.7 90 18:58 10.04.2020
5109 Clouds 20 1021 72 10000 5.7 90 18:40 10.04.2020
5110 Clouds 20 1021 68 10000 6.2 90 18:22 10.04.2020
5111 Clouds 20 1021 77 10000 5.7 100 17:59 10.04.2020
5112 Clouds 20 1021 77 10000 5.7 100 17:40 10.04.2020
5113 Clouds 20 1021 68 10000 6.7 90 17:21 10.04.2020
5114 Clouds 20 1021 72 10000 6.7 90 16:59 10.04.2020
5115 Clouds 20 1021 72 10000 6.7 90 16:41 10.04.2020
5116 Clouds 20 1021 68 10000 6.7 90 16:21 10.04.2020
5117 Clouds 20 1021 72 10000 5.7 80 15:57 10.04.2020
5118 Clouds 20 1021 72 10000 5.7 80 15:38 10.04.2020
5119 Clouds 20 1019 68 10000 7.2 30 15:19 10.04.2020
5120 Clouds 20 1021 72 10000 5.1 70 14:58 10.04.2020
5121 Clouds 20 1021 72 10000 5.1 70 14:39 10.04.2020
5122 Clouds 20 1019 64 10000 6.7 30 14:19 10.04.2020
5123 Clouds 19 1022 77 10000 5.1 80 13:43 10.04.2020
5124 Clouds 19 1022 72 10000 5.7 70 13:22 10.04.2020
5125 Clouds 19 1022 72 10000 4.6 60 12:44 10.04.2020
5126 Clouds 18 1022 72 10000 4.6 60 12:24 10.04.2020
5127 Clouds 18 1022 72 10000 3.6 50 11:58 10.04.2020
5128 Clouds 18 1022 72 10000 3.6 50 11:40 10.04.2020
5129 Clouds 17 1021 77 10000 3.6 40 11:22 10.04.2020
5130 Clouds 17 1021 72 10000 4.1 40 10:47 10.04.2020
5131 Clouds 17 1021 72 10000 4.1 40 10:47 10.04.2020
5132 Clouds 17 1021 72 10000 4.1 40 10:47 10.04.2020
5133 Clouds 16 1021 77 10000 3.6 30 10:24 10.04.2020
5134 Clouds 16 1021 82 10000 4.1 20 09:59 10.04.2020
5135 Clouds 16 1021 82 10000 4.1 20 09:40 10.04.2020
5136 Clouds 15 1020 93 10000 1.5 60 09:20 10.04.2020
5137 Clouds 14 1021 87 10000 1 290 08:44 10.04.2020
5138 Clouds 14 1021 82 10000 1 290 08:24 10.04.2020
5139 Clouds 14 1020 82 10000 1 20 07:47 10.04.2020
5140 Clouds 14 1020 82 10000 1 20 07:27 10.04.2020
5141 Clouds 14 1019 93 10000 2.6 50 06:52 10.04.2020
5142 Clouds 14 1020 87 10000 3.1 30 06:29 10.04.2020
5143 Clouds 15 1020 87 10000 4.1 40 05:43 10.04.2020
5144 Clouds 15 1020 87 10000 4.1 40 05:18 10.04.2020
5145 Clouds 15 1019 93 10000 3.6 90 03:53 10.04.2020
5146 Clouds 15 1019 93 10000 3.1 100 03:32 10.04.2020
5147 Clouds 16 1019 87 10000 3.6 70 02:49 10.04.2020
5148 Clouds 16 1021 87 10000 4.6 80 02:31 10.04.2020
5149 Clouds 16 1021 87 10000 5.1 80 01:30 10.04.2020
5150 Clouds 16 1020 82 10000 3.1 80 00:53 10.04.2020
5151 Clouds 16 1021 87 10000 6.7 80 00:26 10.04.2020
5152 Clouds 16 1021 87 10000 6.7 90 23:57 09.04.2020
5153 Clouds 16 1021 87 10000 6.7 90 23:38 09.04.2020
5154 Clouds 16 1021 87 10000 6.7 90 23:38 09.04.2020
5155 Clouds 16 1019 87 10000 4.1 90 23:20 09.04.2020
5156 Clouds 16 1021 87 10000 6.7 80 22:42 09.04.2020
5157 Clouds 16 1021 87 10000 6.7 80 22:24 09.04.2020
5158 Clouds 16 1020 87 10000 7.2 80 21:59 09.04.2020
5159 Clouds 16 1020 87 10000 7.2 80 21:37 09.04.2020
5160 Clouds 16 1018 77 10000 6.2 80 21:19 09.04.2020
5161 Clouds 16 1018 77 10000 6.2 80 21:19 09.04.2020
5162 Clouds 17 1020 82 10000 7.7 80 20:44 09.04.2020
5163 Clouds 17 1020 82 10000 7.7 80 20:21 09.04.2020
5164 Clouds 17 1020 82 10000 8.2 80 19:58 09.04.2020
5165 Clouds 17 1020 82 10000 8.2 80 19:37 09.04.2020
5166 Clouds 18 1020 82 10000 8.2 80 19:18 09.04.2020
5167 Clouds 18 1020 82 10000 8.2 80 19:18 09.04.2020
5168 Clouds 18 1020 82 10000 7.2 70 18:41 09.04.2020
5169 Rain 18 1018 68 10000 6.7 60 18:20 09.04.2020
5170 Rain 17 1020 88 8000 5.7 70 17:41 09.04.2020
5171 Rain 17 1020 88 8000 5.7 70 17:23 09.04.2020
5172 Rain 18 1020 82 8000 5.7 80 16:56 09.04.2020
5173 Rain 18 1020 82 8000 5.7 80 16:38 09.04.2020
5174 Rain 18 1020 82 8000 5.7 80 16:38 09.04.2020
5175 Clouds 18 1020 82 10000 6.2 80 16:18 09.04.2020
5176 Clouds 18 1020 88 10000 6.7 70 15:55 09.04.2020
5177 Clouds 18 1020 88 10000 6.7 70 15:36 09.04.2020
5178 Clouds 18 1020 77 10000 6.2 80 15:18 09.04.2020
5179 Clouds 17 1020 88 10000 6.2 80 14:40 09.04.2020
5180 Clouds 17 1020 82 10000 6.2 70 14:21 09.04.2020
5181 Clouds 17 1020 82 10000 6.7 70 13:44 09.04.2020
5182 Clouds 17 1020 82 10000 6.7 70 13:44 09.04.2020
5183 Clouds 17 1021 88 10000 6.2 80 13:26 09.04.2020
5184 Clouds 17 1021 82 10000 6.2 80 12:59 09.04.2020
5185 Clouds 17 1021 82 10000 6.2 80 12:41 09.04.2020
5186 Clouds 17 1021 82 10000 6.7 80 12:21 09.04.2020
5187 Clouds 17 1021 82 10000 5.1 80 11:58 09.04.2020
5188 Clouds 17 1021 82 10000 5.1 80 11:38 09.04.2020
5189 Rain 17 1019 82 6000 5.7 80 11:20 09.04.2020
5190 Clouds 17 1020 82 10000 6.2 80 10:56 09.04.2020
5191 Clouds 17 1020 82 10000 6.2 80 10:37 09.04.2020
5192 Clouds 17 1020 82 10000 7.2 80 10:18 09.04.2020
5193 Clouds 16 1020 87 10000 7.2 80 09:40 09.04.2020
5194 Clouds 16 1019 87 10000 7.2 80 09:21 09.04.2020
5195 Clouds 16 1019 87 10000 7.2 80 08:59 09.04.2020
5196 Clouds 16 1019 87 10000 7.2 80 08:40 09.04.2020
5197 Clouds 16 1019 87 10000 7.2 80 08:22 09.04.2020
5198 Clouds 16 1016 82 10000 7.7 80 07:50 09.04.2020
5199 Clouds 16 1019 87 10000 7.2 80 07:22 09.04.2020
5200 Clouds 16 1019 87 10000 9.3 80 06:48 09.04.2020
5201 Clouds 16 1019 87 10000 8.7 80 05:49 09.04.2020
5202 Clouds 16 1019 87 10000 8.7 80 05:49 09.04.2020
5203 Clouds 16 1019 87 10000 8.7 80 05:26 09.04.2020
5204 Clouds 16 1021 87 10000 10.3 80 02:37 09.04.2020
5205 Clouds 16 1018 82 10000 7.7 80 01:57 09.04.2020
5206 Clouds 16 1021 87 10000 9.8 80 01:39 09.04.2020
5207 Clouds 16 1021 87 10000 9.8 80 01:19 09.04.2020
5208 Clouds 16 1021 87 10000 9.3 90 00:38 09.04.2020
5209 Clouds 16 1021 87 10000 9.3 90 00:18 09.04.2020
5210 Clouds 16 1021 82 10000 9.8 90 23:42 08.04.2020
5211 Clouds 16 1021 82 10000 9.8 90 23:24 08.04.2020
5212 Clouds 16 1021 82 10000 10.8 90 22:56 08.04.2020
5213 Clouds 16 1021 82 10000 10.8 90 22:38 08.04.2020
5214 Clouds 17 1021 82 10000 10.8 90 22:19 08.04.2020
5215 Clouds 17 1017 72 10000 9.3 80 21:55 08.04.2020
5216 Clouds 17 1021 82 10000 9.3 90 21:37 08.04.2020
5217 Clouds 17 1018 72 10000 8.7 80 21:18 08.04.2020
5218 Clouds 17 1021 77 10000 9.3 90 20:41 08.04.2020
5219 Clouds 17 1021 77 10000 9.3 90 20:21 08.04.2020
5220 Clouds 17 1021 77 10000 9.3 90 20:21 08.04.2020
5221 Clouds 17 1020 77 10000 8.2 80 19:59 08.04.2020
5222 Clouds 17 1020 77 10000 8.2 80 19:40 08.04.2020
5223 Clouds 18 1017 68 10000 9.3 80 19:21 08.04.2020
5224 Haze 18 1020 77 8000 7.2 80 18:45 08.04.2020
5225 Haze 19 1020 77 8000 7.2 80 18:27 08.04.2020
5226 Clouds 19 1021 72 10000 7.2 80 17:57 08.04.2020
5227 Clouds 19 1021 72 10000 7.2 80 17:39 08.04.2020
5228 Clouds 19 1018 64 10000 10.8 80 17:20 08.04.2020
5229 Clouds 19 1022 72 10000 8.2 80 16:56 08.04.2020
5230 Clouds 19 1022 72 10000 8.2 80 16:37 08.04.2020
5231 Clouds 19 1022 72 10000 8.2 80 16:19 08.04.2020
5232 Clouds 19 1022 72 10000 8.2 80 15:38 08.04.2020
5233 Clouds 19 1022 72 10000 8.7 90 15:20 08.04.2020
5234 Clouds 19 1022 72 10000 8.7 90 14:55 08.04.2020
5235 Clouds 19 1022 72 10000 8.7 90 14:55 08.04.2020
5236 Clouds 19 1022 72 10000 9.3 90 14:37 08.04.2020
5237 Clouds 19 1019 68 10000 9.3 80 14:19 08.04.2020
5238 Clouds 19 1023 72 10000 9.3 90 13:44 08.04.2020
5239 Clouds 19 1023 72 10000 9.3 90 13:21 08.04.2020
5240 Clouds 18 1023 77 10000 8.7 80 12:43 08.04.2020
5241 Clouds 17 1023 77 10000 8.7 80 12:19 08.04.2020
5242 Clouds 17 1023 77 10000 8.7 80 12:19 08.04.2020
5243 Clouds 17 1023 77 10000 11.8 80 11:59 08.04.2020
5244 Clouds 16 1023 77 10000 11.8 80 11:41 08.04.2020
5245 Clouds 17 1023 77 10000 9.3 80 11:22 08.04.2020
5246 Clouds 16 1022 82 10000 9.3 80 10:57 08.04.2020
5247 Clouds 16 1022 82 10000 9.3 80 10:39 08.04.2020
5248 Clouds 16 1020 77 10000 8.7 80 10:20 08.04.2020
5249 Clouds 16 1022 82 10000 9.3 80 09:56 08.04.2020
5250 Clouds 16 1022 82 10000 9.3 80 09:38 08.04.2020
5251 Clouds 16 1019 82 10000 8.7 80 09:18 08.04.2020
5252 Clouds 15 1022 77 10000 8.7 80 08:42 08.04.2020
5253 Clouds 15 1022 77 10000 8.7 80 08:23 08.04.2020
5254 Clouds 15 1022 77 10000 8.7 80 08:23 08.04.2020
5255 Clouds 16 1022 82 10000 8.7 80 07:47 08.04.2020
5256 Clouds 16 1022 82 10000 8.7 80 07:28 08.04.2020
5257 Clouds 16 1022 82 10000 11.3 80 06:59 08.04.2020
5258 Clouds 16 1022 82 10000 11.3 80 06:19 08.04.2020
5259 Clouds 16 1020 82 10000 10.3 80 04:19 08.04.2020
5260 Clouds 16 1021 82 10000 9.3 80 02:49 08.04.2020
5261 Clouds 16 1021 82 10000 8.2 80 02:20 08.04.2020
5262 Clouds 16 1024 82 10000 9.3 90 01:45 08.04.2020
5263 Clouds 16 1024 82 10000 9.3 90 01:23 08.04.2020
5264 Clouds 16 1024 82 10000 9.8 90 00:41 08.04.2020
5265 Clouds 16 1024 82 10000 9.8 90 00:21 08.04.2020
5266 Clouds 16 1024 82 10000 8.7 100 23:39 07.04.2020
5267 Clouds 16 1021 77 10000 8.7 80 23:20 07.04.2020
5268 Clouds 16 1024 82 10000 8.2 100 22:57 07.04.2020
5269 Clouds 16 1024 82 10000 8.2 100 22:57 07.04.2020
5270 Clouds 16 1024 82 10000 8.2 100 22:39 07.04.2020
5271 Clouds 16 1021 77 10000 7.2 80 22:19 07.04.2020
5272 Clouds 17 1020 77 10000 7.2 80 21:56 07.04.2020
5273 Clouds 17 1020 77 10000 7.2 80 21:56 07.04.2020
5274 Clouds 17 1023 82 10000 7.7 100 21:38 07.04.2020
5275 Clouds 17 1020 77 10000 7.2 70 21:19 07.04.2020
5276 Clouds 17 1020 68 10000 8.2 70 20:55 07.04.2020
5277 Clouds 17 1023 77 10000 8.2 90 20:37 07.04.2020
5278 Clouds 18 1023 77 10000 8.2 90 20:18 07.04.2020
5279 Clouds 18 1023 72 10000 7.2 90 19:56 07.04.2020
5280 Clouds 18 1023 72 10000 7.2 90 19:36 07.04.2020
5281 Clouds 19 1023 72 10000 7.2 90 19:18 07.04.2020
5282 Clouds 19 1023 77 10000 7.7 90 18:42 07.04.2020
5283 Clouds 20 1020 64 10000 7.2 90 18:21 07.04.2020
5284 Clouds 19 1023 72 10000 5.7 90 17:59 07.04.2020
5285 Clouds 19 1023 72 10000 5.7 90 17:40 07.04.2020
5286 Clouds 20 1021 64 10000 6.2 90 17:20 07.04.2020
5287 Clouds 20 1024 68 10000 6.2 90 16:45 07.04.2020
5288 Clouds 20 1021 60 10000 6.7 80 16:26 07.04.2020
5289 Clouds 20 1024 68 10000 6.2 90 15:46 07.04.2020
5290 Clouds 20 1024 68 10000 6.2 90 15:46 07.04.2020
5291 Clouds 20 1024 68 10000 6.2 90 15:27 07.04.2020
5292 Clouds 19 1025 72 10000 6.7 80 14:57 07.04.2020
5293 Clouds 19 1025 72 10000 6.7 80 14:38 07.04.2020
5294 Clouds 19 1022 64 10000 5.7 80 14:20 07.04.2020
5295 Clouds 19 1025 72 10000 5.7 80 13:43 07.04.2020
5296 Clouds 19 1025 72 10000 5.7 80 13:20 07.04.2020
5297 Clouds 19 1025 72 10000 7.2 90 12:58 07.04.2020
5298 Clouds 18 1025 72 10000 7.2 90 12:39 07.04.2020
5299 Clouds 18 1025 72 10000 7.2 90 12:21 07.04.2020
5300 Clouds 18 1024 77 10000 6.2 80 11:58 07.04.2020
5301 Clouds 17 1024 77 10000 6.2 80 11:40 07.04.2020
5302 Clouds 17 1022 77 10000 5.1 80 11:19 07.04.2020
5303 Clouds 16 1024 82 10000 6.7 90 10:39 07.04.2020
5304 Clouds 16 1022 82 10000 5.1 80 10:21 07.04.2020
5305 Clouds 16 1023 82 10000 7.2 90 09:56 07.04.2020
5306 Clouds 16 1023 82 10000 7.2 90 09:38 07.04.2020
5307 Clouds 15 1023 82 10000 7.2 90 09:18 07.04.2020
5308 Clouds 15 1023 82 10000 6.2 90 08:40 07.04.2020
5309 Clouds 15 1023 82 10000 6.2 90 08:21 07.04.2020
5310 Clouds 15 1023 82 10000 7.7 90 07:47 07.04.2020
5311 Clouds 15 1023 82 10000 7.7 90 07:26 07.04.2020
5312 Clouds 15 1023 82 10000 6.7 100 06:53 07.04.2020
5313 Clouds 15 1023 82 10000 6.7 100 06:27 07.04.2020
5314 Clouds 15 1021 93 10000 4.6 80 05:59 07.04.2020
5315 Clouds 15 1023 82 10000 6.2 90 05:26 07.04.2020
5316 Clouds 15 1023 87 10000 6.2 90 04:22 07.04.2020
5317 Clouds 15 1022 93 10000 2.1 70 03:23 07.04.2020
5318 Clouds 15 1023 87 10000 5.7 90 02:46 07.04.2020
5319 Clouds 15 1024 82 10000 4.1 70 01:40 07.04.2020
5320 Clouds 15 1024 82 10000 4.1 70 01:21 07.04.2020
5321 Clouds 15 1024 82 10000 3.6 60 00:26 07.04.2020
5322 Clouds 16 1024 87 10000 3.6 90 23:43 06.04.2020
5323 Clouds 16 1024 87 10000 3.6 90 23:22 06.04.2020
5324 Clouds 16 1024 87 10000 3.6 90 23:22 06.04.2020
5325 Clouds 16 1022 93 10000 3.1 80 22:55 06.04.2020
5326 Clouds 16 1023 82 10000 4.1 90 22:36 06.04.2020
5327 Clouds 16 1023 82 10000 4.1 90 22:18 06.04.2020
5328 Clouds 17 1022 82 10000 4.1 110 21:43 06.04.2020
5329 Clouds 17 1021 77 10000 3.6 90 21:20 06.04.2020
5330 Clouds 18 1022 77 10000 5.7 110 20:58 06.04.2020
5331 Clouds 18 1022 77 10000 5.7 110 20:58 06.04.2020
5332 Clouds 18 1022 77 10000 5.7 110 20:40 06.04.2020
5333 Clouds 19 1022 77 10000 5.7 110 20:21 06.04.2020
5334 Clouds 19 1021 77 10000 3.6 30 19:58 06.04.2020
5335 Clouds 19 1022 77 10000 5.1 110 19:39 06.04.2020
5336 Clouds 19 1022 77 10000 5.1 110 19:20 06.04.2020
5337 Clouds 20 1022 72 10000 5.7 100 18:43 06.04.2020
5338 Clouds 20 1022 72 10000 5.7 100 18:24 06.04.2020
5339 Clouds 19 1023 72 10000 4.6 90 17:58 06.04.2020
5340 Clouds 20 1023 72 10000 4.6 90 17:39 06.04.2020
5341 Clouds 20 1023 72 10000 4.6 90 17:18 06.04.2020
5342 Clouds 20 1021 77 10000 2.1 30 16:49 06.04.2020
5343 Clouds 20 1023 72 10000 4.1 90 16:30 06.04.2020
5344 Clouds 19 1023 77 10000 4.6 80 14:57 06.04.2020
5345 Clouds 19 1023 77 10000 4.6 80 14:57 06.04.2020
5346 Clouds 19 1023 77 10000 4.6 80 14:57 06.04.2020
5347 Clouds 19 1023 77 10000 4.6 80 14:57 06.04.2020
5348 Clouds 19 1023 77 10000 4.6 80 14:57 06.04.2020
5349 Clouds 20 1024 77 10000 5.1 90 13:45 06.04.2020
5350 Clouds 20 1024 77 10000 5.1 90 13:22 06.04.2020
5351 Clouds 19 1023 77 10000 5.7 90 12:46 06.04.2020
5352 Clouds 18 1023 77 10000 5.7 90 12:20 06.04.2020
5353 Clouds 17 1022 82 10000 4.6 100 11:40 06.04.2020
5354 Clouds 16 1023 77 10000 5.1 80 11:19 06.04.2020
5355 Clouds 16 1021 88 10000 3.6 100 10:42 06.04.2020
5356 Clouds 16 1021 88 10000 3.6 100 10:42 06.04.2020
5357 Clouds 16 1021 88 10000 3.6 100 10:41 06.04.2020
5358 Clouds 16 1021 88 10000 3.6 100 10:41 06.04.2020
5359 Clouds 16 1021 88 10000 3.6 100 10:41 06.04.2020
5360 Clouds 16 1022 82 10000 5.1 80 10:20 06.04.2020
5361 Clouds 16 1022 82 10000 5.1 80 10:20 06.04.2020
5362 Clouds 16 1022 82 10000 5.1 80 10:20 06.04.2020
5363 Clouds 16 1022 82 10000 5.1 80 10:20 06.04.2020
5364 Clouds 16 1022 82 10000 5.1 80 10:20 06.04.2020
5365 Clouds 16 1020 93 10000 3.6 80 09:40 06.04.2020
5366 Clouds 16 1020 93 10000 3.6 80 09:40 06.04.2020
5367 Clouds 16 1022 82 10000 4.6 80 09:20 06.04.2020
5368 Clouds 16 1020 93 10000 3.1 90 08:44 06.04.2020
5369 Clouds 16 1020 93 10000 3.1 90 08:44 06.04.2020
5370 Clouds 16 1020 93 10000 3.1 90 08:44 06.04.2020
5371 Clouds 16 1020 93 10000 3.1 90 08:44 06.04.2020
5372 Clouds 16 1020 93 10000 3.1 90 08:44 06.04.2020
5373 Clouds 16 1021 82 10000 5.1 80 08:23 06.04.2020
5374 Clouds 16 1020 82 10000 5.7 80 07:23 06.04.2020
5375 Clouds 16 1020 82 10000 5.7 80 07:23 06.04.2020
5376 Clouds 16 1020 82 10000 5.7 80 07:23 06.04.2020
5377 Clouds 16 1020 82 10000 5.7 80 07:23 06.04.2020
5378 Clouds 15 1020 82 10000 5.7 70 06:27 06.04.2020
5379 Clouds 15 1020 82 10000 5.7 80 05:51 06.04.2020
5380 Clouds 15 1021 87 10000 5.1 80 03:56 06.04.2020
5381 Clouds 15 1021 87 10000 5.7 100 02:51 06.04.2020
5382 Clouds 15 1020 93 10000 3.6 80 01:54 06.04.2020
5383 Clouds 16 1019 93 10000 3.6 80 00:54 06.04.2020
5384 Clouds 16 1021 87 10000 6.2 100 00:28 06.04.2020
5385 Clouds 16 1020 87 10000 6.2 100 23:51 05.04.2020
5386 Clouds 16 1020 87 10000 6.2 100 23:33 05.04.2020
5387 Clouds 16 1020 87 10000 6.2 100 22:57 05.04.2020
5388 Clouds 16 1019 87 10000 5.7 110 22:39 05.04.2020
5389 Clouds 16 1019 87 10000 5.7 110 22:21 05.04.2020
5390 Clouds 16 1019 87 10000 5.7 110 21:59 05.04.2020
5391 Clouds 16 1018 82 10000 3.1 80 21:40 05.04.2020
5392 Clouds 16 1019 87 10000 6.2 110 21:22 05.04.2020
5393 Clouds 17 1019 82 10000 7.2 100 20:22 05.04.2020
5394 Clouds 17 1019 82 10000 7.2 100 20:22 05.04.2020
5395 Clouds 17 1017 72 10000 3.6 80 19:42 05.04.2020
5396 Clouds 18 1019 87 10000 6.7 80 19:22 05.04.2020
5397 Clouds 18 1018 82 10000 7.7 80 18:47 05.04.2020
5398 Clouds 19 1019 77 10000 7.7 80 18:00 05.04.2020
5399 Clouds 19 1017 49 10000 2.1 300 17:41 05.04.2020
5400 Clouds 19 1019 77 10000 7.7 80 17:20 05.04.2020
5401 Clouds 19 1017 68 10000 2.6 30 16:46 05.04.2020
5402 Clouds 19 1017 68 10000 2.6 30 16:46 05.04.2020
5403 Clouds 19 1017 68 10000 2.6 30 16:46 05.04.2020
5404 Clouds 19 1017 68 10000 2.6 30 16:46 05.04.2020
5405 Clouds 19 1017 68 10000 2.6 30 16:46 05.04.2020
5406 Clouds 19 1019 77 10000 5.7 80 16:18 05.04.2020
5407 Clouds 19 1017 64 10000 2.1 360 15:45 05.04.2020
5408 Clouds 19 1019 77 10000 6.7 80 15:25 05.04.2020
5409 Clouds 19 1019 77 10000 8.2 80 14:48 05.04.2020
5410 Clouds 19 1019 77 10000 8.2 80 14:48 05.04.2020
5411 Clouds 19 1019 77 10000 8.2 80 14:48 05.04.2020
5412 Clouds 19 1019 77 10000 8.2 80 14:48 05.04.2020
5413 Clouds 19 1019 82 10000 7.2 80 13:47 05.04.2020
5414 Clouds 19 1019 82 10000 7.2 80 13:47 05.04.2020
5415 Clouds 19 1019 82 10000 7.2 80 13:47 05.04.2020
5416 Clouds 19 1019 82 10000 7.2 80 13:47 05.04.2020
5417 Clouds 19 1019 82 10000 7.2 80 13:47 05.04.2020
5418 Clouds 19 1020 77 10000 6.7 90 12:59 05.04.2020
5419 Clouds 18 1018 72 10000 4.1 100 11:58 05.04.2020
5420 Clouds 18 1019 77 10000 7.2 80 11:38 05.04.2020
5421 Clouds 18 1019 77 10000 7.2 80 11:19 05.04.2020
5422 Clouds 17 1017 77 10000 4.1 90 10:44 05.04.2020
5423 Clouds 17 1017 77 10000 4.1 90 10:44 05.04.2020
5424 Clouds 17 1017 77 10000 4.1 90 10:44 05.04.2020
5425 Clouds 16 1019 77 10000 8.2 90 10:19 05.04.2020
5426 Clouds 16 1018 82 10000 8.7 90 09:52 05.04.2020
5427 Clouds 16 1018 82 10000 8.7 90 09:52 05.04.2020
5428 Clouds 16 1018 82 10000 8.7 90 09:25 05.04.2020
5429 Clouds 16 1018 82 10000 8.7 90 09:25 05.04.2020
5430 Clouds 16 1018 82 10000 8.7 90 09:25 05.04.2020
5431 Clouds 16 1018 82 10000 8.7 90 09:25 05.04.2020
5432 Clouds 16 1018 82 10000 8.7 90 09:25 05.04.2020
5433 Clouds 15 1017 82 10000 8.2 90 07:58 05.04.2020
5434 Clouds 15 1015 82 10000 5.1 80 04:56 05.04.2020
5435 Clouds 15 1017 82 10000 10.3 80 03:35 05.04.2020
5436 Clouds 15 1018 82 10000 8.7 80 02:53 05.04.2020
5437 Clouds 15 1018 82 10000 8.7 80 01:52 05.04.2020
5438 Clouds 15 1018 82 10000 8.7 80 01:33 05.04.2020
5439 Clouds 15 1017 87 10000 8.7 80 00:48 05.04.2020
5440 Clouds 15 1017 87 10000 8.7 80 00:22 05.04.2020
5441 Clouds 15 1017 87 10000 8.7 80 00:22 05.04.2020
5442 Clouds 16 1017 87 10000 8.7 80 23:57 04.04.2020
5443 Clouds 16 1017 82 10000 9.8 90 23:38 04.04.2020
5444 Clouds 16 1015 72 10000 5.7 90 23:20 04.04.2020
5445 Clouds 15 1015 77 10000 4.6 90 22:56 04.04.2020
5446 Clouds 16 1016 82 10000 9.8 90 22:37 04.04.2020
5447 Clouds 16 1016 82 10000 9.8 90 22:19 04.04.2020
5448 Clouds 16 1014 72 10000 7.7 80 21:55 04.04.2020
5449 Clouds 16 1016 82 10000 9.3 80 21:36 04.04.2020
5450 Clouds 16 1016 82 10000 9.3 80 21:18 04.04.2020
5451 Rain 16 1013 67 10000 7.7 80 20:42 04.04.2020
5452 Rain 17 1013 67 10000 6.7 80 20:23 04.04.2020
5453 Rain 16 1012 72 10000 9.3 80 19:59 04.04.2020
5454 Rain 16 1015 82 10000 10.8 90 19:37 04.04.2020
5455 Rain 17 1015 82 10000 10.8 90 19:19 04.04.2020
5456 Clouds 17 1012 68 10000 9.8 80 18:57 04.04.2020
5457 Clouds 17 1012 68 10000 9.8 80 18:57 04.04.2020
5458 Rain 17 1015 77 10000 10.8 90 18:38 04.04.2020
5459 Rain 17 1015 77 10000 10.8 90 18:38 04.04.2020
5460 Rain 17 1015 77 10000 10.8 90 18:19 04.04.2020
5461 Clouds 17 1015 77 10000 8.7 90 17:56 04.04.2020
5462 Clouds 17 1015 77 10000 8.7 90 17:38 04.04.2020
5463 Clouds 17 1015 82 10000 9.8 100 17:18 04.04.2020
5464 Clouds 17 1015 82 10000 10.3 100 16:42 04.04.2020
5465 Clouds 17 1015 82 10000 10.3 100 16:42 04.04.2020
5466 Clouds 17 1015 82 10000 9.3 90 16:22 04.04.2020
5467 Clouds 17 1015 82 10000 9.3 90 15:56 04.04.2020
5468 Clouds 17 1016 82 10000 10.8 90 15:38 04.04.2020
5469 Clouds 17 1015 82 10000 9.8 80 15:19 04.04.2020
5470 Rain 16 1015 82 7000 9.3 80 14:43 04.04.2020
5471 Rain 16 1015 82 6000 10.3 80 14:23 04.04.2020
5472 Rain 16 1015 82 6000 10.3 80 13:56 04.04.2020
5473 Rain 16 1016 82 7000 10.8 90 13:38 04.04.2020
5474 Clouds 17 1016 72 10000 9.8 100 13:19 04.04.2020
5475 Clouds 16 1011 77 10000 10.8 70 12:45 04.04.2020
5476 Clouds 16 1016 77 10000 9.3 100 12:27 04.04.2020
5477 Clouds 16 1013 77 6000 8.2 80 11:59 04.04.2020
5478 Clouds 16 1015 77 10000 11.3 90 11:39 04.04.2020
5479 Clouds 16 1015 77 10000 11.3 90 11:21 04.04.2020
5480 Clouds 16 1015 77 10000 11.3 90 10:56 04.04.2020
5481 Clouds 16 1014 77 10000 11.8 90 10:38 04.04.2020
5482 Clouds 16 1014 77 10000 11.8 90 10:19 04.04.2020
5483 Clouds 16 1011 72 10000 10.3 80 09:55 04.04.2020
5484 Clouds 16 1013 77 10000 12.3 90 09:37 04.04.2020
5485 Clouds 16 1013 77 10000 12.3 90 09:37 04.04.2020
5486 Clouds 16 1013 77 10000 12.3 90 09:18 04.04.2020
5487 Clouds 15 1010 72 10000 9.3 80 08:42 04.04.2020
5488 Clouds 16 1013 77 10000 12.3 90 08:21 04.04.2020
5489 Clouds 15 1010 72 10000 10.8 80 07:47 04.04.2020
5490 Clouds 15 1013 77 10000 11.3 90 07:27 04.04.2020
5491 Clouds 15 1010 77 10000 10.3 80 06:56 04.04.2020
5492 Clouds 15 1013 77 10000 14.4 90 06:20 04.04.2020
5493 Clouds 15 1010 72 10000 10.3 80 05:43 04.04.2020
5494 Clouds 15 1013 77 10000 14.4 80 05:24 04.04.2020
5495 Clouds 15 1014 77 10000 14.4 90 04:32 04.04.2020
5496 Clouds 15 1014 72 10000 13.9 90 03:53 04.04.2020
5497 Clear 15 1015 77 10000 14.9 90 02:54 04.04.2020
5498 Clear 15 1015 77 10000 14.9 90 02:34 04.04.2020
5499 Clear 15 1012 67 10000 7.7 80 01:57 04.04.2020
5500 Clear 15 1015 77 10000 13.9 80 01:25 04.04.2020
5501 Clear 15 1015 77 10000 13.4 80 00:49 04.04.2020
5502 Clear 15 1015 77 10000 13.4 80 00:30 04.04.2020
5503 Clear 15 1015 77 10000 12.9 90 23:40 03.04.2020
5504 Clear 15 1015 77 10000 12.9 90 23:21 03.04.2020
5505 Clear 15 1015 77 10000 12.9 90 22:58 03.04.2020
5506 Clear 15 1012 67 10000 9.8 80 22:39 03.04.2020
5507 Clear 16 1015 82 10000 12.3 80 22:19 03.04.2020
5508 Clear 15 1012 67 10000 9.3 80 21:44 03.04.2020
5509 Clear 16 1014 82 10000 12.9 80 21:25 03.04.2020
5510 Clear 16 1014 77 10000 11.8 80 20:57 03.04.2020
5511 Clear 17 1014 77 10000 11.8 80 20:38 03.04.2020
5512 Clear 17 1014 77 10000 11.8 80 20:19 03.04.2020
5513 Clear 17 1012 52 10000 10.8 70 19:57 03.04.2020
5514 Clear 17 1014 72 10000 10.3 80 19:39 03.04.2020
5515 Clear 17 1014 72 10000 10.3 80 19:39 03.04.2020
5516 Clear 17 1014 72 10000 10.3 80 19:21 03.04.2020
5517 Clear 18 1011 52 10000 9.8 60 18:59 03.04.2020
5518 Clear 18 1011 52 10000 9.8 60 18:59 03.04.2020
5519 Clear 18 1011 52 10000 9.8 60 18:41 03.04.2020
5520 Clear 19 1014 68 10000 9.3 90 18:23 03.04.2020
5521 Clouds 19 1015 68 10000 7.2 80 17:55 03.04.2020
5522 Clouds 19 1015 68 10000 7.2 80 17:37 03.04.2020
5523 Clouds 19 1015 68 10000 7.2 80 17:18 03.04.2020
5524 Clear 19 1013 52 10000 6.7 40 16:44 03.04.2020
5525 Clouds 19 1015 68 10000 5.7 80 16:22 03.04.2020
5526 Clouds 20 1016 63 10000 5.1 80 15:58 03.04.2020
5527 Clouds 20 1016 63 10000 5.1 80 15:40 03.04.2020
5528 Clouds 19 1016 55 10000 5.1 90 15:21 03.04.2020
5529 Clouds 19 1015 63 10000 4.1 280 14:56 03.04.2020
5530 Clouds 18 1016 59 10000 3.1 90 14:37 03.04.2020
5531 Clouds 18 1016 59 10000 3.1 90 14:19 03.04.2020
5532 Clouds 18 1016 59 10000 3.1 90 13:43 03.04.2020
5533 Clouds 18 1016 59 10000 2.1 100 13:25 03.04.2020
5534 Clouds 18 1016 59 10000 2.6 100 12:55 03.04.2020
5535 Clouds 18 1016 59 10000 2.6 100 12:37 03.04.2020
5536 Clouds 17 1016 67 10000 1.5 250 12:18 03.04.2020
5537 Clear 15 1016 72 10000 2.1 250 11:41 03.04.2020
5538 Clear 15 1016 72 10000 2.6 240 11:23 03.04.2020
5539 Clear 14 1016 72 10000 2.6 240 10:59 03.04.2020
5540 Clear 13 1016 67 10000 2.1 80 10:40 03.04.2020
5541 Clear 13 1016 76 10000 3.1 250 10:21 03.04.2020
5542 Clear 11 1016 76 10000 3.1 250 09:59 03.04.2020
5543 Clear 11 1016 82 10000 3.1 240 09:40 03.04.2020
5544 Clear 10 1016 82 10000 3.6 240 09:22 03.04.2020
5545 Clear 10 1016 87 6000 3.1 80 08:57 03.04.2020
5546 Clear 9 1015 82 10000 3.6 250 08:38 03.04.2020
5547 Clear 9 1015 82 10000 3.6 250 08:20 03.04.2020
5548 Clear 10 1015 82 10000 3.6 240 07:48 03.04.2020
5549 Clear 10 1015 82 10000 3.6 240 07:29 03.04.2020
5550 Clear 10 1015 87 10000 3.1 80 06:42 03.04.2020
5551 Clear 10 1015 82 10000 3.6 270 06:23 03.04.2020
5552 Clear 10 1015 82 10000 3.6 260 05:39 03.04.2020
5553 Clear 12 1016 76 10000 1 0 03:42 03.04.2020
5554 Clear 12 1016 76 10000 3.6 260 02:56 03.04.2020
5555 Clear 13 1016 76 10000 4.6 250 02:18 03.04.2020
5556 Clear 13 1016 76 10000 6.2 280 01:22 03.04.2020
5557 Clear 13 1016 76 10000 5.7 260 00:36 03.04.2020
5558 Clear 13 1016 76 10000 5.7 260 00:18 03.04.2020
5559 Clear 13 1017 76 10000 2.1 170 23:40 02.04.2020
5560 Clear 13 1016 67 10000 4.1 270 23:21 02.04.2020
5561 Clouds 13 1016 66 10000 1.5 190 22:57 02.04.2020
5562 Clear 13 1015 71 10000 5.7 260 22:37 02.04.2020
5563 Clear 13 1015 71 10000 5.7 260 22:18 02.04.2020
5564 Clear 14 1015 76 10000 5.1 260 21:39 02.04.2020
5565 Rain 14 1015 76 10000 5.1 260 21:20 02.04.2020
5566 Rain 14 1015 76 10000 5.1 260 20:58 02.04.2020
5567 Rain 14 1015 76 10000 5.1 260 20:58 02.04.2020
5568 Clouds 15 1015 67 10000 3.1 250 20:40 02.04.2020
5569 Rain 15 1014 72 10000 7.2 280 20:21 02.04.2020
5570 Clouds 15 1015 62 10000 4.6 240 19:44 02.04.2020
5571 Rain 15 1014 72 10000 5.7 260 19:21 02.04.2020
5572 Rain 15 1013 67 10000 9.3 270 18:58 02.04.2020
5573 Rain 15 1013 67 10000 9.3 270 18:39 02.04.2020
5574 Rain 15 1013 67 10000 9.3 270 18:20 02.04.2020
5575 Rain 15 1013 67 10000 9.3 270 18:20 02.04.2020
5576 Clouds 16 1015 62 10000 6.2 270 17:56 02.04.2020
5577 Clouds 16 1013 63 10000 5.7 260 17:38 02.04.2020
5578 Clouds 16 1013 63 10000 5.7 260 17:18 02.04.2020
5579 Clouds 16 1013 63 10000 5.7 260 17:18 02.04.2020
5580 Clouds 15 1014 62 10000 6.7 270 16:55 02.04.2020
5581 Rain 15 1012 67 10000 10.3 260 16:36 02.04.2020
5582 Rain 15 1012 67 10000 10.3 260 16:18 02.04.2020
5583 Clouds 15 1014 59 10000 8.2 270 15:44 02.04.2020
5584 Clouds 15 1014 59 10000 8.2 270 15:44 02.04.2020
5585 Clouds 15 1014 59 10000 8.2 270 15:44 02.04.2020
5586 Clouds 15 1012 59 10000 6.7 240 15:21 02.04.2020
5587 Clouds 15 1012 59 10000 6.7 240 14:58 02.04.2020
5588 Clouds 15 1012 62 10000 4.1 320 14:39 02.04.2020
5589 Clouds 15 1012 62 10000 4.1 320 14:19 02.04.2020
5590 Clouds 15 1014 67 10000 8.7 270 13:56 02.04.2020
5591 Clouds 15 1012 76 10000 3.1 320 13:38 02.04.2020
5592 Clouds 15 1012 76 10000 3.1 320 13:19 02.04.2020
5593 Clouds 14 1011 82 10000 4.6 280 12:47 02.04.2020
5594 Clouds 14 1011 82 10000 4.6 280 12:21 02.04.2020
5595 Clouds 14 1013 71 10000 8.7 270 11:58 02.04.2020
5596 Clouds 14 1013 71 10000 8.7 270 11:40 02.04.2020
5597 Clouds 14 1011 93 10000 1.5 10 11:21 02.04.2020
5598 Clouds 13 1011 93 10000 1.5 10 10:57 02.04.2020
5599 Clouds 13 1011 82 10000 7.2 240 10:39 02.04.2020
5600 Rain 14 1011 82 8000 1.5 100 10:21 02.04.2020
5601 Rain 13 1011 82 8000 1.5 100 09:59 02.04.2020
5602 Rain 13 1011 82 8000 1.5 100 09:59 02.04.2020
5603 Clouds 13 1011 67 10000 6.7 230 09:41 02.04.2020
5604 Clouds 12 1011 93 10000 1 360 09:23 02.04.2020
5605 Clouds 13 1011 93 10000 1 360 08:57 02.04.2020
5606 Clouds 13 1011 93 10000 2.1 220 08:38 02.04.2020
5607 Clouds 13 1011 93 10000 2.1 220 08:19 02.04.2020
5608 Clouds 13 1011 93 10000 5.1 220 07:42 02.04.2020
5609 Rain 14 1010 93 7000 3.6 230 07:19 02.04.2020
5610 Rain 13 1010 82 10000 4.6 200 06:26 02.04.2020
5611 Rain 13 1011 82 7000 5.1 300 05:59 02.04.2020
5612 Rain 14 1011 82 7000 5.1 300 05:41 02.04.2020
5613 Clouds 15 1013 71 10000 5.1 220 02:46 02.04.2020
5614 Rain 14 1014 82 10000 3.1 240 01:28 02.04.2020
5615 Rain 14 1014 76 10000 2.1 270 00:42 02.04.2020
5616 Rain 14 1014 76 10000 2.1 270 00:22 02.04.2020
5617 Clouds 14 1014 71 10000 4.6 220 23:41 01.04.2020
5618 Rain 15 1014 76 10000 3.6 260 23:20 01.04.2020
5619 Rain 14 1014 76 10000 3.6 260 22:57 01.04.2020
5620 Rain 14 1014 76 10000 1 320 22:57 01.04.2020
5621 Rain 14 1014 76 10000 1 320 22:38 01.04.2020
5622 Rain 14 1014 76 10000 1 320 22:19 01.04.2020
5623 Clouds 14 1014 82 10000 5.1 240 21:41 01.04.2020
5624 Clear 14 1013 82 10000 5.1 280 21:19 01.04.2020
5625 Rain 15 1013 82 10000 5.1 280 20:57 01.04.2020
5626 Rain 17 1013 59 10000 8.2 240 20:38 01.04.2020
5627 Rain 17 1013 59 10000 8.2 240 20:20 01.04.2020
5628 Clouds 17 1014 63 10000 4.6 220 19:58 01.04.2020
5629 Clouds 17 1014 63 10000 4.6 220 19:39 01.04.2020
5630 Clouds 17 1013 59 10000 6.2 240 19:19 01.04.2020
5631 Clouds 18 1013 59 10000 4.1 220 18:42 01.04.2020
5632 Clouds 18 1013 48 10000 8.2 260 18:24 01.04.2020
5633 Clouds 18 1014 63 10000 4.6 220 17:57 01.04.2020
5634 Clouds 18 1012 52 10000 5.1 240 17:38 01.04.2020
5635 Clouds 18 1012 52 10000 5.1 240 17:19 01.04.2020
5636 Clouds 18 1013 59 10000 5.1 230 16:58 01.04.2020
5637 Clouds 18 1013 48 10000 5.7 220 16:39 01.04.2020
5638 Clouds 18 1013 48 10000 5.7 220 16:21 01.04.2020
5639 Clouds 17 1013 48 10000 5.7 220 15:57 01.04.2020
5640 Clouds 17 1013 52 10000 5.1 260 15:37 01.04.2020
5641 Clouds 17 1013 52 10000 5.1 270 15:18 01.04.2020
5642 Clouds 17 1013 59 10000 3.1 260 14:41 01.04.2020
5643 Clouds 16 1013 63 10000 2.6 210 14:23 01.04.2020
5644 Clouds 17 1013 63 10000 2.6 210 13:59 01.04.2020
5645 Clouds 16 1014 67 10000 2.1 220 13:40 01.04.2020
5646 Clouds 16 1014 77 10000 2.6 190 13:20 01.04.2020
5647 Rain 17 1014 77 10000 1.5 240 12:59 01.04.2020
5648 Clouds 17 1014 72 10000 3.1 240 12:41 01.04.2020
5649 Clouds 17 1014 82 10000 1.5 270 12:22 01.04.2020
5650 Clouds 15 1014 82 10000 3.1 280 11:57 01.04.2020
5651 Clouds 15 1014 87 10000 1.5 260 11:38 01.04.2020
5652 Clouds 15 1014 87 10000 1.5 260 11:20 01.04.2020
5653 Clouds 15 1014 87 10000 1 0 10:40 01.04.2020
5654 Rain 14 1013 87 10000 1.5 260 10:21 01.04.2020
5655 Rain 14 1013 87 10000 1.5 260 09:59 01.04.2020
5656 Rain 14 1012 87 5000 2.6 290 09:40 01.04.2020
5657 Rain 14 1012 87 5000 2.6 290 09:20 01.04.2020
5658 Rain 13 1012 100 4000 3.6 170 08:54 01.04.2020
5659 Rain 13 1012 87 10000 2.1 300 08:36 01.04.2020
5660 Rain 13 1012 87 10000 2.1 300 08:18 01.04.2020
5661 Clouds 13 1011 93 8000 3.1 170 07:40 01.04.2020
5662 Rain 13 1011 87 10000 1 220 07:19 01.04.2020
5663 Clouds 13 1011 93 8000 2.6 170 06:42 01.04.2020
5664 Rain 13 1011 87 10000 2.1 300 06:20 01.04.2020
5665 Clouds 13 1011 100 6000 1.5 170 05:41 01.04.2020
5666 Rain 14 1011 93 6000 1.5 10 03:57 01.04.2020
5667 Rain 14 1011 82 10000 2.6 340 03:19 01.04.2020
5668 Rain 14 1011 87 10000 2.1 310 02:36 01.04.2020
5669 Rain 15 1011 87 10000 3.6 210 01:50 01.04.2020
5670 Rain 15 1011 87 10000 3.6 210 01:25 01.04.2020
5671 Clouds 15 1011 93 10000 2.1 200 00:47 01.04.2020
5672 Rain 15 1011 87 10000 4.1 200 00:22 01.04.2020
5673 Clouds 15 1011 87 10000 2.6 210 23:57 31.03.2020
5674 Clouds 15 1011 87 10000 2.6 210 23:57 31.03.2020
5675 Rain 15 1011 82 10000 6.2 190 23:38 31.03.2020
5676 Rain 15 1011 82 10000 6.2 190 23:19 31.03.2020
5677 Rain 15 1010 82 9000 7.2 250 22:41 31.03.2020
5678 Rain 15 1010 82 9000 7.2 250 22:21 31.03.2020
5679 Clouds 15 1010 93 6000 2.6 210 21:58 31.03.2020
5680 Rain 15 1009 82 10000 8.7 290 21:40 31.03.2020
5681 Rain 15 1009 82 10000 8.7 290 21:21 31.03.2020
5682 Clouds 17 1009 77 10000 4.1 210 20:57 31.03.2020
5683 Rain 17 1008 68 10000 6.7 230 20:37 31.03.2020
5684 Rain 18 1008 68 10000 6.7 230 20:19 31.03.2020
5685 Clouds 17 1008 77 10000 5.7 220 19:55 31.03.2020
5686 Rain 17 1008 77 10000 5.7 230 19:37 31.03.2020
5687 Rain 17 1008 77 10000 5.7 230 19:18 31.03.2020
5688 Rain 17 1007 77 10000 6.2 250 18:43 31.03.2020
5689 Rain 17 1007 77 10000 6.2 250 18:20 31.03.2020
5690 Clouds 17 1008 82 10000 6.2 220 17:56 31.03.2020
5691 Clouds 17 1008 82 10000 6.2 220 17:56 31.03.2020
5692 Rain 18 1007 82 10000 5.1 220 17:38 31.03.2020
5693 Rain 18 1007 82 10000 5.1 220 17:38 31.03.2020
5694 Rain 18 1007 82 10000 5.1 220 17:20 31.03.2020
5695 Clouds 19 1007 72 10000 6.2 210 16:42 31.03.2020
5696 Clouds 19 1007 77 10000 3.6 230 16:20 31.03.2020
5697 Clouds 18 1007 77 10000 5.7 200 15:59 31.03.2020
5698 Clouds 18 1007 77 10000 5.7 200 15:41 31.03.2020
5699 Rain 18 1007 77 8000 5.1 240 15:23 31.03.2020
5700 Clouds 18 1007 72 10000 5.7 220 15:00 31.03.2020
5701 Clouds 18 1007 72 10000 5.7 220 15:00 31.03.2020
5702 Clouds 18 1007 88 10000 5.1 200 14:41 31.03.2020
5703 Clouds 18 1007 72 10000 5.7 220 14:22 31.03.2020
5704 Clouds 19 1007 68 10000 5.7 210 13:55 31.03.2020
5705 Clouds 18 1006 77 10000 5.1 220 13:37 31.03.2020
5706 Clouds 18 1006 77 10000 5.1 220 13:18 31.03.2020
5707 Clouds 18 1007 72 10000 5.7 200 12:44 31.03.2020
5708 Clouds 18 1006 77 10000 4.6 210 12:20 31.03.2020
5709 Clouds 18 1006 77 10000 4.6 210 12:20 31.03.2020
5710 Clouds 18 1006 77 10000 5.7 200 11:55 31.03.2020
5711 Clouds 18 1006 77 10000 5.7 200 11:36 31.03.2020
5712 Clouds 18 1006 77 10000 5.7 200 11:36 31.03.2020
5713 Clouds 17 1006 87 10000 2.6 240 11:18 31.03.2020
5714 Rain 16 1006 82 6000 3.1 240 10:55 31.03.2020
5715 Rain 16 1006 82 6000 3.1 240 10:37 31.03.2020
5716 Rain 16 1006 82 6000 3.1 240 10:37 31.03.2020
5717 Rain 15 1006 87 8000 5.1 210 10:18 31.03.2020
5718 Rain 15 1005 87 4000 3.6 200 09:43 31.03.2020
5719 Rain 15 1005 93 5000 5.7 240 09:24 31.03.2020
5720 Rain 14 1005 93 5000 5.7 240 08:57 31.03.2020
5721 Clouds 14 1005 93 10000 3.1 180 08:39 31.03.2020
5722 Rain 15 1004 87 8000 3.6 210 08:19 31.03.2020
5723 Clouds 15 1004 93 10000 4.1 190 07:56 31.03.2020
5724 Rain 15 1004 87 10000 2.1 160 07:38 31.03.2020
5725 Rain 15 1004 87 10000 2.1 160 07:19 31.03.2020
5726 Rain 14 1004 100 4000 3.6 190 06:47 31.03.2020
5727 Rain 14 1004 93 10000 3.6 140 06:22 31.03.2020
5728 Rain 14 1005 93 5000 4.6 100 05:39 31.03.2020
5729 Rain 14 1006 87 2000 5.7 130 03:34 31.03.2020
5730 Rain 14 1006 87 6000 4.6 120 02:18 31.03.2020
5731 Rain 14 1006 100 4000 3.6 160 01:45 31.03.2020
5732 Rain 15 1007 77 9000 5.1 190 00:49 31.03.2020
5733 Rain 15 1007 77 9000 5.1 190 00:25 31.03.2020
5734 Rain 15 1006 72 4000 1.5 170 23:57 30.03.2020
5735 Rain 15 1007 77 10000 4.6 120 23:37 30.03.2020
5736 Rain 15 1007 77 10000 4.6 120 23:18 30.03.2020
5737 Clouds 15 1007 63 10000 2.1 140 22:55 30.03.2020
5738 Rain 15 1008 77 10000 3.6 170 22:36 30.03.2020
5739 Rain 15 1008 77 10000 3.6 170 22:18 30.03.2020
5740 Clouds 16 1007 67 10000 1.5 180 21:54 30.03.2020
5741 Rain 16 1007 67 10000 3.6 190 21:36 30.03.2020
5742 Rain 16 1007 67 10000 3.6 190 21:36 30.03.2020
5743 Rain 16 1007 67 10000 3.6 190 21:36 30.03.2020
5744 Clouds 16 1007 67 10000 3.6 190 21:18 30.03.2020
5745 Clouds 17 1007 72 10000 2.1 220 20:40 30.03.2020
5746 Clouds 17 1008 48 10000 4.6 210 20:22 30.03.2020
5747 Clouds 17 1008 63 10000 4.6 280 19:59 30.03.2020
5748 Clouds 17 1008 63 10000 2.6 200 19:40 30.03.2020
5749 Clouds 17 1008 63 10000 4.6 280 19:21 30.03.2020
5750 Clouds 17 1008 67 10000 3.6 220 18:56 30.03.2020
5751 Clouds 18 1009 63 10000 5.1 280 18:37 30.03.2020
5752 Clouds 18 1009 63 10000 5.1 280 18:19 30.03.2020
5753 Clouds 18 1009 68 10000 5.7 240 17:55 30.03.2020
5754 Clouds 18 1009 55 10000 4.1 290 17:36 30.03.2020
5755 Clouds 18 1009 55 10000 4.1 290 17:18 30.03.2020
5756 Clouds 19 1010 67 10000 6.2 240 16:41 30.03.2020
5757 Clouds 19 1010 49 10000 5.1 240 16:22 30.03.2020
5758 Clouds 18 1010 49 10000 5.1 240 15:57 30.03.2020
5759 Clouds 18 1010 63 10000 6.2 230 15:39 30.03.2020
5760 Clouds 18 1010 52 10000 3.6 240 15:21 30.03.2020
5761 Clouds 18 1010 52 10000 3.6 240 14:59 30.03.2020
5762 Clouds 18 1011 63 10000 3.1 200 14:38 30.03.2020
5763 Clouds 18 1011 63 10000 3.1 200 14:19 30.03.2020
5764 Clouds 18 1011 63 10000 3.1 200 13:58 30.03.2020
5765 Clouds 18 1012 67 10000 1 250 13:39 30.03.2020
5766 Clouds 18 1012 67 10000 1 250 13:20 30.03.2020
5767 Clouds 17 1013 72 10000 1 200 12:45 30.03.2020
5768 Clouds 17 1013 72 10000 1.5 260 12:22 30.03.2020
5769 Clouds 16 1013 72 10000 1.5 260 11:59 30.03.2020
5770 Clouds 16 1013 72 10000 1.5 260 11:59 30.03.2020
5771 Clouds 16 1013 72 10000 2.6 170 11:41 30.03.2020
5772 Clouds 15 1013 77 10000 1 260 11:22 30.03.2020
5773 Clouds 14 1013 77 10000 1 260 10:55 30.03.2020
5774 Clouds 13 1013 82 10000 1 270 10:37 30.03.2020
5775 Clouds 13 1013 87 10000 1.5 280 10:18 30.03.2020
5776 Clouds 12 1013 100 6000 2.1 80 09:40 30.03.2020
5777 Clouds 12 1013 87 10000 1.5 250 09:19 30.03.2020
5778 Clouds 12 1013 87 10000 1.5 250 09:19 30.03.2020
5779 Clouds 11 1013 100 6000 2.6 80 08:56 30.03.2020
5780 Clouds 11 1013 87 10000 2.6 250 08:36 30.03.2020
5781 Clouds 11 1013 87 10000 2.6 250 08:18 30.03.2020
5782 Clouds 11 1013 93 7000 2.1 80 07:42 30.03.2020
5783 Clouds 11 1013 87 10000 2.6 240 07:20 30.03.2020
5784 Clouds 12 1014 82 10000 2.6 240 06:42 30.03.2020
5785 Clouds 12 1014 82 10000 2.6 240 06:23 30.03.2020
5786 Clouds 12 1014 82 10000 3.1 240 05:39 30.03.2020
5787 Clouds 12 1015 82 10000 2.6 280 04:29 30.03.2020
5788 Clouds 13 1015 82 10000 2.6 250 03:53 30.03.2020
5789 Clouds 13 1016 93 10000 2.6 80 02:44 30.03.2020
5790 Clouds 13 1016 87 10000 2.1 80 01:55 30.03.2020
5791 Clouds 14 1017 93 10000 2.1 70 00:57 30.03.2020
5792 Clouds 14 1017 77 10000 1.5 250 00:27 30.03.2020
5793 Clouds 14 1017 87 10000 1 30 23:55 29.03.2020
5794 Clouds 14 1017 77 10000 0.5 50 23:36 29.03.2020
5795 Clouds 14 1017 82 10000 0.5 0 23:18 29.03.2020
5796 Clouds 15 1017 76 10000 1 210 22:40 29.03.2020
5797 Clouds 15 1017 77 10000 2.1 140 22:20 29.03.2020
5798 Clouds 15 1017 77 10000 2.1 140 21:59 29.03.2020
5799 Clouds 15 1016 77 10000 2.1 130 21:37 29.03.2020
5800 Rain 15 1016 77 10000 2.1 130 21:19 29.03.2020
5801 Clouds 16 1017 67 10000 3.1 250 20:55 29.03.2020
5802 Rain 16 1017 72 10000 4.1 120 20:37 29.03.2020
5803 Rain 16 1017 72 10000 4.1 120 20:18 29.03.2020
5804 Clouds 16 1017 72 10000 3.1 260 19:55 29.03.2020
5805 Rain 16 1017 72 10000 3.6 130 19:37 29.03.2020
5806 Rain 16 1017 72 10000 3.6 130 19:18 29.03.2020
5807 Rain 16 1017 72 10000 4.1 120 18:55 29.03.2020
5808 Clouds 16 1016 72 10000 3.1 270 18:55 29.03.2020
5809 Rain 17 1017 72 10000 4.1 120 18:36 29.03.2020
5810 Clouds 17 1017 72 10000 4.1 120 18:18 29.03.2020
5811 Clouds 17 1017 67 10000 3.6 100 17:42 29.03.2020
5812 Clouds 17 1017 67 10000 3.6 100 17:23 29.03.2020
5813 Clouds 17 1018 67 10000 3.1 100 16:59 29.03.2020
5814 Clouds 17 1017 68 10000 4.6 260 16:40 29.03.2020
5815 Clouds 17 1018 67 10000 3.1 100 16:21 29.03.2020
5816 Clouds 17 1018 63 10000 3.1 100 15:58 29.03.2020
5817 Clouds 17 1018 72 10000 4.6 270 15:40 29.03.2020
5818 Clouds 17 1019 67 10000 3.1 90 15:20 29.03.2020
5819 Clouds 17 1019 72 10000 3.1 90 14:56 29.03.2020
5820 Clouds 17 1019 72 10000 3.1 90 14:37 29.03.2020
5821 Clouds 17 1019 72 10000 2.6 80 14:19 29.03.2020
5822 Clouds 17 1019 72 10000 3.1 70 13:55 29.03.2020
5823 Clouds 17 1019 72 10000 3.1 70 13:37 29.03.2020
5824 Clouds 17 1019 72 10000 3.1 60 13:18 29.03.2020
5825 Clouds 17 1019 77 10000 3.1 60 12:54 29.03.2020
5826 Clouds 17 1020 72 10000 3.1 40 12:36 29.03.2020
5827 Clouds 17 1020 72 10000 3.1 40 12:18 29.03.2020
5828 Clouds 17 1020 72 10000 3.1 40 12:18 29.03.2020
5829 Clouds 16 1019 72 10000 3.1 40 11:38 29.03.2020
5830 Clouds 16 1019 72 10000 3.1 40 11:20 29.03.2020
5831 Clouds 15 1018 82 10000 3.6 100 10:40 29.03.2020
5832 Clouds 15 1019 82 10000 3.1 40 10:21 29.03.2020
5833 Clouds 14 1019 82 10000 2.6 40 09:57 29.03.2020
5834 Clouds 14 1019 82 10000 2.6 40 09:38 29.03.2020
5835 Clouds 14 1019 72 10000 4.1 80 09:18 29.03.2020
5836 Clouds 14 1019 72 10000 4.1 80 09:18 29.03.2020
5837 Clouds 14 1018 100 10000 3.1 90 08:45 29.03.2020
5838 Clouds 14 1018 77 10000 4.1 80 08:26 29.03.2020
5839 Clouds 14 1018 77 10000 5.1 80 07:47 29.03.2020
5840 Clouds 14 1018 77 10000 5.1 80 07:23 29.03.2020
5841 Clouds 14 1018 77 10000 5.1 80 06:40 29.03.2020
5842 Clouds 14 1019 77 10000 7.2 80 04:56 29.03.2020
5843 Clouds 15 1019 72 10000 8.7 80 03:41 29.03.2020
5844 Clouds 15 1019 72 10000 8.7 80 03:20 29.03.2020
5845 Clouds 15 1018 76 10000 5.7 80 01:43 29.03.2020
5846 Clouds 14 1020 77 10000 8.2 90 01:22 29.03.2020
5847 Clouds 15 1018 76 10000 5.1 70 00:45 29.03.2020
5848 Clouds 15 1020 77 10000 8.2 90 00:27 29.03.2020
5849 Clouds 15 1019 72 10000 8.2 90 23:41 28.03.2020
5850 Clouds 15 1019 72 10000 8.2 90 23:22 28.03.2020
5851 Clouds 14 1018 82 10000 4.6 80 22:46 28.03.2020
5852 Clouds 14 1019 82 10000 8.2 90 22:23 28.03.2020
5853 Clouds 14 1019 82 10000 8.2 90 21:59 28.03.2020
5854 Clouds 14 1017 82 10000 3.6 70 21:40 28.03.2020
5855 Clouds 14 1018 77 10000 8.7 90 21:21 28.03.2020
5856 Clouds 15 1018 77 10000 8.7 90 20:57 28.03.2020
5857 Clouds 15 1018 72 10000 7.2 80 20:38 28.03.2020
5858 Clouds 15 1018 72 10000 7.2 80 20:20 28.03.2020
5859 Clouds 15 1016 77 10000 6.7 80 19:55 28.03.2020
5860 Clouds 15 1017 72 10000 7.2 70 19:36 28.03.2020
5861 Clouds 15 1017 72 10000 7.2 70 19:18 28.03.2020
5862 Clouds 16 1016 72 10000 5.1 70 18:42 28.03.2020
5863 Clouds 16 1017 72 10000 6.7 90 18:20 28.03.2020
5864 Clouds 16 1017 67 10000 7.2 90 17:43 28.03.2020
5865 Clouds 16 1017 72 10000 7.2 100 17:24 28.03.2020
5866 Clouds 17 1016 77 10000 7.7 90 16:59 28.03.2020
5867 Clouds 17 1016 77 10000 7.7 90 16:39 28.03.2020
5868 Clouds 17 1016 77 10000 7.7 90 16:18 28.03.2020
5869 Clouds 16 1016 77 10000 8.2 100 15:41 28.03.2020
5870 Clouds 16 1016 77 10000 8.2 100 15:21 28.03.2020
5871 Clouds 17 1016 77 10000 8.2 100 14:59 28.03.2020
5872 Clouds 17 1016 77 10000 8.7 90 14:40 28.03.2020
5873 Clouds 18 1016 77 10000 7.7 100 14:21 28.03.2020
5874 Clouds 18 1016 77 10000 7.2 90 13:43 28.03.2020
5875 Clouds 18 1016 59 10000 4.1 80 13:23 28.03.2020
5876 Clouds 17 1016 59 10000 3.1 80 12:41 28.03.2020
5877 Clouds 17 1016 67 10000 2.6 70 12:23 28.03.2020
5878 Clouds 17 1016 77 10000 2.6 60 11:55 28.03.2020
5879 Clouds 17 1016 77 10000 2.6 60 11:37 28.03.2020
5880 Clouds 17 1016 67 10000 2.6 90 11:18 28.03.2020
5881 Clouds 16 1016 67 10000 1.5 90 10:39 28.03.2020
5882 Clouds 16 1016 72 10000 0.5 130 10:20 28.03.2020
5883 Clouds 13 1015 82 10000 1 250 09:43 28.03.2020
5884 Clouds 12 1015 81 10000 1 260 09:24 28.03.2020
5885 Clouds 11 1015 81 10000 1 260 08:58 28.03.2020
5886 Clouds 11 1014 93 10000 2.6 90 08:40 28.03.2020
5887 Clouds 11 1014 87 10000 1.5 250 08:21 28.03.2020
5888 Clouds 10 1014 100 8000 2.6 80 07:44 28.03.2020
5889 Clouds 10 1014 87 10000 1 260 07:26 28.03.2020
5890 Clouds 10 1013 87 10000 1.5 260 06:36 28.03.2020
5891 Clouds 10 1013 93 10000 2.1 80 05:43 28.03.2020
5892 Clouds 10 1013 87 10000 2.1 270 05:21 28.03.2020
5893 Clouds 11 1013 93 10000 1.5 80 04:41 28.03.2020
5894 Clouds 11 1013 100 10000 1 70 03:54 28.03.2020
5895 Clouds 12 1013 87 10000 2.1 260 02:21 28.03.2020
5896 Clouds 13 1013 82 10000 2.6 270 01:30 28.03.2020
5897 Clouds 13 1013 82 10000 2.6 270 00:59 28.03.2020
5898 Clouds 14 1013 76 10000 1 260 00:36 28.03.2020
5899 Clouds 14 1013 76 10000 0.5 0 23:56 27.03.2020
5900 Clouds 14 1013 82 10000 3.1 280 23:38 27.03.2020
5901 Clouds 14 1013 82 10000 3.1 280 23:38 27.03.2020
5902 Clouds 14 1013 82 10000 3.1 280 23:19 27.03.2020
5903 Clouds 15 1012 72 10000 4.1 290 22:56 27.03.2020
5904 Clouds 15 1012 72 10000 4.1 290 22:37 27.03.2020
5905 Clouds 15 1012 72 10000 4.1 290 22:18 27.03.2020
5906 Clouds 15 1012 82 10000 2.1 270 21:43 27.03.2020
5907 Clouds 15 1011 77 10000 5.1 290 21:24 27.03.2020
5908 Clouds 16 1011 76 10000 1 290 20:58 27.03.2020
5909 Clouds 16 1011 76 10000 1 290 20:40 27.03.2020
5910 Clouds 16 1010 63 10000 5.7 260 20:20 27.03.2020
5911 Clouds 16 1010 63 10000 5.7 260 19:57 27.03.2020
5912 Clouds 16 1010 59 10000 5.7 270 19:38 27.03.2020
5913 Clouds 16 1010 59 10000 5.7 270 19:20 27.03.2020
5914 Clouds 17 1010 72 10000 3.1 260 18:44 27.03.2020
5915 Clouds 17 1010 72 10000 3.1 260 18:44 27.03.2020
5916 Clouds 17 1009 59 10000 4.6 280 18:23 27.03.2020
5917 Clouds 18 1009 55 10000 4.6 270 17:57 27.03.2020
5918 Clouds 18 1009 55 10000 4.6 270 17:38 27.03.2020
5919 Clouds 18 1009 55 10000 5.1 270 17:19 27.03.2020
5920 Clouds 18 1009 55 10000 4.6 270 16:44 27.03.2020
5921 Clouds 18 1009 55 10000 5.1 270 16:25 27.03.2020
5922 Clouds 18 1009 55 10000 5.1 270 16:25 27.03.2020
5923 Clouds 19 1010 55 10000 5.1 270 15:46 27.03.2020
5924 Clouds 16 1009 66 0 4.03 265 15:27 27.03.2020
5925 Clouds 16 1009 66 0 4.03 265 14:59 27.03.2020
5926 Clouds 16 1009 66 0 4.03 265 14:40 27.03.2020
5927 Clear 16 1011 65 0 2.78 270 14:21 27.03.2020
5928 Clear 16 1011 65 0 2.78 270 13:54 27.03.2020
5929 Clear 16 1011 65 0 2.78 270 13:36 27.03.2020
5930 Clear 16 1011 65 0 2.67 271 13:18 27.03.2020
5931 Clear 16 1011 65 0 2.67 271 12:42 27.03.2020
5932 Clear 16 1011 65 0 2.67 271 12:19 27.03.2020
5933 Clear 16 1011 65 0 2.67 271 11:44 27.03.2020
5934 Clear 16 1011 65 0 2.67 271 11:25 27.03.2020
5935 Clear 15 1010 76 0 2.13 274 10:59 27.03.2020
5936 Clear 15 1010 76 0 2.13 274 10:41 27.03.2020
5937 Clear 15 1010 76 0 2.13 274 10:22 27.03.2020
5938 Clear 15 1010 76 0 2.13 274 09:58 27.03.2020
5939 Clear 15 1010 76 0 2.13 274 09:58 27.03.2020
5940 Clear 15 1010 76 0 2.13 274 09:39 27.03.2020
5941 Clear 15 1010 76 0 2.13 274 09:21 27.03.2020
5942 Clear 15 1010 76 0 2.13 274 08:58 27.03.2020
5943 Clear 15 1010 76 0 2.13 274 08:39 27.03.2020
5944 Clouds 15 1011 77 0 1.97 278 08:21 27.03.2020
5945 Clouds 12 1010 83 0 2.77 272 07:53 27.03.2020
5946 Clouds 12 1010 83 0 2.77 272 07:28 27.03.2020
5947 Clouds 12 1010 83 0 2.77 272 06:57 27.03.2020
5948 Clouds 12 1010 83 0 2.77 272 06:37 27.03.2020
5949 Clouds 12 1010 83 0 2.77 272 05:37 27.03.2020
5950 Clouds 13 1010 83 0 2.89 264 02:49 27.03.2020
5951 Clouds 14 1011 84 0 3.54 256 01:36 27.03.2020
5952 Clear 14 1011 84 0 4.02 256 00:53 27.03.2020
5953 Clear 14 1011 84 0 4.02 256 00:32 27.03.2020
5954 Clear 14 1011 84 0 4.02 256 23:44 26.03.2020
5955 Clear 14 1011 84 0 4.02 256 23:23 26.03.2020
5956 Clear 15 1011 84 0 4.39 260 22:59 26.03.2020
5957 Clear 15 1011 84 0 4.39 260 22:39 26.03.2020
5958 Clear 15 1011 84 0 4.39 260 22:20 26.03.2020
5959 Clear 15 1011 84 0 4.39 260 21:57 26.03.2020
5960 Clear 15 1011 84 0 4.39 260 21:39 26.03.2020
5961 Clear 15 1011 84 0 4.39 260 21:20 26.03.2020
5962 Clear 15 1011 84 0 4.39 260 20:58 26.03.2020
5963 Clear 15 1011 84 0 4.39 260 20:38 26.03.2020
5964 Clear 15 1011 84 0 4.39 260 20:38 26.03.2020
5965 Clear 16 1010 79 0 5.53 262 20:20 26.03.2020
5966 Clear 16 1010 77 0 5.31 261 20:20 26.03.2020
5967 Clear 16 1010 79 0 5.53 262 19:56 26.03.2020
5968 Clear 16 1010 79 0 5.53 262 19:37 26.03.2020
5969 Clear 16 1010 79 0 5.53 262 19:19 26.03.2020
5970 Clear 16 1010 79 0 5.53 262 18:55 26.03.2020
5971 Clear 16 1010 79 0 5.53 262 18:36 26.03.2020
5972 Clear 16 1010 79 0 5.53 262 18:18 26.03.2020
5973 Clear 16 1010 79 0 5.53 262 17:42 26.03.2020
5974 Clouds 17 1010 77 0 6.58 270 17:18 26.03.2020
5975 Clouds 17 1010 77 0 6.58 270 16:45 26.03.2020
5976 Clouds 17 1010 77 0 6.58 270 16:45 26.03.2020
5977 Clouds 17 1010 77 0 6.58 270 16:26 26.03.2020
5978 Clouds 17 1010 77 0 6.58 270 15:58 26.03.2020
5979 Clouds 17 1010 77 0 6.58 270 15:39 26.03.2020
5980 Clouds 17 1010 77 0 6.58 270 15:21 26.03.2020
5981 Clouds 17 1010 77 0 6.58 270 14:57 26.03.2020
5982 Clouds 17 1010 77 0 6.58 270 14:38 26.03.2020
5983 Clear 16 1013 75 0 5.51 265 14:18 26.03.2020
5984 Clear 16 1013 75 0 5.51 265 13:41 26.03.2020
5985 Clear 16 1013 75 0 5.51 265 13:22 26.03.2020
5986 Clear 16 1012 74 0 5.15 263 12:56 26.03.2020
5987 Clear 16 1012 74 0 5.15 263 12:37 26.03.2020
5988 Clear 16 1012 74 0 5.15 263 12:18 26.03.2020
5989 Clear 16 1012 74 0 5.15 263 11:44 26.03.2020
5990 Clear 15 1014 76 0 3.58 264 11:20 26.03.2020
5991 Clear 15 1014 76 0 3.58 264 10:55 26.03.2020
5992 Clear 15 1014 76 0 3.58 264 10:36 26.03.2020
5993 Clear 15 1014 76 0 3.58 264 10:18 26.03.2020
5994 Clear 15 1014 76 0 3.58 264 09:42 26.03.2020
5995 Clear 15 1014 76 0 3.58 264 09:19 26.03.2020
5996 Clear 15 1014 76 0 3.58 264 08:44 26.03.2020
5997 Clear 15 1014 76 0 3.58 264 08:26 26.03.2020
5998 Clear 11 1013 82 0 0.87 217 07:57 26.03.2020
5999 Clear 11 1013 82 0 0.87 217 07:57 26.03.2020
6000 Clear 11 1013 82 0 0.87 217 07:38 26.03.2020
6001 Clear 11 1013 82 0 0.87 217 07:19 26.03.2020
6002 Clear 11 1013 82 0 0.87 217 06:35 26.03.2020
6003 Clear 11 1013 82 0 0.87 217 05:51 26.03.2020
6004 Clouds 11 1014 83 0 1.86 63 03:47 26.03.2020
6005 Clouds 11 1014 83 0 1.86 63 03:18 26.03.2020
6006 Clouds 11 1014 83 0 1.86 63 02:50 26.03.2020
6007 Clouds 12 1015 81 0 2.59 78 01:19 26.03.2020
6008 Clouds 12 1015 80 0 2.73 75 00:32 26.03.2020
6009 Clouds 12 1015 80 0 2.73 75 23:44 25.03.2020
6010 Clouds 12 1015 80 0 2.73 75 23:26 25.03.2020
6011 Clouds 13 1016 78 0 4.13 82 22:54 25.03.2020
6012 Clouds 13 1016 78 0 4.13 82 22:36 25.03.2020
6013 Clouds 13 1016 78 0 4.13 82 22:18 25.03.2020
6014 Clouds 13 1016 78 0 4.13 82 21:42 25.03.2020
6015 Clouds 13 1016 78 0 4.13 82 21:24 25.03.2020
6016 Clouds 13 1016 78 0 4.13 82 20:58 25.03.2020
6017 Clouds 13 1016 78 0 4.13 82 20:38 25.03.2020
6018 Clouds 13 1014 76 0 5.88 92 20:19 25.03.2020
6019 Clouds 13 1014 76 0 5.88 92 19:55 25.03.2020
6020 Clouds 13 1014 76 0 5.88 92 19:36 25.03.2020
6021 Clouds 13 1014 76 0 5.88 92 19:18 25.03.2020
6022 Clouds 13 1014 76 0 5.88 92 18:42 25.03.2020
6023 Clouds 13 1014 76 0 5.88 92 18:24 25.03.2020
6024 Clouds 13 1014 76 0 5.88 92 17:58 25.03.2020
6025 Clouds 13 1014 76 0 5.88 92 17:58 25.03.2020
6026 Clouds 13 1014 76 0 5.88 92 17:40 25.03.2020
6027 Clouds 13 1014 76 0 5.88 92 17:21 25.03.2020
6028 Clouds 14 1015 77 0 7.01 87 16:55 25.03.2020
6029 Clouds 14 1015 75 0 6.84 88 16:37 25.03.2020
6030 Clouds 14 1015 75 0 6.84 88 16:19 25.03.2020
6031 Clouds 14 1015 75 0 6.84 88 15:41 25.03.2020
6032 Clouds 14 1015 75 0 6.84 88 15:20 25.03.2020
6033 Clouds 14 1015 75 0 6.84 88 14:56 25.03.2020
6034 Clouds 14 1015 75 0 6.84 88 14:37 25.03.2020
6035 Rain 14 1016 75 0 7.46 91 14:19 25.03.2020
6036 Rain 14 1016 75 0 7.46 91 13:42 25.03.2020
6037 Rain 14 1016 76 0 7.86 91 13:22 25.03.2020
6038 Rain 14 1016 75 0 7.46 91 12:38 25.03.2020
6039 Rain 14 1016 75 0 7.46 91 12:20 25.03.2020
6040 Rain 14 1016 76 0 7.86 91 11:57 25.03.2020
6041 Rain 14 1016 76 0 7.86 91 11:39 25.03.2020
6042 Clouds 14 1016 75 0 8.9 98 11:20 25.03.2020
6043 Clouds 14 1016 75 0 8.9 98 10:57 25.03.2020
6044 Clouds 14 1016 75 0 8.9 98 10:39 25.03.2020
6045 Clouds 14 1016 75 0 8.9 98 10:18 25.03.2020
6046 Clouds 14 1016 75 0 8.9 98 09:43 25.03.2020
6047 Clouds 14 1016 75 0 8.9 98 09:25 25.03.2020
6048 Clouds 14 1016 75 0 8.9 98 08:58 25.03.2020
6049 Clouds 14 1016 75 0 8.9 98 08:58 25.03.2020
6050 Clouds 14 1016 75 0 8.9 98 08:39 25.03.2020
6051 Rain 14 1013 78 0 8.47 98 08:19 25.03.2020
6052 Rain 14 1013 78 0 8.47 98 07:41 25.03.2020
6053 Rain 14 1013 78 0 8.47 98 07:23 25.03.2020
6054 Rain 14 1013 78 0 8.47 98 06:50 25.03.2020
6055 Rain 14 1013 78 0 8.47 98 06:28 25.03.2020
6056 Rain 14 1013 78 0 8.47 98 05:57 25.03.2020
6057 Rain 14 1013 78 0 8.47 98 05:37 25.03.2020
6058 Rain 14 1013 80 0 8.51 105 04:40 25.03.2020
6059 Rain 14 1013 80 0 8.51 105 03:49 25.03.2020
6060 Rain 14 1013 80 0 8.51 105 03:29 25.03.2020
6061 Rain 14 1012 82 0 8.64 104 01:25 25.03.2020
6062 Rain 15 1012 82 0 8.19 110 00:49 25.03.2020
6063 Rain 15 1012 82 0 8.19 110 00:25 25.03.2020
6064 Rain 15 1012 82 0 8.19 110 23:46 24.03.2020
6065 Rain 15 1012 82 0 8.19 110 23:28 24.03.2020
6066 Clouds 14 1011 83 0 5.6 106 22:57 24.03.2020
6067 Clouds 14 1011 83 0 5.6 106 22:38 24.03.2020
6068 Clouds 14 1011 83 0 5.6 106 22:19 24.03.2020
6069 Clouds 14 1011 83 0 5.6 106 21:56 24.03.2020
6070 Clouds 14 1011 83 0 5.6 106 21:38 24.03.2020
6071 Clouds 14 1011 83 0 5.6 106 21:18 24.03.2020
6072 Clouds 14 1011 83 0 5.6 106 20:56 24.03.2020
6073 Clouds 14 1011 83 0 5.6 106 20:38 24.03.2020
6074 Clouds 15 1008 76 0 2.73 54 20:20 24.03.2020
6075 Rain 15 1008 78 0 3.13 70 19:44 24.03.2020
6076 Rain 15 1008 78 0 3.13 70 19:19 24.03.2020
6077 Rain 15 1008 78 0 3.13 70 18:56 24.03.2020
6078 Rain 15 1008 78 0 3.13 70 18:37 24.03.2020
6079 Rain 15 1008 78 0 3.13 70 18:18 24.03.2020
6080 Rain 15 1008 78 0 3.13 70 17:42 24.03.2020
6081 Rain 15 1008 78 0 3.13 70 17:23 24.03.2020
6082 Clouds 14 1008 87 10000 6.2 60 16:58 24.03.2020
6083 Rain 13 1008 93 6000 6.7 50 16:40 24.03.2020
6084 Rain 13 1008 93 6000 6.7 50 16:22 24.03.2020
6085 Clouds 13 1008 87 8000 7.7 50 15:58 24.03.2020
6086 Rain 13 1007 93 6000 7.7 40 15:38 24.03.2020
6087 Rain 13 1007 93 6000 7.7 40 15:20 24.03.2020
6088 Rain 13 1008 93 6000 6.2 50 14:43 24.03.2020
6089 Rain 15 1008 78 0 2.6 347 14:20 24.03.2020
6090 Rain 15 1008 78 0 2.6 347 13:44 24.03.2020
6091 Rain 14 1008 81 0 2.92 324 13:24 24.03.2020
6092 Rain 14 1008 81 0 2.92 324 12:58 24.03.2020
6093 Rain 14 1008 81 0 2.92 324 12:38 24.03.2020
6094 Rain 14 1008 81 0 2.92 324 12:38 24.03.2020
6095 Rain 14 1008 81 0 2.92 324 12:20 24.03.2020
6096 Rain 14 1008 81 0 2.92 324 11:40 24.03.2020
6097 Rain 12 1008 87 8000 2.6 320 11:20 24.03.2020
6098 Rain 12 1008 100 4000 3.1 320 10:54 24.03.2020
6099 Rain 12 1008 87 6000 1.5 310 10:36 24.03.2020
6100 Rain 12 1008 93 4000 4.6 360 10:18 24.03.2020
6101 Clouds 12 1008 87 10000 3.6 270 09:42 24.03.2020
6102 Rain 12 1007 93 6000 5.1 20 09:24 24.03.2020
6103 Rain 12 1007 93 8000 6.2 30 08:40 24.03.2020
6104 Rain 12 1008 87 6000 5.1 30 08:21 24.03.2020
6105 Rain 13 1007 87 5000 8.2 60 07:51 24.03.2020
6106 Rain 13 1007 93 4000 6.2 60 07:25 24.03.2020
6107 Rain 13 1008 93 6000 3.1 260 06:59 24.03.2020
6108 Clouds 13 1006 100 8000 5.7 50 06:33 24.03.2020
6109 Clouds 13 1006 93 7000 7.2 50 05:30 24.03.2020
6110 Clouds 14 1007 82 7000 12.3 70 04:41 24.03.2020
6111 Clouds 14 1006 82 10000 7.2 80 03:19 24.03.2020
6112 Clouds 14 1007 76 10000 9.3 70 01:50 24.03.2020
6113 Clouds 14 1008 76 10000 8.7 70 00:51 24.03.2020
6114 Clouds 14 1008 76 10000 9.3 80 00:26 24.03.2020
6115 Clouds 14 1008 71 10000 9.3 70 23:49 23.03.2020
6116 Clouds 14 1008 71 10000 8.2 70 23:29 23.03.2020
6117 Clouds 14 1008 71 10000 9.3 70 22:58 23.03.2020
6118 Clouds 14 1008 71 10000 8.2 70 22:39 23.03.2020
6119 Clouds 14 1008 71 10000 8.2 70 22:21 23.03.2020
6120 Clouds 14 1008 71 10000 8.7 70 21:44 23.03.2020
6121 Clouds 14 1008 71 10000 8.7 60 21:21 23.03.2020
6122 Clouds 14 1008 76 10000 10.3 70 20:58 23.03.2020
6123 Clouds 14 1008 76 10000 10.3 70 20:40 23.03.2020
6124 Clouds 14 1008 72 10000 9.3 60 20:22 23.03.2020
6125 Clouds 14 1008 72 10000 9.8 60 19:54 23.03.2020
6126 Clouds 14 1008 72 10000 9.8 70 19:36 23.03.2020
6127 Clouds 14 1008 72 10000 9.8 70 19:18 23.03.2020
6128 Clouds 15 1008 67 10000 9.3 60 18:42 23.03.2020
6129 Clouds 15 1008 63 10000 9.8 40 18:23 23.03.2020
6130 Clouds 15 1008 67 10000 10.3 40 17:56 23.03.2020
6131 Clouds 15 1008 67 10000 10.3 40 17:56 23.03.2020
6132 Clouds 15 1008 72 10000 8.7 50 17:38 23.03.2020
6133 Clouds 15 1008 72 10000 8.7 50 17:18 23.03.2020
6134 Clouds 15 1008 67 10000 8.7 60 16:43 23.03.2020
6135 Clouds 15 1008 63 10000 9.8 40 16:25 23.03.2020
6136 Clouds 15 1008 67 10000 9.8 40 15:43 23.03.2020
6137 Clouds 16 1009 63 10000 9.3 50 15:21 23.03.2020
6138 Clouds 15 1011 72 10000 8.7 80 14:57 23.03.2020
6139 Clouds 15 1011 72 10000 8.7 80 14:37 23.03.2020
6140 Clouds 15 1010 67 10000 9.3 40 14:18 23.03.2020
6141 Clouds 16 1010 68 10000 7.7 50 13:41 23.03.2020
6142 Clouds 16 1010 68 10000 7.7 50 13:41 23.03.2020
6143 Clouds 15 1010 67 8000 7.7 50 13:22 23.03.2020
6144 Clouds 15 1011 72 8000 8.2 40 12:55 23.03.2020
6145 Clouds 15 1012 77 10000 7.2 70 12:37 23.03.2020
6146 Clouds 15 1011 72 8000 8.2 50 12:19 23.03.2020
6147 Clouds 15 1012 82 10000 6.2 70 11:42 23.03.2020
6148 Clouds 15 1012 82 10000 6.2 70 11:42 23.03.2020
6149 Clouds 14 1011 77 8000 7.7 50 11:21 23.03.2020
6150 Clouds 14 1011 77 8000 6.7 50 10:58 23.03.2020
6151 Rain 14 1013 87 10000 4.6 50 10:39 23.03.2020
6152 Clouds 13 1011 82 8000 6.2 40 10:21 23.03.2020
6153 Rain 13 1012 93 7000 3.1 40 09:57 23.03.2020
6154 Rain 13 1012 93 7000 3.1 40 09:37 23.03.2020
6155 Clouds 13 1011 87 6000 5.1 50 09:18 23.03.2020
6156 Clouds 12 1011 100 6000 2.6 50 08:37 23.03.2020
6157 Rain 11 1012 87 4000 1.5 40 08:19 23.03.2020
6158 Clouds 11 1011 100 6000 2.1 40 07:48 23.03.2020
6159 Clouds 11 1011 93 6000 2.6 50 07:29 23.03.2020
6160 Clouds 11 1011 87 10000 2.1 20 06:52 23.03.2020
6161 Clouds 11 1011 87 10000 2.1 20 06:20 23.03.2020
6162 Clouds 10 1011 93 10000 0.5 100 05:34 23.03.2020
6163 Clouds 11 1011 93 8000 2.6 50 03:45 23.03.2020
6164 Clouds 12 1012 93 8000 1.5 70 02:37 23.03.2020
6165 Clouds 12 1012 87 8000 1 120 01:34 23.03.2020
6166 Clouds 13 1012 87 8000 1.5 60 00:40 23.03.2020
6167 Clouds 13 1012 82 8000 1.5 80 23:53 22.03.2020
6168 Clouds 13 1012 93 8000 0.5 0 23:27 22.03.2020
6169 Clouds 13 1012 93 8000 1 0 22:56 22.03.2020
6170 Clouds 13 1012 87 10000 1.5 50 22:36 22.03.2020
6171 Clouds 13 1012 87 10000 1.5 50 22:18 22.03.2020
6172 Clouds 14 1012 82 10000 1 60 21:39 22.03.2020
6173 Clouds 14 1012 82 10000 1 60 21:20 22.03.2020
6174 Clouds 14 1012 87 10000 3.1 20 20:56 22.03.2020
6175 Clouds 14 1012 82 10000 2.1 290 20:38 22.03.2020
6176 Clouds 14 1012 82 10000 2.1 290 20:20 22.03.2020
6177 Clouds 15 1011 82 10000 2.6 250 19:55 22.03.2020
6178 Clouds 16 1011 67 10000 2.6 230 19:37 22.03.2020
6179 Clouds 16 1011 67 10000 2.6 230 19:18 22.03.2020
6180 Clouds 16 1011 67 10000 2.6 230 19:18 22.03.2020
6181 Clouds 16 1010 67 10000 1.5 10 18:55 22.03.2020
6182 Clouds 16 1010 67 10000 1.5 10 18:37 22.03.2020
6183 Clouds 16 1011 72 10000 4.1 250 18:18 22.03.2020
6184 Clouds 16 1010 72 10000 4.6 110 17:39 22.03.2020
6185 Clouds 16 1010 67 10000 3.1 240 17:21 22.03.2020
6186 Clouds 15 1010 72 10000 4.1 230 16:59 22.03.2020
6187 Clouds 15 1010 72 10000 4.1 230 16:41 22.03.2020
6188 Clouds 16 1010 67 10000 4.1 230 16:22 22.03.2020
6189 Clouds 16 1010 77 10000 4.1 120 15:58 22.03.2020
6190 Clouds 16 1010 77 10000 3.6 140 15:39 22.03.2020
6191 Clouds 15 1011 82 10000 3.1 110 14:47 22.03.2020
6192 Clouds 16 1011 67 10000 3.1 220 14:19 22.03.2020
6193 Clouds 15 1011 77 10000 4.6 120 13:58 22.03.2020
6194 Clouds 15 1011 67 10000 3.1 220 13:40 22.03.2020
6195 Clouds 15 1011 72 10000 2.6 220 13:19 22.03.2020
6196 Clouds 15 1011 77 10000 2.6 190 12:44 22.03.2020
6197 Clouds 15 1011 77 10000 2.6 190 12:21 22.03.2020
6198 Clouds 14 1011 82 8000 2.6 200 11:57 22.03.2020
6199 Clouds 14 1012 82 10000 2.1 100 11:39 22.03.2020
6200 Clouds 14 1011 82 8000 2.6 180 11:20 22.03.2020
6201 Clouds 13 1011 93 8000 2.6 180 10:43 22.03.2020
6202 Clouds 13 1011 100 8000 2.6 170 10:24 22.03.2020
6203 Rain 12 1011 100 4000 2.6 180 09:49 22.03.2020
6204 Rain 12 1011 100 4000 1 0 09:30 22.03.2020
6205 Rain 12 1010 93 4000 1 0 08:55 22.03.2020
6206 Rain 12 1011 93 10000 0.5 310 08:36 22.03.2020
6207 Rain 12 1010 93 4000 1 190 08:18 22.03.2020
6208 Rain 12 1010 93 4000 1 0 07:49 22.03.2020
6209 Rain 12 1010 100 4000 2.1 280 07:18 22.03.2020
6210 Clouds 12 1010 93 8000 2.1 230 05:55 22.03.2020
6211 Clouds 12 1010 93 8000 2.6 250 04:58 22.03.2020
6212 Rain 12 1010 100 4000 3.1 290 02:43 22.03.2020
6213 Rain 12 1011 93 3500 0.5 0 01:21 22.03.2020
6214 Rain 12 1012 100 4000 2.1 270 00:36 22.03.2020
6215 Rain 13 1012 82 5000 2.1 190 23:58 21.03.2020
6216 Clouds 13 1012 76 5000 2.1 210 23:40 21.03.2020
6217 Clouds 13 1012 76 5000 2.1 210 23:18 21.03.2020
6218 Rain 13 1012 87 5000 2.6 200 22:38 21.03.2020
6219 Rain 13 1012 87 5000 2.6 200 22:38 21.03.2020
6220 Rain 13 1012 87 5000 2.6 200 22:20 21.03.2020
6221 Rain 13 1012 76 10000 2.1 200 21:59 21.03.2020
6222 Clouds 13 1012 93 8000 3.6 160 21:39 21.03.2020
6223 Clouds 13 1012 93 8000 3.6 160 21:39 21.03.2020
6224 Clouds 13 1012 93 8000 3.6 160 21:21 21.03.2020
6225 Clouds 14 1012 87 8000 3.6 200 20:45 21.03.2020
6226 Clouds 14 1012 82 8000 4.6 200 20:23 21.03.2020
6227 Rain 14 1011 82 10000 5.1 240 19:57 21.03.2020
6228 Clouds 14 1012 82 8000 4.6 210 19:39 21.03.2020
6229 Clouds 14 1012 82 8000 4.6 210 19:19 21.03.2020
6230 Clouds 13 1011 82 6000 5.1 210 18:54 21.03.2020
6231 Clouds 13 1012 82 6000 5.1 210 18:36 21.03.2020
6232 Clouds 13 1012 82 6000 5.1 210 18:18 21.03.2020
6233 Clouds 13 1011 76 6000 6.7 220 17:42 21.03.2020
6234 Clouds 13 1011 76 6000 6.7 220 17:23 21.03.2020
6235 Thunderstorm 14 1012 82 5000 6.2 200 16:43 21.03.2020
6236 Thunderstorm 14 1012 87 5000 5.7 210 16:24 21.03.2020
6237 Thunderstorm 14 1012 87 5000 5.7 210 16:24 21.03.2020
6238 Rain 15 1012 87 8000 7.7 220 15:59 21.03.2020
6239 Rain 17 1012 87 5000 4.6 210 15:41 21.03.2020
6240 Rain 17 1012 87 5000 4.6 210 15:23 21.03.2020
6241 Rain 16 1012 59 8000 7.7 240 14:58 21.03.2020
6242 Rain 17 1012 59 10000 7.2 230 14:40 21.03.2020
6243 Clouds 17 1013 55 10000 8.2 210 14:20 21.03.2020
6244 Clouds 17 1013 55 10000 7.7 210 13:58 21.03.2020
6245 Clouds 16 1013 59 10000 5.7 220 13:39 21.03.2020
6246 Clouds 16 1013 63 10000 7.7 200 13:21 21.03.2020
6247 Clouds 17 1014 59 10000 6.7 210 12:57 21.03.2020
6248 Clouds 17 1014 67 10000 5.1 220 12:37 21.03.2020
6249 Clouds 17 1014 67 10000 5.1 200 12:19 21.03.2020
6250 Clouds 16 1014 63 10000 5.7 200 11:55 21.03.2020
6251 Clouds 15 1014 76 10000 4.6 230 11:37 21.03.2020
6252 Clouds 15 1014 72 10000 4.6 210 11:18 21.03.2020
6253 Clouds 15 1014 59 10000 5.7 210 10:56 21.03.2020
6254 Clouds 15 1014 67 10000 3.6 220 10:38 21.03.2020
6255 Clouds 15 1014 67 10000 3.6 220 10:19 21.03.2020
6256 Clouds 15 1014 67 10000 3.6 220 10:19 21.03.2020
6257 Clouds 14 1014 71 10000 2.1 330 09:41 21.03.2020
6258 Clouds 14 1014 67 10000 3.6 230 09:23 21.03.2020
6259 Clouds 14 1014 67 10000 4.1 230 08:59 21.03.2020
6260 Clouds 14 1014 67 10000 4.1 230 08:41 21.03.2020
6261 Clouds 13 1014 71 10000 3.6 220 08:22 21.03.2020
6262 Clouds 13 1014 71 10000 4.6 240 07:42 21.03.2020
6263 Clouds 13 1014 71 10000 4.6 240 07:23 21.03.2020
6264 Clouds 14 1014 62 10000 4.6 230 06:45 21.03.2020
6265 Clouds 13 1014 71 10000 5.7 240 06:26 21.03.2020
6266 Clouds 13 1014 76 10000 5.1 250 05:46 21.03.2020
6267 Clouds 13 1013 71 10000 5.7 250 04:42 21.03.2020
6268 Clouds 14 1014 87 10000 3.1 230 02:40 21.03.2020
6269 Clouds 13 1014 93 10000 2.1 220 02:18 21.03.2020
6270 Clouds 14 1014 82 10000 3.6 250 01:30 21.03.2020
6271 Clouds 14 1015 93 10000 3.1 250 00:47 21.03.2020
6272 Rain 14 1015 93 6000 1.5 300 00:24 21.03.2020
6273 Rain 15 1015 100 4000 7.2 270 23:48 20.03.2020
6274 Rain 15 1015 100 4000 7.2 270 23:24 20.03.2020
6275 Rain 15 1015 100 4000 8.2 240 22:55 20.03.2020
6276 Clouds 15 1014 100 10000 4.1 210 22:36 20.03.2020
6277 Clouds 15 1014 100 10000 4.1 210 22:18 20.03.2020
6278 Rain 15 1014 93 3000 2.1 190 21:54 20.03.2020
6279 Rain 15 1014 87 4000 2.1 170 21:36 20.03.2020
6280 Rain 15 1014 87 4000 2.1 170 21:18 20.03.2020
6281 Thunderstorm 15 1012 87 10000 3.6 90 20:41 20.03.2020
6282 Clouds 15 1013 87 10000 7.2 110 20:41 20.03.2020
6283 Clouds 15 1012 87 10000 4.1 120 20:21 20.03.2020
6284 Clouds 15 1013 87 10000 6.2 110 19:58 20.03.2020
6285 Haze 15 1014 82 10000 6.2 110 19:40 20.03.2020
6286 Rain 15 1012 93 6000 5.7 100 19:18 20.03.2020
6287 Clouds 16 1013 82 10000 6.7 110 18:39 20.03.2020
6288 Clouds 16 1013 82 10000 6.7 110 18:39 20.03.2020
6289 Clouds 16 1011 77 10000 6.7 100 18:20 20.03.2020
6290 Clouds 16 1011 77 10000 7.2 100 17:57 20.03.2020
6291 Clouds 16 1013 82 10000 5.1 120 17:39 20.03.2020
6292 Clouds 16 1011 72 10000 7.2 90 17:21 20.03.2020
6293 Clouds 16 1014 77 10000 5.7 120 16:43 20.03.2020
6294 Clouds 16 1012 72 10000 8.2 100 16:22 20.03.2020
6295 Clouds 17 1012 68 10000 8.7 90 15:59 20.03.2020
6296 Clouds 17 1012 68 10000 8.7 90 15:41 20.03.2020
6297 Clouds 17 1012 68 10000 8.7 100 15:21 20.03.2020
6298 Clouds 17 1012 63 10000 8.2 100 14:43 20.03.2020
6299 Clouds 17 1013 68 10000 8.7 90 14:23 20.03.2020
6300 Clouds 17 1015 82 10000 8.2 100 13:55 20.03.2020
6301 Clouds 16 1015 82 10000 8.2 100 13:37 20.03.2020
6302 Clouds 17 1013 68 10000 9.8 80 13:19 20.03.2020
6303 Clouds 17 1015 77 10000 8.7 100 12:39 20.03.2020
6304 Clouds 17 1013 72 8000 8.7 70 12:20 20.03.2020
6305 Clouds 17 1013 72 8000 8.7 70 12:20 20.03.2020
6306 Clouds 17 1013 72 8000 8.7 90 11:54 20.03.2020
6307 Clouds 17 1015 82 10000 8.2 100 11:36 20.03.2020
6308 Clouds 17 1013 68 8000 8.2 100 11:18 20.03.2020
6309 Clouds 16 1015 77 10000 9.3 100 10:41 20.03.2020
6310 -273 0 0 0 0 0 10:20 20.03.2020
6311 Clouds 16 1013 82 8000 4.6 80 09:47 20.03.2020
6312 Clouds 15 1013 87 8000 6.7 80 09:22 20.03.2020
6313 Rain 15 1014 87 7000 8.2 100 08:59 20.03.2020
6314 Rain 15 1014 87 7000 8.2 100 08:40 20.03.2020
6315 Clouds 15 1012 87 10000 8.2 80 08:20 20.03.2020
6316 Clouds 15 1012 82 10000 6.7 90 07:46 20.03.2020
6317 Clouds 15 1012 82 10000 6.7 90 07:26 20.03.2020
6318 Clouds 15 1012 82 10000 7.2 80 06:49 20.03.2020
6319 Clouds 15 1012 82 10000 8.2 80 06:31 20.03.2020
6320 Clouds 15 1012 82 10000 7.2 100 04:49 20.03.2020
6321 Clouds 15 1012 82 10000 8.2 80 03:19 20.03.2020
6322 Clouds 16 1013 77 10000 8.7 80 01:51 20.03.2020
6323 Clouds 16 1013 77 10000 8.7 90 00:46 20.03.2020
6324 Clouds 16 1013 77 10000 10.3 80 00:25 20.03.2020
6325 Clouds 16 1013 77 10000 10.8 80 23:44 19.03.2020
6326 Clouds 16 1013 77 10000 12.9 90 23:25 19.03.2020
6327 Clouds 16 1013 77 10000 11.3 90 22:56 19.03.2020
6328 Clouds 16 1012 77 10000 11.8 80 22:37 19.03.2020
6329 Clouds 16 1012 77 10000 11.8 80 22:18 19.03.2020
6330 Clouds 16 1012 77 10000 11.8 80 21:41 19.03.2020
6331 Clouds 16 1012 77 8000 12.3 80 21:20 19.03.2020
6332 Clouds 16 1011 77 8000 12.9 80 20:56 19.03.2020
6333 Clouds 16 1011 77 8000 12.9 80 20:56 19.03.2020
6334 Clouds 16 1011 77 8000 11.3 70 20:38 19.03.2020
6335 Clouds 16 1011 77 8000 11.3 70 20:19 19.03.2020
6336 Clouds 16 1011 77 8000 11.8 80 19:55 19.03.2020
6337 Clouds 16 1011 77 8000 14.9 80 19:36 19.03.2020
6338 Clouds 16 1011 77 8000 14.9 80 19:18 19.03.2020
6339 Clouds 17 1011 72 8000 13.4 70 18:42 19.03.2020
6340 Clouds 17 1011 72 8000 13.4 70 18:22 19.03.2020
6341 Clouds 17 1011 72 6000 13.9 80 17:56 19.03.2020
6342 Clouds 17 1011 72 8000 14.4 80 17:38 19.03.2020
6343 Clouds 18 1011 72 8000 14.4 80 17:18 19.03.2020
6344 Clouds 18 1011 68 10000 12.9 70 16:43 19.03.2020
6345 Clouds 18 1011 68 10000 12.9 70 16:22 19.03.2020
6346 Clouds 19 1012 68 10000 11.3 90 15:44 19.03.2020
6347 Clouds 18 1012 72 10000 13.4 100 15:25 19.03.2020
6348 Clouds 19 1012 72 10000 12.3 100 14:55 19.03.2020
6349 Clouds 18 1013 77 10000 11.8 90 14:37 19.03.2020
6350 Clouds 17 1013 77 10000 11.8 90 14:18 19.03.2020
6351 Clouds 17 1013 68 10000 14.4 80 13:39 19.03.2020
6352 Clouds 17 1013 68 10000 14.4 80 13:19 19.03.2020
6353 Clouds 16 1013 72 10000 14.4 90 12:42 19.03.2020
6354 Clouds 16 1014 72 10000 13.9 90 12:24 19.03.2020
6355 Clouds 16 1014 72 8000 12.3 80 11:59 19.03.2020
6356 Haze 16 1018 82 8000 11.3 100 11:41 19.03.2020
6357 Clouds 16 1014 77 8000 12.3 90 11:22 19.03.2020
6358 Clouds 16 1014 72 8000 10.8 90 10:44 19.03.2020
6359 Clouds 16 1014 72 8000 12.3 80 10:22 19.03.2020
6360 Haze 16 1018 77 8000 12.3 100 09:58 19.03.2020
6361 Haze 16 1018 77 8000 11.3 100 09:40 19.03.2020
6362 Clouds 16 1013 77 8000 11.3 90 09:20 19.03.2020
6363 Clouds 16 1013 77 8000 13.9 90 08:47 19.03.2020
6364 Clouds 16 1013 77 8000 12.3 90 08:23 19.03.2020
6365 Clouds 16 1013 77 8000 15.4 90 07:48 19.03.2020
6366 Clouds 16 1013 77 8000 13.4 90 07:30 19.03.2020
6367 Clouds 16 1013 77 8000 13.9 70 06:51 19.03.2020
6368 Clouds 16 1013 77 8000 14.9 80 05:53 19.03.2020
6369 Clouds 16 1013 82 8000 12.9 80 05:22 19.03.2020
6370 Clouds 16 1013 82 8000 11.8 70 04:41 19.03.2020
6371 Clouds 16 1015 82 8000 10.8 80 03:36 19.03.2020
6372 Clouds 16 1017 77 8000 9.8 100 01:27 19.03.2020
6373 Clouds 16 1017 77 8000 11.3 90 00:37 19.03.2020
6374 Clouds 16 1016 77 8000 14.4 90 23:58 18.03.2020
6375 Clouds 16 1016 72 8000 13.4 80 23:36 18.03.2020
6376 Clouds 16 1016 72 8000 13.4 80 23:18 18.03.2020
6377 Clouds 16 1015 72 8000 15.4 90 22:42 18.03.2020
6378 Clouds 16 1015 72 8000 16.5 80 22:22 18.03.2020
6379 Clouds 16 1014 72 8000 15.4 90 21:54 18.03.2020
6380 Clouds 16 1015 72 8000 14.4 80 21:36 18.03.2020
6381 Clouds 16 1015 72 8000 14.4 80 21:18 18.03.2020
6382 Clouds 16 1014 72 8000 15.4 80 20:41 18.03.2020
6383 Clouds 16 1013 72 8000 18.5 80 20:21 18.03.2020
6384 Clouds 16 1019 82 6000 12.3 90 19:59 18.03.2020
6385 Clouds 16 1013 72 8000 17 90 19:40 18.03.2020
6386 Clouds 16 1013 72 8000 18 80 19:21 18.03.2020
6387 Clouds 16 1013 72 8000 18 80 19:21 18.03.2020
6388 Clouds 17 1013 72 8000 18 80 18:55 18.03.2020
6389 Haze 17 1018 77 7000 10.8 110 18:36 18.03.2020
6390 Clouds 17 1013 77 8000 17.5 80 18:18 18.03.2020
6391 Haze 17 1018 77 7000 11.3 100 17:41 18.03.2020
6392 Clouds 18 1013 72 8000 15.9 80 17:22 18.03.2020
6393 Clouds 18 1013 72 8000 18 80 16:59 18.03.2020
6394 Haze 18 1018 77 7000 11.3 100 16:40 18.03.2020
6395 Clouds 18 1013 72 8000 18.5 90 16:20 18.03.2020
6396 Clouds 19 1013 68 8000 17 90 15:45 18.03.2020
6397 Clouds 18 1013 68 8000 15.4 80 15:23 18.03.2020
6398 Clouds 18 1014 68 8000 15.4 70 14:57 18.03.2020
6399 Haze 18 1019 82 8000 12.3 90 14:39 18.03.2020
6400 Clouds 18 1014 72 8000 15.4 70 14:20 18.03.2020
6401 Clouds 18 1014 72 8000 15.4 70 14:20 18.03.2020
6402 Haze 18 1020 82 8000 13.4 80 13:39 18.03.2020
6403 Clouds 18 1015 72 8000 16.5 80 13:19 18.03.2020
6404 Clouds 18 1015 72 8000 16.5 80 13:19 18.03.2020
6405 Haze 18 1020 82 5000 12.3 80 12:42 18.03.2020
6406 Clouds 18 1015 72 8000 15.4 80 12:20 18.03.2020
6407 Drizzle 18 1020 87 5000 12.9 90 11:41 18.03.2020
6408 Clouds 17 1015 72 8000 15.4 80 11:22 18.03.2020
6409 Clouds 17 1015 72 8000 15.9 80 10:59 18.03.2020
6410 Clouds 17 1015 72 8000 15.9 80 10:59 18.03.2020
6411 Clouds 16 1015 72 8000 16.5 80 10:39 18.03.2020
6412 Clouds 16 1015 72 8000 16.5 80 10:21 18.03.2020
6413 Drizzle 16 1019 93 4000 14.4 90 09:59 18.03.2020
6414 Drizzle 16 1019 87 4000 15.4 90 09:39 18.03.2020
6415 Clouds 16 1014 77 6000 15.4 80 09:21 18.03.2020
6416 Clouds 16 1014 77 6000 14.4 80 08:40 18.03.2020
6417 Clouds 16 1014 77 6000 14.4 80 08:21 18.03.2020
6418 Clouds 16 1014 77 6000 12.9 80 07:49 18.03.2020
6419 Clouds 16 1014 77 6000 12.9 80 07:31 18.03.2020
6420 Clouds 16 1013 77 6000 12.3 80 06:54 18.03.2020
6421 Clouds 16 1013 77 6000 12.3 80 06:35 18.03.2020
6422 Rain 16 1017 87 4700 16.5 90 05:37 18.03.2020
6423 Clouds 16 1013 77 6000 11.3 90 04:29 18.03.2020
6424 Clouds 16 1014 77 6000 8.2 90 03:21 18.03.2020
6425 Rain 16 1015 82 6000 5.7 90 02:32 18.03.2020
6426 Clouds 15 1015 82 6000 8.2 80 01:31 18.03.2020
6427 Thunderstorm 15 1016 87 6000 3.6 110 00:42 18.03.2020
6428 Thunderstorm 15 1016 87 6000 3.6 110 00:42 18.03.2020
6429 Thunderstorm 15 1016 87 6000 3.6 110 00:21 18.03.2020
6430 Thunderstorm 15 1017 87 6000 10.3 80 23:40 17.03.2020
6431 Thunderstorm 15 1017 87 6000 10.3 80 23:19 17.03.2020
6432 Thunderstorm 15 1017 82 8000 6.2 90 22:42 17.03.2020
6433 Thunderstorm 15 1017 82 8000 6.2 90 22:24 17.03.2020
6434 Rain 16 1017 77 10000 9.3 100 21:43 17.03.2020
6435 Clouds 16 1015 67 10000 9.8 70 21:23 17.03.2020
6436 Rain 16 1017 72 10000 10.3 100 20:56 17.03.2020
6437 Rain 16 1017 72 10000 10.3 100 20:37 17.03.2020
6438 Clouds 16 1015 63 10000 9.3 80 20:19 17.03.2020
6439 Clouds 16 1015 63 10000 9.3 80 19:41 17.03.2020
6440 Clouds 16 1015 63 10000 10.3 80 19:18 17.03.2020
6441 Clouds 16 1015 63 10000 10.3 80 18:56 17.03.2020
6442 Clouds 16 1017 77 10000 10.8 90 18:38 17.03.2020
6443 Clouds 16 1015 55 10000 8.7 80 18:20 17.03.2020
6444 Rain 17 1017 77 10000 11.3 100 17:41 17.03.2020
6445 Clouds 17 1015 52 10000 9.8 80 17:23 17.03.2020
6446 Clouds 17 1015 48 10000 9.8 90 16:57 17.03.2020
6447 Rain 17 1017 67 10000 11.3 90 16:39 17.03.2020
6448 Clouds 17 1015 45 10000 8.2 90 16:18 17.03.2020
6449 Clouds 18 1015 39 10000 8.2 80 15:44 17.03.2020
6450 Clouds 18 1016 45 8000 8.2 90 15:22 17.03.2020
6451 Clouds 17 1017 67 10000 10.3 80 14:44 17.03.2020
6452 Clouds 17 1016 51 8000 7.7 80 14:24 17.03.2020
6453 Clouds 16 1017 41 8000 5.1 80 13:56 17.03.2020
6454 Clouds 16 1017 41 8000 6.2 90 13:38 17.03.2020
6455 Clouds 16 1017 41 8000 6.2 90 13:20 17.03.2020
6456 Clouds 16 1018 44 8000 2.6 120 12:42 17.03.2020
6457 Clouds 15 1018 54 8000 2.6 100 12:22 17.03.2020
6458 Clouds 14 1019 71 10000 7.2 80 11:47 17.03.2020
6459 Clouds 14 1018 58 6000 3.6 130 11:29 17.03.2020
6460 Clouds 14 1018 62 6000 3.6 130 10:58 17.03.2020
6461 Clouds 14 1019 71 10000 3.6 50 10:38 17.03.2020
6462 Clouds 14 1017 66 6000 3.1 140 10:20 17.03.2020
6463 Clouds 13 1018 81 10000 2.6 40 09:59 17.03.2020
6464 Clouds 13 1018 81 10000 2.6 40 09:59 17.03.2020
6465 Clouds 13 1018 81 10000 3.6 30 09:39 17.03.2020
6466 Rain 13 1017 66 6000 5.1 140 09:19 17.03.2020
6467 Clouds 12 1018 66 10000 1 200 08:47 17.03.2020
6468 Clouds 11 1017 81 6000 2.6 130 08:22 17.03.2020
6469 Rain 11 1017 76 6000 3.1 150 07:50 17.03.2020
6470 Rain 11 1016 87 6000 2.1 130 07:26 17.03.2020
6471 Rain 10 1016 81 4000 1.5 140 06:58 17.03.2020
6472 Rain 10 1016 81 4000 2.6 160 06:33 17.03.2020
6473 Rain 10 1016 81 4000 3.6 170 05:49 17.03.2020
6474 Clouds 12 1016 66 10000 5.1 160 03:43 17.03.2020
6475 Clouds 12 1016 66 10000 5.7 150 02:46 17.03.2020
6476 Clouds 13 1017 76 10000 4.6 140 01:43 17.03.2020
6477 Rain 13 1017 62 3500 5.1 250 01:24 17.03.2020
6478 Clear 14 1017 50 10000 2.6 320 00:31 17.03.2020
6479 Clouds 15 1017 58 10000 4.6 240 23:45 16.03.2020
6480 Clouds 15 1017 58 10000 5.7 240 23:25 16.03.2020
6481 Clouds 14 1017 62 10000 4.1 250 22:40 16.03.2020
6482 Clouds 14 1017 62 10000 4.1 250 22:22 16.03.2020
6483 Clouds 15 1017 54 10000 5.1 250 21:57 16.03.2020
6484 Clouds 15 1017 54 10000 5.1 250 21:57 16.03.2020
6485 Clouds 15 1017 58 10000 6.2 250 21:38 16.03.2020
6486 Clouds 15 1017 58 10000 6.2 250 21:20 16.03.2020
6487 Clouds 15 1017 58 10000 5.7 250 20:55 16.03.2020
6488 Clouds 15 1017 58 10000 6.2 260 20:37 16.03.2020
6489 Clouds 15 1017 58 10000 6.2 260 20:18 16.03.2020
6490 Clouds 15 1017 58 10000 6.2 260 20:18 16.03.2020
6491 Clouds 15 1016 54 10000 6.7 260 19:40 16.03.2020
6492 Clouds 15 1016 54 10000 7.2 260 19:20 16.03.2020
6493 Clouds 15 1016 51 10000 7.7 260 18:41 16.03.2020
6494 Clouds 15 1016 51 10000 7.7 260 18:20 16.03.2020
6495 Clouds 16 1017 48 10000 7.2 260 17:47 16.03.2020
6496 Clouds 16 1017 44 10000 7.2 280 17:26 16.03.2020
6497 Clouds 16 1017 44 10000 8.7 280 16:59 16.03.2020
6498 Clouds 16 1015 48 10000 8.2 280 16:41 16.03.2020
6499 Clouds 16 1017 44 10000 8.7 280 16:22 16.03.2020
6500 Clouds 16 1017 48 10000 8.7 280 15:44 16.03.2020
6501 Clouds 16 1017 48 10000 8.7 280 15:25 16.03.2020
6502 Clouds 16 1017 51 10000 8.7 280 14:49 16.03.2020
6503 Clouds 16 1018 51 10000 9.3 290 14:25 16.03.2020
6504 Clouds 16 1018 47 10000 7.7 300 13:55 16.03.2020
6505 Clouds 16 1015 44 10000 7.2 270 13:37 16.03.2020
6506 Clouds 16 1018 47 10000 8.7 300 13:18 16.03.2020
6507 Clouds 15 1018 51 10000 7.7 300 12:42 16.03.2020
6508 Clouds 15 1018 51 10000 7.7 290 12:23 16.03.2020
6509 Clouds 14 1018 58 10000 6.7 300 11:45 16.03.2020
6510 Clouds 13 1018 58 10000 6.7 310 11:26 16.03.2020
6511 Clouds 13 1018 54 10000 7.2 320 10:47 16.03.2020
6512 Clouds 13 1018 54 10000 8.2 320 10:25 16.03.2020
6513 Clouds 13 1015 58 10000 8.7 280 09:59 16.03.2020
6514 Clouds 13 1015 54 10000 7.2 270 09:40 16.03.2020
6515 Clouds 13 1017 47 10000 6.7 320 09:20 16.03.2020
6516 Clouds 13 1017 47 10000 6.2 320 08:43 16.03.2020
6517 Clouds 13 1016 58 10000 5.1 320 08:23 16.03.2020
6518 Clouds 14 1016 58 10000 6.2 310 07:44 16.03.2020
6519 Clouds 14 1015 58 10000 6.2 310 07:21 16.03.2020
6520 Clouds 14 1015 62 10000 5.7 310 06:46 16.03.2020
6521 Clouds 14 1014 62 10000 6.2 310 06:22 16.03.2020
6522 Clouds 16 1014 77 10000 7.7 310 04:26 16.03.2020
6523 Clouds 16 1015 77 10000 4.1 200 01:47 16.03.2020
6524 Clouds 16 1015 77 10000 3.1 200 00:46 16.03.2020
6525 Clouds 16 1015 77 10000 2.6 190 00:27 16.03.2020
6526 Clouds 16 1015 77 10000 2.1 200 23:40 15.03.2020
6527 Clouds 16 1015 77 10000 2.1 200 23:19 15.03.2020
6528 Clouds 16 1015 77 10000 2.1 190 22:42 15.03.2020
6529 Clouds 16 1015 82 10000 2.6 210 22:21 15.03.2020
6530 Clouds 16 1015 87 10000 1 60 21:39 15.03.2020
6531 Clouds 16 1014 87 10000 1.5 190 21:21 15.03.2020
6532 Clouds 16 1014 87 8000 1.5 190 20:58 15.03.2020
6533 Clouds 16 1014 87 8000 1.5 190 20:40 15.03.2020
6534 Clouds 16 1014 87 8000 1.5 210 20:19 15.03.2020
6535 Clouds 16 1014 87 8000 2.1 220 19:55 15.03.2020
6536 Clouds 16 1014 87 10000 3.6 120 19:37 15.03.2020
6537 Clouds 17 1013 88 10000 2.6 250 19:18 15.03.2020
6538 Clouds 17 1013 77 10000 2.1 260 18:42 15.03.2020
6539 Clouds 18 1013 77 10000 2.1 260 18:24 15.03.2020
6540 Clouds 19 1015 82 10000 4.6 70 17:59 15.03.2020
6541 Clouds 19 1015 82 10000 4.6 70 17:39 15.03.2020
6542 Clouds 19 1014 77 10000 3.1 250 17:20 15.03.2020
6543 Clouds 19 1014 77 10000 3.1 260 16:55 15.03.2020
6544 Clouds 19 1015 77 10000 4.6 70 16:36 15.03.2020
6545 Clouds 18 1014 77 10000 4.1 260 16:18 15.03.2020
6546 Clouds 19 1014 77 10000 4.1 260 15:41 15.03.2020
6547 Clouds 19 1014 77 10000 3.6 250 15:20 15.03.2020
6548 Clouds 19 1014 77 10000 3.6 250 14:47 15.03.2020
6549 Clouds 19 1016 77 10000 5.1 80 14:26 15.03.2020
6550 Clouds 19 1017 77 10000 5.1 80 13:59 15.03.2020
6551 Clouds 18 1017 77 10000 5.1 80 13:39 15.03.2020
6552 Clouds 18 1016 82 8000 3.1 270 13:21 15.03.2020
6553 Clouds 19 1016 77 10000 2.6 240 12:44 15.03.2020
6554 Clouds 19 1016 68 10000 2.1 100 12:26 15.03.2020
6555 Clouds 19 1018 77 10000 6.2 80 11:59 15.03.2020
6556 Clouds 18 1018 77 10000 6.2 80 11:40 15.03.2020
6557 Rain 17 1016 68 10000 3.1 110 11:22 15.03.2020
6558 Rain 17 1016 72 10000 4.6 100 10:56 15.03.2020
6559 Clouds 17 1018 87 10000 5.1 70 10:37 15.03.2020
6560 Clouds 17 1016 77 10000 2.1 110 10:19 15.03.2020
6561 Clouds 16 1017 87 10000 5.7 90 09:40 15.03.2020
6562 Clouds 15 1015 100 6000 0.5 0 09:22 15.03.2020
6563 Clouds 15 1015 100 6000 1.5 80 08:44 15.03.2020
6564 Clouds 15 1015 100 5000 1.5 30 08:21 15.03.2020
6565 Mist 14 1015 100 4000 1 0 07:51 15.03.2020
6566 Clouds 15 1015 93 5000 1 0 07:31 15.03.2020
6567 Rain 15 1015 93 8000 1.5 110 06:53 15.03.2020
6568 Rain 16 1015 87 10000 2.1 110 05:50 15.03.2020
6569 Rain 16 1015 82 10000 1.5 120 05:18 15.03.2020
6570 Rain 16 1015 82 10000 2.1 110 04:43 15.03.2020
6571 Rain 16 1015 87 10000 4.1 80 04:24 15.03.2020
6572 Rain 16 1015 82 10000 3.1 100 03:48 15.03.2020
6573 Rain 16 1016 87 10000 3.6 90 02:38 15.03.2020
6574 Clouds 16 1016 82 10000 2.6 100 01:34 15.03.2020
6575 Clouds 16 1016 77 10000 3.1 120 00:46 15.03.2020
6576 Clouds 16 1016 77 10000 3.6 90 00:24 15.03.2020
6577 Clouds 16 1016 77 10000 2.6 90 23:55 14.03.2020
6578 Clouds 16 1016 77 10000 2.6 90 23:36 14.03.2020
6579 Clouds 16 1016 77 10000 2.6 90 23:18 14.03.2020
6580 Clouds 16 1016 72 10000 3.6 100 22:41 14.03.2020
6581 Clouds 16 1016 72 10000 3.6 100 22:23 14.03.2020
6582 Clouds 16 1016 72 10000 4.6 80 21:56 14.03.2020
6583 Clouds 16 1015 67 10000 4.6 70 21:36 14.03.2020
6584 Clouds 16 1015 67 10000 4.6 70 21:36 14.03.2020
6585 Clouds 16 1015 67 10000 4.6 70 21:18 14.03.2020
6586 Clouds 16 1018 87 10000 4.6 60 20:58 14.03.2020
6587 Clouds 16 1018 87 10000 4.6 60 20:58 14.03.2020
6588 Clouds 16 1015 72 10000 4.1 50 20:39 14.03.2020
6589 Clouds 16 1015 72 10000 4.1 50 20:19 14.03.2020
6590 Clouds 17 1015 68 10000 4.6 50 19:42 14.03.2020
6591 Clouds 17 1015 68 10000 4.6 50 19:42 14.03.2020
6592 Clouds 18 1015 68 10000 4.6 40 19:24 14.03.2020
6593 Clouds 18 1018 77 10000 4.1 110 18:41 14.03.2020
6594 Clouds 18 1016 68 10000 7.2 30 18:22 14.03.2020
6595 Clouds 19 1016 68 10000 7.7 40 17:56 14.03.2020
6596 Clouds 19 1018 77 10000 4.1 80 17:37 14.03.2020
6597 Clouds 19 1016 64 10000 8.2 30 17:19 14.03.2020
6598 Clouds 19 1018 82 10000 4.6 80 16:40 14.03.2020
6599 Clouds 19 1016 64 10000 8.7 30 16:22 14.03.2020
6600 Clouds 19 1018 77 10000 4.1 70 15:54 14.03.2020
6601 Clouds 19 1017 68 10000 6.2 30 15:26 14.03.2020
6602 Clouds 20 1017 64 10000 5.1 30 14:47 14.03.2020
6603 Clouds 20 1018 64 10000 3.6 50 14:24 14.03.2020
6604 Clouds 20 1018 68 6000 2.6 30 13:58 14.03.2020
6605 Clouds 19 1020 82 10000 4.1 70 13:39 14.03.2020
6606 -273 0 0 0 0 0 13:21 14.03.2020
6607 Clouds 19 1019 77 6000 2.6 280 12:47 14.03.2020
6608 Clouds 19 1019 72 6000 1 0 12:27 14.03.2020
6609 Clouds 18 1020 72 6000 1.5 0 11:57 14.03.2020
6610 Clouds 18 1020 82 10000 3.6 70 11:38 14.03.2020
6611 Clouds 17 1020 72 10000 2.1 130 11:20 14.03.2020
6612 Clouds 17 1020 82 10000 3.1 50 10:44 14.03.2020
6613 Clouds 17 1020 77 10000 2.1 130 10:25 14.03.2020
6614 Clouds 16 1019 82 6000 2.1 120 09:57 14.03.2020
6615 Haze 15 1020 82 8000 3.1 40 09:39 14.03.2020
6616 Clouds 15 1019 87 6000 2.1 100 09:19 14.03.2020
6617 Clouds 15 1019 93 5000 0.5 0 08:42 14.03.2020
6618 Clouds 15 1019 87 5000 1 0 08:21 14.03.2020
6619 Clouds 15 1019 87 6000 1.5 110 07:39 14.03.2020
6620 Clouds 15 1019 87 6000 1.5 110 07:20 14.03.2020
6621 Clouds 14 1018 87 6000 2.1 110 06:41 14.03.2020
6622 Clouds 14 1018 100 6000 2.1 80 05:47 14.03.2020
6623 Clouds 14 1018 93 6000 2.1 100 05:47 14.03.2020
6624 Clouds 14 1018 100 6000 1.5 70 04:42 14.03.2020
6625 Clouds 15 1019 100 6000 1.5 70 03:24 14.03.2020
6626 Clouds 14 1019 100 6000 1.5 100 02:25 14.03.2020
6627 Clouds 14 1019 100 6000 1 60 00:57 14.03.2020
6628 Clouds 14 1019 100 6000 0.5 0 23:51 13.03.2020
6629 Clouds 15 1019 87 6000 1 70 23:30 13.03.2020
6630 Clouds 15 1018 93 6000 1.5 70 22:52 13.03.2020
6631 Clouds 15 1018 93 6000 1.5 70 22:52 13.03.2020
6632 Clouds 15 1018 87 8000 1.5 60 22:26 13.03.2020
6633 Clouds 16 1018 93 8000 1 60 21:44 13.03.2020
6634 Clouds 16 1018 87 8000 1 0 21:22 13.03.2020
6635 Clouds 16 1018 87 10000 0.5 0 20:59 13.03.2020
6636 Clouds 16 1018 87 10000 0.5 0 20:41 13.03.2020
6637 Clouds 17 1018 82 10000 1.5 240 20:21 13.03.2020
6638 Clouds 17 1017 82 10000 1.5 250 19:48 13.03.2020
6639 Clouds 18 1017 82 10000 2.6 270 19:30 13.03.2020
6640 Clouds 18 1017 82 10000 3.1 260 18:49 13.03.2020
6641 Clouds 19 1017 72 10000 4.1 260 18:31 13.03.2020
6642 Clouds 20 1017 72 10000 4.6 270 17:57 13.03.2020
6643 Clouds 20 1016 60 10000 5.7 280 17:39 13.03.2020
6644 Clouds 21 1017 72 10000 4.1 270 17:20 13.03.2020
6645 Clouds 21 1018 72 10000 4.1 250 16:42 13.03.2020
6646 Clouds 21 1018 68 10000 4.6 250 16:24 13.03.2020
6647 Clouds 20 1018 68 10000 5.1 240 15:58 13.03.2020
6648 Clouds 20 1016 68 10000 6.7 280 15:38 13.03.2020
6649 Clouds 20 1018 77 6000 5.1 240 15:20 13.03.2020
6650 Clouds 20 1018 72 6000 4.6 240 14:43 13.03.2020
6651 Clouds 20 1019 77 6000 4.6 240 14:22 13.03.2020
6652 Clouds 19 1019 72 6000 4.1 230 13:57 13.03.2020
6653 Clouds 19 1017 68 10000 7.2 280 13:39 13.03.2020
6654 Clouds 20 1019 72 6000 4.1 240 13:19 13.03.2020
6655 Clouds 19 1019 72 6000 3.1 220 12:54 13.03.2020
6656 Clouds 19 1017 68 10000 7.2 290 12:36 13.03.2020
6657 Clouds 19 1019 72 6000 3.6 230 12:18 13.03.2020
6658 Clouds 19 1018 72 10000 6.7 280 11:42 13.03.2020
6659 Clouds 19 1019 77 8000 3.1 210 11:24 13.03.2020
6660 Clouds 18 1018 72 10000 7.2 290 10:48 13.03.2020
6661 Clouds 18 1019 87 8000 2.1 190 10:28 13.03.2020
6662 Clouds 16 1017 77 10000 7.2 280 09:59 13.03.2020
6663 Clouds 16 1017 77 10000 7.2 280 09:41 13.03.2020
6664 Clouds 16 1019 87 8000 1.5 170 09:22 13.03.2020
6665 Clouds 14 1017 82 10000 6.7 280 08:45 13.03.2020
6666 Mist 14 1018 100 2500 1.5 180 08:23 13.03.2020
6667 Mist 14 1018 93 2500 1.5 170 07:50 13.03.2020
6668 Mist 13 1018 100 3000 2.1 180 07:28 13.03.2020
6669 Mist 15 1018 93 3000 1.5 180 06:53 13.03.2020
6670 Mist 15 1018 93 3500 1.5 190 06:32 13.03.2020
6671 Mist 15 1017 100 2500 1.5 180 05:55 13.03.2020
6672 Clouds 15 1017 100 6000 1 0 05:24 13.03.2020
6673 Mist 16 1018 100 2500 1.5 180 04:38 13.03.2020
6674 Mist 16 1018 100 2500 2.1 180 03:42 13.03.2020
6675 Mist 15 1019 100 3000 1 0 01:47 13.03.2020
6676 Mist 15 1019 100 2500 1 0 01:19 13.03.2020
6677 Mist 15 1019 100 4000 1.5 190 00:53 13.03.2020
6678 Clouds 15 1